<?xml version="1.0" encoding="UTF-8" standalone="no" ?>
<gpx xmlns="http://www.topografix.com/GPX/1/1" xmlns:xsi="http://www.w3.org/2001/XMLSchema-instance" xsi:schemaLocation="http://www.topografix.com/GPX/1/1 http://www.topografix.com/GPX/1/1/gpx.xsd" version="1.1" creator="VisuGPX - https://www.visugpx.com">
  <metadata>
    <name>Lachens Mer 2011</name>
    <desc><![CDATA[http://www.as-cs.fr/index.php?option=com_content&view=article&id=57&Itemid=107]]></desc>
  </metadata>
  <trk>
    <name><![CDATA[Rando VTT Lachens Mer 100km]]></name>
    <cmt><![CDATA[Avec Olivier, Gérald et Julien au départ
Gérald a abandonné à Seillan
Julien a abandonné à Roquebrune
Olivier est arrivé 10min après moi]]></cmt>
    <trkseg>
      <trkpt lat="43.74775" lon="6.65595">
        <ele>1634.0346679688</ele>
        <time>2011-06-02T07:01:45Z</time>
      </trkpt>
      <trkpt lat="43.74775" lon="6.65596">
        <ele>1634.1032714844</ele>
        <time>2011-06-02T07:01:46Z</time>
      </trkpt>
      <trkpt lat="43.74768" lon="6.65603">
        <ele>1634.8837890625</ele>
        <time>2011-06-02T07:01:52Z</time>
      </trkpt>
      <trkpt lat="43.74755" lon="6.65617">
        <ele>1636.3165283203</ele>
        <time>2011-06-02T07:01:58Z</time>
      </trkpt>
      <trkpt lat="43.74743" lon="6.65628">
        <ele>1637.3986816406</ele>
        <time>2011-06-02T07:02:04Z</time>
      </trkpt>
      <trkpt lat="43.74734" lon="6.65636">
        <ele>1638.0355224609</ele>
        <time>2011-06-02T07:02:09Z</time>
      </trkpt>
      <trkpt lat="43.74731" lon="6.6564">
        <ele>1638.3288574219</ele>
        <time>2011-06-02T07:02:11Z</time>
      </trkpt>
      <trkpt lat="43.74715" lon="6.6565">
        <ele>1639.220703125</ele>
        <time>2011-06-02T07:02:16Z</time>
      </trkpt>
      <trkpt lat="43.74697" lon="6.65663">
        <ele>1640.1744384766</ele>
        <time>2011-06-02T07:02:21Z</time>
      </trkpt>
      <trkpt lat="43.7468" lon="6.65663">
        <ele>1640.5902099609</ele>
        <time>2011-06-02T07:02:26Z</time>
      </trkpt>
      <trkpt lat="43.7467" lon="6.65664">
        <ele>1640.8470458984</ele>
        <time>2011-06-02T07:02:29Z</time>
      </trkpt>
      <trkpt lat="43.74665" lon="6.65666">
        <ele>1640.9293212891</ele>
        <time>2011-06-02T07:02:31Z</time>
      </trkpt>
      <trkpt lat="43.74659" lon="6.65667">
        <ele>1640.8824462891</ele>
        <time>2011-06-02T07:02:33Z</time>
      </trkpt>
      <trkpt lat="43.74656" lon="6.65667">
        <ele>1640.8785400391</ele>
        <time>2011-06-02T07:02:34Z</time>
      </trkpt>
      <trkpt lat="43.7464" lon="6.65671">
        <ele>1640.9298095703</ele>
        <time>2011-06-02T07:02:40Z</time>
      </trkpt>
      <trkpt lat="43.74618" lon="6.65678">
        <ele>1641.0919189453</ele>
        <time>2011-06-02T07:02:49Z</time>
      </trkpt>
      <trkpt lat="43.74606" lon="6.65681">
        <ele>1640.8321533203</ele>
        <time>2011-06-02T07:02:54Z</time>
      </trkpt>
      <trkpt lat="43.74588" lon="6.65682">
        <ele>1640.1776123047</ele>
        <time>2011-06-02T07:03:02Z</time>
      </trkpt>
      <trkpt lat="43.74579" lon="6.65684">
        <ele>1639.8127441406</ele>
        <time>2011-06-02T07:03:06Z</time>
      </trkpt>
      <trkpt lat="43.74575" lon="6.65685">
        <ele>1639.5786132812</ele>
        <time>2011-06-02T07:03:08Z</time>
      </trkpt>
      <trkpt lat="43.74571" lon="6.65687">
        <ele>1639.3963623047</ele>
        <time>2011-06-02T07:03:10Z</time>
      </trkpt>
      <trkpt lat="43.74564" lon="6.65688">
        <ele>1639.0007324219</ele>
        <time>2011-06-02T07:03:14Z</time>
      </trkpt>
      <trkpt lat="43.74562" lon="6.65689">
        <ele>1638.9237060547</ele>
        <time>2011-06-02T07:03:15Z</time>
      </trkpt>
      <trkpt lat="43.74561" lon="6.6569">
        <ele>1638.8723144531</ele>
        <time>2011-06-02T07:03:16Z</time>
      </trkpt>
      <trkpt lat="43.74559" lon="6.65692">
        <ele>1638.7277832031</ele>
        <time>2011-06-02T07:03:18Z</time>
      </trkpt>
      <trkpt lat="43.74557" lon="6.65692">
        <ele>1638.626953125</ele>
        <time>2011-06-02T07:03:19Z</time>
      </trkpt>
      <trkpt lat="43.74555" lon="6.65692">
        <ele>1638.4554443359</ele>
        <time>2011-06-02T07:03:20Z</time>
      </trkpt>
      <trkpt lat="43.74553" lon="6.65692">
        <ele>1638.3231201172</ele>
        <time>2011-06-02T07:03:21Z</time>
      </trkpt>
      <trkpt lat="43.74537" lon="6.65695">
        <ele>1637.1040039062</ele>
        <time>2011-06-02T07:03:29Z</time>
      </trkpt>
      <trkpt lat="43.74522" lon="6.65694">
        <ele>1636.0314941406</ele>
        <time>2011-06-02T07:03:36Z</time>
      </trkpt>
      <trkpt lat="43.7452" lon="6.65694">
        <ele>1635.8619384766</ele>
        <time>2011-06-02T07:03:37Z</time>
      </trkpt>
      <trkpt lat="43.74503" lon="6.65684">
        <ele>1635.1324462891</ele>
        <time>2011-06-02T07:03:44Z</time>
      </trkpt>
      <trkpt lat="43.74501" lon="6.65683">
        <ele>1635.0712890625</ele>
        <time>2011-06-02T07:03:45Z</time>
      </trkpt>
      <trkpt lat="43.74489" lon="6.65685">
        <ele>1631.5093994141</ele>
        <time>2011-06-02T07:03:50Z</time>
      </trkpt>
      <trkpt lat="43.74469" lon="6.65689">
        <ele>1624.6437988281</ele>
        <time>2011-06-02T07:03:56Z</time>
      </trkpt>
      <trkpt lat="43.74454" lon="6.65678">
        <ele>1621.7543945312</ele>
        <time>2011-06-02T07:04:00Z</time>
      </trkpt>
      <trkpt lat="43.74444" lon="6.65664">
        <ele>1621.0710449219</ele>
        <time>2011-06-02T07:04:03Z</time>
      </trkpt>
      <trkpt lat="43.74428" lon="6.65639">
        <ele>1622.0782470703</ele>
        <time>2011-06-02T07:04:07Z</time>
      </trkpt>
      <trkpt lat="43.74423" lon="6.65631">
        <ele>1622.6459960938</ele>
        <time>2011-06-02T07:04:08Z</time>
      </trkpt>
      <trkpt lat="43.74399" lon="6.65592">
        <ele>1621.9237060547</ele>
        <time>2011-06-02T07:04:13Z</time>
      </trkpt>
      <trkpt lat="43.74393" lon="6.65583">
        <ele>1621.4958496094</ele>
        <time>2011-06-02T07:04:14Z</time>
      </trkpt>
      <trkpt lat="43.74383" lon="6.6555">
        <ele>1620.2397460938</ele>
        <time>2011-06-02T07:04:17Z</time>
      </trkpt>
      <trkpt lat="43.74359" lon="6.65484">
        <ele>1615.3586425781</ele>
        <time>2011-06-02T07:04:23Z</time>
      </trkpt>
      <trkpt lat="43.74349" lon="6.6542">
        <ele>1615.4123535156</ele>
        <time>2011-06-02T07:04:28Z</time>
      </trkpt>
      <trkpt lat="43.7434" lon="6.6535">
        <ele>1616.4814453125</ele>
        <time>2011-06-02T07:04:34Z</time>
      </trkpt>
      <trkpt lat="43.74339" lon="6.65343">
        <ele>1616.4113769531</ele>
        <time>2011-06-02T07:04:35Z</time>
      </trkpt>
      <trkpt lat="43.74326" lon="6.65329">
        <ele>1612.1092529297</ele>
        <time>2011-06-02T07:04:39Z</time>
      </trkpt>
      <trkpt lat="43.74321" lon="6.65339">
        <ele>1608.03125</ele>
        <time>2011-06-02T07:04:42Z</time>
      </trkpt>
      <trkpt lat="43.74321" lon="6.65343">
        <ele>1607.5135498047</ele>
        <time>2011-06-02T07:04:43Z</time>
      </trkpt>
      <trkpt lat="43.74322" lon="6.65373">
        <ele>1604.2993164062</ele>
        <time>2011-06-02T07:04:48Z</time>
      </trkpt>
      <trkpt lat="43.74319" lon="6.65421">
        <ele>1597.181640625</ele>
        <time>2011-06-02T07:04:53Z</time>
      </trkpt>
      <trkpt lat="43.74318" lon="6.65494">
        <ele>1590.2436523438</ele>
        <time>2011-06-02T07:05:00Z</time>
      </trkpt>
      <trkpt lat="43.74319" lon="6.65561">
        <ele>1585.7620849609</ele>
        <time>2011-06-02T07:05:06Z</time>
      </trkpt>
      <trkpt lat="43.74319" lon="6.65573">
        <ele>1585.1481933594</ele>
        <time>2011-06-02T07:05:07Z</time>
      </trkpt>
      <trkpt lat="43.74331" lon="6.65634">
        <ele>1582.4517822266</ele>
        <time>2011-06-02T07:05:12Z</time>
      </trkpt>
      <trkpt lat="43.74352" lon="6.65724">
        <ele>1574.2028808594</ele>
        <time>2011-06-02T07:05:19Z</time>
      </trkpt>
      <trkpt lat="43.74363" lon="6.65787">
        <ele>1565.7863769531</ele>
        <time>2011-06-02T07:05:24Z</time>
      </trkpt>
      <trkpt lat="43.74363" lon="6.65838">
        <ele>1555.8833007812</ele>
        <time>2011-06-02T07:05:28Z</time>
      </trkpt>
      <trkpt lat="43.74353" lon="6.65905">
        <ele>1540.5192871094</ele>
        <time>2011-06-02T07:05:33Z</time>
      </trkpt>
      <trkpt lat="43.74343" lon="6.65973">
        <ele>1527.3952636719</ele>
        <time>2011-06-02T07:05:38Z</time>
      </trkpt>
      <trkpt lat="43.74344" lon="6.66022">
        <ele>1523.4044189453</ele>
        <time>2011-06-02T07:05:42Z</time>
      </trkpt>
      <trkpt lat="43.74343" lon="6.66072">
        <ele>1519.001953125</ele>
        <time>2011-06-02T07:05:46Z</time>
      </trkpt>
      <trkpt lat="43.74344" lon="6.66085">
        <ele>1518.1868896484</ele>
        <time>2011-06-02T07:05:47Z</time>
      </trkpt>
      <trkpt lat="43.74353" lon="6.66135">
        <ele>1520.1733398438</ele>
        <time>2011-06-02T07:05:51Z</time>
      </trkpt>
      <trkpt lat="43.7438" lon="6.66221">
        <ele>1526.994140625</ele>
        <time>2011-06-02T07:05:58Z</time>
      </trkpt>
      <trkpt lat="43.74398" lon="6.663">
        <ele>1521.7901611328</ele>
        <time>2011-06-02T07:06:04Z</time>
      </trkpt>
      <trkpt lat="43.7442" lon="6.66378">
        <ele>1513.9356689453</ele>
        <time>2011-06-02T07:06:10Z</time>
      </trkpt>
      <trkpt lat="43.74448" lon="6.66467">
        <ele>1506.3901367188</ele>
        <time>2011-06-02T07:06:17Z</time>
      </trkpt>
      <trkpt lat="43.74479" lon="6.66543">
        <ele>1498.7270507812</ele>
        <time>2011-06-02T07:06:23Z</time>
      </trkpt>
      <trkpt lat="43.7452" lon="6.6663">
        <ele>1498.4548339844</ele>
        <time>2011-06-02T07:06:31Z</time>
      </trkpt>
      <trkpt lat="43.74531" lon="6.66659">
        <ele>1498.6081542969</ele>
        <time>2011-06-02T07:06:34Z</time>
      </trkpt>
      <trkpt lat="43.74534" lon="6.66691">
        <ele>1497.7631835938</ele>
        <time>2011-06-02T07:06:38Z</time>
      </trkpt>
      <trkpt lat="43.74524" lon="6.66709">
        <ele>1493.10546875</ele>
        <time>2011-06-02T07:06:41Z</time>
      </trkpt>
      <trkpt lat="43.74508" lon="6.66716">
        <ele>1486.6286621094</ele>
        <time>2011-06-02T07:06:44Z</time>
      </trkpt>
      <trkpt lat="43.7448" lon="6.6672">
        <ele>1476.8010253906</ele>
        <time>2011-06-02T07:06:49Z</time>
      </trkpt>
      <trkpt lat="43.74453" lon="6.66721">
        <ele>1468.1370849609</ele>
        <time>2011-06-02T07:06:53Z</time>
      </trkpt>
      <trkpt lat="43.74433" lon="6.66737">
        <ele>1460.9241943359</ele>
        <time>2011-06-02T07:06:57Z</time>
      </trkpt>
      <trkpt lat="43.7443" lon="6.66745">
        <ele>1459.8267822266</ele>
        <time>2011-06-02T07:06:58Z</time>
      </trkpt>
      <trkpt lat="43.74421" lon="6.66796">
        <ele>1457.9844970703</ele>
        <time>2011-06-02T07:07:03Z</time>
      </trkpt>
      <trkpt lat="43.74425" lon="6.66848">
        <ele>1460.22265625</ele>
        <time>2011-06-02T07:07:08Z</time>
      </trkpt>
      <trkpt lat="43.74433" lon="6.66888">
        <ele>1461.1090087891</ele>
        <time>2011-06-02T07:07:12Z</time>
      </trkpt>
      <trkpt lat="43.7445" lon="6.66935">
        <ele>1463.3079833984</ele>
        <time>2011-06-02T07:07:17Z</time>
      </trkpt>
      <trkpt lat="43.74454" lon="6.66942">
        <ele>1463.9024658203</ele>
        <time>2011-06-02T07:07:18Z</time>
      </trkpt>
      <trkpt lat="43.74463" lon="6.66955">
        <ele>1465.2026367188</ele>
        <time>2011-06-02T07:07:20Z</time>
      </trkpt>
      <trkpt lat="43.74485" lon="6.66989">
        <ele>1467.6016845703</ele>
        <time>2011-06-02T07:07:25Z</time>
      </trkpt>
      <trkpt lat="43.74488" lon="6.67007">
        <ele>1466.0257568359</ele>
        <time>2011-06-02T07:07:29Z</time>
      </trkpt>
      <trkpt lat="43.74475" lon="6.67006">
        <ele>1462.9462890625</ele>
        <time>2011-06-02T07:07:32Z</time>
      </trkpt>
      <trkpt lat="43.74455" lon="6.6699">
        <ele>1459.5748291016</ele>
        <time>2011-06-02T07:07:36Z</time>
      </trkpt>
      <trkpt lat="43.74451" lon="6.66985">
        <ele>1459.0249023438</ele>
        <time>2011-06-02T07:07:37Z</time>
      </trkpt>
      <trkpt lat="43.74426" lon="6.66965">
        <ele>1454.1143798828</ele>
        <time>2011-06-02T07:07:42Z</time>
      </trkpt>
      <trkpt lat="43.74414" lon="6.6697">
        <ele>1450.5234375</ele>
        <time>2011-06-02T07:07:46Z</time>
      </trkpt>
      <trkpt lat="43.74422" lon="6.66977">
        <ele>1452.0704345703</ele>
        <time>2011-06-02T07:07:49Z</time>
      </trkpt>
      <trkpt lat="43.74433" lon="6.66997">
        <ele>1453.3209228516</ele>
        <time>2011-06-02T07:07:52Z</time>
      </trkpt>
      <trkpt lat="43.7443" lon="6.67016">
        <ele>1451.0252685547</ele>
        <time>2011-06-02T07:07:54Z</time>
      </trkpt>
      <trkpt lat="43.74427" lon="6.67025">
        <ele>1449.5181884766</ele>
        <time>2011-06-02T07:07:55Z</time>
      </trkpt>
      <trkpt lat="43.74424" lon="6.67034">
        <ele>1448.0155029297</ele>
        <time>2011-06-02T07:07:56Z</time>
      </trkpt>
      <trkpt lat="43.74418" lon="6.67073">
        <ele>1444.0140380859</ele>
        <time>2011-06-02T07:08:01Z</time>
      </trkpt>
      <trkpt lat="43.74434" lon="6.67093">
        <ele>1445.3957519531</ele>
        <time>2011-06-02T07:08:04Z</time>
      </trkpt>
      <trkpt lat="43.74441" lon="6.67118">
        <ele>1445.3648681641</ele>
        <time>2011-06-02T07:08:07Z</time>
      </trkpt>
      <trkpt lat="43.74455" lon="6.67158">
        <ele>1444.7845458984</ele>
        <time>2011-06-02T07:08:13Z</time>
      </trkpt>
      <trkpt lat="43.74457" lon="6.67189">
        <ele>1442.8271484375</ele>
        <time>2011-06-02T07:08:17Z</time>
      </trkpt>
      <trkpt lat="43.74446" lon="6.67232">
        <ele>1440.2132568359</ele>
        <time>2011-06-02T07:08:23Z</time>
      </trkpt>
      <trkpt lat="43.74454" lon="6.67242">
        <ele>1439.2839355469</ele>
        <time>2011-06-02T07:08:26Z</time>
      </trkpt>
      <trkpt lat="43.74468" lon="6.67238">
        <ele>1438.9739990234</ele>
        <time>2011-06-02T07:08:29Z</time>
      </trkpt>
      <trkpt lat="43.74485" lon="6.67225">
        <ele>1439.6291503906</ele>
        <time>2011-06-02T07:08:32Z</time>
      </trkpt>
      <trkpt lat="43.74512" lon="6.67219">
        <ele>1439.1901855469</ele>
        <time>2011-06-02T07:08:36Z</time>
      </trkpt>
      <trkpt lat="43.74541" lon="6.67214">
        <ele>1437.7231445312</ele>
        <time>2011-06-02T07:08:40Z</time>
      </trkpt>
      <trkpt lat="43.74552" lon="6.67223">
        <ele>1435.43359375</ele>
        <time>2011-06-02T07:08:43Z</time>
      </trkpt>
      <trkpt lat="43.74551" lon="6.67235">
        <ele>1433.5120849609</ele>
        <time>2011-06-02T07:08:45Z</time>
      </trkpt>
      <trkpt lat="43.74531" lon="6.67254">
        <ele>1432.4133300781</ele>
        <time>2011-06-02T07:08:50Z</time>
      </trkpt>
      <trkpt lat="43.74504" lon="6.67277">
        <ele>1430.7451171875</ele>
        <time>2011-06-02T07:08:54Z</time>
      </trkpt>
      <trkpt lat="43.74485" lon="6.67305">
        <ele>1428.4614257812</ele>
        <time>2011-06-02T07:08:58Z</time>
      </trkpt>
      <trkpt lat="43.74474" lon="6.67337">
        <ele>1425.8295898438</ele>
        <time>2011-06-02T07:09:01Z</time>
      </trkpt>
      <trkpt lat="43.74471" lon="6.67361">
        <ele>1422.8049316406</ele>
        <time>2011-06-02T07:09:03Z</time>
      </trkpt>
      <trkpt lat="43.74469" lon="6.67398">
        <ele>1417.4771728516</ele>
        <time>2011-06-02T07:09:06Z</time>
      </trkpt>
      <trkpt lat="43.74472" lon="6.67421">
        <ele>1413.3662109375</ele>
        <time>2011-06-02T07:09:08Z</time>
      </trkpt>
      <trkpt lat="43.74467" lon="6.67459">
        <ele>1407.8365478516</ele>
        <time>2011-06-02T07:09:12Z</time>
      </trkpt>
      <trkpt lat="43.7445" lon="6.67489">
        <ele>1406.0718994141</ele>
        <time>2011-06-02T07:09:16Z</time>
      </trkpt>
      <trkpt lat="43.74441" lon="6.67507">
        <ele>1404.4180908203</ele>
        <time>2011-06-02T07:09:18Z</time>
      </trkpt>
      <trkpt lat="43.74419" lon="6.6756">
        <ele>1398.0677490234</ele>
        <time>2011-06-02T07:09:23Z</time>
      </trkpt>
      <trkpt lat="43.744" lon="6.67587">
        <ele>1396.6501464844</ele>
        <time>2011-06-02T07:09:26Z</time>
      </trkpt>
      <trkpt lat="43.74382" lon="6.67628">
        <ele>1392.099609375</ele>
        <time>2011-06-02T07:09:30Z</time>
      </trkpt>
      <trkpt lat="43.74356" lon="6.67686">
        <ele>1384.7749023438</ele>
        <time>2011-06-02T07:09:35Z</time>
      </trkpt>
      <trkpt lat="43.74332" lon="6.67728">
        <ele>1380.66796875</ele>
        <time>2011-06-02T07:09:39Z</time>
      </trkpt>
      <trkpt lat="43.74327" lon="6.6774">
        <ele>1379.2426757812</ele>
        <time>2011-06-02T07:09:40Z</time>
      </trkpt>
      <trkpt lat="43.74305" lon="6.67786">
        <ele>1373.1492919922</ele>
        <time>2011-06-02T07:09:44Z</time>
      </trkpt>
      <trkpt lat="43.74293" lon="6.67808">
        <ele>1370.3941650391</ele>
        <time>2011-06-02T07:09:46Z</time>
      </trkpt>
      <trkpt lat="43.74288" lon="6.67819">
        <ele>1368.5308837891</ele>
        <time>2011-06-02T07:09:47Z</time>
      </trkpt>
      <trkpt lat="43.74242" lon="6.67881">
        <ele>1359.8004150391</ele>
        <time>2011-06-02T07:09:53Z</time>
      </trkpt>
      <trkpt lat="43.7422" lon="6.67912">
        <ele>1351.9571533203</ele>
        <time>2011-06-02T07:09:56Z</time>
      </trkpt>
      <trkpt lat="43.74202" lon="6.67957">
        <ele>1341.0708007812</ele>
        <time>2011-06-02T07:10:00Z</time>
      </trkpt>
      <trkpt lat="43.74188" lon="6.67993">
        <ele>1332.3223876953</ele>
        <time>2011-06-02T07:10:03Z</time>
      </trkpt>
      <trkpt lat="43.74164" lon="6.68015">
        <ele>1327.7369384766</ele>
        <time>2011-06-02T07:10:07Z</time>
      </trkpt>
      <trkpt lat="43.7415" lon="6.68012">
        <ele>1326.9313964844</ele>
        <time>2011-06-02T07:10:09Z</time>
      </trkpt>
      <trkpt lat="43.7413" lon="6.68029">
        <ele>1321.6910400391</ele>
        <time>2011-06-02T07:10:13Z</time>
      </trkpt>
      <trkpt lat="43.74124" lon="6.68058">
        <ele>1315.5137939453</ele>
        <time>2011-06-02T07:10:16Z</time>
      </trkpt>
      <trkpt lat="43.74128" lon="6.68072">
        <ele>1312.9342041016</ele>
        <time>2011-06-02T07:10:19Z</time>
      </trkpt>
      <trkpt lat="43.74138" lon="6.68071">
        <ele>1314.0349121094</ele>
        <time>2011-06-02T07:10:22Z</time>
      </trkpt>
      <trkpt lat="43.74145" lon="6.68052">
        <ele>1318.4887695312</ele>
        <time>2011-06-02T07:10:26Z</time>
      </trkpt>
      <trkpt lat="43.74152" lon="6.68048">
        <ele>1319.7703857422</ele>
        <time>2011-06-02T07:10:28Z</time>
      </trkpt>
      <trkpt lat="43.74162" lon="6.68056">
        <ele>1319.0780029297</ele>
        <time>2011-06-02T07:10:31Z</time>
      </trkpt>
      <trkpt lat="43.7417" lon="6.68061">
        <ele>1318.4462890625</ele>
        <time>2011-06-02T07:10:33Z</time>
      </trkpt>
      <trkpt lat="43.74174" lon="6.6806">
        <ele>1318.4096679688</ele>
        <time>2011-06-02T07:10:34Z</time>
      </trkpt>
      <trkpt lat="43.7418" lon="6.68054">
        <ele>1319.5155029297</ele>
        <time>2011-06-02T07:10:36Z</time>
      </trkpt>
      <trkpt lat="43.742" lon="6.68037">
        <ele>1322.3590087891</ele>
        <time>2011-06-02T07:10:41Z</time>
      </trkpt>
      <trkpt lat="43.74231" lon="6.68035">
        <ele>1321.5773925781</ele>
        <time>2011-06-02T07:10:46Z</time>
      </trkpt>
      <trkpt lat="43.74261" lon="6.68022">
        <ele>1322.2468261719</ele>
        <time>2011-06-02T07:10:50Z</time>
      </trkpt>
      <trkpt lat="43.74268" lon="6.68017">
        <ele>1322.3649902344</ele>
        <time>2011-06-02T07:10:51Z</time>
      </trkpt>
      <trkpt lat="43.74288" lon="6.68">
        <ele>1323.0439453125</ele>
        <time>2011-06-02T07:10:54Z</time>
      </trkpt>
      <trkpt lat="43.74321" lon="6.67987">
        <ele>1321.1878662109</ele>
        <time>2011-06-02T07:10:58Z</time>
      </trkpt>
      <trkpt lat="43.74331" lon="6.67983">
        <ele>1320.5653076172</ele>
        <time>2011-06-02T07:10:59Z</time>
      </trkpt>
      <trkpt lat="43.74378" lon="6.67967">
        <ele>1314.2868652344</ele>
        <time>2011-06-02T07:11:04Z</time>
      </trkpt>
      <trkpt lat="43.74393" lon="6.6796">
        <ele>1312.3041992188</ele>
        <time>2011-06-02T07:11:06Z</time>
      </trkpt>
      <trkpt lat="43.74419" lon="6.67946">
        <ele>1309.9609375</ele>
        <time>2011-06-02T07:11:11Z</time>
      </trkpt>
      <trkpt lat="43.74426" lon="6.67956">
        <ele>1306.8819580078</ele>
        <time>2011-06-02T07:11:14Z</time>
      </trkpt>
      <trkpt lat="43.74437" lon="6.67984">
        <ele>1299.4987792969</ele>
        <time>2011-06-02T07:11:18Z</time>
      </trkpt>
      <trkpt lat="43.7444" lon="6.67991">
        <ele>1297.5516357422</ele>
        <time>2011-06-02T07:11:19Z</time>
      </trkpt>
      <trkpt lat="43.74453" lon="6.68016">
        <ele>1290.537109375</ele>
        <time>2011-06-02T07:11:23Z</time>
      </trkpt>
      <trkpt lat="43.74461" lon="6.68025">
        <ele>1287.8676757812</ele>
        <time>2011-06-02T07:11:25Z</time>
      </trkpt>
      <trkpt lat="43.74465" lon="6.68027">
        <ele>1287.0797119141</ele>
        <time>2011-06-02T07:11:26Z</time>
      </trkpt>
      <trkpt lat="43.7447" lon="6.68026">
        <ele>1286.7724609375</ele>
        <time>2011-06-02T07:11:27Z</time>
      </trkpt>
      <trkpt lat="43.74492" lon="6.68012">
        <ele>1287.4406738281</ele>
        <time>2011-06-02T07:11:31Z</time>
      </trkpt>
      <trkpt lat="43.7451" lon="6.67998">
        <ele>1291.3609619141</ele>
        <time>2011-06-02T07:11:35Z</time>
      </trkpt>
      <trkpt lat="43.74526" lon="6.67997">
        <ele>1294.4145507812</ele>
        <time>2011-06-02T07:11:38Z</time>
      </trkpt>
      <trkpt lat="43.74553" lon="6.67991">
        <ele>1300.2697753906</ele>
        <time>2011-06-02T07:11:44Z</time>
      </trkpt>
      <trkpt lat="43.74556" lon="6.67993">
        <ele>1300.5352783203</ele>
        <time>2011-06-02T07:11:45Z</time>
      </trkpt>
      <trkpt lat="43.74565" lon="6.68002">
        <ele>1300.2482910156</ele>
        <time>2011-06-02T07:11:48Z</time>
      </trkpt>
      <trkpt lat="43.74592" lon="6.68016">
        <ele>1301.7364501953</ele>
        <time>2011-06-02T07:11:54Z</time>
      </trkpt>
      <trkpt lat="43.74602" lon="6.6802">
        <ele>1302.2592773438</ele>
        <time>2011-06-02T07:11:56Z</time>
      </trkpt>
      <trkpt lat="43.74611" lon="6.68023">
        <ele>1303.0268554688</ele>
        <time>2011-06-02T07:11:58Z</time>
      </trkpt>
      <trkpt lat="43.74619" lon="6.68027">
        <ele>1303.5423583984</ele>
        <time>2011-06-02T07:12:00Z</time>
      </trkpt>
      <trkpt lat="43.74633" lon="6.68034">
        <ele>1303.8939208984</ele>
        <time>2011-06-02T07:12:03Z</time>
      </trkpt>
      <trkpt lat="43.74654" lon="6.6805">
        <ele>1302.9638671875</ele>
        <time>2011-06-02T07:12:07Z</time>
      </trkpt>
      <trkpt lat="43.74677" lon="6.68054">
        <ele>1305.0745849609</ele>
        <time>2011-06-02T07:12:11Z</time>
      </trkpt>
      <trkpt lat="43.74689" lon="6.68059">
        <ele>1305.5843505859</ele>
        <time>2011-06-02T07:12:14Z</time>
      </trkpt>
      <trkpt lat="43.74693" lon="6.68068">
        <ele>1304.1224365234</ele>
        <time>2011-06-02T07:12:18Z</time>
      </trkpt>
      <trkpt lat="43.74693" lon="6.6807">
        <ele>1303.9139404297</ele>
        <time>2011-06-02T07:12:19Z</time>
      </trkpt>
      <trkpt lat="43.74692" lon="6.68078">
        <ele>1301.8448486328</ele>
        <time>2011-06-02T07:12:28Z</time>
      </trkpt>
      <trkpt lat="43.74691" lon="6.68078">
        <ele>1301.5166015625</ele>
        <time>2011-06-02T07:12:30Z</time>
      </trkpt>
      <trkpt lat="43.74678" lon="6.68085">
        <ele>1298.1472167969</ele>
        <time>2011-06-02T07:12:36Z</time>
      </trkpt>
      <trkpt lat="43.74669" lon="6.68085">
        <ele>1296.3352050781</ele>
        <time>2011-06-02T07:12:41Z</time>
      </trkpt>
      <trkpt lat="43.74667" lon="6.68085">
        <ele>1296.1267089844</ele>
        <time>2011-06-02T07:12:42Z</time>
      </trkpt>
      <trkpt lat="43.7466" lon="6.6809">
        <ele>1295.0914306641</ele>
        <time>2011-06-02T07:12:49Z</time>
      </trkpt>
      <trkpt lat="43.74657" lon="6.68089">
        <ele>1294.6198730469</ele>
        <time>2011-06-02T07:12:53Z</time>
      </trkpt>
      <trkpt lat="43.74656" lon="6.68089">
        <ele>1294.462890625</ele>
        <time>2011-06-02T07:12:54Z</time>
      </trkpt>
      <trkpt lat="43.74646" lon="6.68086">
        <ele>1293.2701416016</ele>
        <time>2011-06-02T07:13:00Z</time>
      </trkpt>
      <trkpt lat="43.74644" lon="6.68087">
        <ele>1292.9470214844</ele>
        <time>2011-06-02T07:13:03Z</time>
      </trkpt>
      <trkpt lat="43.74643" lon="6.68087">
        <ele>1292.7694091797</ele>
        <time>2011-06-02T07:13:04Z</time>
      </trkpt>
      <trkpt lat="43.74637" lon="6.68088">
        <ele>1291.9675292969</ele>
        <time>2011-06-02T07:13:08Z</time>
      </trkpt>
      <trkpt lat="43.74638" lon="6.68091">
        <ele>1291.9429931641</ele>
        <time>2011-06-02T07:13:16Z</time>
      </trkpt>
      <trkpt lat="43.74636" lon="6.68092">
        <ele>1291.7526855469</ele>
        <time>2011-06-02T07:13:23Z</time>
      </trkpt>
      <trkpt lat="43.74634" lon="6.68093">
        <ele>1291.3551025391</ele>
        <time>2011-06-02T07:13:30Z</time>
      </trkpt>
      <trkpt lat="43.74628" lon="6.68094">
        <ele>1290.4967041016</ele>
        <time>2011-06-02T07:13:34Z</time>
      </trkpt>
      <trkpt lat="43.74623" lon="6.6809">
        <ele>1289.9445800781</ele>
        <time>2011-06-02T07:13:40Z</time>
      </trkpt>
      <trkpt lat="43.74617" lon="6.68093">
        <ele>1288.9766845703</ele>
        <time>2011-06-02T07:13:49Z</time>
      </trkpt>
      <trkpt lat="43.74612" lon="6.68096">
        <ele>1288.1624755859</ele>
        <time>2011-06-02T07:13:55Z</time>
      </trkpt>
      <trkpt lat="43.74606" lon="6.68095">
        <ele>1287.2979736328</ele>
        <time>2011-06-02T07:13:59Z</time>
      </trkpt>
      <trkpt lat="43.746" lon="6.68099">
        <ele>1286.1910400391</ele>
        <time>2011-06-02T07:14:06Z</time>
      </trkpt>
      <trkpt lat="43.74597" lon="6.68098">
        <ele>1285.8039550781</ele>
        <time>2011-06-02T07:14:09Z</time>
      </trkpt>
      <trkpt lat="43.74591" lon="6.68104">
        <ele>1284.388671875</ele>
        <time>2011-06-02T07:14:15Z</time>
      </trkpt>
      <trkpt lat="43.74581" lon="6.68108">
        <ele>1282.5263671875</ele>
        <time>2011-06-02T07:14:21Z</time>
      </trkpt>
      <trkpt lat="43.74579" lon="6.68109">
        <ele>1282.2084960938</ele>
        <time>2011-06-02T07:14:22Z</time>
      </trkpt>
      <trkpt lat="43.74569" lon="6.68113">
        <ele>1280.1068115234</ele>
        <time>2011-06-02T07:14:29Z</time>
      </trkpt>
      <trkpt lat="43.74561" lon="6.68112">
        <ele>1278.8067626953</ele>
        <time>2011-06-02T07:14:34Z</time>
      </trkpt>
      <trkpt lat="43.74551" lon="6.68113">
        <ele>1277.2078857422</ele>
        <time>2011-06-02T07:14:39Z</time>
      </trkpt>
      <trkpt lat="43.74552" lon="6.68114">
        <ele>1277.2453613281</ele>
        <time>2011-06-02T07:14:56Z</time>
      </trkpt>
      <trkpt lat="43.7455" lon="6.68113">
        <ele>1277.0867919922</ele>
        <time>2011-06-02T07:15:05Z</time>
      </trkpt>
      <trkpt lat="43.74547" lon="6.68113">
        <ele>1276.4680175781</ele>
        <time>2011-06-02T07:15:09Z</time>
      </trkpt>
      <trkpt lat="43.74538" lon="6.68123">
        <ele>1274.0388183594</ele>
        <time>2011-06-02T07:15:15Z</time>
      </trkpt>
      <trkpt lat="43.74535" lon="6.68129">
        <ele>1272.8829345703</ele>
        <time>2011-06-02T07:15:18Z</time>
      </trkpt>
      <trkpt lat="43.74532" lon="6.68135">
        <ele>1271.9825439453</ele>
        <time>2011-06-02T07:15:20Z</time>
      </trkpt>
      <trkpt lat="43.74529" lon="6.68133">
        <ele>1271.5849609375</ele>
        <time>2011-06-02T07:15:29Z</time>
      </trkpt>
      <trkpt lat="43.74533" lon="6.6813">
        <ele>1272.5084228516</ele>
        <time>2011-06-02T07:15:38Z</time>
      </trkpt>
      <trkpt lat="43.74529" lon="6.68134">
        <ele>1271.4438476562</ele>
        <time>2011-06-02T07:15:42Z</time>
      </trkpt>
      <trkpt lat="43.74518" lon="6.68144">
        <ele>1268.5654296875</ele>
        <time>2011-06-02T07:16:02Z</time>
      </trkpt>
      <trkpt lat="43.74517" lon="6.68146">
        <ele>1268.2365722656</ele>
        <time>2011-06-02T07:16:06Z</time>
      </trkpt>
      <trkpt lat="43.74516" lon="6.68148">
        <ele>1267.7440185547</ele>
        <time>2011-06-02T07:16:10Z</time>
      </trkpt>
      <trkpt lat="43.74513" lon="6.68152">
        <ele>1266.9371337891</ele>
        <time>2011-06-02T07:16:13Z</time>
      </trkpt>
      <trkpt lat="43.7451" lon="6.68152">
        <ele>1266.3507080078</ele>
        <time>2011-06-02T07:16:19Z</time>
      </trkpt>
      <trkpt lat="43.74507" lon="6.68153">
        <ele>1265.6156005859</ele>
        <time>2011-06-02T07:16:24Z</time>
      </trkpt>
      <trkpt lat="43.74504" lon="6.68155">
        <ele>1265.0125732422</ele>
        <time>2011-06-02T07:16:30Z</time>
      </trkpt>
      <trkpt lat="43.74503" lon="6.68157">
        <ele>1264.5755615234</ele>
        <time>2011-06-02T07:16:32Z</time>
      </trkpt>
      <trkpt lat="43.74499" lon="6.68162">
        <ele>1263.4682617188</ele>
        <time>2011-06-02T07:16:38Z</time>
      </trkpt>
      <trkpt lat="43.74496" lon="6.68165">
        <ele>1263.1799316406</ele>
        <time>2011-06-02T07:16:46Z</time>
      </trkpt>
      <trkpt lat="43.7449" lon="6.68171">
        <ele>1262.7855224609</ele>
        <time>2011-06-02T07:16:52Z</time>
      </trkpt>
      <trkpt lat="43.74487" lon="6.68175">
        <ele>1262.6240234375</ele>
        <time>2011-06-02T07:16:57Z</time>
      </trkpt>
      <trkpt lat="43.74485" lon="6.68175">
        <ele>1262.5975341797</ele>
        <time>2011-06-02T07:17:02Z</time>
      </trkpt>
      <trkpt lat="43.74483" lon="6.68179">
        <ele>1262.4613037109</ele>
        <time>2011-06-02T07:17:07Z</time>
      </trkpt>
      <trkpt lat="43.74472" lon="6.68189">
        <ele>1261.771484375</ele>
        <time>2011-06-02T07:17:31Z</time>
      </trkpt>
      <trkpt lat="43.74469" lon="6.68191">
        <ele>1261.5607910156</ele>
        <time>2011-06-02T07:17:36Z</time>
      </trkpt>
      <trkpt lat="43.74466" lon="6.68195">
        <ele>1261.2559814453</ele>
        <time>2011-06-02T07:17:39Z</time>
      </trkpt>
      <trkpt lat="43.74462" lon="6.68195">
        <ele>1261.0994873047</ele>
        <time>2011-06-02T07:17:42Z</time>
      </trkpt>
      <trkpt lat="43.74454" lon="6.68209">
        <ele>1260.0012207031</ele>
        <time>2011-06-02T07:17:47Z</time>
      </trkpt>
      <trkpt lat="43.74451" lon="6.68214">
        <ele>1259.5567626953</ele>
        <time>2011-06-02T07:17:49Z</time>
      </trkpt>
      <trkpt lat="43.74438" lon="6.6823">
        <ele>1257.4976806641</ele>
        <time>2011-06-02T07:17:55Z</time>
      </trkpt>
      <trkpt lat="43.74433" lon="6.68234">
        <ele>1256.8275146484</ele>
        <time>2011-06-02T07:17:57Z</time>
      </trkpt>
      <trkpt lat="43.74425" lon="6.68243">
        <ele>1255.4387207031</ele>
        <time>2011-06-02T07:18:01Z</time>
      </trkpt>
      <trkpt lat="43.74417" lon="6.68254">
        <ele>1253.8424072266</ele>
        <time>2011-06-02T07:18:04Z</time>
      </trkpt>
      <trkpt lat="43.74406" lon="6.68264">
        <ele>1253.3204345703</ele>
        <time>2011-06-02T07:18:09Z</time>
      </trkpt>
      <trkpt lat="43.74404" lon="6.68267">
        <ele>1253.1271972656</ele>
        <time>2011-06-02T07:18:11Z</time>
      </trkpt>
      <trkpt lat="43.74398" lon="6.6828">
        <ele>1251.7644042969</ele>
        <time>2011-06-02T07:18:16Z</time>
      </trkpt>
      <trkpt lat="43.7439" lon="6.68289">
        <ele>1250.5848388672</ele>
        <time>2011-06-02T07:18:20Z</time>
      </trkpt>
      <trkpt lat="43.74379" lon="6.68299">
        <ele>1248.5594482422</ele>
        <time>2011-06-02T07:18:26Z</time>
      </trkpt>
      <trkpt lat="43.74367" lon="6.68309">
        <ele>1246.0598144531</ele>
        <time>2011-06-02T07:18:32Z</time>
      </trkpt>
      <trkpt lat="43.74364" lon="6.68313">
        <ele>1245.1271972656</ele>
        <time>2011-06-02T07:18:34Z</time>
      </trkpt>
      <trkpt lat="43.74358" lon="6.68325">
        <ele>1242.1207275391</ele>
        <time>2011-06-02T07:18:38Z</time>
      </trkpt>
      <trkpt lat="43.74351" lon="6.68339">
        <ele>1238.8002929688</ele>
        <time>2011-06-02T07:18:44Z</time>
      </trkpt>
      <trkpt lat="43.74351" lon="6.68341">
        <ele>1238.4876708984</ele>
        <time>2011-06-02T07:18:46Z</time>
      </trkpt>
      <trkpt lat="43.74349" lon="6.68344">
        <ele>1237.7735595703</ele>
        <time>2011-06-02T07:18:48Z</time>
      </trkpt>
      <trkpt lat="43.74344" lon="6.68354">
        <ele>1235.3881835938</ele>
        <time>2011-06-02T07:18:53Z</time>
      </trkpt>
      <trkpt lat="43.7434" lon="6.6836">
        <ele>1233.8031005859</ele>
        <time>2011-06-02T07:18:56Z</time>
      </trkpt>
      <trkpt lat="43.74335" lon="6.68369">
        <ele>1231.4606933594</ele>
        <time>2011-06-02T07:19:00Z</time>
      </trkpt>
      <trkpt lat="43.74326" lon="6.6838">
        <ele>1230.0747070312</ele>
        <time>2011-06-02T07:19:05Z</time>
      </trkpt>
      <trkpt lat="43.74323" lon="6.68384">
        <ele>1229.7957763672</ele>
        <time>2011-06-02T07:19:12Z</time>
      </trkpt>
      <trkpt lat="43.74322" lon="6.68385">
        <ele>1229.5797119141</ele>
        <time>2011-06-02T07:19:13Z</time>
      </trkpt>
      <trkpt lat="43.74319" lon="6.68398">
        <ele>1227.5620117188</ele>
        <time>2011-06-02T07:19:20Z</time>
      </trkpt>
      <trkpt lat="43.74316" lon="6.68405">
        <ele>1226.5477294922</ele>
        <time>2011-06-02T07:19:24Z</time>
      </trkpt>
      <trkpt lat="43.74312" lon="6.68409">
        <ele>1226.0582275391</ele>
        <time>2011-06-02T07:19:26Z</time>
      </trkpt>
      <trkpt lat="43.74314" lon="6.68413">
        <ele>1225.1531982422</ele>
        <time>2011-06-02T07:19:31Z</time>
      </trkpt>
      <trkpt lat="43.74311" lon="6.68415">
        <ele>1224.9609375</ele>
        <time>2011-06-02T07:19:34Z</time>
      </trkpt>
      <trkpt lat="43.74307" lon="6.68422">
        <ele>1224.1437988281</ele>
        <time>2011-06-02T07:19:38Z</time>
      </trkpt>
      <trkpt lat="43.74305" lon="6.68426">
        <ele>1223.595703125</ele>
        <time>2011-06-02T07:19:41Z</time>
      </trkpt>
      <trkpt lat="43.74303" lon="6.68429">
        <ele>1223.1730957031</ele>
        <time>2011-06-02T07:19:46Z</time>
      </trkpt>
      <trkpt lat="43.74296" lon="6.68447">
        <ele>1220.5676269531</ele>
        <time>2011-06-02T07:19:52Z</time>
      </trkpt>
      <trkpt lat="43.74284" lon="6.68462">
        <ele>1218.2192382812</ele>
        <time>2011-06-02T07:19:55Z</time>
      </trkpt>
      <trkpt lat="43.74273" lon="6.6848">
        <ele>1214.7447509766</ele>
        <time>2011-06-02T07:19:59Z</time>
      </trkpt>
      <trkpt lat="43.74266" lon="6.68496">
        <ele>1211.4566650391</ele>
        <time>2011-06-02T07:20:03Z</time>
      </trkpt>
      <trkpt lat="43.74259" lon="6.68508">
        <ele>1208.3748779297</ele>
        <time>2011-06-02T07:20:07Z</time>
      </trkpt>
      <trkpt lat="43.74265" lon="6.68511">
        <ele>1207.8214111328</ele>
        <time>2011-06-02T07:20:20Z</time>
      </trkpt>
      <trkpt lat="43.74265" lon="6.68513">
        <ele>1207.4545898438</ele>
        <time>2011-06-02T07:20:24Z</time>
      </trkpt>
      <trkpt lat="43.74257" lon="6.68521">
        <ele>1204.8894042969</ele>
        <time>2011-06-02T07:20:30Z</time>
      </trkpt>
      <trkpt lat="43.74254" lon="6.68523">
        <ele>1204.2030029297</ele>
        <time>2011-06-02T07:20:33Z</time>
      </trkpt>
      <trkpt lat="43.74253" lon="6.68524">
        <ele>1203.9840087891</ele>
        <time>2011-06-02T07:20:35Z</time>
      </trkpt>
      <trkpt lat="43.74249" lon="6.68528">
        <ele>1202.8651123047</ele>
        <time>2011-06-02T07:20:42Z</time>
      </trkpt>
      <trkpt lat="43.74246" lon="6.68534">
        <ele>1201.5754394531</ele>
        <time>2011-06-02T07:20:49Z</time>
      </trkpt>
      <trkpt lat="43.74242" lon="6.68537">
        <ele>1201.2641601562</ele>
        <time>2011-06-02T07:20:54Z</time>
      </trkpt>
      <trkpt lat="43.74236" lon="6.68545">
        <ele>1199.9903564453</ele>
        <time>2011-06-02T07:20:58Z</time>
      </trkpt>
      <trkpt lat="43.74232" lon="6.68553">
        <ele>1198.5850830078</ele>
        <time>2011-06-02T07:21:02Z</time>
      </trkpt>
      <trkpt lat="43.74224" lon="6.68559">
        <ele>1198.1776123047</ele>
        <time>2011-06-02T07:21:07Z</time>
      </trkpt>
      <trkpt lat="43.74212" lon="6.68561">
        <ele>1199.4193115234</ele>
        <time>2011-06-02T07:21:11Z</time>
      </trkpt>
      <trkpt lat="43.74205" lon="6.68563">
        <ele>1199.9503173828</ele>
        <time>2011-06-02T07:21:16Z</time>
      </trkpt>
      <trkpt lat="43.74203" lon="6.68563">
        <ele>1200.0567626953</ele>
        <time>2011-06-02T07:21:18Z</time>
      </trkpt>
      <trkpt lat="43.74199" lon="6.68563">
        <ele>1200.6656494141</ele>
        <time>2011-06-02T07:21:22Z</time>
      </trkpt>
      <trkpt lat="43.74195" lon="6.68564">
        <ele>1200.9505615234</ele>
        <time>2011-06-02T07:21:25Z</time>
      </trkpt>
      <trkpt lat="43.74187" lon="6.68564">
        <ele>1202.0411376953</ele>
        <time>2011-06-02T07:21:31Z</time>
      </trkpt>
      <trkpt lat="43.74185" lon="6.68565">
        <ele>1202.1647949219</ele>
        <time>2011-06-02T07:21:35Z</time>
      </trkpt>
      <trkpt lat="43.74182" lon="6.68564">
        <ele>1202.7930908203</ele>
        <time>2011-06-02T07:21:42Z</time>
      </trkpt>
      <trkpt lat="43.74179" lon="6.68562">
        <ele>1204.0050048828</ele>
        <time>2011-06-02T07:21:49Z</time>
      </trkpt>
      <trkpt lat="43.74174" lon="6.68559">
        <ele>1205.3817138672</ele>
        <time>2011-06-02T07:21:54Z</time>
      </trkpt>
      <trkpt lat="43.74171" lon="6.68556">
        <ele>1206.7194824219</ele>
        <time>2011-06-02T07:21:58Z</time>
      </trkpt>
      <trkpt lat="43.74161" lon="6.6855">
        <ele>1209.0797119141</ele>
        <time>2011-06-02T07:22:03Z</time>
      </trkpt>
      <trkpt lat="43.74149" lon="6.68544">
        <ele>1211.6956787109</ele>
        <time>2011-06-02T07:22:07Z</time>
      </trkpt>
      <trkpt lat="43.74137" lon="6.68542">
        <ele>1212.9624023438</ele>
        <time>2011-06-02T07:22:11Z</time>
      </trkpt>
      <trkpt lat="43.7413" lon="6.68542">
        <ele>1213.31640625</ele>
        <time>2011-06-02T07:22:14Z</time>
      </trkpt>
      <trkpt lat="43.74121" lon="6.68543">
        <ele>1213.6884765625</ele>
        <time>2011-06-02T07:22:18Z</time>
      </trkpt>
      <trkpt lat="43.74109" lon="6.68544">
        <ele>1214.2387695312</ele>
        <time>2011-06-02T07:22:23Z</time>
      </trkpt>
      <trkpt lat="43.741" lon="6.68544">
        <ele>1214.8833007812</ele>
        <time>2011-06-02T07:22:26Z</time>
      </trkpt>
      <trkpt lat="43.74087" lon="6.6854">
        <ele>1216.7053222656</ele>
        <time>2011-06-02T07:22:33Z</time>
      </trkpt>
      <trkpt lat="43.74073" lon="6.68543">
        <ele>1215.6895751953</ele>
        <time>2011-06-02T07:22:38Z</time>
      </trkpt>
      <trkpt lat="43.74055" lon="6.68557">
        <ele>1211.4410400391</ele>
        <time>2011-06-02T07:22:43Z</time>
      </trkpt>
      <trkpt lat="43.74046" lon="6.68565">
        <ele>1209.1558837891</ele>
        <time>2011-06-02T07:22:45Z</time>
      </trkpt>
      <trkpt lat="43.74033" lon="6.68579">
        <ele>1205.1610107422</ele>
        <time>2011-06-02T07:22:48Z</time>
      </trkpt>
      <trkpt lat="43.74027" lon="6.68589">
        <ele>1202.1024169922</ele>
        <time>2011-06-02T07:22:52Z</time>
      </trkpt>
      <trkpt lat="43.74023" lon="6.68597">
        <ele>1199.8074951172</ele>
        <time>2011-06-02T07:22:56Z</time>
      </trkpt>
      <trkpt lat="43.74017" lon="6.68605">
        <ele>1196.9721679688</ele>
        <time>2011-06-02T07:23:02Z</time>
      </trkpt>
      <trkpt lat="43.74007" lon="6.68621">
        <ele>1192.0874023438</ele>
        <time>2011-06-02T07:23:06Z</time>
      </trkpt>
      <trkpt lat="43.73989" lon="6.6864">
        <ele>1184.6872558594</ele>
        <time>2011-06-02T07:23:12Z</time>
      </trkpt>
      <trkpt lat="43.73978" lon="6.68649">
        <ele>1179.9207763672</ele>
        <time>2011-06-02T07:23:15Z</time>
      </trkpt>
      <trkpt lat="43.73964" lon="6.68667">
        <ele>1171.6115722656</ele>
        <time>2011-06-02T07:23:19Z</time>
      </trkpt>
      <trkpt lat="43.73953" lon="6.68677">
        <ele>1163.95703125</ele>
        <time>2011-06-02T07:23:22Z</time>
      </trkpt>
      <trkpt lat="43.73943" lon="6.68695">
        <ele>1152.6953125</ele>
        <time>2011-06-02T07:23:26Z</time>
      </trkpt>
      <trkpt lat="43.73938" lon="6.68705">
        <ele>1146.6317138672</ele>
        <time>2011-06-02T07:23:28Z</time>
      </trkpt>
      <trkpt lat="43.73928" lon="6.68723">
        <ele>1136.0257568359</ele>
        <time>2011-06-02T07:23:33Z</time>
      </trkpt>
      <trkpt lat="43.73922" lon="6.68739">
        <ele>1127.8666992188</ele>
        <time>2011-06-02T07:23:37Z</time>
      </trkpt>
      <trkpt lat="43.73916" lon="6.68747">
        <ele>1123.1243896484</ele>
        <time>2011-06-02T07:23:39Z</time>
      </trkpt>
      <trkpt lat="43.73905" lon="6.68767">
        <ele>1114.8161621094</ele>
        <time>2011-06-02T07:23:44Z</time>
      </trkpt>
      <trkpt lat="43.73893" lon="6.68786">
        <ele>1107.3684082031</ele>
        <time>2011-06-02T07:23:48Z</time>
      </trkpt>
      <trkpt lat="43.73881" lon="6.68808">
        <ele>1100.1721191406</ele>
        <time>2011-06-02T07:23:54Z</time>
      </trkpt>
      <trkpt lat="43.73873" lon="6.68821">
        <ele>1096.1929931641</ele>
        <time>2011-06-02T07:24:01Z</time>
      </trkpt>
      <trkpt lat="43.73865" lon="6.68829">
        <ele>1093.7185058594</ele>
        <time>2011-06-02T07:24:06Z</time>
      </trkpt>
      <trkpt lat="43.73854" lon="6.68836">
        <ele>1091.2467041016</ele>
        <time>2011-06-02T07:24:13Z</time>
      </trkpt>
      <trkpt lat="43.73845" lon="6.68841">
        <ele>1089.5130615234</ele>
        <time>2011-06-02T07:24:18Z</time>
      </trkpt>
      <trkpt lat="43.73841" lon="6.68849">
        <ele>1087.802734375</ele>
        <time>2011-06-02T07:24:23Z</time>
      </trkpt>
      <trkpt lat="43.73839" lon="6.68854">
        <ele>1086.7940673828</ele>
        <time>2011-06-02T07:24:31Z</time>
      </trkpt>
      <trkpt lat="43.73836" lon="6.68861">
        <ele>1085.2113037109</ele>
        <time>2011-06-02T07:24:36Z</time>
      </trkpt>
      <trkpt lat="43.73834" lon="6.68873">
        <ele>1082.8671875</ele>
        <time>2011-06-02T07:24:41Z</time>
      </trkpt>
      <trkpt lat="43.73834" lon="6.68879">
        <ele>1081.8720703125</ele>
        <time>2011-06-02T07:24:43Z</time>
      </trkpt>
      <trkpt lat="43.73827" lon="6.68886">
        <ele>1079.4619140625</ele>
        <time>2011-06-02T07:24:48Z</time>
      </trkpt>
      <trkpt lat="43.73822" lon="6.68886">
        <ele>1078.798828125</ele>
        <time>2011-06-02T07:24:50Z</time>
      </trkpt>
      <trkpt lat="43.73819" lon="6.68886">
        <ele>1078.1945800781</ele>
        <time>2011-06-02T07:24:55Z</time>
      </trkpt>
      <trkpt lat="43.73819" lon="6.68886">
        <ele>1078.2294921875</ele>
        <time>2011-06-02T07:25:02Z</time>
      </trkpt>
      <trkpt lat="43.73818" lon="6.68886">
        <ele>1078.1613769531</ele>
        <time>2011-06-02T07:25:04Z</time>
      </trkpt>
      <trkpt lat="43.73818" lon="6.68886">
        <ele>1078.1441650391</ele>
        <time>2011-06-02T07:25:05Z</time>
      </trkpt>
      <trkpt lat="43.73817" lon="6.68887">
        <ele>1077.9393310547</ele>
        <time>2011-06-02T07:25:14Z</time>
      </trkpt>
      <trkpt lat="43.73817" lon="6.68886">
        <ele>1077.9661865234</ele>
        <time>2011-06-02T07:25:20Z</time>
      </trkpt>
      <trkpt lat="43.73816" lon="6.68884">
        <ele>1078.1052246094</ele>
        <time>2011-06-02T07:25:25Z</time>
      </trkpt>
      <trkpt lat="43.73812" lon="6.68883">
        <ele>1077.7922363281</ele>
        <time>2011-06-02T07:25:42Z</time>
      </trkpt>
      <trkpt lat="43.73809" lon="6.68887">
        <ele>1076.6982421875</ele>
        <time>2011-06-02T07:25:46Z</time>
      </trkpt>
      <trkpt lat="43.73804" lon="6.6889">
        <ele>1075.2642822266</ele>
        <time>2011-06-02T07:25:51Z</time>
      </trkpt>
      <trkpt lat="43.73795" lon="6.68896">
        <ele>1072.8312988281</ele>
        <time>2011-06-02T07:25:57Z</time>
      </trkpt>
      <trkpt lat="43.73791" lon="6.68887">
        <ele>1073.6701660156</ele>
        <time>2011-06-02T07:26:10Z</time>
      </trkpt>
      <trkpt lat="43.7379" lon="6.68888">
        <ele>1073.3880615234</ele>
        <time>2011-06-02T07:26:20Z</time>
      </trkpt>
      <trkpt lat="43.73792" lon="6.68888">
        <ele>1073.7032470703</ele>
        <time>2011-06-02T07:26:50Z</time>
      </trkpt>
      <trkpt lat="43.73791" lon="6.68888">
        <ele>1073.4304199219</ele>
        <time>2011-06-02T07:26:53Z</time>
      </trkpt>
      <trkpt lat="43.73782" lon="6.68891">
        <ele>1071.5557861328</ele>
        <time>2011-06-02T07:26:58Z</time>
      </trkpt>
      <trkpt lat="43.73775" lon="6.68884">
        <ele>1071.8911132812</ele>
        <time>2011-06-02T07:27:01Z</time>
      </trkpt>
      <trkpt lat="43.73772" lon="6.68877">
        <ele>1072.5920410156</ele>
        <time>2011-06-02T07:27:03Z</time>
      </trkpt>
      <trkpt lat="43.73765" lon="6.68864">
        <ele>1073.7095947266</ele>
        <time>2011-06-02T07:27:08Z</time>
      </trkpt>
      <trkpt lat="43.73755" lon="6.68844">
        <ele>1075.7248535156</ele>
        <time>2011-06-02T07:27:15Z</time>
      </trkpt>
      <trkpt lat="43.73745" lon="6.68825">
        <ele>1077.6223144531</ele>
        <time>2011-06-02T07:27:22Z</time>
      </trkpt>
      <trkpt lat="43.73737" lon="6.68804">
        <ele>1079.4783935547</ele>
        <time>2011-06-02T07:27:29Z</time>
      </trkpt>
      <trkpt lat="43.73724" lon="6.68782">
        <ele>1080.9901123047</ele>
        <time>2011-06-02T07:27:37Z</time>
      </trkpt>
      <trkpt lat="43.73716" lon="6.68766">
        <ele>1082.0203857422</ele>
        <time>2011-06-02T07:27:43Z</time>
      </trkpt>
      <trkpt lat="43.73705" lon="6.68747">
        <ele>1083.0069580078</ele>
        <time>2011-06-02T07:27:49Z</time>
      </trkpt>
      <trkpt lat="43.73695" lon="6.68731">
        <ele>1083.6878662109</ele>
        <time>2011-06-02T07:27:54Z</time>
      </trkpt>
      <trkpt lat="43.73679" lon="6.6872">
        <ele>1083.0812988281</ele>
        <time>2011-06-02T07:28:00Z</time>
      </trkpt>
      <trkpt lat="43.73668" lon="6.68697">
        <ele>1084.5346679688</ele>
        <time>2011-06-02T07:28:04Z</time>
      </trkpt>
      <trkpt lat="43.73665" lon="6.68691">
        <ele>1084.9729003906</ele>
        <time>2011-06-02T07:28:05Z</time>
      </trkpt>
      <trkpt lat="43.73646" lon="6.68674">
        <ele>1085.4378662109</ele>
        <time>2011-06-02T07:28:10Z</time>
      </trkpt>
      <trkpt lat="43.73623" lon="6.68673">
        <ele>1083.7009277344</ele>
        <time>2011-06-02T07:28:16Z</time>
      </trkpt>
      <trkpt lat="43.73606" lon="6.68656">
        <ele>1083.69140625</ele>
        <time>2011-06-02T07:28:22Z</time>
      </trkpt>
      <trkpt lat="43.73603" lon="6.68649">
        <ele>1083.8913574219</ele>
        <time>2011-06-02T07:28:24Z</time>
      </trkpt>
      <trkpt lat="43.73587" lon="6.68618">
        <ele>1084.3857421875</ele>
        <time>2011-06-02T07:28:32Z</time>
      </trkpt>
      <trkpt lat="43.73574" lon="6.68597">
        <ele>1084.8851318359</ele>
        <time>2011-06-02T07:28:38Z</time>
      </trkpt>
      <trkpt lat="43.73562" lon="6.68568">
        <ele>1086.341796875</ele>
        <time>2011-06-02T07:28:44Z</time>
      </trkpt>
      <trkpt lat="43.73543" lon="6.68528">
        <ele>1088.5494384766</ele>
        <time>2011-06-02T07:28:51Z</time>
      </trkpt>
      <trkpt lat="43.7352" lon="6.68483">
        <ele>1090.8931884766</ele>
        <time>2011-06-02T07:28:58Z</time>
      </trkpt>
      <trkpt lat="43.73507" lon="6.68465">
        <ele>1091.7247314453</ele>
        <time>2011-06-02T07:29:01Z</time>
      </trkpt>
      <trkpt lat="43.73479" lon="6.6845">
        <ele>1092.4215087891</ele>
        <time>2011-06-02T07:29:06Z</time>
      </trkpt>
      <trkpt lat="43.73455" lon="6.68458">
        <ele>1091.78125</ele>
        <time>2011-06-02T07:29:10Z</time>
      </trkpt>
      <trkpt lat="43.73438" lon="6.68471">
        <ele>1090.7999267578</ele>
        <time>2011-06-02T07:29:13Z</time>
      </trkpt>
      <trkpt lat="43.73399" lon="6.68514">
        <ele>1088.5588378906</ele>
        <time>2011-06-02T07:29:21Z</time>
      </trkpt>
      <trkpt lat="43.73381" lon="6.68535">
        <ele>1087.9130859375</ele>
        <time>2011-06-02T07:29:25Z</time>
      </trkpt>
      <trkpt lat="43.73359" lon="6.68559">
        <ele>1087.6131591797</ele>
        <time>2011-06-02T07:29:30Z</time>
      </trkpt>
      <trkpt lat="43.73344" lon="6.68576">
        <ele>1087.6694335938</ele>
        <time>2011-06-02T07:29:34Z</time>
      </trkpt>
      <trkpt lat="43.7332" lon="6.686">
        <ele>1088.5826416016</ele>
        <time>2011-06-02T07:29:40Z</time>
      </trkpt>
      <trkpt lat="43.73297" lon="6.68627">
        <ele>1089.8071289062</ele>
        <time>2011-06-02T07:29:46Z</time>
      </trkpt>
      <trkpt lat="43.73274" lon="6.68653">
        <ele>1091.029296875</ele>
        <time>2011-06-02T07:29:52Z</time>
      </trkpt>
      <trkpt lat="43.73271" lon="6.68657">
        <ele>1091.2010498047</ele>
        <time>2011-06-02T07:29:53Z</time>
      </trkpt>
      <trkpt lat="43.73251" lon="6.68665">
        <ele>1092.9748535156</ele>
        <time>2011-06-02T07:29:58Z</time>
      </trkpt>
      <trkpt lat="43.73228" lon="6.68661">
        <ele>1092.767578125</ele>
        <time>2011-06-02T07:30:03Z</time>
      </trkpt>
      <trkpt lat="43.73205" lon="6.68647">
        <ele>1092.8797607422</ele>
        <time>2011-06-02T07:30:07Z</time>
      </trkpt>
      <trkpt lat="43.73166" lon="6.68604">
        <ele>1093.9840087891</ele>
        <time>2011-06-02T07:30:14Z</time>
      </trkpt>
      <trkpt lat="43.73157" lon="6.68594">
        <ele>1094.1290283203</ele>
        <time>2011-06-02T07:30:16Z</time>
      </trkpt>
      <trkpt lat="43.73132" lon="6.68581">
        <ele>1093.8317871094</ele>
        <time>2011-06-02T07:30:21Z</time>
      </trkpt>
      <trkpt lat="43.73112" lon="6.68568">
        <ele>1093.7813720703</ele>
        <time>2011-06-02T07:30:26Z</time>
      </trkpt>
      <trkpt lat="43.73094" lon="6.68562">
        <ele>1093.4014892578</ele>
        <time>2011-06-02T07:30:30Z</time>
      </trkpt>
      <trkpt lat="43.73081" lon="6.68555">
        <ele>1093.0686035156</ele>
        <time>2011-06-02T07:30:33Z</time>
      </trkpt>
      <trkpt lat="43.73057" lon="6.68542">
        <ele>1090.6137695312</ele>
        <time>2011-06-02T07:30:39Z</time>
      </trkpt>
      <trkpt lat="43.7305" lon="6.68537">
        <ele>1089.9820556641</ele>
        <time>2011-06-02T07:30:41Z</time>
      </trkpt>
      <trkpt lat="43.7304" lon="6.68526">
        <ele>1089.4132080078</ele>
        <time>2011-06-02T07:30:44Z</time>
      </trkpt>
      <trkpt lat="43.73018" lon="6.68493">
        <ele>1088.6329345703</ele>
        <time>2011-06-02T07:30:52Z</time>
      </trkpt>
      <trkpt lat="43.72997" lon="6.68472">
        <ele>1087.9891357422</ele>
        <time>2011-06-02T07:30:56Z</time>
      </trkpt>
      <trkpt lat="43.72984" lon="6.68465">
        <ele>1086.9060058594</ele>
        <time>2011-06-02T07:30:58Z</time>
      </trkpt>
      <trkpt lat="43.72961" lon="6.68459">
        <ele>1084.2165527344</ele>
        <time>2011-06-02T07:31:02Z</time>
      </trkpt>
      <trkpt lat="43.72923" lon="6.68448">
        <ele>1080.0983886719</ele>
        <time>2011-06-02T07:31:10Z</time>
      </trkpt>
      <trkpt lat="43.729" lon="6.68444">
        <ele>1078.3718261719</ele>
        <time>2011-06-02T07:31:14Z</time>
      </trkpt>
      <trkpt lat="43.72872" lon="6.68426">
        <ele>1077.9442138672</ele>
        <time>2011-06-02T07:31:19Z</time>
      </trkpt>
      <trkpt lat="43.72865" lon="6.6842">
        <ele>1077.9793701172</ele>
        <time>2011-06-02T07:31:21Z</time>
      </trkpt>
      <trkpt lat="43.72841" lon="6.68411">
        <ele>1077.5047607422</ele>
        <time>2011-06-02T07:31:25Z</time>
      </trkpt>
      <trkpt lat="43.72802" lon="6.68418">
        <ele>1073.1555175781</ele>
        <time>2011-06-02T07:31:30Z</time>
      </trkpt>
      <trkpt lat="43.72794" lon="6.68421">
        <ele>1072.2276611328</ele>
        <time>2011-06-02T07:31:31Z</time>
      </trkpt>
      <trkpt lat="43.72762" lon="6.68419">
        <ele>1069.7858886719</ele>
        <time>2011-06-02T07:31:35Z</time>
      </trkpt>
      <trkpt lat="43.72713" lon="6.68398">
        <ele>1068.0388183594</ele>
        <time>2011-06-02T07:31:42Z</time>
      </trkpt>
      <trkpt lat="43.72694" lon="6.6839">
        <ele>1067.2593994141</ele>
        <time>2011-06-02T07:31:45Z</time>
      </trkpt>
      <trkpt lat="43.72652" lon="6.68378">
        <ele>1064.7661132812</ele>
        <time>2011-06-02T07:31:51Z</time>
      </trkpt>
      <trkpt lat="43.72618" lon="6.68372">
        <ele>1062.2557373047</ele>
        <time>2011-06-02T07:31:56Z</time>
      </trkpt>
      <trkpt lat="43.7257" lon="6.68364">
        <ele>1058.4992675781</ele>
        <time>2011-06-02T07:32:03Z</time>
      </trkpt>
      <trkpt lat="43.72537" lon="6.6836">
        <ele>1056.0330810547</ele>
        <time>2011-06-02T07:32:08Z</time>
      </trkpt>
      <trkpt lat="43.72513" lon="6.6836">
        <ele>1053.9428710938</ele>
        <time>2011-06-02T07:32:13Z</time>
      </trkpt>
      <trkpt lat="43.72504" lon="6.6836">
        <ele>1053.158203125</ele>
        <time>2011-06-02T07:32:15Z</time>
      </trkpt>
      <trkpt lat="43.72483" lon="6.68353">
        <ele>1052.07421875</ele>
        <time>2011-06-02T07:32:19Z</time>
      </trkpt>
      <trkpt lat="43.72453" lon="6.68337">
        <ele>1051.3172607422</ele>
        <time>2011-06-02T07:32:24Z</time>
      </trkpt>
      <trkpt lat="43.72413" lon="6.68301">
        <ele>1051.0703125</ele>
        <time>2011-06-02T07:32:31Z</time>
      </trkpt>
      <trkpt lat="43.724" lon="6.68292">
        <ele>1050.6379394531</ele>
        <time>2011-06-02T07:32:33Z</time>
      </trkpt>
      <trkpt lat="43.72393" lon="6.68287">
        <ele>1050.4438476562</ele>
        <time>2011-06-02T07:32:34Z</time>
      </trkpt>
      <trkpt lat="43.72345" lon="6.68255">
        <ele>1049.3952636719</ele>
        <time>2011-06-02T07:32:40Z</time>
      </trkpt>
      <trkpt lat="43.72294" lon="6.6822">
        <ele>1046.7424316406</ele>
        <time>2011-06-02T07:32:46Z</time>
      </trkpt>
      <trkpt lat="43.72287" lon="6.68215">
        <ele>1046.26171875</ele>
        <time>2011-06-02T07:32:47Z</time>
      </trkpt>
      <trkpt lat="43.72257" lon="6.68211">
        <ele>1042.6315917969</ele>
        <time>2011-06-02T07:32:51Z</time>
      </trkpt>
      <trkpt lat="43.72237" lon="6.68227">
        <ele>1038.9949951172</ele>
        <time>2011-06-02T07:32:54Z</time>
      </trkpt>
      <trkpt lat="43.72224" lon="6.68249">
        <ele>1035.8814697266</ele>
        <time>2011-06-02T07:32:57Z</time>
      </trkpt>
      <trkpt lat="43.72221" lon="6.68257">
        <ele>1035.0355224609</ele>
        <time>2011-06-02T07:32:58Z</time>
      </trkpt>
      <trkpt lat="43.7221" lon="6.6829">
        <ele>1031.8139648438</ele>
        <time>2011-06-02T07:33:02Z</time>
      </trkpt>
      <trkpt lat="43.72196" lon="6.68305">
        <ele>1029.5183105469</ele>
        <time>2011-06-02T07:33:06Z</time>
      </trkpt>
      <trkpt lat="43.72187" lon="6.68301">
        <ele>1029.0456542969</ele>
        <time>2011-06-02T07:33:08Z</time>
      </trkpt>
      <trkpt lat="43.72167" lon="6.68293">
        <ele>1027.9344482422</ele>
        <time>2011-06-02T07:33:12Z</time>
      </trkpt>
      <trkpt lat="43.72146" lon="6.68309">
        <ele>1025.2038574219</ele>
        <time>2011-06-02T07:33:16Z</time>
      </trkpt>
      <trkpt lat="43.72123" lon="6.68334">
        <ele>1021.7977294922</ele>
        <time>2011-06-02T07:33:21Z</time>
      </trkpt>
      <trkpt lat="43.72101" lon="6.68328">
        <ele>1020.575378418</ele>
        <time>2011-06-02T07:33:24Z</time>
      </trkpt>
      <trkpt lat="43.72094" lon="6.68324">
        <ele>1020.3267211914</ele>
        <time>2011-06-02T07:33:25Z</time>
      </trkpt>
      <trkpt lat="43.72053" lon="6.6829">
        <ele>1019.4098510742</ele>
        <time>2011-06-02T07:33:31Z</time>
      </trkpt>
      <trkpt lat="43.72012" lon="6.68256">
        <ele>1017.7708740234</ele>
        <time>2011-06-02T07:33:37Z</time>
      </trkpt>
      <trkpt lat="43.71977" lon="6.68242">
        <ele>1015.796081543</ele>
        <time>2011-06-02T07:33:42Z</time>
      </trkpt>
      <trkpt lat="43.71929" lon="6.68222">
        <ele>1013.2537841797</ele>
        <time>2011-06-02T07:33:49Z</time>
      </trkpt>
      <trkpt lat="43.71917" lon="6.68212">
        <ele>1012.8345336914</ele>
        <time>2011-06-02T07:33:51Z</time>
      </trkpt>
      <trkpt lat="43.71883" lon="6.68178">
        <ele>1012.0288696289</ele>
        <time>2011-06-02T07:33:57Z</time>
      </trkpt>
      <trkpt lat="43.71836" lon="6.6814">
        <ele>1010.5228271484</ele>
        <time>2011-06-02T07:34:05Z</time>
      </trkpt>
      <trkpt lat="43.71803" lon="6.68107">
        <ele>1009.4000854492</ele>
        <time>2011-06-02T07:34:12Z</time>
      </trkpt>
      <trkpt lat="43.71784" lon="6.6809">
        <ele>1008.5843505859</ele>
        <time>2011-06-02T07:34:16Z</time>
      </trkpt>
      <trkpt lat="43.7177" lon="6.68082">
        <ele>1007.7658691406</ele>
        <time>2011-06-02T07:34:19Z</time>
      </trkpt>
      <trkpt lat="43.71753" lon="6.68088">
        <ele>1006.0758666992</ele>
        <time>2011-06-02T07:34:24Z</time>
      </trkpt>
      <trkpt lat="43.71751" lon="6.68106">
        <ele>1005.2501220703</ele>
        <time>2011-06-02T07:34:27Z</time>
      </trkpt>
      <trkpt lat="43.71751" lon="6.68112">
        <ele>1005.037902832</ele>
        <time>2011-06-02T07:34:28Z</time>
      </trkpt>
      <trkpt lat="43.71759" lon="6.68149">
        <ele>1004.2740478516</ele>
        <time>2011-06-02T07:34:33Z</time>
      </trkpt>
      <trkpt lat="43.71762" lon="6.68183">
        <ele>1003.2895507812</ele>
        <time>2011-06-02T07:34:37Z</time>
      </trkpt>
      <trkpt lat="43.7177" lon="6.6822">
        <ele>1002.3666992188</ele>
        <time>2011-06-02T07:34:42Z</time>
      </trkpt>
      <trkpt lat="43.71776" lon="6.68233">
        <ele>1002.2180786133</ele>
        <time>2011-06-02T07:34:44Z</time>
      </trkpt>
      <trkpt lat="43.71794" lon="6.68267">
        <ele>1002.1370849609</ele>
        <time>2011-06-02T07:34:49Z</time>
      </trkpt>
      <trkpt lat="43.71802" lon="6.68311">
        <ele>1001.1995849609</ele>
        <time>2011-06-02T07:34:55Z</time>
      </trkpt>
      <trkpt lat="43.718" lon="6.68323">
        <ele>1000.7092895508</ele>
        <time>2011-06-02T07:34:57Z</time>
      </trkpt>
      <trkpt lat="43.71795" lon="6.68341">
        <ele>1000.2172851562</ele>
        <time>2011-06-02T07:35:00Z</time>
      </trkpt>
      <trkpt lat="43.71791" lon="6.6836">
        <ele>1000.1527709961</ele>
        <time>2011-06-02T07:35:03Z</time>
      </trkpt>
      <trkpt lat="43.71788" lon="6.68373">
        <ele>1000.0983886719</ele>
        <time>2011-06-02T07:35:05Z</time>
      </trkpt>
      <trkpt lat="43.71786" lon="6.68383">
        <ele>1000.0725097656</ele>
        <time>2011-06-02T07:35:07Z</time>
      </trkpt>
      <trkpt lat="43.71793" lon="6.68401">
        <ele>1000.4395751953</ele>
        <time>2011-06-02T07:35:11Z</time>
      </trkpt>
      <trkpt lat="43.71812" lon="6.68425">
        <ele>1001.4154663086</ele>
        <time>2011-06-02T07:35:18Z</time>
      </trkpt>
      <trkpt lat="43.71815" lon="6.68462">
        <ele>1002.4259643555</ele>
        <time>2011-06-02T07:35:25Z</time>
      </trkpt>
      <trkpt lat="43.71816" lon="6.68473">
        <ele>1002.7487182617</ele>
        <time>2011-06-02T07:35:27Z</time>
      </trkpt>
      <trkpt lat="43.71826" lon="6.68506">
        <ele>1003.8828125</ele>
        <time>2011-06-02T07:35:33Z</time>
      </trkpt>
      <trkpt lat="43.71828" lon="6.68519">
        <ele>1004.2467041016</ele>
        <time>2011-06-02T07:35:35Z</time>
      </trkpt>
      <trkpt lat="43.71835" lon="6.68549">
        <ele>1005.3051147461</ele>
        <time>2011-06-02T07:35:40Z</time>
      </trkpt>
      <trkpt lat="43.71838" lon="6.68568">
        <ele>1005.908203125</ele>
        <time>2011-06-02T07:35:43Z</time>
      </trkpt>
      <trkpt lat="43.7184" lon="6.68604">
        <ele>1006.8912353516</ele>
        <time>2011-06-02T07:35:49Z</time>
      </trkpt>
      <trkpt lat="43.7184" lon="6.6861">
        <ele>1007.0261230469</ele>
        <time>2011-06-02T07:35:50Z</time>
      </trkpt>
      <trkpt lat="43.71843" lon="6.68626">
        <ele>1007.544921875</ele>
        <time>2011-06-02T07:35:53Z</time>
      </trkpt>
      <trkpt lat="43.71844" lon="6.68653">
        <ele>1008.201965332</ele>
        <time>2011-06-02T07:35:58Z</time>
      </trkpt>
      <trkpt lat="43.71841" lon="6.68678">
        <ele>1008.4962768555</ele>
        <time>2011-06-02T07:36:03Z</time>
      </trkpt>
      <trkpt lat="43.71835" lon="6.68704">
        <ele>1008.5595092773</ele>
        <time>2011-06-02T07:36:09Z</time>
      </trkpt>
      <trkpt lat="43.71825" lon="6.68732">
        <ele>1008.4669189453</ele>
        <time>2011-06-02T07:36:15Z</time>
      </trkpt>
      <trkpt lat="43.71812" lon="6.68747">
        <ele>1008.1952514648</ele>
        <time>2011-06-02T07:36:19Z</time>
      </trkpt>
      <trkpt lat="43.71807" lon="6.68749">
        <ele>1008.0603027344</ele>
        <time>2011-06-02T07:36:20Z</time>
      </trkpt>
      <trkpt lat="43.71791" lon="6.68746">
        <ele>1007.4010009766</ele>
        <time>2011-06-02T07:36:24Z</time>
      </trkpt>
      <trkpt lat="43.71776" lon="6.68742">
        <ele>1006.7592163086</ele>
        <time>2011-06-02T07:36:28Z</time>
      </trkpt>
      <trkpt lat="43.71756" lon="6.68739">
        <ele>1005.9824829102</ele>
        <time>2011-06-02T07:36:34Z</time>
      </trkpt>
      <trkpt lat="43.71738" lon="6.68729">
        <ele>1004.9537353516</ele>
        <time>2011-06-02T07:36:39Z</time>
      </trkpt>
      <trkpt lat="43.71718" lon="6.6872">
        <ele>1003.8983154297</ele>
        <time>2011-06-02T07:36:44Z</time>
      </trkpt>
      <trkpt lat="43.71694" lon="6.68728">
        <ele>1002.9630737305</ele>
        <time>2011-06-02T07:36:50Z</time>
      </trkpt>
      <trkpt lat="43.71691" lon="6.68731">
        <ele>1002.8812255859</ele>
        <time>2011-06-02T07:36:51Z</time>
      </trkpt>
      <trkpt lat="43.71674" lon="6.68752">
        <ele>1002.3835449219</ele>
        <time>2011-06-02T07:36:57Z</time>
      </trkpt>
      <trkpt lat="43.71664" lon="6.68774">
        <ele>1002.4767456055</ele>
        <time>2011-06-02T07:37:01Z</time>
      </trkpt>
      <trkpt lat="43.71661" lon="6.6878">
        <ele>1002.5213623047</ele>
        <time>2011-06-02T07:37:02Z</time>
      </trkpt>
      <trkpt lat="43.71645" lon="6.6881">
        <ele>1002.6621704102</ele>
        <time>2011-06-02T07:37:09Z</time>
      </trkpt>
      <trkpt lat="43.71643" lon="6.68814">
        <ele>1002.6713256836</ele>
        <time>2011-06-02T07:37:10Z</time>
      </trkpt>
      <trkpt lat="43.71626" lon="6.6885">
        <ele>1002.854309082</ele>
        <time>2011-06-02T07:37:18Z</time>
      </trkpt>
      <trkpt lat="43.71622" lon="6.68869">
        <ele>1003.0009155273</ele>
        <time>2011-06-02T07:37:21Z</time>
      </trkpt>
      <trkpt lat="43.71619" lon="6.68896">
        <ele>1003.3824462891</ele>
        <time>2011-06-02T07:37:26Z</time>
      </trkpt>
      <trkpt lat="43.71621" lon="6.68912">
        <ele>1003.7424926758</ele>
        <time>2011-06-02T07:37:29Z</time>
      </trkpt>
      <trkpt lat="43.71613" lon="6.6895">
        <ele>1004.0533447266</ele>
        <time>2011-06-02T07:37:35Z</time>
      </trkpt>
      <trkpt lat="43.71609" lon="6.68962">
        <ele>1004.149230957</ele>
        <time>2011-06-02T07:37:37Z</time>
      </trkpt>
      <trkpt lat="43.716" lon="6.68992">
        <ele>1004.4338378906</ele>
        <time>2011-06-02T07:37:42Z</time>
      </trkpt>
      <trkpt lat="43.71598" lon="6.68998">
        <ele>1004.48828125</ele>
        <time>2011-06-02T07:37:43Z</time>
      </trkpt>
      <trkpt lat="43.71594" lon="6.69016">
        <ele>1004.7772216797</ele>
        <time>2011-06-02T07:37:46Z</time>
      </trkpt>
      <trkpt lat="43.7159" lon="6.69043">
        <ele>1005.2670288086</ele>
        <time>2011-06-02T07:37:51Z</time>
      </trkpt>
      <trkpt lat="43.7158" lon="6.69087">
        <ele>1005.9166259766</ele>
        <time>2011-06-02T07:38:00Z</time>
      </trkpt>
      <trkpt lat="43.71574" lon="6.69106">
        <ele>1006.0960083008</ele>
        <time>2011-06-02T07:38:05Z</time>
      </trkpt>
      <trkpt lat="43.71567" lon="6.69134">
        <ele>1006.3140258789</ele>
        <time>2011-06-02T07:38:11Z</time>
      </trkpt>
      <trkpt lat="43.71558" lon="6.69161">
        <ele>1006.3869018555</ele>
        <time>2011-06-02T07:38:17Z</time>
      </trkpt>
      <trkpt lat="43.71546" lon="6.6918">
        <ele>1005.9299316406</ele>
        <time>2011-06-02T07:38:21Z</time>
      </trkpt>
      <trkpt lat="43.71537" lon="6.69185">
        <ele>1005.4429931641</ele>
        <time>2011-06-02T07:38:25Z</time>
      </trkpt>
      <trkpt lat="43.71525" lon="6.69193">
        <ele>1004.801574707</ele>
        <time>2011-06-02T07:38:30Z</time>
      </trkpt>
      <trkpt lat="43.71514" lon="6.69213">
        <ele>1004.4078979492</ele>
        <time>2011-06-02T07:38:35Z</time>
      </trkpt>
      <trkpt lat="43.71501" lon="6.69239">
        <ele>1003.9089355469</ele>
        <time>2011-06-02T07:38:41Z</time>
      </trkpt>
      <trkpt lat="43.71487" lon="6.69263">
        <ele>1003.8414306641</ele>
        <time>2011-06-02T07:38:47Z</time>
      </trkpt>
      <trkpt lat="43.71473" lon="6.69274">
        <ele>1003.6451416016</ele>
        <time>2011-06-02T07:38:51Z</time>
      </trkpt>
      <trkpt lat="43.71462" lon="6.69286">
        <ele>1003.5204467773</ele>
        <time>2011-06-02T07:38:55Z</time>
      </trkpt>
      <trkpt lat="43.71439" lon="6.69302">
        <ele>1003.1644897461</ele>
        <time>2011-06-02T07:39:02Z</time>
      </trkpt>
      <trkpt lat="43.71419" lon="6.69314">
        <ele>1002.8280639648</ele>
        <time>2011-06-02T07:39:07Z</time>
      </trkpt>
      <trkpt lat="43.71394" lon="6.69318">
        <ele>1003.3147583008</ele>
        <time>2011-06-02T07:39:13Z</time>
      </trkpt>
      <trkpt lat="43.71379" lon="6.69317">
        <ele>1003.6317138672</ele>
        <time>2011-06-02T07:39:16Z</time>
      </trkpt>
      <trkpt lat="43.71349" lon="6.69326">
        <ele>1004.4763793945</ele>
        <time>2011-06-02T07:39:21Z</time>
      </trkpt>
      <trkpt lat="43.71339" lon="6.69339">
        <ele>1004.923034668</ele>
        <time>2011-06-02T07:39:24Z</time>
      </trkpt>
      <trkpt lat="43.71326" lon="6.69363">
        <ele>1004.6456298828</ele>
        <time>2011-06-02T07:39:29Z</time>
      </trkpt>
      <trkpt lat="43.71317" lon="6.69386">
        <ele>1003.9767456055</ele>
        <time>2011-06-02T07:39:33Z</time>
      </trkpt>
      <trkpt lat="43.71305" lon="6.69419">
        <ele>1003.3955078125</ele>
        <time>2011-06-02T07:39:39Z</time>
      </trkpt>
      <trkpt lat="43.71302" lon="6.69429">
        <ele>1003.3153076172</ele>
        <time>2011-06-02T07:39:41Z</time>
      </trkpt>
      <trkpt lat="43.71297" lon="6.69446">
        <ele>1003.3353881836</ele>
        <time>2011-06-02T07:39:44Z</time>
      </trkpt>
      <trkpt lat="43.71285" lon="6.69465">
        <ele>1002.8538818359</ele>
        <time>2011-06-02T07:39:49Z</time>
      </trkpt>
      <trkpt lat="43.71281" lon="6.69468">
        <ele>1002.592590332</ele>
        <time>2011-06-02T07:39:50Z</time>
      </trkpt>
      <trkpt lat="43.71259" lon="6.69494">
        <ele>1001.5676269531</ele>
        <time>2011-06-02T07:39:57Z</time>
      </trkpt>
      <trkpt lat="43.71257" lon="6.69498">
        <ele>1001.5029907227</ele>
        <time>2011-06-02T07:39:58Z</time>
      </trkpt>
      <trkpt lat="43.71247" lon="6.69529">
        <ele>1001.3563232422</ele>
        <time>2011-06-02T07:40:03Z</time>
      </trkpt>
      <trkpt lat="43.71238" lon="6.69563">
        <ele>1001.0209960938</ele>
        <time>2011-06-02T07:40:08Z</time>
      </trkpt>
      <trkpt lat="43.71225" lon="6.69582">
        <ele>1000.0128173828</ele>
        <time>2011-06-02T07:40:12Z</time>
      </trkpt>
      <trkpt lat="43.71215" lon="6.69581">
        <ele>998.78485107422</ele>
        <time>2011-06-02T07:40:14Z</time>
      </trkpt>
      <trkpt lat="43.71201" lon="6.69574">
        <ele>996.89538574219</ele>
        <time>2011-06-02T07:40:17Z</time>
      </trkpt>
      <trkpt lat="43.71164" lon="6.69574">
        <ele>992.59063720703</ele>
        <time>2011-06-02T07:40:24Z</time>
      </trkpt>
      <trkpt lat="43.71117" lon="6.69574">
        <ele>988.6396484375</ele>
        <time>2011-06-02T07:40:33Z</time>
      </trkpt>
      <trkpt lat="43.71111" lon="6.69572">
        <ele>988.17456054688</ele>
        <time>2011-06-02T07:40:34Z</time>
      </trkpt>
      <trkpt lat="43.71086" lon="6.69557">
        <ele>985.91107177734</ele>
        <time>2011-06-02T07:40:39Z</time>
      </trkpt>
      <trkpt lat="43.71053" lon="6.6954">
        <ele>984.76519775391</ele>
        <time>2011-06-02T07:40:46Z</time>
      </trkpt>
      <trkpt lat="43.71042" lon="6.69535">
        <ele>984.51287841797</ele>
        <time>2011-06-02T07:40:49Z</time>
      </trkpt>
      <trkpt lat="43.71026" lon="6.69535">
        <ele>984.16015625</ele>
        <time>2011-06-02T07:40:53Z</time>
      </trkpt>
      <trkpt lat="43.71015" lon="6.6955">
        <ele>983.80340576172</ele>
        <time>2011-06-02T07:40:57Z</time>
      </trkpt>
      <trkpt lat="43.71011" lon="6.69577">
        <ele>983.43768310547</ele>
        <time>2011-06-02T07:41:01Z</time>
      </trkpt>
      <trkpt lat="43.70996" lon="6.69593">
        <ele>983.14807128906</ele>
        <time>2011-06-02T07:41:05Z</time>
      </trkpt>
      <trkpt lat="43.70981" lon="6.69607">
        <ele>983.61138916016</ele>
        <time>2011-06-02T07:41:09Z</time>
      </trkpt>
      <trkpt lat="43.70967" lon="6.69642">
        <ele>983.90814208984</ele>
        <time>2011-06-02T07:41:16Z</time>
      </trkpt>
      <trkpt lat="43.70959" lon="6.69666">
        <ele>983.98571777344</ele>
        <time>2011-06-02T07:41:20Z</time>
      </trkpt>
      <trkpt lat="43.70956" lon="6.69694">
        <ele>983.88970947266</ele>
        <time>2011-06-02T07:41:24Z</time>
      </trkpt>
      <trkpt lat="43.70951" lon="6.69718">
        <ele>983.80895996094</ele>
        <time>2011-06-02T07:41:27Z</time>
      </trkpt>
      <trkpt lat="43.70947" lon="6.69744">
        <ele>983.68316650391</ele>
        <time>2011-06-02T07:41:30Z</time>
      </trkpt>
      <trkpt lat="43.70947" lon="6.69768">
        <ele>983.42541503906</ele>
        <time>2011-06-02T07:41:33Z</time>
      </trkpt>
      <trkpt lat="43.70942" lon="6.69799">
        <ele>983.11352539062</ele>
        <time>2011-06-02T07:41:38Z</time>
      </trkpt>
      <trkpt lat="43.7094" lon="6.69826">
        <ele>982.81372070312</ele>
        <time>2011-06-02T07:41:43Z</time>
      </trkpt>
      <trkpt lat="43.70941" lon="6.69836">
        <ele>982.68792724609</ele>
        <time>2011-06-02T07:41:45Z</time>
      </trkpt>
      <trkpt lat="43.70946" lon="6.69852">
        <ele>982.50811767578</ele>
        <time>2011-06-02T07:41:50Z</time>
      </trkpt>
      <trkpt lat="43.70948" lon="6.69868">
        <ele>982.36584472656</ele>
        <time>2011-06-02T07:41:55Z</time>
      </trkpt>
      <trkpt lat="43.70949" lon="6.69884">
        <ele>982.24212646484</ele>
        <time>2011-06-02T07:42:01Z</time>
      </trkpt>
      <trkpt lat="43.70952" lon="6.69909">
        <ele>982.0498046875</ele>
        <time>2011-06-02T07:42:08Z</time>
      </trkpt>
      <trkpt lat="43.70952" lon="6.69927">
        <ele>981.92938232422</ele>
        <time>2011-06-02T07:42:14Z</time>
      </trkpt>
      <trkpt lat="43.7095" lon="6.69948">
        <ele>981.77239990234</ele>
        <time>2011-06-02T07:42:20Z</time>
      </trkpt>
      <trkpt lat="43.70954" lon="6.69968">
        <ele>981.66387939453</ele>
        <time>2011-06-02T07:42:25Z</time>
      </trkpt>
      <trkpt lat="43.70967" lon="6.69986">
        <ele>981.6728515625</ele>
        <time>2011-06-02T07:42:30Z</time>
      </trkpt>
      <trkpt lat="43.7098" lon="6.7">
        <ele>981.75756835938</ele>
        <time>2011-06-02T07:42:35Z</time>
      </trkpt>
      <trkpt lat="43.70983" lon="6.7001">
        <ele>981.54571533203</ele>
        <time>2011-06-02T07:42:39Z</time>
      </trkpt>
      <trkpt lat="43.70989" lon="6.70022">
        <ele>981.43115234375</ele>
        <time>2011-06-02T07:42:43Z</time>
      </trkpt>
      <trkpt lat="43.70995" lon="6.70047">
        <ele>981.19781494141</ele>
        <time>2011-06-02T07:42:48Z</time>
      </trkpt>
      <trkpt lat="43.71" lon="6.70062">
        <ele>981.28363037109</ele>
        <time>2011-06-02T07:42:52Z</time>
      </trkpt>
      <trkpt lat="43.71003" lon="6.70082">
        <ele>981.23400878906</ele>
        <time>2011-06-02T07:42:57Z</time>
      </trkpt>
      <trkpt lat="43.71004" lon="6.70102">
        <ele>975.97009277344</ele>
        <time>2011-06-02T07:43:02Z</time>
      </trkpt>
      <trkpt lat="43.71005" lon="6.70109">
        <ele>973.89270019531</ele>
        <time>2011-06-02T07:43:04Z</time>
      </trkpt>
      <trkpt lat="43.71006" lon="6.70114">
        <ele>972.68438720703</ele>
        <time>2011-06-02T07:43:05Z</time>
      </trkpt>
      <trkpt lat="43.71011" lon="6.70126">
        <ele>969.94366455078</ele>
        <time>2011-06-02T07:43:08Z</time>
      </trkpt>
      <trkpt lat="43.71013" lon="6.70139">
        <ele>966.69348144531</ele>
        <time>2011-06-02T07:43:12Z</time>
      </trkpt>
      <trkpt lat="43.71022" lon="6.70159">
        <ele>962.88250732422</ele>
        <time>2011-06-02T07:43:18Z</time>
      </trkpt>
      <trkpt lat="43.71035" lon="6.70178">
        <ele>959.73950195312</ele>
        <time>2011-06-02T07:43:23Z</time>
      </trkpt>
      <trkpt lat="43.71054" lon="6.70197">
        <ele>956.84973144531</ele>
        <time>2011-06-02T07:43:28Z</time>
      </trkpt>
      <trkpt lat="43.7107" lon="6.7021">
        <ele>955.48748779297</ele>
        <time>2011-06-02T07:43:32Z</time>
      </trkpt>
      <trkpt lat="43.71091" lon="6.70231">
        <ele>952.03472900391</ele>
        <time>2011-06-02T07:43:38Z</time>
      </trkpt>
      <trkpt lat="43.71118" lon="6.70254">
        <ele>949.71331787109</ele>
        <time>2011-06-02T07:43:45Z</time>
      </trkpt>
      <trkpt lat="43.71122" lon="6.70256">
        <ele>949.66369628906</ele>
        <time>2011-06-02T07:43:46Z</time>
      </trkpt>
      <trkpt lat="43.7114" lon="6.70264">
        <ele>950.65148925781</ele>
        <time>2011-06-02T07:43:50Z</time>
      </trkpt>
      <trkpt lat="43.71161" lon="6.70275">
        <ele>950.92242431641</ele>
        <time>2011-06-02T07:43:56Z</time>
      </trkpt>
      <trkpt lat="43.71175" lon="6.70281">
        <ele>950.56353759766</ele>
        <time>2011-06-02T07:44:01Z</time>
      </trkpt>
      <trkpt lat="43.71187" lon="6.70285">
        <ele>949.50970458984</ele>
        <time>2011-06-02T07:44:05Z</time>
      </trkpt>
      <trkpt lat="43.71199" lon="6.7029">
        <ele>948.46838378906</ele>
        <time>2011-06-02T07:44:10Z</time>
      </trkpt>
      <trkpt lat="43.7121" lon="6.70293">
        <ele>947.70275878906</ele>
        <time>2011-06-02T07:44:15Z</time>
      </trkpt>
      <trkpt lat="43.71225" lon="6.70298">
        <ele>946.33776855469</ele>
        <time>2011-06-02T07:44:19Z</time>
      </trkpt>
      <trkpt lat="43.71238" lon="6.70301">
        <ele>945.59283447266</ele>
        <time>2011-06-02T07:44:23Z</time>
      </trkpt>
      <trkpt lat="43.7126" lon="6.70306">
        <ele>942.75769042969</ele>
        <time>2011-06-02T07:44:29Z</time>
      </trkpt>
      <trkpt lat="43.71283" lon="6.70306">
        <ele>941.22528076172</ele>
        <time>2011-06-02T07:44:35Z</time>
      </trkpt>
      <trkpt lat="43.71302" lon="6.70301">
        <ele>941.658203125</ele>
        <time>2011-06-02T07:44:41Z</time>
      </trkpt>
      <trkpt lat="43.7131" lon="6.703">
        <ele>941.37091064453</ele>
        <time>2011-06-02T07:44:45Z</time>
      </trkpt>
      <trkpt lat="43.71309" lon="6.70301">
        <ele>941.29711914062</ele>
        <time>2011-06-02T07:45:04Z</time>
      </trkpt>
      <trkpt lat="43.71306" lon="6.70298">
        <ele>942.74951171875</ele>
        <time>2011-06-02T07:45:34Z</time>
      </trkpt>
      <trkpt lat="43.71305" lon="6.70296">
        <ele>943.98376464844</ele>
        <time>2011-06-02T07:45:46Z</time>
      </trkpt>
      <trkpt lat="43.71306" lon="6.70296">
        <ele>943.87072753906</ele>
        <time>2011-06-02T07:45:54Z</time>
      </trkpt>
      <trkpt lat="43.71313" lon="6.70294">
        <ele>944.03894042969</ele>
        <time>2011-06-02T07:46:05Z</time>
      </trkpt>
      <trkpt lat="43.71332" lon="6.70288">
        <ele>945.14837646484</ele>
        <time>2011-06-02T07:46:10Z</time>
      </trkpt>
      <trkpt lat="43.71342" lon="6.70286">
        <ele>944.11645507812</ele>
        <time>2011-06-02T07:46:13Z</time>
      </trkpt>
      <trkpt lat="43.71344" lon="6.70291">
        <ele>941.37506103516</ele>
        <time>2011-06-02T07:46:17Z</time>
      </trkpt>
      <trkpt lat="43.71343" lon="6.70294">
        <ele>940.62341308594</ele>
        <time>2011-06-02T07:46:18Z</time>
      </trkpt>
      <trkpt lat="43.71334" lon="6.70308">
        <ele>935.71606445312</ele>
        <time>2011-06-02T07:46:23Z</time>
      </trkpt>
      <trkpt lat="43.71323" lon="6.7032">
        <ele>930.87579345703</ele>
        <time>2011-06-02T07:46:28Z</time>
      </trkpt>
      <trkpt lat="43.71312" lon="6.7033">
        <ele>927.13562011719</ele>
        <time>2011-06-02T07:46:32Z</time>
      </trkpt>
      <trkpt lat="43.71307" lon="6.70334">
        <ele>925.81420898438</ele>
        <time>2011-06-02T07:46:36Z</time>
      </trkpt>
      <trkpt lat="43.71308" lon="6.70334">
        <ele>925.59686279297</ele>
        <time>2011-06-02T07:46:38Z</time>
      </trkpt>
      <trkpt lat="43.7131" lon="6.70333">
        <ele>925.72033691406</ele>
        <time>2011-06-02T07:46:42Z</time>
      </trkpt>
      <trkpt lat="43.71307" lon="6.70333">
        <ele>925.88220214844</ele>
        <time>2011-06-02T07:46:48Z</time>
      </trkpt>
      <trkpt lat="43.71303" lon="6.70337">
        <ele>925.08392333984</ele>
        <time>2011-06-02T07:46:53Z</time>
      </trkpt>
      <trkpt lat="43.71304" lon="6.7034">
        <ele>924.10797119141</ele>
        <time>2011-06-02T07:46:58Z</time>
      </trkpt>
      <trkpt lat="43.71305" lon="6.7034">
        <ele>924.06848144531</ele>
        <time>2011-06-02T07:46:59Z</time>
      </trkpt>
      <trkpt lat="43.71314" lon="6.70347">
        <ele>921.64111328125</ele>
        <time>2011-06-02T07:47:05Z</time>
      </trkpt>
      <trkpt lat="43.71315" lon="6.70349">
        <ele>920.79858398438</ele>
        <time>2011-06-02T07:47:11Z</time>
      </trkpt>
      <trkpt lat="43.71318" lon="6.70348">
        <ele>920.86041259766</ele>
        <time>2011-06-02T07:47:17Z</time>
      </trkpt>
      <trkpt lat="43.71317" lon="6.70348">
        <ele>921.12518310547</ele>
        <time>2011-06-02T07:47:24Z</time>
      </trkpt>
      <trkpt lat="43.7132" lon="6.70346">
        <ele>921.33117675781</ele>
        <time>2011-06-02T07:47:29Z</time>
      </trkpt>
      <trkpt lat="43.71324" lon="6.70345">
        <ele>921.39044189453</ele>
        <time>2011-06-02T07:47:32Z</time>
      </trkpt>
      <trkpt lat="43.71327" lon="6.70345">
        <ele>921.23413085938</ele>
        <time>2011-06-02T07:47:35Z</time>
      </trkpt>
      <trkpt lat="43.71328" lon="6.70349">
        <ele>920.00341796875</ele>
        <time>2011-06-02T07:47:39Z</time>
      </trkpt>
      <trkpt lat="43.71323" lon="6.70352">
        <ele>919.51391601562</ele>
        <time>2011-06-02T07:47:43Z</time>
      </trkpt>
      <trkpt lat="43.71316" lon="6.70369">
        <ele>915.21545410156</ele>
        <time>2011-06-02T07:47:49Z</time>
      </trkpt>
      <trkpt lat="43.71312" lon="6.70378">
        <ele>913.02142333984</ele>
        <time>2011-06-02T07:47:54Z</time>
      </trkpt>
      <trkpt lat="43.71306" lon="6.7039">
        <ele>909.92730712891</ele>
        <time>2011-06-02T07:48:00Z</time>
      </trkpt>
      <trkpt lat="43.71297" lon="6.704">
        <ele>907.50811767578</ele>
        <time>2011-06-02T07:48:04Z</time>
      </trkpt>
      <trkpt lat="43.71295" lon="6.704">
        <ele>907.77239990234</ele>
        <time>2011-06-02T07:48:05Z</time>
      </trkpt>
      <trkpt lat="43.71286" lon="6.70399">
        <ele>908.47808837891</ele>
        <time>2011-06-02T07:48:08Z</time>
      </trkpt>
      <trkpt lat="43.71273" lon="6.70404">
        <ele>907.57482910156</ele>
        <time>2011-06-02T07:48:13Z</time>
      </trkpt>
      <trkpt lat="43.71267" lon="6.70414">
        <ele>905.07653808594</ele>
        <time>2011-06-02T07:48:17Z</time>
      </trkpt>
      <trkpt lat="43.71252" lon="6.70429">
        <ele>900.42279052734</ele>
        <time>2011-06-02T07:48:22Z</time>
      </trkpt>
      <trkpt lat="43.71239" lon="6.70439">
        <ele>896.27893066406</ele>
        <time>2011-06-02T07:48:26Z</time>
      </trkpt>
      <trkpt lat="43.71228" lon="6.70446">
        <ele>893.35510253906</ele>
        <time>2011-06-02T07:48:31Z</time>
      </trkpt>
      <trkpt lat="43.71224" lon="6.70451">
        <ele>891.35510253906</ele>
        <time>2011-06-02T07:48:33Z</time>
      </trkpt>
      <trkpt lat="43.71214" lon="6.7046">
        <ele>887.87249755859</ele>
        <time>2011-06-02T07:48:38Z</time>
      </trkpt>
      <trkpt lat="43.71205" lon="6.70465">
        <ele>885.67626953125</ele>
        <time>2011-06-02T07:48:42Z</time>
      </trkpt>
      <trkpt lat="43.71201" lon="6.70466">
        <ele>885.20300292969</ele>
        <time>2011-06-02T07:48:44Z</time>
      </trkpt>
      <trkpt lat="43.7119" lon="6.70461">
        <ele>886.79516601562</ele>
        <time>2011-06-02T07:48:49Z</time>
      </trkpt>
      <trkpt lat="43.71189" lon="6.70461">
        <ele>886.62017822266</ele>
        <time>2011-06-02T07:48:50Z</time>
      </trkpt>
      <trkpt lat="43.71188" lon="6.70473">
        <ele>881.87512207031</ele>
        <time>2011-06-02T07:48:55Z</time>
      </trkpt>
      <trkpt lat="43.71186" lon="6.70475">
        <ele>881.36578369141</ele>
        <time>2011-06-02T07:48:58Z</time>
      </trkpt>
      <trkpt lat="43.71174" lon="6.70474">
        <ele>881.15936279297</ele>
        <time>2011-06-02T07:49:04Z</time>
      </trkpt>
      <trkpt lat="43.71163" lon="6.70475">
        <ele>879.94635009766</ele>
        <time>2011-06-02T07:49:09Z</time>
      </trkpt>
      <trkpt lat="43.71152" lon="6.70479">
        <ele>877.31011962891</ele>
        <time>2011-06-02T07:49:14Z</time>
      </trkpt>
      <trkpt lat="43.71141" lon="6.70483">
        <ele>874.45288085938</ele>
        <time>2011-06-02T07:49:19Z</time>
      </trkpt>
      <trkpt lat="43.7114" lon="6.70484">
        <ele>874.05432128906</ele>
        <time>2011-06-02T07:49:20Z</time>
      </trkpt>
      <trkpt lat="43.7114" lon="6.70492">
        <ele>871.04339599609</ele>
        <time>2011-06-02T07:49:24Z</time>
      </trkpt>
      <trkpt lat="43.71143" lon="6.705">
        <ele>868.45367431641</ele>
        <time>2011-06-02T07:49:31Z</time>
      </trkpt>
      <trkpt lat="43.71148" lon="6.7051">
        <ele>867.76129150391</ele>
        <time>2011-06-02T07:49:35Z</time>
      </trkpt>
      <trkpt lat="43.71144" lon="6.70519">
        <ele>866.41284179688</ele>
        <time>2011-06-02T07:49:39Z</time>
      </trkpt>
      <trkpt lat="43.71124" lon="6.70519">
        <ele>864.56170654297</ele>
        <time>2011-06-02T07:49:45Z</time>
      </trkpt>
      <trkpt lat="43.71101" lon="6.70515">
        <ele>862.77807617188</ele>
        <time>2011-06-02T07:49:49Z</time>
      </trkpt>
      <trkpt lat="43.71072" lon="6.70507">
        <ele>859.51141357422</ele>
        <time>2011-06-02T07:49:53Z</time>
      </trkpt>
      <trkpt lat="43.71057" lon="6.70515">
        <ele>856.26116943359</ele>
        <time>2011-06-02T07:49:56Z</time>
      </trkpt>
      <trkpt lat="43.71051" lon="6.7052">
        <ele>854.87292480469</ele>
        <time>2011-06-02T07:49:58Z</time>
      </trkpt>
      <trkpt lat="43.7104" lon="6.70523">
        <ele>852.80413818359</ele>
        <time>2011-06-02T07:50:02Z</time>
      </trkpt>
      <trkpt lat="43.71014" lon="6.70522">
        <ele>847.96508789062</ele>
        <time>2011-06-02T07:50:09Z</time>
      </trkpt>
      <trkpt lat="43.70994" lon="6.70527">
        <ele>845.03283691406</ele>
        <time>2011-06-02T07:50:13Z</time>
      </trkpt>
      <trkpt lat="43.70985" lon="6.70529">
        <ele>844.45056152344</ele>
        <time>2011-06-02T07:50:15Z</time>
      </trkpt>
      <trkpt lat="43.70949" lon="6.70536">
        <ele>842.34600830078</ele>
        <time>2011-06-02T07:50:22Z</time>
      </trkpt>
      <trkpt lat="43.70945" lon="6.70538">
        <ele>842.07000732422</ele>
        <time>2011-06-02T07:50:23Z</time>
      </trkpt>
      <trkpt lat="43.70911" lon="6.70558">
        <ele>840.30712890625</ele>
        <time>2011-06-02T07:50:30Z</time>
      </trkpt>
      <trkpt lat="43.70871" lon="6.70586">
        <ele>840.08703613281</ele>
        <time>2011-06-02T07:50:38Z</time>
      </trkpt>
      <trkpt lat="43.70851" lon="6.70603">
        <ele>840.39031982422</ele>
        <time>2011-06-02T07:50:43Z</time>
      </trkpt>
      <trkpt lat="43.70814" lon="6.70627">
        <ele>840.52313232422</ele>
        <time>2011-06-02T07:50:51Z</time>
      </trkpt>
      <trkpt lat="43.70781" lon="6.70645">
        <ele>840.73541259766</ele>
        <time>2011-06-02T07:50:59Z</time>
      </trkpt>
      <trkpt lat="43.70777" lon="6.70646">
        <ele>840.74798583984</ele>
        <time>2011-06-02T07:51:00Z</time>
      </trkpt>
      <trkpt lat="43.70765" lon="6.70649">
        <ele>840.78576660156</ele>
        <time>2011-06-02T07:51:04Z</time>
      </trkpt>
      <trkpt lat="43.70763" lon="6.70647">
        <ele>840.75946044922</ele>
        <time>2011-06-02T07:51:12Z</time>
      </trkpt>
      <trkpt lat="43.70757" lon="6.70647">
        <ele>840.76629638672</ele>
        <time>2011-06-02T07:51:18Z</time>
      </trkpt>
      <trkpt lat="43.70735" lon="6.70652">
        <ele>840.93634033203</ele>
        <time>2011-06-02T07:51:23Z</time>
      </trkpt>
      <trkpt lat="43.7072" lon="6.70656">
        <ele>841.14630126953</ele>
        <time>2011-06-02T07:51:26Z</time>
      </trkpt>
      <trkpt lat="43.70691" lon="6.70669">
        <ele>841.97668457031</ele>
        <time>2011-06-02T07:51:31Z</time>
      </trkpt>
      <trkpt lat="43.7066" lon="6.70672">
        <ele>843.16174316406</ele>
        <time>2011-06-02T07:51:36Z</time>
      </trkpt>
      <trkpt lat="43.70631" lon="6.70663">
        <ele>844.7216796875</ele>
        <time>2011-06-02T07:51:41Z</time>
      </trkpt>
      <trkpt lat="43.70591" lon="6.70652">
        <ele>846.32861328125</ele>
        <time>2011-06-02T07:51:48Z</time>
      </trkpt>
      <trkpt lat="43.70564" lon="6.7064">
        <ele>846.93566894531</ele>
        <time>2011-06-02T07:51:54Z</time>
      </trkpt>
      <trkpt lat="43.70552" lon="6.70636">
        <ele>847.49261474609</ele>
        <time>2011-06-02T07:51:59Z</time>
      </trkpt>
      <trkpt lat="43.70551" lon="6.70636">
        <ele>847.52758789062</ele>
        <time>2011-06-02T07:52:00Z</time>
      </trkpt>
      <trkpt lat="43.70546" lon="6.70632">
        <ele>847.17041015625</ele>
        <time>2011-06-02T07:52:07Z</time>
      </trkpt>
      <trkpt lat="43.70545" lon="6.70632">
        <ele>847.31573486328</ele>
        <time>2011-06-02T07:52:10Z</time>
      </trkpt>
      <trkpt lat="43.70539" lon="6.70631">
        <ele>847.66424560547</ele>
        <time>2011-06-02T07:52:16Z</time>
      </trkpt>
      <trkpt lat="43.70535" lon="6.70629">
        <ele>847.66174316406</ele>
        <time>2011-06-02T07:52:20Z</time>
      </trkpt>
      <trkpt lat="43.70523" lon="6.70625">
        <ele>847.64953613281</ele>
        <time>2011-06-02T07:52:27Z</time>
      </trkpt>
      <trkpt lat="43.70513" lon="6.70621">
        <ele>847.65502929688</ele>
        <time>2011-06-02T07:52:33Z</time>
      </trkpt>
      <trkpt lat="43.70505" lon="6.70622">
        <ele>848.31280517578</ele>
        <time>2011-06-02T07:52:38Z</time>
      </trkpt>
      <trkpt lat="43.70501" lon="6.70622">
        <ele>848.70593261719</ele>
        <time>2011-06-02T07:52:42Z</time>
      </trkpt>
      <trkpt lat="43.70492" lon="6.70621">
        <ele>848.99084472656</ele>
        <time>2011-06-02T07:52:50Z</time>
      </trkpt>
      <trkpt lat="43.70491" lon="6.70619">
        <ele>848.84790039062</ele>
        <time>2011-06-02T07:52:51Z</time>
      </trkpt>
      <trkpt lat="43.70485" lon="6.70615">
        <ele>848.25592041016</ele>
        <time>2011-06-02T07:52:56Z</time>
      </trkpt>
      <trkpt lat="43.70481" lon="6.70615">
        <ele>848.47668457031</ele>
        <time>2011-06-02T07:53:00Z</time>
      </trkpt>
      <trkpt lat="43.70478" lon="6.70614">
        <ele>848.43969726562</ele>
        <time>2011-06-02T07:53:03Z</time>
      </trkpt>
      <trkpt lat="43.70474" lon="6.7061">
        <ele>847.86224365234</ele>
        <time>2011-06-02T07:53:10Z</time>
      </trkpt>
      <trkpt lat="43.70471" lon="6.70606">
        <ele>847.07885742188</ele>
        <time>2011-06-02T07:53:16Z</time>
      </trkpt>
      <trkpt lat="43.70466" lon="6.70601">
        <ele>846.14031982422</ele>
        <time>2011-06-02T07:53:24Z</time>
      </trkpt>
      <trkpt lat="43.70461" lon="6.70594">
        <ele>844.83685302734</ele>
        <time>2011-06-02T07:53:31Z</time>
      </trkpt>
      <trkpt lat="43.70456" lon="6.70587">
        <ele>843.72326660156</ele>
        <time>2011-06-02T07:53:38Z</time>
      </trkpt>
      <trkpt lat="43.7045" lon="6.70581">
        <ele>842.64526367188</ele>
        <time>2011-06-02T07:53:44Z</time>
      </trkpt>
      <trkpt lat="43.7044" lon="6.70574">
        <ele>841.83837890625</ele>
        <time>2011-06-02T07:53:52Z</time>
      </trkpt>
      <trkpt lat="43.70431" lon="6.70568">
        <ele>841.19622802734</ele>
        <time>2011-06-02T07:53:59Z</time>
      </trkpt>
      <trkpt lat="43.7043" lon="6.70567">
        <ele>840.97894287109</ele>
        <time>2011-06-02T07:54:03Z</time>
      </trkpt>
      <trkpt lat="43.70427" lon="6.70566">
        <ele>840.9384765625</ele>
        <time>2011-06-02T07:54:07Z</time>
      </trkpt>
      <trkpt lat="43.70417" lon="6.7056">
        <ele>840.36791992188</ele>
        <time>2011-06-02T07:54:16Z</time>
      </trkpt>
      <trkpt lat="43.7041" lon="6.70557">
        <ele>841.73754882812</ele>
        <time>2011-06-02T07:54:22Z</time>
      </trkpt>
      <trkpt lat="43.70402" lon="6.70555">
        <ele>843.38122558594</ele>
        <time>2011-06-02T07:54:29Z</time>
      </trkpt>
      <trkpt lat="43.70393" lon="6.70552">
        <ele>845.25494384766</ele>
        <time>2011-06-02T07:54:35Z</time>
      </trkpt>
      <trkpt lat="43.70384" lon="6.70548">
        <ele>846.63098144531</ele>
        <time>2011-06-02T07:54:43Z</time>
      </trkpt>
      <trkpt lat="43.70376" lon="6.7055">
        <ele>849.580078125</ele>
        <time>2011-06-02T07:54:53Z</time>
      </trkpt>
      <trkpt lat="43.70371" lon="6.70554">
        <ele>852.00109863281</ele>
        <time>2011-06-02T07:54:58Z</time>
      </trkpt>
      <trkpt lat="43.70369" lon="6.70555">
        <ele>852.88006591797</ele>
        <time>2011-06-02T07:55:00Z</time>
      </trkpt>
      <trkpt lat="43.70366" lon="6.7056">
        <ele>855.27862548828</ele>
        <time>2011-06-02T07:55:06Z</time>
      </trkpt>
      <trkpt lat="43.70359" lon="6.70563">
        <ele>858.02520751953</ele>
        <time>2011-06-02T07:55:13Z</time>
      </trkpt>
      <trkpt lat="43.70357" lon="6.70565">
        <ele>859.28308105469</ele>
        <time>2011-06-02T07:55:19Z</time>
      </trkpt>
      <trkpt lat="43.70354" lon="6.7057">
        <ele>861.44702148438</ele>
        <time>2011-06-02T07:55:25Z</time>
      </trkpt>
      <trkpt lat="43.70352" lon="6.70576">
        <ele>864.05596923828</ele>
        <time>2011-06-02T07:55:33Z</time>
      </trkpt>
      <trkpt lat="43.70349" lon="6.70582">
        <ele>866.86871337891</ele>
        <time>2011-06-02T07:55:41Z</time>
      </trkpt>
      <trkpt lat="43.70343" lon="6.70591">
        <ele>870.21868896484</ele>
        <time>2011-06-02T07:55:48Z</time>
      </trkpt>
      <trkpt lat="43.70339" lon="6.70598">
        <ele>872.35876464844</ele>
        <time>2011-06-02T07:55:54Z</time>
      </trkpt>
      <trkpt lat="43.70338" lon="6.70601">
        <ele>872.80749511719</ele>
        <time>2011-06-02T07:55:56Z</time>
      </trkpt>
      <trkpt lat="43.70334" lon="6.70607">
        <ele>874.81634521484</ele>
        <time>2011-06-02T07:56:03Z</time>
      </trkpt>
      <trkpt lat="43.7033" lon="6.70614">
        <ele>876.74597167969</ele>
        <time>2011-06-02T07:56:10Z</time>
      </trkpt>
      <trkpt lat="43.70328" lon="6.70618">
        <ele>877.99389648438</ele>
        <time>2011-06-02T07:56:15Z</time>
      </trkpt>
      <trkpt lat="43.70324" lon="6.70623">
        <ele>879.51995849609</ele>
        <time>2011-06-02T07:56:22Z</time>
      </trkpt>
      <trkpt lat="43.70322" lon="6.70627">
        <ele>880.55157470703</ele>
        <time>2011-06-02T07:56:28Z</time>
      </trkpt>
      <trkpt lat="43.70316" lon="6.70637">
        <ele>883.15252685547</ele>
        <time>2011-06-02T07:56:37Z</time>
      </trkpt>
      <trkpt lat="43.70312" lon="6.70643">
        <ele>884.73052978516</ele>
        <time>2011-06-02T07:56:44Z</time>
      </trkpt>
      <trkpt lat="43.70309" lon="6.70649">
        <ele>886.11511230469</ele>
        <time>2011-06-02T07:56:52Z</time>
      </trkpt>
      <trkpt lat="43.70306" lon="6.70654">
        <ele>887.34844970703</ele>
        <time>2011-06-02T07:56:59Z</time>
      </trkpt>
      <trkpt lat="43.70303" lon="6.70655">
        <ele>888.10101318359</ele>
        <time>2011-06-02T07:57:06Z</time>
      </trkpt>
      <trkpt lat="43.703" lon="6.70659">
        <ele>889.10949707031</ele>
        <time>2011-06-02T07:57:12Z</time>
      </trkpt>
      <trkpt lat="43.70293" lon="6.70663">
        <ele>890.85034179688</ele>
        <time>2011-06-02T07:57:19Z</time>
      </trkpt>
      <trkpt lat="43.70289" lon="6.70666">
        <ele>891.93267822266</ele>
        <time>2011-06-02T07:57:24Z</time>
      </trkpt>
      <trkpt lat="43.70284" lon="6.70668">
        <ele>893.197265625</ele>
        <time>2011-06-02T07:57:32Z</time>
      </trkpt>
      <trkpt lat="43.70277" lon="6.7067">
        <ele>894.44268798828</ele>
        <time>2011-06-02T07:57:40Z</time>
      </trkpt>
      <trkpt lat="43.70273" lon="6.70671">
        <ele>895.28881835938</ele>
        <time>2011-06-02T07:57:47Z</time>
      </trkpt>
      <trkpt lat="43.70271" lon="6.70669">
        <ele>895.66424560547</ele>
        <time>2011-06-02T07:57:52Z</time>
      </trkpt>
      <trkpt lat="43.70269" lon="6.70669">
        <ele>896.04638671875</ele>
        <time>2011-06-02T07:57:59Z</time>
      </trkpt>
      <trkpt lat="43.70266" lon="6.70665">
        <ele>896.55426025391</ele>
        <time>2011-06-02T07:58:08Z</time>
      </trkpt>
      <trkpt lat="43.70262" lon="6.7066">
        <ele>897.13610839844</ele>
        <time>2011-06-02T07:58:15Z</time>
      </trkpt>
      <trkpt lat="43.70258" lon="6.70655">
        <ele>897.74676513672</ele>
        <time>2011-06-02T07:58:22Z</time>
      </trkpt>
      <trkpt lat="43.70254" lon="6.70653">
        <ele>898.42156982422</ele>
        <time>2011-06-02T07:58:28Z</time>
      </trkpt>
      <trkpt lat="43.70248" lon="6.70651">
        <ele>898.98016357422</ele>
        <time>2011-06-02T07:58:34Z</time>
      </trkpt>
      <trkpt lat="43.70245" lon="6.70651">
        <ele>898.31256103516</ele>
        <time>2011-06-02T07:58:37Z</time>
      </trkpt>
      <trkpt lat="43.70239" lon="6.7065">
        <ele>897.36053466797</ele>
        <time>2011-06-02T07:58:42Z</time>
      </trkpt>
      <trkpt lat="43.70233" lon="6.70651">
        <ele>896.31451416016</ele>
        <time>2011-06-02T07:58:47Z</time>
      </trkpt>
      <trkpt lat="43.70229" lon="6.7065">
        <ele>895.55120849609</ele>
        <time>2011-06-02T07:58:53Z</time>
      </trkpt>
      <trkpt lat="43.70221" lon="6.70654">
        <ele>894.40032958984</ele>
        <time>2011-06-02T07:58:59Z</time>
      </trkpt>
      <trkpt lat="43.70217" lon="6.70662">
        <ele>893.94134521484</ele>
        <time>2011-06-02T07:59:02Z</time>
      </trkpt>
      <trkpt lat="43.70213" lon="6.70666">
        <ele>893.29284667969</ele>
        <time>2011-06-02T07:59:04Z</time>
      </trkpt>
      <trkpt lat="43.70205" lon="6.7068">
        <ele>891.80902099609</ele>
        <time>2011-06-02T07:59:09Z</time>
      </trkpt>
      <trkpt lat="43.70194" lon="6.70703">
        <ele>889.60791015625</ele>
        <time>2011-06-02T07:59:15Z</time>
      </trkpt>
      <trkpt lat="43.70188" lon="6.70719">
        <ele>888.47821044922</ele>
        <time>2011-06-02T07:59:19Z</time>
      </trkpt>
      <trkpt lat="43.70178" lon="6.70739">
        <ele>886.77941894531</ele>
        <time>2011-06-02T07:59:24Z</time>
      </trkpt>
      <trkpt lat="43.70169" lon="6.70755">
        <ele>885.65447998047</ele>
        <time>2011-06-02T07:59:29Z</time>
      </trkpt>
      <trkpt lat="43.7016" lon="6.70766">
        <ele>884.85821533203</ele>
        <time>2011-06-02T07:59:34Z</time>
      </trkpt>
      <trkpt lat="43.70155" lon="6.70776">
        <ele>884.54675292969</ele>
        <time>2011-06-02T07:59:40Z</time>
      </trkpt>
      <trkpt lat="43.70153" lon="6.70779">
        <ele>884.47808837891</ele>
        <time>2011-06-02T07:59:45Z</time>
      </trkpt>
      <trkpt lat="43.70149" lon="6.70785">
        <ele>884.31970214844</ele>
        <time>2011-06-02T07:59:50Z</time>
      </trkpt>
      <trkpt lat="43.70139" lon="6.70792">
        <ele>883.31353759766</ele>
        <time>2011-06-02T07:59:55Z</time>
      </trkpt>
      <trkpt lat="43.70121" lon="6.70805">
        <ele>881.93878173828</ele>
        <time>2011-06-02T08:00:02Z</time>
      </trkpt>
      <trkpt lat="43.70111" lon="6.70816">
        <ele>881.65069580078</ele>
        <time>2011-06-02T08:00:07Z</time>
      </trkpt>
      <trkpt lat="43.70106" lon="6.70823">
        <ele>881.56579589844</ele>
        <time>2011-06-02T08:00:11Z</time>
      </trkpt>
      <trkpt lat="43.70093" lon="6.70839">
        <ele>881.75445556641</ele>
        <time>2011-06-02T08:00:19Z</time>
      </trkpt>
      <trkpt lat="43.70084" lon="6.70847">
        <ele>882.09991455078</ele>
        <time>2011-06-02T08:00:24Z</time>
      </trkpt>
      <trkpt lat="43.70076" lon="6.7086">
        <ele>883.62316894531</ele>
        <time>2011-06-02T08:00:29Z</time>
      </trkpt>
      <trkpt lat="43.70063" lon="6.70876">
        <ele>885.66937255859</ele>
        <time>2011-06-02T08:00:36Z</time>
      </trkpt>
      <trkpt lat="43.70055" lon="6.70887">
        <ele>887.00146484375</ele>
        <time>2011-06-02T08:00:41Z</time>
      </trkpt>
      <trkpt lat="43.70044" lon="6.70895">
        <ele>887.96734619141</ele>
        <time>2011-06-02T08:00:48Z</time>
      </trkpt>
      <trkpt lat="43.70034" lon="6.70901">
        <ele>888.62426757812</ele>
        <time>2011-06-02T08:00:55Z</time>
      </trkpt>
      <trkpt lat="43.70022" lon="6.7091">
        <ele>889.50769042969</ele>
        <time>2011-06-02T08:01:02Z</time>
      </trkpt>
      <trkpt lat="43.70012" lon="6.70918">
        <ele>890.41857910156</ele>
        <time>2011-06-02T08:01:09Z</time>
      </trkpt>
      <trkpt lat="43.70008" lon="6.70919">
        <ele>890.63922119141</ele>
        <time>2011-06-02T08:01:11Z</time>
      </trkpt>
      <trkpt lat="43.70004" lon="6.70923">
        <ele>891.0703125</ele>
        <time>2011-06-02T08:01:16Z</time>
      </trkpt>
      <trkpt lat="43.69988" lon="6.70933">
        <ele>891.49444580078</ele>
        <time>2011-06-02T08:01:24Z</time>
      </trkpt>
      <trkpt lat="43.69978" lon="6.70943">
        <ele>891.83898925781</ele>
        <time>2011-06-02T08:01:30Z</time>
      </trkpt>
      <trkpt lat="43.69966" lon="6.70954">
        <ele>892.26159667969</ele>
        <time>2011-06-02T08:01:37Z</time>
      </trkpt>
      <trkpt lat="43.69957" lon="6.70967">
        <ele>893.05902099609</ele>
        <time>2011-06-02T08:01:44Z</time>
      </trkpt>
      <trkpt lat="43.6995" lon="6.70977">
        <ele>893.40765380859</ele>
        <time>2011-06-02T08:01:50Z</time>
      </trkpt>
      <trkpt lat="43.6994" lon="6.70989">
        <ele>893.71240234375</ele>
        <time>2011-06-02T08:01:55Z</time>
      </trkpt>
      <trkpt lat="43.69929" lon="6.71003">
        <ele>893.90740966797</ele>
        <time>2011-06-02T08:02:01Z</time>
      </trkpt>
      <trkpt lat="43.69924" lon="6.71011">
        <ele>894.18963623047</ele>
        <time>2011-06-02T08:02:05Z</time>
      </trkpt>
      <trkpt lat="43.6991" lon="6.7103">
        <ele>894.27233886719</ele>
        <time>2011-06-02T08:02:13Z</time>
      </trkpt>
      <trkpt lat="43.69896" lon="6.71048">
        <ele>894.05981445312</ele>
        <time>2011-06-02T08:02:20Z</time>
      </trkpt>
      <trkpt lat="43.69886" lon="6.71066">
        <ele>894.54431152344</ele>
        <time>2011-06-02T08:02:26Z</time>
      </trkpt>
      <trkpt lat="43.69873" lon="6.71085">
        <ele>894.91778564453</ele>
        <time>2011-06-02T08:02:32Z</time>
      </trkpt>
      <trkpt lat="43.69857" lon="6.71094">
        <ele>893.68170166016</ele>
        <time>2011-06-02T08:02:36Z</time>
      </trkpt>
      <trkpt lat="43.69831" lon="6.7109">
        <ele>889.69067382812</ele>
        <time>2011-06-02T08:02:41Z</time>
      </trkpt>
      <trkpt lat="43.6981" lon="6.71083">
        <ele>888.08020019531</ele>
        <time>2011-06-02T08:02:45Z</time>
      </trkpt>
      <trkpt lat="43.69769" lon="6.7108">
        <ele>886.26739501953</ele>
        <time>2011-06-02T08:02:52Z</time>
      </trkpt>
      <trkpt lat="43.69731" lon="6.71079">
        <ele>885.00640869141</ele>
        <time>2011-06-02T08:02:58Z</time>
      </trkpt>
      <trkpt lat="43.69717" lon="6.7108">
        <ele>884.79064941406</ele>
        <time>2011-06-02T08:03:00Z</time>
      </trkpt>
      <trkpt lat="43.69695" lon="6.71088">
        <ele>885.15679931641</ele>
        <time>2011-06-02T08:03:04Z</time>
      </trkpt>
      <trkpt lat="43.69655" lon="6.71103">
        <ele>885.35345458984</ele>
        <time>2011-06-02T08:03:11Z</time>
      </trkpt>
      <trkpt lat="43.69621" lon="6.71119">
        <ele>885.04724121094</ele>
        <time>2011-06-02T08:03:17Z</time>
      </trkpt>
      <trkpt lat="43.69616" lon="6.71121">
        <ele>884.97668457031</ele>
        <time>2011-06-02T08:03:18Z</time>
      </trkpt>
      <trkpt lat="43.69597" lon="6.7112">
        <ele>883.93212890625</ele>
        <time>2011-06-02T08:03:22Z</time>
      </trkpt>
      <trkpt lat="43.69587" lon="6.71113">
        <ele>882.94732666016</ele>
        <time>2011-06-02T08:03:25Z</time>
      </trkpt>
      <trkpt lat="43.69559" lon="6.71108">
        <ele>881.22637939453</ele>
        <time>2011-06-02T08:03:32Z</time>
      </trkpt>
      <trkpt lat="43.69533" lon="6.71107">
        <ele>879.85845947266</ele>
        <time>2011-06-02T08:03:39Z</time>
      </trkpt>
      <trkpt lat="43.69505" lon="6.71099">
        <ele>878.00469970703</ele>
        <time>2011-06-02T08:03:45Z</time>
      </trkpt>
      <trkpt lat="43.69495" lon="6.71092">
        <ele>876.70367431641</ele>
        <time>2011-06-02T08:03:47Z</time>
      </trkpt>
      <trkpt lat="43.69472" lon="6.71091">
        <ele>873.52825927734</ele>
        <time>2011-06-02T08:03:51Z</time>
      </trkpt>
      <trkpt lat="43.6946" lon="6.71105">
        <ele>872.32849121094</ele>
        <time>2011-06-02T08:03:54Z</time>
      </trkpt>
      <trkpt lat="43.6945" lon="6.71124">
        <ele>871.46008300781</ele>
        <time>2011-06-02T08:03:58Z</time>
      </trkpt>
      <trkpt lat="43.69443" lon="6.71117">
        <ele>870.28704833984</ele>
        <time>2011-06-02T08:04:00Z</time>
      </trkpt>
      <trkpt lat="43.69431" lon="6.71095">
        <ele>868.1484375</ele>
        <time>2011-06-02T08:04:04Z</time>
      </trkpt>
      <trkpt lat="43.69424" lon="6.71073">
        <ele>866.26171875</ele>
        <time>2011-06-02T08:04:08Z</time>
      </trkpt>
      <trkpt lat="43.69424" lon="6.71069">
        <ele>865.83544921875</ele>
        <time>2011-06-02T08:04:16Z</time>
      </trkpt>
      <trkpt lat="43.69421" lon="6.71069">
        <ele>865.55578613281</ele>
        <time>2011-06-02T08:04:21Z</time>
      </trkpt>
      <trkpt lat="43.69415" lon="6.7107">
        <ele>864.80041503906</ele>
        <time>2011-06-02T08:04:25Z</time>
      </trkpt>
      <trkpt lat="43.69399" lon="6.71083">
        <ele>863.64404296875</ele>
        <time>2011-06-02T08:04:30Z</time>
      </trkpt>
      <trkpt lat="43.69395" lon="6.71087">
        <ele>863.07342529297</ele>
        <time>2011-06-02T08:04:32Z</time>
      </trkpt>
      <trkpt lat="43.6939" lon="6.71092">
        <ele>862.45404052734</ele>
        <time>2011-06-02T08:04:34Z</time>
      </trkpt>
      <trkpt lat="43.69376" lon="6.71105">
        <ele>860.18145751953</ele>
        <time>2011-06-02T08:04:40Z</time>
      </trkpt>
      <trkpt lat="43.69364" lon="6.71128">
        <ele>857.58825683594</ele>
        <time>2011-06-02T08:04:45Z</time>
      </trkpt>
      <trkpt lat="43.6936" lon="6.71137">
        <ele>856.46844482422</ele>
        <time>2011-06-02T08:04:47Z</time>
      </trkpt>
      <trkpt lat="43.69363" lon="6.7116">
        <ele>856.36975097656</ele>
        <time>2011-06-02T08:04:51Z</time>
      </trkpt>
      <trkpt lat="43.69381" lon="6.71177">
        <ele>858.94738769531</ele>
        <time>2011-06-02T08:04:55Z</time>
      </trkpt>
      <trkpt lat="43.69407" lon="6.71195">
        <ele>862.50933837891</ele>
        <time>2011-06-02T08:05:00Z</time>
      </trkpt>
      <trkpt lat="43.69406" lon="6.71203">
        <ele>861.80267333984</ele>
        <time>2011-06-02T08:05:02Z</time>
      </trkpt>
      <trkpt lat="43.69404" lon="6.71218">
        <ele>860.06604003906</ele>
        <time>2011-06-02T08:05:05Z</time>
      </trkpt>
      <trkpt lat="43.69403" lon="6.71226">
        <ele>859.22943115234</ele>
        <time>2011-06-02T08:05:07Z</time>
      </trkpt>
      <trkpt lat="43.69402" lon="6.71251">
        <ele>856.58813476562</ele>
        <time>2011-06-02T08:05:12Z</time>
      </trkpt>
      <trkpt lat="43.69391" lon="6.71255">
        <ele>853.74780273438</ele>
        <time>2011-06-02T08:05:15Z</time>
      </trkpt>
      <trkpt lat="43.69386" lon="6.71256">
        <ele>852.50006103516</ele>
        <time>2011-06-02T08:05:16Z</time>
      </trkpt>
      <trkpt lat="43.69378" lon="6.71259">
        <ele>850.09240722656</ele>
        <time>2011-06-02T08:05:18Z</time>
      </trkpt>
      <trkpt lat="43.69368" lon="6.71283">
        <ele>842.70629882812</ele>
        <time>2011-06-02T08:05:23Z</time>
      </trkpt>
      <trkpt lat="43.69362" lon="6.71297">
        <ele>838.35150146484</ele>
        <time>2011-06-02T08:05:26Z</time>
      </trkpt>
      <trkpt lat="43.69354" lon="6.71325">
        <ele>830.45703125</ele>
        <time>2011-06-02T08:05:31Z</time>
      </trkpt>
      <trkpt lat="43.69353" lon="6.71358">
        <ele>820.99243164062</ele>
        <time>2011-06-02T08:05:36Z</time>
      </trkpt>
      <trkpt lat="43.69364" lon="6.71384">
        <ele>815.18908691406</ele>
        <time>2011-06-02T08:05:40Z</time>
      </trkpt>
      <trkpt lat="43.69371" lon="6.71394">
        <ele>813.18041992188</ele>
        <time>2011-06-02T08:05:42Z</time>
      </trkpt>
      <trkpt lat="43.69379" lon="6.71402">
        <ele>811.51605224609</ele>
        <time>2011-06-02T08:05:44Z</time>
      </trkpt>
      <trkpt lat="43.6939" lon="6.71415">
        <ele>808.96405029297</ele>
        <time>2011-06-02T08:05:47Z</time>
      </trkpt>
      <trkpt lat="43.69398" lon="6.71432">
        <ele>806.23718261719</ele>
        <time>2011-06-02T08:05:51Z</time>
      </trkpt>
      <trkpt lat="43.69397" lon="6.71439">
        <ele>804.63208007812</ele>
        <time>2011-06-02T08:05:54Z</time>
      </trkpt>
      <trkpt lat="43.69384" lon="6.71462">
        <ele>798.11975097656</ele>
        <time>2011-06-02T08:05:58Z</time>
      </trkpt>
      <trkpt lat="43.69361" lon="6.7148">
        <ele>791.44934082031</ele>
        <time>2011-06-02T08:06:02Z</time>
      </trkpt>
      <trkpt lat="43.69355" lon="6.7148">
        <ele>790.69934082031</ele>
        <time>2011-06-02T08:06:03Z</time>
      </trkpt>
      <trkpt lat="43.69324" lon="6.71469">
        <ele>789.35070800781</ele>
        <time>2011-06-02T08:06:09Z</time>
      </trkpt>
      <trkpt lat="43.69285" lon="6.71454">
        <ele>788.17602539062</ele>
        <time>2011-06-02T08:06:15Z</time>
      </trkpt>
      <trkpt lat="43.69256" lon="6.71445">
        <ele>786.91998291016</ele>
        <time>2011-06-02T08:06:20Z</time>
      </trkpt>
      <trkpt lat="43.69241" lon="6.71451">
        <ele>783.94342041016</ele>
        <time>2011-06-02T08:06:24Z</time>
      </trkpt>
      <trkpt lat="43.69239" lon="6.71456">
        <ele>782.82574462891</ele>
        <time>2011-06-02T08:06:25Z</time>
      </trkpt>
      <trkpt lat="43.69235" lon="6.71466">
        <ele>780.47192382812</ele>
        <time>2011-06-02T08:06:27Z</time>
      </trkpt>
      <trkpt lat="43.69225" lon="6.71473">
        <ele>778.09594726562</ele>
        <time>2011-06-02T08:06:30Z</time>
      </trkpt>
      <trkpt lat="43.6921" lon="6.71466">
        <ele>777.92211914062</ele>
        <time>2011-06-02T08:06:34Z</time>
      </trkpt>
      <trkpt lat="43.692" lon="6.71465">
        <ele>777.10827636719</ele>
        <time>2011-06-02T08:06:36Z</time>
      </trkpt>
      <trkpt lat="43.69182" lon="6.71463">
        <ele>775.51336669922</ele>
        <time>2011-06-02T08:06:40Z</time>
      </trkpt>
      <trkpt lat="43.69169" lon="6.71459">
        <ele>774.68054199219</ele>
        <time>2011-06-02T08:06:42Z</time>
      </trkpt>
      <trkpt lat="43.69159" lon="6.71455">
        <ele>774.31384277344</ele>
        <time>2011-06-02T08:06:44Z</time>
      </trkpt>
      <trkpt lat="43.69151" lon="6.7145">
        <ele>774.25268554688</ele>
        <time>2011-06-02T08:06:47Z</time>
      </trkpt>
      <trkpt lat="43.6914" lon="6.71431">
        <ele>775.65515136719</ele>
        <time>2011-06-02T08:06:53Z</time>
      </trkpt>
      <trkpt lat="43.69125" lon="6.71423">
        <ele>775.18060302734</ele>
        <time>2011-06-02T08:06:58Z</time>
      </trkpt>
      <trkpt lat="43.69119" lon="6.71415">
        <ele>775.72180175781</ele>
        <time>2011-06-02T08:07:01Z</time>
      </trkpt>
      <trkpt lat="43.69101" lon="6.71401">
        <ele>775.51599121094</ele>
        <time>2011-06-02T08:07:06Z</time>
      </trkpt>
      <trkpt lat="43.69087" lon="6.71394">
        <ele>774.63079833984</ele>
        <time>2011-06-02T08:07:09Z</time>
      </trkpt>
      <trkpt lat="43.69054" lon="6.71379">
        <ele>772.41571044922</ele>
        <time>2011-06-02T08:07:16Z</time>
      </trkpt>
      <trkpt lat="43.69049" lon="6.71377">
        <ele>772.05859375</ele>
        <time>2011-06-02T08:07:17Z</time>
      </trkpt>
      <trkpt lat="43.69033" lon="6.71371">
        <ele>770.85137939453</ele>
        <time>2011-06-02T08:07:21Z</time>
      </trkpt>
      <trkpt lat="43.69025" lon="6.71368">
        <ele>770.19958496094</ele>
        <time>2011-06-02T08:07:24Z</time>
      </trkpt>
      <trkpt lat="43.69011" lon="6.71363">
        <ele>769.13348388672</ele>
        <time>2011-06-02T08:07:29Z</time>
      </trkpt>
      <trkpt lat="43.68991" lon="6.71356">
        <ele>766.73840332031</ele>
        <time>2011-06-02T08:07:34Z</time>
      </trkpt>
      <trkpt lat="43.6898" lon="6.71348">
        <ele>765.34283447266</ele>
        <time>2011-06-02T08:07:37Z</time>
      </trkpt>
      <trkpt lat="43.68963" lon="6.71347">
        <ele>762.37860107422</ele>
        <time>2011-06-02T08:07:41Z</time>
      </trkpt>
      <trkpt lat="43.68954" lon="6.71328">
        <ele>761.98278808594</ele>
        <time>2011-06-02T08:07:45Z</time>
      </trkpt>
      <trkpt lat="43.68947" lon="6.71307">
        <ele>762.01141357422</ele>
        <time>2011-06-02T08:07:49Z</time>
      </trkpt>
      <trkpt lat="43.68941" lon="6.71299">
        <ele>761.43347167969</ele>
        <time>2011-06-02T08:07:51Z</time>
      </trkpt>
      <trkpt lat="43.68933" lon="6.71291">
        <ele>760.51220703125</ele>
        <time>2011-06-02T08:07:56Z</time>
      </trkpt>
      <trkpt lat="43.68929" lon="6.71295">
        <ele>759.5966796875</ele>
        <time>2011-06-02T08:08:08Z</time>
      </trkpt>
      <trkpt lat="43.68929" lon="6.71294">
        <ele>759.57098388672</ele>
        <time>2011-06-02T08:08:14Z</time>
      </trkpt>
      <trkpt lat="43.68928" lon="6.71295">
        <ele>759.31060791016</ele>
        <time>2011-06-02T08:08:30Z</time>
      </trkpt>
      <trkpt lat="43.68927" lon="6.71299">
        <ele>758.94439697266</ele>
        <time>2011-06-02T08:09:01Z</time>
      </trkpt>
      <trkpt lat="43.68927" lon="6.71299">
        <ele>758.93579101562</ele>
        <time>2011-06-02T08:09:02Z</time>
      </trkpt>
      <trkpt lat="43.68926" lon="6.71298">
        <ele>758.85284423828</ele>
        <time>2011-06-02T08:09:26Z</time>
      </trkpt>
      <trkpt lat="43.68924" lon="6.71298">
        <ele>758.4580078125</ele>
        <time>2011-06-02T08:09:51Z</time>
      </trkpt>
      <trkpt lat="43.68924" lon="6.71299">
        <ele>758.30352783203</ele>
        <time>2011-06-02T08:10:06Z</time>
      </trkpt>
      <trkpt lat="43.68924" lon="6.713">
        <ele>758.30926513672</ele>
        <time>2011-06-02T08:10:23Z</time>
      </trkpt>
      <trkpt lat="43.68924" lon="6.71297">
        <ele>758.57531738281</ele>
        <time>2011-06-02T08:10:39Z</time>
      </trkpt>
      <trkpt lat="43.68924" lon="6.71296">
        <ele>758.56677246094</ele>
        <time>2011-06-02T08:10:55Z</time>
      </trkpt>
      <trkpt lat="43.68924" lon="6.71294">
        <ele>758.62683105469</ele>
        <time>2011-06-02T08:11:04Z</time>
      </trkpt>
      <trkpt lat="43.6893" lon="6.71292">
        <ele>759.82843017578</ele>
        <time>2011-06-02T08:11:26Z</time>
      </trkpt>
      <trkpt lat="43.68929" lon="6.71289">
        <ele>759.77124023438</ele>
        <time>2011-06-02T08:11:38Z</time>
      </trkpt>
      <trkpt lat="43.68928" lon="6.71292">
        <ele>759.49945068359</ele>
        <time>2011-06-02T08:11:49Z</time>
      </trkpt>
      <trkpt lat="43.68928" lon="6.71294">
        <ele>759.34497070312</ele>
        <time>2011-06-02T08:12:10Z</time>
      </trkpt>
      <trkpt lat="43.68928" lon="6.71294">
        <ele>759.44219970703</ele>
        <time>2011-06-02T08:12:22Z</time>
      </trkpt>
      <trkpt lat="43.6893" lon="6.71292">
        <ele>759.79986572266</ele>
        <time>2011-06-02T08:12:47Z</time>
      </trkpt>
      <trkpt lat="43.68934" lon="6.71288">
        <ele>760.9013671875</ele>
        <time>2011-06-02T08:13:15Z</time>
      </trkpt>
      <trkpt lat="43.68934" lon="6.71287">
        <ele>760.97283935547</ele>
        <time>2011-06-02T08:13:29Z</time>
      </trkpt>
      <trkpt lat="43.68935" lon="6.71286">
        <ele>761.04724121094</ele>
        <time>2011-06-02T08:13:30Z</time>
      </trkpt>
      <trkpt lat="43.68934" lon="6.71287">
        <ele>760.88415527344</ele>
        <time>2011-06-02T08:13:56Z</time>
      </trkpt>
      <trkpt lat="43.68933" lon="6.71288">
        <ele>760.65240478516</ele>
        <time>2011-06-02T08:14:15Z</time>
      </trkpt>
      <trkpt lat="43.68933" lon="6.71288">
        <ele>760.65240478516</ele>
        <time>2011-06-02T08:14:16Z</time>
      </trkpt>
      <trkpt lat="43.68929" lon="6.71292">
        <ele>759.67395019531</ele>
        <time>2011-06-02T08:15:29Z</time>
      </trkpt>
      <trkpt lat="43.68929" lon="6.71292">
        <ele>759.66821289062</ele>
        <time>2011-06-02T08:15:49Z</time>
      </trkpt>
      <trkpt lat="43.68929" lon="6.71291">
        <ele>759.83703613281</ele>
        <time>2011-06-02T08:16:23Z</time>
      </trkpt>
      <trkpt lat="43.68929" lon="6.71291">
        <ele>759.759765625</ele>
        <time>2011-06-02T08:16:24Z</time>
      </trkpt>
      <trkpt lat="43.68929" lon="6.71291">
        <ele>759.82843017578</ele>
        <time>2011-06-02T08:16:28Z</time>
      </trkpt>
      <trkpt lat="43.6893" lon="6.71291">
        <ele>759.90283203125</ele>
        <time>2011-06-02T08:16:31Z</time>
      </trkpt>
      <trkpt lat="43.6893" lon="6.71291">
        <ele>759.90856933594</ele>
        <time>2011-06-02T08:16:32Z</time>
      </trkpt>
      <trkpt lat="43.68932" lon="6.71286">
        <ele>760.49505615234</ele>
        <time>2011-06-02T08:16:38Z</time>
      </trkpt>
      <trkpt lat="43.68942" lon="6.71285">
        <ele>762.49780273438</ele>
        <time>2011-06-02T08:16:42Z</time>
      </trkpt>
      <trkpt lat="43.68964" lon="6.71291">
        <ele>766.09979248047</ele>
        <time>2011-06-02T08:16:47Z</time>
      </trkpt>
      <trkpt lat="43.68974" lon="6.71295">
        <ele>767.62762451172</ele>
        <time>2011-06-02T08:16:49Z</time>
      </trkpt>
      <trkpt lat="43.68987" lon="6.713">
        <ele>769.70758056641</ele>
        <time>2011-06-02T08:16:52Z</time>
      </trkpt>
      <trkpt lat="43.69013" lon="6.71304">
        <ele>773.72680664062</ele>
        <time>2011-06-02T08:16:58Z</time>
      </trkpt>
      <trkpt lat="43.69038" lon="6.71317">
        <ele>776.26086425781</ele>
        <time>2011-06-02T08:17:05Z</time>
      </trkpt>
      <trkpt lat="43.69062" lon="6.7133">
        <ele>777.7978515625</ele>
        <time>2011-06-02T08:17:11Z</time>
      </trkpt>
      <trkpt lat="43.69075" lon="6.71337">
        <ele>778.705078125</ele>
        <time>2011-06-02T08:17:14Z</time>
      </trkpt>
      <trkpt lat="43.69096" lon="6.71339">
        <ele>782.06353759766</ele>
        <time>2011-06-02T08:17:19Z</time>
      </trkpt>
      <trkpt lat="43.6911" lon="6.71342">
        <ele>784.52777099609</ele>
        <time>2011-06-02T08:17:22Z</time>
      </trkpt>
      <trkpt lat="43.6912" lon="6.71346">
        <ele>785.98394775391</ele>
        <time>2011-06-02T08:17:24Z</time>
      </trkpt>
      <trkpt lat="43.6915" lon="6.71364">
        <ele>788.60900878906</ele>
        <time>2011-06-02T08:17:30Z</time>
      </trkpt>
      <trkpt lat="43.69182" lon="6.71385">
        <ele>789.2919921875</ele>
        <time>2011-06-02T08:17:36Z</time>
      </trkpt>
      <trkpt lat="43.69214" lon="6.71413">
        <ele>787.77496337891</ele>
        <time>2011-06-02T08:17:42Z</time>
      </trkpt>
      <trkpt lat="43.69218" lon="6.71417">
        <ele>787.330078125</ele>
        <time>2011-06-02T08:17:43Z</time>
      </trkpt>
      <trkpt lat="43.6924" lon="6.71423">
        <ele>789.21105957031</ele>
        <time>2011-06-02T08:17:47Z</time>
      </trkpt>
      <trkpt lat="43.69247" lon="6.7141">
        <ele>793.39190673828</ele>
        <time>2011-06-02T08:17:49Z</time>
      </trkpt>
      <trkpt lat="43.69249" lon="6.71401">
        <ele>796.33380126953</ele>
        <time>2011-06-02T08:17:50Z</time>
      </trkpt>
      <trkpt lat="43.69254" lon="6.7138">
        <ele>802.58825683594</ele>
        <time>2011-06-02T08:17:52Z</time>
      </trkpt>
      <trkpt lat="43.6925" lon="6.71349">
        <ele>810.49127197266</ele>
        <time>2011-06-02T08:17:55Z</time>
      </trkpt>
      <trkpt lat="43.69238" lon="6.71332">
        <ele>812.68670654297</ele>
        <time>2011-06-02T08:17:57Z</time>
      </trkpt>
      <trkpt lat="43.69198" lon="6.71281">
        <ele>816.31329345703</ele>
        <time>2011-06-02T08:18:03Z</time>
      </trkpt>
      <trkpt lat="43.69164" lon="6.71239">
        <ele>817.92254638672</ele>
        <time>2011-06-02T08:18:08Z</time>
      </trkpt>
      <trkpt lat="43.69138" lon="6.71206">
        <ele>814.72277832031</ele>
        <time>2011-06-02T08:18:12Z</time>
      </trkpt>
      <trkpt lat="43.691" lon="6.71157">
        <ele>810.08557128906</ele>
        <time>2011-06-02T08:18:18Z</time>
      </trkpt>
      <trkpt lat="43.6907" lon="6.71117">
        <ele>805.29339599609</ele>
        <time>2011-06-02T08:18:23Z</time>
      </trkpt>
      <trkpt lat="43.69024" lon="6.7106">
        <ele>796.77838134766</ele>
        <time>2011-06-02T08:18:31Z</time>
      </trkpt>
      <trkpt lat="43.68989" lon="6.7102">
        <ele>793.31500244141</ele>
        <time>2011-06-02T08:18:37Z</time>
      </trkpt>
      <trkpt lat="43.68952" lon="6.70982">
        <ele>796.98687744141</ele>
        <time>2011-06-02T08:18:44Z</time>
      </trkpt>
      <trkpt lat="43.68913" lon="6.70938">
        <ele>802.34600830078</ele>
        <time>2011-06-02T08:18:53Z</time>
      </trkpt>
      <trkpt lat="43.68886" lon="6.70912">
        <ele>808.16320800781</ele>
        <time>2011-06-02T08:18:59Z</time>
      </trkpt>
      <trkpt lat="43.68861" lon="6.70896">
        <ele>812.11889648438</ele>
        <time>2011-06-02T08:19:04Z</time>
      </trkpt>
      <trkpt lat="43.68834" lon="6.70867">
        <ele>816.71990966797</ele>
        <time>2011-06-02T08:19:10Z</time>
      </trkpt>
      <trkpt lat="43.68807" lon="6.70832">
        <ele>817.56005859375</ele>
        <time>2011-06-02T08:19:17Z</time>
      </trkpt>
      <trkpt lat="43.68793" lon="6.70813">
        <ele>816.87554931641</ele>
        <time>2011-06-02T08:19:21Z</time>
      </trkpt>
      <trkpt lat="43.68771" lon="6.70788">
        <ele>815.33728027344</ele>
        <time>2011-06-02T08:19:27Z</time>
      </trkpt>
      <trkpt lat="43.68755" lon="6.70768">
        <ele>814.14044189453</ele>
        <time>2011-06-02T08:19:32Z</time>
      </trkpt>
      <trkpt lat="43.68756" lon="6.70756">
        <ele>814.52160644531</ele>
        <time>2011-06-02T08:19:36Z</time>
      </trkpt>
      <trkpt lat="43.68755" lon="6.70753">
        <ele>814.52239990234</ele>
        <time>2011-06-02T08:19:40Z</time>
      </trkpt>
      <trkpt lat="43.68755" lon="6.70751">
        <ele>814.56481933594</ele>
        <time>2011-06-02T08:19:41Z</time>
      </trkpt>
      <trkpt lat="43.68751" lon="6.70742">
        <ele>814.04815673828</ele>
        <time>2011-06-02T08:19:47Z</time>
      </trkpt>
      <trkpt lat="43.68744" lon="6.70732">
        <ele>812.35760498047</ele>
        <time>2011-06-02T08:19:53Z</time>
      </trkpt>
      <trkpt lat="43.68742" lon="6.70728">
        <ele>811.80828857422</ele>
        <time>2011-06-02T08:19:55Z</time>
      </trkpt>
      <trkpt lat="43.68729" lon="6.70721">
        <ele>808.89447021484</ele>
        <time>2011-06-02T08:20:02Z</time>
      </trkpt>
      <trkpt lat="43.68724" lon="6.70718">
        <ele>807.91040039062</ele>
        <time>2011-06-02T08:20:04Z</time>
      </trkpt>
      <trkpt lat="43.68719" lon="6.70708">
        <ele>807.00958251953</ele>
        <time>2011-06-02T08:20:08Z</time>
      </trkpt>
      <trkpt lat="43.6871" lon="6.70698">
        <ele>805.37982177734</ele>
        <time>2011-06-02T08:20:14Z</time>
      </trkpt>
      <trkpt lat="43.68703" lon="6.70691">
        <ele>804.25457763672</ele>
        <time>2011-06-02T08:20:19Z</time>
      </trkpt>
      <trkpt lat="43.68696" lon="6.70685">
        <ele>803.19152832031</ele>
        <time>2011-06-02T08:20:24Z</time>
      </trkpt>
      <trkpt lat="43.68688" lon="6.70662">
        <ele>802.73315429688</ele>
        <time>2011-06-02T08:20:32Z</time>
      </trkpt>
      <trkpt lat="43.68684" lon="6.70646">
        <ele>802.4990234375</ele>
        <time>2011-06-02T08:20:38Z</time>
      </trkpt>
      <trkpt lat="43.68682" lon="6.70642">
        <ele>802.31750488281</ele>
        <time>2011-06-02T08:20:41Z</time>
      </trkpt>
      <trkpt lat="43.68678" lon="6.70633">
        <ele>801.88360595703</ele>
        <time>2011-06-02T08:20:47Z</time>
      </trkpt>
      <trkpt lat="43.68677" lon="6.70626">
        <ele>801.91802978516</ele>
        <time>2011-06-02T08:20:50Z</time>
      </trkpt>
      <trkpt lat="43.68672" lon="6.70613">
        <ele>801.70025634766</ele>
        <time>2011-06-02T08:20:56Z</time>
      </trkpt>
      <trkpt lat="43.68671" lon="6.70595">
        <ele>802.09246826172</ele>
        <time>2011-06-02T08:21:03Z</time>
      </trkpt>
      <trkpt lat="43.68672" lon="6.70578">
        <ele>802.61199951172</ele>
        <time>2011-06-02T08:21:09Z</time>
      </trkpt>
      <trkpt lat="43.68671" lon="6.70563">
        <ele>802.55590820312</ele>
        <time>2011-06-02T08:21:13Z</time>
      </trkpt>
      <trkpt lat="43.68675" lon="6.70542">
        <ele>802.93334960938</ele>
        <time>2011-06-02T08:21:18Z</time>
      </trkpt>
      <trkpt lat="43.68675" lon="6.70515">
        <ele>802.94299316406</ele>
        <time>2011-06-02T08:21:23Z</time>
      </trkpt>
      <trkpt lat="43.68676" lon="6.70491">
        <ele>803.03570556641</ele>
        <time>2011-06-02T08:21:28Z</time>
      </trkpt>
      <trkpt lat="43.68678" lon="6.70469">
        <ele>803.20343017578</ele>
        <time>2011-06-02T08:21:33Z</time>
      </trkpt>
      <trkpt lat="43.68679" lon="6.70449">
        <ele>803.20806884766</ele>
        <time>2011-06-02T08:21:39Z</time>
      </trkpt>
      <trkpt lat="43.6868" lon="6.70435">
        <ele>803.29650878906</ele>
        <time>2011-06-02T08:21:42Z</time>
      </trkpt>
      <trkpt lat="43.68682" lon="6.70406">
        <ele>803.3134765625</ele>
        <time>2011-06-02T08:21:47Z</time>
      </trkpt>
      <trkpt lat="43.68682" lon="6.70379">
        <ele>803.0302734375</ele>
        <time>2011-06-02T08:21:53Z</time>
      </trkpt>
      <trkpt lat="43.68682" lon="6.70375">
        <ele>802.98162841797</ele>
        <time>2011-06-02T08:21:54Z</time>
      </trkpt>
      <trkpt lat="43.68689" lon="6.7035">
        <ele>803.3369140625</ele>
        <time>2011-06-02T08:22:00Z</time>
      </trkpt>
      <trkpt lat="43.68689" lon="6.70323">
        <ele>803.07092285156</ele>
        <time>2011-06-02T08:22:05Z</time>
      </trkpt>
      <trkpt lat="43.6869" lon="6.70303">
        <ele>803.11267089844</ele>
        <time>2011-06-02T08:22:08Z</time>
      </trkpt>
      <trkpt lat="43.6869" lon="6.7026">
        <ele>803.00274658203</ele>
        <time>2011-06-02T08:22:15Z</time>
      </trkpt>
      <trkpt lat="43.6869" lon="6.70233">
        <ele>802.94293212891</ele>
        <time>2011-06-02T08:22:19Z</time>
      </trkpt>
      <trkpt lat="43.68691" lon="6.70197">
        <ele>802.85003662109</ele>
        <time>2011-06-02T08:22:24Z</time>
      </trkpt>
      <trkpt lat="43.68693" lon="6.70151">
        <ele>802.82208251953</ele>
        <time>2011-06-02T08:22:31Z</time>
      </trkpt>
      <trkpt lat="43.68694" lon="6.70103">
        <ele>802.73706054688</ele>
        <time>2011-06-02T08:22:39Z</time>
      </trkpt>
      <trkpt lat="43.68695" lon="6.70058">
        <ele>802.60229492188</ele>
        <time>2011-06-02T08:22:47Z</time>
      </trkpt>
      <trkpt lat="43.68695" lon="6.70042">
        <ele>802.55743408203</ele>
        <time>2011-06-02T08:22:50Z</time>
      </trkpt>
      <trkpt lat="43.68695" lon="6.70014">
        <ele>802.44061279297</ele>
        <time>2011-06-02T08:22:55Z</time>
      </trkpt>
      <trkpt lat="43.68696" lon="6.70003">
        <ele>802.43273925781</ele>
        <time>2011-06-02T08:22:57Z</time>
      </trkpt>
      <trkpt lat="43.68698" lon="6.69992">
        <ele>802.35211181641</ele>
        <time>2011-06-02T08:22:59Z</time>
      </trkpt>
      <trkpt lat="43.68698" lon="6.6998">
        <ele>802.15649414062</ele>
        <time>2011-06-02T08:23:01Z</time>
      </trkpt>
      <trkpt lat="43.68697" lon="6.69964">
        <ele>801.88330078125</ele>
        <time>2011-06-02T08:23:04Z</time>
      </trkpt>
      <trkpt lat="43.68699" lon="6.69934">
        <ele>801.42541503906</ele>
        <time>2011-06-02T08:23:09Z</time>
      </trkpt>
      <trkpt lat="43.68699" lon="6.69885">
        <ele>801.01226806641</ele>
        <time>2011-06-02T08:23:16Z</time>
      </trkpt>
      <trkpt lat="43.687" lon="6.69845">
        <ele>800.85534667969</ele>
        <time>2011-06-02T08:23:23Z</time>
      </trkpt>
      <trkpt lat="43.68701" lon="6.69811">
        <ele>800.70855712891</ele>
        <time>2011-06-02T08:23:30Z</time>
      </trkpt>
      <trkpt lat="43.68702" lon="6.69775">
        <ele>800.54284667969</ele>
        <time>2011-06-02T08:23:38Z</time>
      </trkpt>
      <trkpt lat="43.68702" lon="6.69746">
        <ele>800.40106201172</ele>
        <time>2011-06-02T08:23:46Z</time>
      </trkpt>
      <trkpt lat="43.68702" lon="6.69725">
        <ele>800.29132080078</ele>
        <time>2011-06-02T08:23:52Z</time>
      </trkpt>
      <trkpt lat="43.68703" lon="6.69701">
        <ele>800.18054199219</ele>
        <time>2011-06-02T08:23:58Z</time>
      </trkpt>
      <trkpt lat="43.68706" lon="6.69674">
        <ele>800.04052734375</ele>
        <time>2011-06-02T08:24:04Z</time>
      </trkpt>
      <trkpt lat="43.68707" lon="6.69653">
        <ele>799.34222412109</ele>
        <time>2011-06-02T08:24:08Z</time>
      </trkpt>
      <trkpt lat="43.6871" lon="6.69631">
        <ele>798.26702880859</ele>
        <time>2011-06-02T08:24:13Z</time>
      </trkpt>
      <trkpt lat="43.68713" lon="6.69614">
        <ele>797.38745117188</ele>
        <time>2011-06-02T08:24:17Z</time>
      </trkpt>
      <trkpt lat="43.68718" lon="6.69593">
        <ele>796.26312255859</ele>
        <time>2011-06-02T08:24:21Z</time>
      </trkpt>
      <trkpt lat="43.68725" lon="6.69581">
        <ele>795.12432861328</ele>
        <time>2011-06-02T08:24:25Z</time>
      </trkpt>
      <trkpt lat="43.68734" lon="6.69578">
        <ele>794.26336669922</ele>
        <time>2011-06-02T08:24:28Z</time>
      </trkpt>
      <trkpt lat="43.68749" lon="6.69582">
        <ele>794.79949951172</ele>
        <time>2011-06-02T08:24:33Z</time>
      </trkpt>
      <trkpt lat="43.68756" lon="6.69587">
        <ele>791.98773193359</ele>
        <time>2011-06-02T08:24:36Z</time>
      </trkpt>
      <trkpt lat="43.68761" lon="6.69591">
        <ele>789.79748535156</ele>
        <time>2011-06-02T08:24:38Z</time>
      </trkpt>
      <trkpt lat="43.68764" lon="6.69592">
        <ele>788.55438232422</ele>
        <time>2011-06-02T08:24:39Z</time>
      </trkpt>
      <trkpt lat="43.6877" lon="6.69582">
        <ele>784.5185546875</ele>
        <time>2011-06-02T08:24:43Z</time>
      </trkpt>
      <trkpt lat="43.68771" lon="6.69563">
        <ele>780.64953613281</ele>
        <time>2011-06-02T08:24:47Z</time>
      </trkpt>
      <trkpt lat="43.68769" lon="6.69553">
        <ele>779.26440429688</ele>
        <time>2011-06-02T08:24:50Z</time>
      </trkpt>
      <trkpt lat="43.68768" lon="6.69541">
        <ele>777.41381835938</ele>
        <time>2011-06-02T08:24:55Z</time>
      </trkpt>
      <trkpt lat="43.68769" lon="6.69539">
        <ele>776.82415771484</ele>
        <time>2011-06-02T08:24:59Z</time>
      </trkpt>
      <trkpt lat="43.68768" lon="6.69534">
        <ele>776.17413330078</ele>
        <time>2011-06-02T08:25:01Z</time>
      </trkpt>
      <trkpt lat="43.68766" lon="6.69518">
        <ele>773.64276123047</ele>
        <time>2011-06-02T08:25:08Z</time>
      </trkpt>
      <trkpt lat="43.68764" lon="6.695">
        <ele>770.982421875</ele>
        <time>2011-06-02T08:25:13Z</time>
      </trkpt>
      <trkpt lat="43.68762" lon="6.69482">
        <ele>765.25476074219</ele>
        <time>2011-06-02T08:25:18Z</time>
      </trkpt>
      <trkpt lat="43.68761" lon="6.69464">
        <ele>759.37200927734</ele>
        <time>2011-06-02T08:25:23Z</time>
      </trkpt>
      <trkpt lat="43.68758" lon="6.69441">
        <ele>751.42517089844</ele>
        <time>2011-06-02T08:25:29Z</time>
      </trkpt>
      <trkpt lat="43.68757" lon="6.69429">
        <ele>747.32794189453</ele>
        <time>2011-06-02T08:25:32Z</time>
      </trkpt>
      <trkpt lat="43.68754" lon="6.69415">
        <ele>742.58972167969</ele>
        <time>2011-06-02T08:25:36Z</time>
      </trkpt>
      <trkpt lat="43.68753" lon="6.69395">
        <ele>736.27221679688</ele>
        <time>2011-06-02T08:25:42Z</time>
      </trkpt>
      <trkpt lat="43.68753" lon="6.6939">
        <ele>734.54437255859</ele>
        <time>2011-06-02T08:25:44Z</time>
      </trkpt>
      <trkpt lat="43.68751" lon="6.69383">
        <ele>732.51794433594</ele>
        <time>2011-06-02T08:25:47Z</time>
      </trkpt>
      <trkpt lat="43.68747" lon="6.69366">
        <ele>727.01892089844</ele>
        <time>2011-06-02T08:25:53Z</time>
      </trkpt>
      <trkpt lat="43.68742" lon="6.6935">
        <ele>721.83465576172</ele>
        <time>2011-06-02T08:25:58Z</time>
      </trkpt>
      <trkpt lat="43.68741" lon="6.69347">
        <ele>720.77410888672</ele>
        <time>2011-06-02T08:25:59Z</time>
      </trkpt>
      <trkpt lat="43.68736" lon="6.69335">
        <ele>717.04479980469</ele>
        <time>2011-06-02T08:26:03Z</time>
      </trkpt>
      <trkpt lat="43.68732" lon="6.69328">
        <ele>715.40106201172</ele>
        <time>2011-06-02T08:26:06Z</time>
      </trkpt>
      <trkpt lat="43.68732" lon="6.69318">
        <ele>713.49151611328</ele>
        <time>2011-06-02T08:26:10Z</time>
      </trkpt>
      <trkpt lat="43.68739" lon="6.69311">
        <ele>711.81970214844</ele>
        <time>2011-06-02T08:26:14Z</time>
      </trkpt>
      <trkpt lat="43.6875" lon="6.69311">
        <ele>711.75756835938</ele>
        <time>2011-06-02T08:26:19Z</time>
      </trkpt>
      <trkpt lat="43.68761" lon="6.69311">
        <ele>711.99523925781</ele>
        <time>2011-06-02T08:26:24Z</time>
      </trkpt>
      <trkpt lat="43.68771" lon="6.69311">
        <ele>712.14398193359</ele>
        <time>2011-06-02T08:26:30Z</time>
      </trkpt>
      <trkpt lat="43.68773" lon="6.69304">
        <ele>711.09442138672</ele>
        <time>2011-06-02T08:26:35Z</time>
      </trkpt>
      <trkpt lat="43.68773" lon="6.69301">
        <ele>710.47106933594</ele>
        <time>2011-06-02T08:26:37Z</time>
      </trkpt>
      <trkpt lat="43.68773" lon="6.69296">
        <ele>709.77642822266</ele>
        <time>2011-06-02T08:26:44Z</time>
      </trkpt>
      <trkpt lat="43.6877" lon="6.69287">
        <ele>708.11614990234</ele>
        <time>2011-06-02T08:26:49Z</time>
      </trkpt>
      <trkpt lat="43.6877" lon="6.69286">
        <ele>707.78680419922</ele>
        <time>2011-06-02T08:26:53Z</time>
      </trkpt>
      <trkpt lat="43.68771" lon="6.69281">
        <ele>707.10864257812</ele>
        <time>2011-06-02T08:27:04Z</time>
      </trkpt>
      <trkpt lat="43.68771" lon="6.69278">
        <ele>706.62799072266</ele>
        <time>2011-06-02T08:27:12Z</time>
      </trkpt>
      <trkpt lat="43.68771" lon="6.69274">
        <ele>705.82958984375</ele>
        <time>2011-06-02T08:27:31Z</time>
      </trkpt>
      <trkpt lat="43.6877" lon="6.69275">
        <ele>705.98022460938</ele>
        <time>2011-06-02T08:27:38Z</time>
      </trkpt>
      <trkpt lat="43.6877" lon="6.69277">
        <ele>706.27764892578</ele>
        <time>2011-06-02T08:27:47Z</time>
      </trkpt>
      <trkpt lat="43.68766" lon="6.69266">
        <ele>704.14007568359</ele>
        <time>2011-06-02T08:27:51Z</time>
      </trkpt>
      <trkpt lat="43.68764" lon="6.69263">
        <ele>703.42553710938</ele>
        <time>2011-06-02T08:27:52Z</time>
      </trkpt>
      <trkpt lat="43.68768" lon="6.69256">
        <ele>702.50323486328</ele>
        <time>2011-06-02T08:27:56Z</time>
      </trkpt>
      <trkpt lat="43.68781" lon="6.69259">
        <ele>703.99334716797</ele>
        <time>2011-06-02T08:28:01Z</time>
      </trkpt>
      <trkpt lat="43.68784" lon="6.6926">
        <ele>704.32244873047</ele>
        <time>2011-06-02T08:28:02Z</time>
      </trkpt>
      <trkpt lat="43.68787" lon="6.69263">
        <ele>705.05743408203</ele>
        <time>2011-06-02T08:28:04Z</time>
      </trkpt>
      <trkpt lat="43.68794" lon="6.69263">
        <ele>705.63159179688</ele>
        <time>2011-06-02T08:28:08Z</time>
      </trkpt>
      <trkpt lat="43.68793" lon="6.6925">
        <ele>703.60479736328</ele>
        <time>2011-06-02T08:28:12Z</time>
      </trkpt>
      <trkpt lat="43.68789" lon="6.69238">
        <ele>703.09265136719</ele>
        <time>2011-06-02T08:28:16Z</time>
      </trkpt>
      <trkpt lat="43.68787" lon="6.69233">
        <ele>702.86169433594</ele>
        <time>2011-06-02T08:28:18Z</time>
      </trkpt>
      <trkpt lat="43.6878" lon="6.69225">
        <ele>702.21185302734</ele>
        <time>2011-06-02T08:28:22Z</time>
      </trkpt>
      <trkpt lat="43.68783" lon="6.69219">
        <ele>702.33880615234</ele>
        <time>2011-06-02T08:28:26Z</time>
      </trkpt>
      <trkpt lat="43.68789" lon="6.69218">
        <ele>702.72680664062</ele>
        <time>2011-06-02T08:28:28Z</time>
      </trkpt>
      <trkpt lat="43.688" lon="6.69219">
        <ele>703.50598144531</ele>
        <time>2011-06-02T08:28:33Z</time>
      </trkpt>
      <trkpt lat="43.68811" lon="6.69229">
        <ele>704.55169677734</ele>
        <time>2011-06-02T08:28:38Z</time>
      </trkpt>
      <trkpt lat="43.68814" lon="6.6922">
        <ele>704.58966064453</ele>
        <time>2011-06-02T08:28:42Z</time>
      </trkpt>
      <trkpt lat="43.68809" lon="6.69208">
        <ele>703.90130615234</ele>
        <time>2011-06-02T08:28:46Z</time>
      </trkpt>
      <trkpt lat="43.68808" lon="6.69198">
        <ele>703.59484863281</ele>
        <time>2011-06-02T08:28:50Z</time>
      </trkpt>
      <trkpt lat="43.68811" lon="6.69197">
        <ele>703.74169921875</ele>
        <time>2011-06-02T08:28:52Z</time>
      </trkpt>
      <trkpt lat="43.68815" lon="6.69198">
        <ele>704.02313232422</ele>
        <time>2011-06-02T08:28:54Z</time>
      </trkpt>
      <trkpt lat="43.68823" lon="6.69203">
        <ele>704.65002441406</ele>
        <time>2011-06-02T08:28:57Z</time>
      </trkpt>
      <trkpt lat="43.68823" lon="6.69196">
        <ele>704.45538330078</ele>
        <time>2011-06-02T08:29:01Z</time>
      </trkpt>
      <trkpt lat="43.68819" lon="6.69192">
        <ele>704.05670166016</ele>
        <time>2011-06-02T08:29:03Z</time>
      </trkpt>
      <trkpt lat="43.68816" lon="6.6919">
        <ele>703.80340576172</ele>
        <time>2011-06-02T08:29:04Z</time>
      </trkpt>
      <trkpt lat="43.6881" lon="6.69177">
        <ele>703.14721679688</ele>
        <time>2011-06-02T08:29:08Z</time>
      </trkpt>
      <trkpt lat="43.68807" lon="6.69173">
        <ele>702.90557861328</ele>
        <time>2011-06-02T08:29:10Z</time>
      </trkpt>
      <trkpt lat="43.68802" lon="6.69168">
        <ele>702.51037597656</ele>
        <time>2011-06-02T08:29:13Z</time>
      </trkpt>
      <trkpt lat="43.68806" lon="6.69163">
        <ele>703.17309570312</ele>
        <time>2011-06-02T08:29:17Z</time>
      </trkpt>
      <trkpt lat="43.6881" lon="6.69165">
        <ele>703.15130615234</ele>
        <time>2011-06-02T08:29:21Z</time>
      </trkpt>
      <trkpt lat="43.68813" lon="6.69163">
        <ele>703.43969726562</ele>
        <time>2011-06-02T08:29:24Z</time>
      </trkpt>
      <trkpt lat="43.68814" lon="6.69162">
        <ele>703.62738037109</ele>
        <time>2011-06-02T08:29:26Z</time>
      </trkpt>
      <trkpt lat="43.68816" lon="6.69162">
        <ele>703.77044677734</ele>
        <time>2011-06-02T08:29:28Z</time>
      </trkpt>
      <trkpt lat="43.68818" lon="6.69162">
        <ele>703.83795166016</ele>
        <time>2011-06-02T08:29:29Z</time>
      </trkpt>
      <trkpt lat="43.6882" lon="6.69162">
        <ele>703.9306640625</ele>
        <time>2011-06-02T08:29:31Z</time>
      </trkpt>
      <trkpt lat="43.68827" lon="6.69161">
        <ele>704.33349609375</ele>
        <time>2011-06-02T08:29:38Z</time>
      </trkpt>
      <trkpt lat="43.68831" lon="6.69159">
        <ele>704.85534667969</ele>
        <time>2011-06-02T08:29:45Z</time>
      </trkpt>
      <trkpt lat="43.68836" lon="6.69156">
        <ele>705.53649902344</ele>
        <time>2011-06-02T08:29:52Z</time>
      </trkpt>
      <trkpt lat="43.68841" lon="6.6915">
        <ele>706.75012207031</ele>
        <time>2011-06-02T08:30:00Z</time>
      </trkpt>
      <trkpt lat="43.68847" lon="6.69144">
        <ele>707.87066650391</ele>
        <time>2011-06-02T08:30:08Z</time>
      </trkpt>
      <trkpt lat="43.68851" lon="6.69141">
        <ele>708.57867431641</ele>
        <time>2011-06-02T08:30:15Z</time>
      </trkpt>
      <trkpt lat="43.68855" lon="6.69137">
        <ele>709.27429199219</ele>
        <time>2011-06-02T08:30:23Z</time>
      </trkpt>
      <trkpt lat="43.68859" lon="6.69133">
        <ele>709.99047851562</ele>
        <time>2011-06-02T08:30:29Z</time>
      </trkpt>
      <trkpt lat="43.68864" lon="6.69125">
        <ele>711.05053710938</ele>
        <time>2011-06-02T08:30:37Z</time>
      </trkpt>
      <trkpt lat="43.68864" lon="6.6912">
        <ele>711.46868896484</ele>
        <time>2011-06-02T08:30:40Z</time>
      </trkpt>
      <trkpt lat="43.68864" lon="6.69114">
        <ele>711.984375</ele>
        <time>2011-06-02T08:30:44Z</time>
      </trkpt>
      <trkpt lat="43.68864" lon="6.69107">
        <ele>712.64672851562</ele>
        <time>2011-06-02T08:30:53Z</time>
      </trkpt>
      <trkpt lat="43.68865" lon="6.69099">
        <ele>713.39849853516</ele>
        <time>2011-06-02T08:31:01Z</time>
      </trkpt>
      <trkpt lat="43.68864" lon="6.69092">
        <ele>713.97119140625</ele>
        <time>2011-06-02T08:31:08Z</time>
      </trkpt>
      <trkpt lat="43.68864" lon="6.69087">
        <ele>714.41900634766</ele>
        <time>2011-06-02T08:31:14Z</time>
      </trkpt>
      <trkpt lat="43.68864" lon="6.69078">
        <ele>715.38372802734</ele>
        <time>2011-06-02T08:31:21Z</time>
      </trkpt>
      <trkpt lat="43.68863" lon="6.69072">
        <ele>716.01446533203</ele>
        <time>2011-06-02T08:31:27Z</time>
      </trkpt>
      <trkpt lat="43.68859" lon="6.69067">
        <ele>716.62664794922</ele>
        <time>2011-06-02T08:31:34Z</time>
      </trkpt>
      <trkpt lat="43.68857" lon="6.69058">
        <ele>717.79388427734</ele>
        <time>2011-06-02T08:31:42Z</time>
      </trkpt>
      <trkpt lat="43.68852" lon="6.6905">
        <ele>718.88507080078</ele>
        <time>2011-06-02T08:31:49Z</time>
      </trkpt>
      <trkpt lat="43.68847" lon="6.69043">
        <ele>719.92376708984</ele>
        <time>2011-06-02T08:31:55Z</time>
      </trkpt>
      <trkpt lat="43.68845" lon="6.69042">
        <ele>720.07446289062</ele>
        <time>2011-06-02T08:31:56Z</time>
      </trkpt>
      <trkpt lat="43.68838" lon="6.69033">
        <ele>721.58282470703</ele>
        <time>2011-06-02T08:32:04Z</time>
      </trkpt>
      <trkpt lat="43.68834" lon="6.69029">
        <ele>722.48602294922</ele>
        <time>2011-06-02T08:32:09Z</time>
      </trkpt>
      <trkpt lat="43.68827" lon="6.69026">
        <ele>723.03503417969</ele>
        <time>2011-06-02T08:32:16Z</time>
      </trkpt>
      <trkpt lat="43.68824" lon="6.69029">
        <ele>722.57824707031</ele>
        <time>2011-06-02T08:32:20Z</time>
      </trkpt>
      <trkpt lat="43.68821" lon="6.6903">
        <ele>722.41845703125</ele>
        <time>2011-06-02T08:32:26Z</time>
      </trkpt>
      <trkpt lat="43.68817" lon="6.69032">
        <ele>722.15478515625</ele>
        <time>2011-06-02T08:32:29Z</time>
      </trkpt>
      <trkpt lat="43.68809" lon="6.69038">
        <ele>721.20043945312</ele>
        <time>2011-06-02T08:32:36Z</time>
      </trkpt>
      <trkpt lat="43.688" lon="6.69043">
        <ele>720.30249023438</ele>
        <time>2011-06-02T08:32:43Z</time>
      </trkpt>
      <trkpt lat="43.68789" lon="6.69043">
        <ele>720.28997802734</ele>
        <time>2011-06-02T08:32:50Z</time>
      </trkpt>
      <trkpt lat="43.68785" lon="6.69039">
        <ele>721.14392089844</ele>
        <time>2011-06-02T08:32:53Z</time>
      </trkpt>
      <trkpt lat="43.68782" lon="6.69028">
        <ele>723.47717285156</ele>
        <time>2011-06-02T08:32:59Z</time>
      </trkpt>
      <trkpt lat="43.68779" lon="6.69018">
        <ele>725.57336425781</ele>
        <time>2011-06-02T08:33:05Z</time>
      </trkpt>
      <trkpt lat="43.68773" lon="6.69004">
        <ele>729.00708007812</ele>
        <time>2011-06-02T08:33:14Z</time>
      </trkpt>
      <trkpt lat="43.68768" lon="6.68992">
        <ele>732.62451171875</ele>
        <time>2011-06-02T08:33:20Z</time>
      </trkpt>
      <trkpt lat="43.68763" lon="6.68982">
        <ele>736.29156494141</ele>
        <time>2011-06-02T08:33:26Z</time>
      </trkpt>
      <trkpt lat="43.68762" lon="6.6898">
        <ele>736.94787597656</ele>
        <time>2011-06-02T08:33:27Z</time>
      </trkpt>
      <trkpt lat="43.68756" lon="6.68961">
        <ele>744.08001708984</ele>
        <time>2011-06-02T08:33:37Z</time>
      </trkpt>
      <trkpt lat="43.68752" lon="6.68948">
        <ele>749.52471923828</ele>
        <time>2011-06-02T08:33:44Z</time>
      </trkpt>
      <trkpt lat="43.68741" lon="6.68927">
        <ele>758.96746826172</ele>
        <time>2011-06-02T08:33:55Z</time>
      </trkpt>
      <trkpt lat="43.68734" lon="6.68911">
        <ele>765.3076171875</ele>
        <time>2011-06-02T08:34:03Z</time>
      </trkpt>
      <trkpt lat="43.68729" lon="6.68898">
        <ele>768.02221679688</ele>
        <time>2011-06-02T08:34:10Z</time>
      </trkpt>
      <trkpt lat="43.68723" lon="6.68882">
        <ele>770.93029785156</ele>
        <time>2011-06-02T08:34:18Z</time>
      </trkpt>
      <trkpt lat="43.68722" lon="6.68877">
        <ele>771.61767578125</ele>
        <time>2011-06-02T08:34:20Z</time>
      </trkpt>
      <trkpt lat="43.6872" lon="6.68869">
        <ele>772.92248535156</ele>
        <time>2011-06-02T08:34:24Z</time>
      </trkpt>
      <trkpt lat="43.68711" lon="6.68853">
        <ele>776.51043701172</ele>
        <time>2011-06-02T08:34:33Z</time>
      </trkpt>
      <trkpt lat="43.68702" lon="6.68838">
        <ele>779.93591308594</ele>
        <time>2011-06-02T08:34:41Z</time>
      </trkpt>
      <trkpt lat="43.68697" lon="6.68827">
        <ele>781.2939453125</ele>
        <time>2011-06-02T08:34:46Z</time>
      </trkpt>
      <trkpt lat="43.68688" lon="6.68807">
        <ele>782.57196044922</ele>
        <time>2011-06-02T08:34:54Z</time>
      </trkpt>
      <trkpt lat="43.68678" lon="6.68786">
        <ele>783.63171386719</ele>
        <time>2011-06-02T08:35:03Z</time>
      </trkpt>
      <trkpt lat="43.6867" lon="6.68773">
        <ele>784.49829101562</ele>
        <time>2011-06-02T08:35:09Z</time>
      </trkpt>
      <trkpt lat="43.68653" lon="6.68749">
        <ele>785.98181152344</ele>
        <time>2011-06-02T08:35:21Z</time>
      </trkpt>
      <trkpt lat="43.68641" lon="6.68734">
        <ele>787.15258789062</ele>
        <time>2011-06-02T08:35:29Z</time>
      </trkpt>
      <trkpt lat="43.68626" lon="6.68716">
        <ele>788.43786621094</ele>
        <time>2011-06-02T08:35:39Z</time>
      </trkpt>
      <trkpt lat="43.68617" lon="6.68705">
        <ele>789.11590576172</ele>
        <time>2011-06-02T08:35:45Z</time>
      </trkpt>
      <trkpt lat="43.68603" lon="6.68688">
        <ele>790.02893066406</ele>
        <time>2011-06-02T08:35:54Z</time>
      </trkpt>
      <trkpt lat="43.68588" lon="6.68671">
        <ele>790.74041748047</ele>
        <time>2011-06-02T08:36:03Z</time>
      </trkpt>
      <trkpt lat="43.68581" lon="6.6866">
        <ele>791.31384277344</ele>
        <time>2011-06-02T08:36:08Z</time>
      </trkpt>
      <trkpt lat="43.68568" lon="6.68645">
        <ele>792.64147949219</ele>
        <time>2011-06-02T08:36:16Z</time>
      </trkpt>
      <trkpt lat="43.68559" lon="6.68633">
        <ele>793.50384521484</ele>
        <time>2011-06-02T08:36:22Z</time>
      </trkpt>
      <trkpt lat="43.68544" lon="6.68617">
        <ele>794.63049316406</ele>
        <time>2011-06-02T08:36:30Z</time>
      </trkpt>
      <trkpt lat="43.68538" lon="6.68613">
        <ele>795.02874755859</ele>
        <time>2011-06-02T08:36:35Z</time>
      </trkpt>
      <trkpt lat="43.68533" lon="6.68617">
        <ele>795.3193359375</ele>
        <time>2011-06-02T08:37:04Z</time>
      </trkpt>
      <trkpt lat="43.68534" lon="6.68617">
        <ele>795.29498291016</ele>
        <time>2011-06-02T08:37:09Z</time>
      </trkpt>
      <trkpt lat="43.68534" lon="6.68618">
        <ele>795.29437255859</ele>
        <time>2011-06-02T08:37:15Z</time>
      </trkpt>
      <trkpt lat="43.68534" lon="6.68617">
        <ele>795.27301025391</ele>
        <time>2011-06-02T08:37:27Z</time>
      </trkpt>
      <trkpt lat="43.68535" lon="6.68616">
        <ele>795.22863769531</ele>
        <time>2011-06-02T08:37:42Z</time>
      </trkpt>
      <trkpt lat="43.68535" lon="6.68616">
        <ele>795.22760009766</ele>
        <time>2011-06-02T08:37:49Z</time>
      </trkpt>
      <trkpt lat="43.68535" lon="6.68616">
        <ele>795.22613525391</ele>
        <time>2011-06-02T08:37:54Z</time>
      </trkpt>
      <trkpt lat="43.68535" lon="6.68617">
        <ele>795.19897460938</ele>
        <time>2011-06-02T08:38:17Z</time>
      </trkpt>
      <trkpt lat="43.68535" lon="6.68615">
        <ele>795.23004150391</ele>
        <time>2011-06-02T08:38:47Z</time>
      </trkpt>
      <trkpt lat="43.68535" lon="6.68615">
        <ele>795.23065185547</ele>
        <time>2011-06-02T08:38:55Z</time>
      </trkpt>
      <trkpt lat="43.68533" lon="6.68606">
        <ele>795.36889648438</ele>
        <time>2011-06-02T08:39:18Z</time>
      </trkpt>
      <trkpt lat="43.68534" lon="6.68604">
        <ele>795.28686523438</ele>
        <time>2011-06-02T08:39:29Z</time>
      </trkpt>
      <trkpt lat="43.68537" lon="6.68599">
        <ele>795.15417480469</ele>
        <time>2011-06-02T08:39:57Z</time>
      </trkpt>
      <trkpt lat="43.68537" lon="6.68602">
        <ele>795.1435546875</ele>
        <time>2011-06-02T08:40:06Z</time>
      </trkpt>
      <trkpt lat="43.68529" lon="6.68594">
        <ele>795.61578369141</ele>
        <time>2011-06-02T08:40:12Z</time>
      </trkpt>
      <trkpt lat="43.68525" lon="6.68589">
        <ele>795.81024169922</ele>
        <time>2011-06-02T08:40:14Z</time>
      </trkpt>
      <trkpt lat="43.68523" lon="6.68586">
        <ele>795.91900634766</ele>
        <time>2011-06-02T08:40:15Z</time>
      </trkpt>
      <trkpt lat="43.6852" lon="6.68583">
        <ele>796.03918457031</ele>
        <time>2011-06-02T08:40:16Z</time>
      </trkpt>
      <trkpt lat="43.68504" lon="6.68562">
        <ele>796.57141113281</ele>
        <time>2011-06-02T08:40:21Z</time>
      </trkpt>
      <trkpt lat="43.68492" lon="6.68545">
        <ele>796.40466308594</ele>
        <time>2011-06-02T08:40:24Z</time>
      </trkpt>
      <trkpt lat="43.68479" lon="6.68529">
        <ele>795.92272949219</ele>
        <time>2011-06-02T08:40:27Z</time>
      </trkpt>
      <trkpt lat="43.68471" lon="6.68518">
        <ele>795.59582519531</ele>
        <time>2011-06-02T08:40:29Z</time>
      </trkpt>
      <trkpt lat="43.68465" lon="6.68508">
        <ele>795.28863525391</ele>
        <time>2011-06-02T08:40:31Z</time>
      </trkpt>
      <trkpt lat="43.68435" lon="6.6847">
        <ele>793.79553222656</ele>
        <time>2011-06-02T08:40:39Z</time>
      </trkpt>
      <trkpt lat="43.68428" lon="6.68462">
        <ele>793.40637207031</ele>
        <time>2011-06-02T08:40:41Z</time>
      </trkpt>
      <trkpt lat="43.68413" lon="6.68447">
        <ele>792.50622558594</ele>
        <time>2011-06-02T08:40:45Z</time>
      </trkpt>
      <trkpt lat="43.6839" lon="6.68413">
        <ele>790.34759521484</ele>
        <time>2011-06-02T08:40:52Z</time>
      </trkpt>
      <trkpt lat="43.68364" lon="6.68379">
        <ele>788.19940185547</ele>
        <time>2011-06-02T08:40:59Z</time>
      </trkpt>
      <trkpt lat="43.68356" lon="6.6837">
        <ele>787.64544677734</ele>
        <time>2011-06-02T08:41:01Z</time>
      </trkpt>
      <trkpt lat="43.68342" lon="6.6835">
        <ele>786.64520263672</ele>
        <time>2011-06-02T08:41:05Z</time>
      </trkpt>
      <trkpt lat="43.68316" lon="6.68312">
        <ele>784.47631835938</ele>
        <time>2011-06-02T08:41:13Z</time>
      </trkpt>
      <trkpt lat="43.68296" lon="6.68281">
        <ele>782.90899658203</ele>
        <time>2011-06-02T08:41:19Z</time>
      </trkpt>
      <trkpt lat="43.6828" lon="6.68256">
        <ele>781.84442138672</ele>
        <time>2011-06-02T08:41:24Z</time>
      </trkpt>
      <trkpt lat="43.68255" lon="6.68212">
        <ele>780.19378662109</ele>
        <time>2011-06-02T08:41:32Z</time>
      </trkpt>
      <trkpt lat="43.68231" lon="6.68171">
        <ele>776.34320068359</ele>
        <time>2011-06-02T08:41:39Z</time>
      </trkpt>
      <trkpt lat="43.68227" lon="6.68164">
        <ele>775.6376953125</ele>
        <time>2011-06-02T08:41:40Z</time>
      </trkpt>
      <trkpt lat="43.68202" lon="6.68116">
        <ele>769.8671875</ele>
        <time>2011-06-02T08:41:47Z</time>
      </trkpt>
      <trkpt lat="43.68178" lon="6.68071">
        <ele>764.35101318359</ele>
        <time>2011-06-02T08:41:53Z</time>
      </trkpt>
      <trkpt lat="43.68162" lon="6.68043">
        <ele>761.09313964844</ele>
        <time>2011-06-02T08:41:57Z</time>
      </trkpt>
      <trkpt lat="43.68153" lon="6.68026">
        <ele>759.63214111328</ele>
        <time>2011-06-02T08:41:59Z</time>
      </trkpt>
      <trkpt lat="43.68149" lon="6.68018">
        <ele>758.99670410156</ele>
        <time>2011-06-02T08:42:00Z</time>
      </trkpt>
      <trkpt lat="43.68122" lon="6.67968">
        <ele>756.78387451172</ele>
        <time>2011-06-02T08:42:06Z</time>
      </trkpt>
      <trkpt lat="43.6809" lon="6.67909">
        <ele>754.86376953125</ele>
        <time>2011-06-02T08:42:13Z</time>
      </trkpt>
      <trkpt lat="43.68073" lon="6.6788">
        <ele>754.09014892578</ele>
        <time>2011-06-02T08:42:17Z</time>
      </trkpt>
      <trkpt lat="43.68059" lon="6.67849">
        <ele>753.87841796875</ele>
        <time>2011-06-02T08:42:21Z</time>
      </trkpt>
      <trkpt lat="43.68052" lon="6.67835">
        <ele>753.68041992188</ele>
        <time>2011-06-02T08:42:23Z</time>
      </trkpt>
      <trkpt lat="43.68045" lon="6.67818">
        <ele>753.5751953125</ele>
        <time>2011-06-02T08:42:25Z</time>
      </trkpt>
      <trkpt lat="43.68029" lon="6.67771">
        <ele>753.57861328125</ele>
        <time>2011-06-02T08:42:30Z</time>
      </trkpt>
      <trkpt lat="43.68015" lon="6.67753">
        <ele>753.00866699219</ele>
        <time>2011-06-02T08:42:34Z</time>
      </trkpt>
      <trkpt lat="43.68001" lon="6.67757">
        <ele>751.89172363281</ele>
        <time>2011-06-02T08:42:37Z</time>
      </trkpt>
      <trkpt lat="43.67995" lon="6.67759">
        <ele>751.53314208984</ele>
        <time>2011-06-02T08:42:38Z</time>
      </trkpt>
      <trkpt lat="43.67971" lon="6.67761">
        <ele>750.33117675781</ele>
        <time>2011-06-02T08:42:41Z</time>
      </trkpt>
      <trkpt lat="43.67939" lon="6.67773">
        <ele>748.32684326172</ele>
        <time>2011-06-02T08:42:45Z</time>
      </trkpt>
      <trkpt lat="43.67923" lon="6.67781">
        <ele>747.23089599609</ele>
        <time>2011-06-02T08:42:47Z</time>
      </trkpt>
      <trkpt lat="43.67867" lon="6.67825">
        <ele>743.48999023438</ele>
        <time>2011-06-02T08:42:54Z</time>
      </trkpt>
      <trkpt lat="43.67844" lon="6.67842">
        <ele>742.06176757812</ele>
        <time>2011-06-02T08:42:57Z</time>
      </trkpt>
      <trkpt lat="43.6782" lon="6.67858">
        <ele>740.91046142578</ele>
        <time>2011-06-02T08:43:00Z</time>
      </trkpt>
      <trkpt lat="43.67804" lon="6.67868">
        <ele>740.24658203125</ele>
        <time>2011-06-02T08:43:02Z</time>
      </trkpt>
      <trkpt lat="43.67754" lon="6.67895">
        <ele>738.14202880859</ele>
        <time>2011-06-02T08:43:08Z</time>
      </trkpt>
      <trkpt lat="43.6773" lon="6.67922">
        <ele>736.72320556641</ele>
        <time>2011-06-02T08:43:12Z</time>
      </trkpt>
      <trkpt lat="43.67719" lon="6.67936">
        <ele>736.02795410156</ele>
        <time>2011-06-02T08:43:14Z</time>
      </trkpt>
      <trkpt lat="43.677" lon="6.67951">
        <ele>735.42266845703</ele>
        <time>2011-06-02T08:43:17Z</time>
      </trkpt>
      <trkpt lat="43.6767" lon="6.6796">
        <ele>735.38922119141</ele>
        <time>2011-06-02T08:43:21Z</time>
      </trkpt>
      <trkpt lat="43.67617" lon="6.67954">
        <ele>737.37115478516</ele>
        <time>2011-06-02T08:43:28Z</time>
      </trkpt>
      <trkpt lat="43.67594" lon="6.67953">
        <ele>738.19183349609</ele>
        <time>2011-06-02T08:43:31Z</time>
      </trkpt>
      <trkpt lat="43.67561" lon="6.67964">
        <ele>739.26055908203</ele>
        <time>2011-06-02T08:43:36Z</time>
      </trkpt>
      <trkpt lat="43.67551" lon="6.67969">
        <ele>739.61968994141</ele>
        <time>2011-06-02T08:43:38Z</time>
      </trkpt>
      <trkpt lat="43.67538" lon="6.67972">
        <ele>740.14404296875</ele>
        <time>2011-06-02T08:43:41Z</time>
      </trkpt>
      <trkpt lat="43.67517" lon="6.67978">
        <ele>741.02294921875</ele>
        <time>2011-06-02T08:43:46Z</time>
      </trkpt>
      <trkpt lat="43.67509" lon="6.67977">
        <ele>741.34832763672</ele>
        <time>2011-06-02T08:43:48Z</time>
      </trkpt>
      <trkpt lat="43.67493" lon="6.67978">
        <ele>742.439453125</ele>
        <time>2011-06-02T08:43:52Z</time>
      </trkpt>
      <trkpt lat="43.67478" lon="6.67977">
        <ele>744.08111572266</ele>
        <time>2011-06-02T08:43:57Z</time>
      </trkpt>
      <trkpt lat="43.67472" lon="6.67977">
        <ele>744.78265380859</ele>
        <time>2011-06-02T08:44:00Z</time>
      </trkpt>
      <trkpt lat="43.6746" lon="6.6798">
        <ele>746.09185791016</ele>
        <time>2011-06-02T08:44:05Z</time>
      </trkpt>
      <trkpt lat="43.67448" lon="6.67984">
        <ele>747.37933349609</ele>
        <time>2011-06-02T08:44:11Z</time>
      </trkpt>
      <trkpt lat="43.67438" lon="6.67993">
        <ele>748.64562988281</ele>
        <time>2011-06-02T08:44:17Z</time>
      </trkpt>
      <trkpt lat="43.67426" lon="6.68002">
        <ele>750.04577636719</ele>
        <time>2011-06-02T08:44:23Z</time>
      </trkpt>
      <trkpt lat="43.67421" lon="6.68005">
        <ele>750.69677734375</ele>
        <time>2011-06-02T08:44:26Z</time>
      </trkpt>
      <trkpt lat="43.67409" lon="6.68002">
        <ele>751.77081298828</ele>
        <time>2011-06-02T08:44:33Z</time>
      </trkpt>
      <trkpt lat="43.67406" lon="6.68001">
        <ele>752.04895019531</ele>
        <time>2011-06-02T08:44:35Z</time>
      </trkpt>
      <trkpt lat="43.67393" lon="6.68002">
        <ele>753.34844970703</ele>
        <time>2011-06-02T08:44:43Z</time>
      </trkpt>
      <trkpt lat="43.67382" lon="6.68004">
        <ele>754.43273925781</ele>
        <time>2011-06-02T08:44:49Z</time>
      </trkpt>
      <trkpt lat="43.67371" lon="6.68002">
        <ele>755.42236328125</ele>
        <time>2011-06-02T08:44:55Z</time>
      </trkpt>
      <trkpt lat="43.67358" lon="6.68006">
        <ele>756.71612548828</ele>
        <time>2011-06-02T08:45:02Z</time>
      </trkpt>
      <trkpt lat="43.67349" lon="6.68009">
        <ele>757.63391113281</ele>
        <time>2011-06-02T08:45:07Z</time>
      </trkpt>
      <trkpt lat="43.67343" lon="6.68012">
        <ele>758.26055908203</ele>
        <time>2011-06-02T08:45:10Z</time>
      </trkpt>
      <trkpt lat="43.6733" lon="6.68012">
        <ele>759.48754882812</ele>
        <time>2011-06-02T08:45:17Z</time>
      </trkpt>
      <trkpt lat="43.67318" lon="6.68016">
        <ele>760.88885498047</ele>
        <time>2011-06-02T08:45:24Z</time>
      </trkpt>
      <trkpt lat="43.67308" lon="6.68019">
        <ele>762.03448486328</ele>
        <time>2011-06-02T08:45:30Z</time>
      </trkpt>
      <trkpt lat="43.67298" lon="6.6802">
        <ele>763.13824462891</ele>
        <time>2011-06-02T08:45:36Z</time>
      </trkpt>
      <trkpt lat="43.67289" lon="6.68019">
        <ele>764.18908691406</ele>
        <time>2011-06-02T08:45:42Z</time>
      </trkpt>
      <trkpt lat="43.67278" lon="6.68022">
        <ele>765.42193603516</ele>
        <time>2011-06-02T08:45:49Z</time>
      </trkpt>
      <trkpt lat="43.67277" lon="6.68022">
        <ele>765.501953125</ele>
        <time>2011-06-02T08:45:50Z</time>
      </trkpt>
      <trkpt lat="43.67271" lon="6.68023">
        <ele>766.17163085938</ele>
        <time>2011-06-02T08:45:57Z</time>
      </trkpt>
      <trkpt lat="43.67263" lon="6.6803">
        <ele>767.20874023438</ele>
        <time>2011-06-02T08:46:04Z</time>
      </trkpt>
      <trkpt lat="43.67251" lon="6.68037">
        <ele>768.75103759766</ele>
        <time>2011-06-02T08:46:12Z</time>
      </trkpt>
      <trkpt lat="43.67242" lon="6.68042">
        <ele>769.63623046875</ele>
        <time>2011-06-02T08:46:18Z</time>
      </trkpt>
      <trkpt lat="43.67234" lon="6.68039">
        <ele>770.21154785156</ele>
        <time>2011-06-02T08:46:24Z</time>
      </trkpt>
      <trkpt lat="43.67223" lon="6.68034">
        <ele>770.94366455078</ele>
        <time>2011-06-02T08:46:32Z</time>
      </trkpt>
      <trkpt lat="43.67217" lon="6.68033">
        <ele>771.38568115234</ele>
        <time>2011-06-02T08:46:36Z</time>
      </trkpt>
      <trkpt lat="43.67207" lon="6.68041">
        <ele>772.30889892578</ele>
        <time>2011-06-02T08:46:45Z</time>
      </trkpt>
      <trkpt lat="43.67197" lon="6.68051">
        <ele>773.28479003906</ele>
        <time>2011-06-02T08:46:52Z</time>
      </trkpt>
      <trkpt lat="43.67189" lon="6.6806">
        <ele>774.00872802734</ele>
        <time>2011-06-02T08:46:58Z</time>
      </trkpt>
      <trkpt lat="43.67182" lon="6.68063">
        <ele>774.59069824219</ele>
        <time>2011-06-02T08:47:04Z</time>
      </trkpt>
      <trkpt lat="43.6717" lon="6.6806">
        <ele>775.49780273438</ele>
        <time>2011-06-02T08:47:13Z</time>
      </trkpt>
      <trkpt lat="43.6716" lon="6.68059">
        <ele>775.34765625</ele>
        <time>2011-06-02T08:47:19Z</time>
      </trkpt>
      <trkpt lat="43.67151" lon="6.68056">
        <ele>774.78332519531</ele>
        <time>2011-06-02T08:47:26Z</time>
      </trkpt>
      <trkpt lat="43.67143" lon="6.68056">
        <ele>774.35534667969</ele>
        <time>2011-06-02T08:47:30Z</time>
      </trkpt>
      <trkpt lat="43.67133" lon="6.68054">
        <ele>773.78717041016</ele>
        <time>2011-06-02T08:47:36Z</time>
      </trkpt>
      <trkpt lat="43.67119" lon="6.68057">
        <ele>772.99151611328</ele>
        <time>2011-06-02T08:47:43Z</time>
      </trkpt>
      <trkpt lat="43.6711" lon="6.68057">
        <ele>772.46282958984</ele>
        <time>2011-06-02T08:47:48Z</time>
      </trkpt>
      <trkpt lat="43.67098" lon="6.68061">
        <ele>771.68743896484</ele>
        <time>2011-06-02T08:47:54Z</time>
      </trkpt>
      <trkpt lat="43.67086" lon="6.68063">
        <ele>770.86254882812</ele>
        <time>2011-06-02T08:48:00Z</time>
      </trkpt>
      <trkpt lat="43.67069" lon="6.68061">
        <ele>770.15966796875</ele>
        <time>2011-06-02T08:48:05Z</time>
      </trkpt>
      <trkpt lat="43.67056" lon="6.68054">
        <ele>769.830078125</ele>
        <time>2011-06-02T08:48:09Z</time>
      </trkpt>
      <trkpt lat="43.67041" lon="6.68047">
        <ele>769.53253173828</ele>
        <time>2011-06-02T08:48:14Z</time>
      </trkpt>
      <trkpt lat="43.67028" lon="6.68042">
        <ele>769.17199707031</ele>
        <time>2011-06-02T08:48:19Z</time>
      </trkpt>
      <trkpt lat="43.67006" lon="6.68031">
        <ele>768.77032470703</ele>
        <time>2011-06-02T08:48:25Z</time>
      </trkpt>
      <trkpt lat="43.66988" lon="6.6802">
        <ele>767.7939453125</ele>
        <time>2011-06-02T08:48:30Z</time>
      </trkpt>
      <trkpt lat="43.66971" lon="6.68011">
        <ele>766.42120361328</ele>
        <time>2011-06-02T08:48:35Z</time>
      </trkpt>
      <trkpt lat="43.66965" lon="6.68007">
        <ele>765.95129394531</ele>
        <time>2011-06-02T08:48:37Z</time>
      </trkpt>
      <trkpt lat="43.66952" lon="6.67997">
        <ele>765.00146484375</ele>
        <time>2011-06-02T08:48:41Z</time>
      </trkpt>
      <trkpt lat="43.66931" lon="6.67983">
        <ele>763.54858398438</ele>
        <time>2011-06-02T08:48:46Z</time>
      </trkpt>
      <trkpt lat="43.66922" lon="6.67978">
        <ele>762.82177734375</ele>
        <time>2011-06-02T08:48:48Z</time>
      </trkpt>
      <trkpt lat="43.66913" lon="6.67973">
        <ele>762.26953125</ele>
        <time>2011-06-02T08:48:50Z</time>
      </trkpt>
      <trkpt lat="43.66889" lon="6.67963">
        <ele>760.65893554688</ele>
        <time>2011-06-02T08:48:55Z</time>
      </trkpt>
      <trkpt lat="43.66881" lon="6.67948">
        <ele>761.08740234375</ele>
        <time>2011-06-02T08:48:59Z</time>
      </trkpt>
      <trkpt lat="43.66878" lon="6.6793">
        <ele>762.17852783203</ele>
        <time>2011-06-02T08:49:02Z</time>
      </trkpt>
      <trkpt lat="43.66876" lon="6.67918">
        <ele>762.92614746094</ele>
        <time>2011-06-02T08:49:04Z</time>
      </trkpt>
      <trkpt lat="43.66871" lon="6.67896">
        <ele>763.40234375</ele>
        <time>2011-06-02T08:49:09Z</time>
      </trkpt>
      <trkpt lat="43.66863" lon="6.67896">
        <ele>762.69848632812</ele>
        <time>2011-06-02T08:49:12Z</time>
      </trkpt>
      <trkpt lat="43.66861" lon="6.67899">
        <ele>762.44567871094</ele>
        <time>2011-06-02T08:49:13Z</time>
      </trkpt>
      <trkpt lat="43.66848" lon="6.67914">
        <ele>761.11743164062</ele>
        <time>2011-06-02T08:49:18Z</time>
      </trkpt>
      <trkpt lat="43.6684" lon="6.67925">
        <ele>759.70257568359</ele>
        <time>2011-06-02T08:49:23Z</time>
      </trkpt>
      <trkpt lat="43.66835" lon="6.6793">
        <ele>758.84838867188</ele>
        <time>2011-06-02T08:49:26Z</time>
      </trkpt>
      <trkpt lat="43.66828" lon="6.67934">
        <ele>757.60150146484</ele>
        <time>2011-06-02T08:49:29Z</time>
      </trkpt>
      <trkpt lat="43.66826" lon="6.67928">
        <ele>757.86059570312</ele>
        <time>2011-06-02T08:49:34Z</time>
      </trkpt>
      <trkpt lat="43.66819" lon="6.67906">
        <ele>757.95196533203</ele>
        <time>2011-06-02T08:49:39Z</time>
      </trkpt>
      <trkpt lat="43.66807" lon="6.67865">
        <ele>756.76525878906</ele>
        <time>2011-06-02T08:49:46Z</time>
      </trkpt>
      <trkpt lat="43.66802" lon="6.67848">
        <ele>756.43676757812</ele>
        <time>2011-06-02T08:49:48Z</time>
      </trkpt>
      <trkpt lat="43.66796" lon="6.67822">
        <ele>755.99407958984</ele>
        <time>2011-06-02T08:49:52Z</time>
      </trkpt>
      <trkpt lat="43.66786" lon="6.67806">
        <ele>754.73876953125</ele>
        <time>2011-06-02T08:49:55Z</time>
      </trkpt>
      <trkpt lat="43.66783" lon="6.67792">
        <ele>754.11297607422</ele>
        <time>2011-06-02T08:49:59Z</time>
      </trkpt>
      <trkpt lat="43.66779" lon="6.67777">
        <ele>753.23345947266</ele>
        <time>2011-06-02T08:50:02Z</time>
      </trkpt>
      <trkpt lat="43.66776" lon="6.67771">
        <ele>752.59814453125</ele>
        <time>2011-06-02T08:50:03Z</time>
      </trkpt>
      <trkpt lat="43.66764" lon="6.67755">
        <ele>750.09210205078</ele>
        <time>2011-06-02T08:50:06Z</time>
      </trkpt>
      <trkpt lat="43.66756" lon="6.6773">
        <ele>749.47619628906</ele>
        <time>2011-06-02T08:50:10Z</time>
      </trkpt>
      <trkpt lat="43.66751" lon="6.67702">
        <ele>750.28979492188</ele>
        <time>2011-06-02T08:50:15Z</time>
      </trkpt>
      <trkpt lat="43.66748" lon="6.67694">
        <ele>750.15704345703</ele>
        <time>2011-06-02T08:50:17Z</time>
      </trkpt>
      <trkpt lat="43.66743" lon="6.67686">
        <ele>749.99389648438</ele>
        <time>2011-06-02T08:50:19Z</time>
      </trkpt>
      <trkpt lat="43.6673" lon="6.67677">
        <ele>748.67926025391</ele>
        <time>2011-06-02T08:50:22Z</time>
      </trkpt>
      <trkpt lat="43.66719" lon="6.67655">
        <ele>748.99249267578</ele>
        <time>2011-06-02T08:50:26Z</time>
      </trkpt>
      <trkpt lat="43.66711" lon="6.67633">
        <ele>749.96362304688</ele>
        <time>2011-06-02T08:50:30Z</time>
      </trkpt>
      <trkpt lat="43.66705" lon="6.67624">
        <ele>749.72418212891</ele>
        <time>2011-06-02T08:50:32Z</time>
      </trkpt>
      <trkpt lat="43.667" lon="6.67613">
        <ele>749.43389892578</ele>
        <time>2011-06-02T08:50:34Z</time>
      </trkpt>
      <trkpt lat="43.66691" lon="6.676">
        <ele>748.22918701172</ele>
        <time>2011-06-02T08:50:37Z</time>
      </trkpt>
      <trkpt lat="43.66681" lon="6.67578">
        <ele>746.82177734375</ele>
        <time>2011-06-02T08:50:41Z</time>
      </trkpt>
      <trkpt lat="43.66677" lon="6.67562">
        <ele>747.23919677734</ele>
        <time>2011-06-02T08:50:44Z</time>
      </trkpt>
      <trkpt lat="43.66671" lon="6.67539">
        <ele>747.16101074219</ele>
        <time>2011-06-02T08:50:49Z</time>
      </trkpt>
      <trkpt lat="43.66668" lon="6.67528">
        <ele>746.96179199219</ele>
        <time>2011-06-02T08:50:52Z</time>
      </trkpt>
      <trkpt lat="43.66657" lon="6.67512">
        <ele>747.05389404297</ele>
        <time>2011-06-02T08:50:58Z</time>
      </trkpt>
      <trkpt lat="43.66652" lon="6.67493">
        <ele>747.92248535156</ele>
        <time>2011-06-02T08:51:03Z</time>
      </trkpt>
      <trkpt lat="43.66642" lon="6.67474">
        <ele>748.0908203125</ele>
        <time>2011-06-02T08:51:09Z</time>
      </trkpt>
      <trkpt lat="43.66635" lon="6.67461">
        <ele>747.87921142578</ele>
        <time>2011-06-02T08:51:14Z</time>
      </trkpt>
      <trkpt lat="43.66629" lon="6.67448">
        <ele>747.63342285156</ele>
        <time>2011-06-02T08:51:19Z</time>
      </trkpt>
      <trkpt lat="43.66624" lon="6.67429">
        <ele>747.70812988281</ele>
        <time>2011-06-02T08:51:24Z</time>
      </trkpt>
      <trkpt lat="43.66613" lon="6.67411">
        <ele>746.33642578125</ele>
        <time>2011-06-02T08:51:29Z</time>
      </trkpt>
      <trkpt lat="43.66602" lon="6.67394">
        <ele>744.45709228516</ele>
        <time>2011-06-02T08:51:34Z</time>
      </trkpt>
      <trkpt lat="43.66597" lon="6.67376">
        <ele>743.673828125</ele>
        <time>2011-06-02T08:51:39Z</time>
      </trkpt>
      <trkpt lat="43.66597" lon="6.6736">
        <ele>744.11907958984</ele>
        <time>2011-06-02T08:51:44Z</time>
      </trkpt>
      <trkpt lat="43.66595" lon="6.67338">
        <ele>744.00323486328</ele>
        <time>2011-06-02T08:51:49Z</time>
      </trkpt>
      <trkpt lat="43.66592" lon="6.67318">
        <ele>744.26300048828</ele>
        <time>2011-06-02T08:51:53Z</time>
      </trkpt>
      <trkpt lat="43.66587" lon="6.67301">
        <ele>744.28015136719</ele>
        <time>2011-06-02T08:51:57Z</time>
      </trkpt>
      <trkpt lat="43.66582" lon="6.67275">
        <ele>745.15399169922</ele>
        <time>2011-06-02T08:52:02Z</time>
      </trkpt>
      <trkpt lat="43.66581" lon="6.67264">
        <ele>745.85345458984</ele>
        <time>2011-06-02T08:52:04Z</time>
      </trkpt>
      <trkpt lat="43.66578" lon="6.67252">
        <ele>746.40881347656</ele>
        <time>2011-06-02T08:52:06Z</time>
      </trkpt>
      <trkpt lat="43.66558" lon="6.67224">
        <ele>746.51599121094</ele>
        <time>2011-06-02T08:52:11Z</time>
      </trkpt>
      <trkpt lat="43.66542" lon="6.67205">
        <ele>745.64691162109</ele>
        <time>2011-06-02T08:52:15Z</time>
      </trkpt>
      <trkpt lat="43.66532" lon="6.67187">
        <ele>745.13763427734</ele>
        <time>2011-06-02T08:52:20Z</time>
      </trkpt>
      <trkpt lat="43.66523" lon="6.67165">
        <ele>744.67620849609</ele>
        <time>2011-06-02T08:52:26Z</time>
      </trkpt>
      <trkpt lat="43.66521" lon="6.67162">
        <ele>744.48529052734</ele>
        <time>2011-06-02T08:52:27Z</time>
      </trkpt>
      <trkpt lat="43.66509" lon="6.6714">
        <ele>743.71142578125</ele>
        <time>2011-06-02T08:52:33Z</time>
      </trkpt>
      <trkpt lat="43.66497" lon="6.67119">
        <ele>743.09613037109</ele>
        <time>2011-06-02T08:52:39Z</time>
      </trkpt>
      <trkpt lat="43.6649" lon="6.67101">
        <ele>743.31341552734</ele>
        <time>2011-06-02T08:52:44Z</time>
      </trkpt>
      <trkpt lat="43.66481" lon="6.67077">
        <ele>743.36761474609</ele>
        <time>2011-06-02T08:52:50Z</time>
      </trkpt>
      <trkpt lat="43.66473" lon="6.67045">
        <ele>743.49627685547</ele>
        <time>2011-06-02T08:52:57Z</time>
      </trkpt>
      <trkpt lat="43.66466" lon="6.67022">
        <ele>743.13836669922</ele>
        <time>2011-06-02T08:53:01Z</time>
      </trkpt>
      <trkpt lat="43.66459" lon="6.66987">
        <ele>743.28210449219</ele>
        <time>2011-06-02T08:53:06Z</time>
      </trkpt>
      <trkpt lat="43.66458" lon="6.66982">
        <ele>743.43597412109</ele>
        <time>2011-06-02T08:53:07Z</time>
      </trkpt>
      <trkpt lat="43.6645" lon="6.66963">
        <ele>742.94152832031</ele>
        <time>2011-06-02T08:53:11Z</time>
      </trkpt>
      <trkpt lat="43.66435" lon="6.66939">
        <ele>741.10583496094</ele>
        <time>2011-06-02T08:53:17Z</time>
      </trkpt>
      <trkpt lat="43.66419" lon="6.66916">
        <ele>738.52502441406</ele>
        <time>2011-06-02T08:53:23Z</time>
      </trkpt>
      <trkpt lat="43.66405" lon="6.66903">
        <ele>738.0986328125</ele>
        <time>2011-06-02T08:53:28Z</time>
      </trkpt>
      <trkpt lat="43.66387" lon="6.66888">
        <ele>737.29870605469</ele>
        <time>2011-06-02T08:53:33Z</time>
      </trkpt>
      <trkpt lat="43.66376" lon="6.6687">
        <ele>737.58764648438</ele>
        <time>2011-06-02T08:53:37Z</time>
      </trkpt>
      <trkpt lat="43.66366" lon="6.66856">
        <ele>737.45483398438</ele>
        <time>2011-06-02T08:53:41Z</time>
      </trkpt>
      <trkpt lat="43.66355" lon="6.66844">
        <ele>737.02496337891</ele>
        <time>2011-06-02T08:53:45Z</time>
      </trkpt>
      <trkpt lat="43.66333" lon="6.66834">
        <ele>734.89477539062</ele>
        <time>2011-06-02T08:53:53Z</time>
      </trkpt>
      <trkpt lat="43.66318" lon="6.66832">
        <ele>733.39996337891</ele>
        <time>2011-06-02T08:53:59Z</time>
      </trkpt>
      <trkpt lat="43.66301" lon="6.6683">
        <ele>731.84423828125</ele>
        <time>2011-06-02T08:54:05Z</time>
      </trkpt>
      <trkpt lat="43.66283" lon="6.66826">
        <ele>730.22552490234</ele>
        <time>2011-06-02T08:54:12Z</time>
      </trkpt>
      <trkpt lat="43.66269" lon="6.66823">
        <ele>728.98089599609</ele>
        <time>2011-06-02T08:54:18Z</time>
      </trkpt>
      <trkpt lat="43.66254" lon="6.6682">
        <ele>727.642578125</ele>
        <time>2011-06-02T08:54:23Z</time>
      </trkpt>
      <trkpt lat="43.66242" lon="6.66811">
        <ele>727.21807861328</ele>
        <time>2011-06-02T08:54:28Z</time>
      </trkpt>
      <trkpt lat="43.66228" lon="6.668">
        <ele>726.82940673828</ele>
        <time>2011-06-02T08:54:33Z</time>
      </trkpt>
      <trkpt lat="43.66218" lon="6.66787">
        <ele>726.78015136719</ele>
        <time>2011-06-02T08:54:38Z</time>
      </trkpt>
      <trkpt lat="43.66208" lon="6.66773">
        <ele>726.50396728516</ele>
        <time>2011-06-02T08:54:43Z</time>
      </trkpt>
      <trkpt lat="43.66195" lon="6.6676">
        <ele>725.84143066406</ele>
        <time>2011-06-02T08:54:48Z</time>
      </trkpt>
      <trkpt lat="43.66179" lon="6.6675">
        <ele>724.45080566406</ele>
        <time>2011-06-02T08:54:53Z</time>
      </trkpt>
      <trkpt lat="43.66161" lon="6.66744">
        <ele>723.26580810547</ele>
        <time>2011-06-02T08:54:58Z</time>
      </trkpt>
      <trkpt lat="43.66149" lon="6.66733">
        <ele>723.49035644531</ele>
        <time>2011-06-02T08:55:01Z</time>
      </trkpt>
      <trkpt lat="43.66146" lon="6.66728">
        <ele>723.63635253906</ele>
        <time>2011-06-02T08:55:02Z</time>
      </trkpt>
      <trkpt lat="43.66132" lon="6.66698">
        <ele>724.30627441406</ele>
        <time>2011-06-02T08:55:09Z</time>
      </trkpt>
      <trkpt lat="43.66121" lon="6.6667">
        <ele>724.39971923828</ele>
        <time>2011-06-02T08:55:16Z</time>
      </trkpt>
      <trkpt lat="43.66115" lon="6.66652">
        <ele>724.77746582031</ele>
        <time>2011-06-02T08:55:21Z</time>
      </trkpt>
      <trkpt lat="43.66108" lon="6.66631">
        <ele>725.13262939453</ele>
        <time>2011-06-02T08:55:26Z</time>
      </trkpt>
      <trkpt lat="43.66102" lon="6.66619">
        <ele>725.07470703125</ele>
        <time>2011-06-02T08:55:29Z</time>
      </trkpt>
      <trkpt lat="43.66081" lon="6.66604">
        <ele>722.90106201172</ele>
        <time>2011-06-02T08:55:35Z</time>
      </trkpt>
      <trkpt lat="43.66076" lon="6.66599">
        <ele>722.935546875</ele>
        <time>2011-06-02T08:55:37Z</time>
      </trkpt>
      <trkpt lat="43.66069" lon="6.6659">
        <ele>723.02124023438</ele>
        <time>2011-06-02T08:55:43Z</time>
      </trkpt>
      <trkpt lat="43.66066" lon="6.6659">
        <ele>722.94055175781</ele>
        <time>2011-06-02T08:55:44Z</time>
      </trkpt>
      <trkpt lat="43.66057" lon="6.66586">
        <ele>722.64904785156</ele>
        <time>2011-06-02T08:55:50Z</time>
      </trkpt>
      <trkpt lat="43.66048" lon="6.66584">
        <ele>722.28094482422</ele>
        <time>2011-06-02T08:55:55Z</time>
      </trkpt>
      <trkpt lat="43.66042" lon="6.6659">
        <ele>721.86517333984</ele>
        <time>2011-06-02T08:55:59Z</time>
      </trkpt>
      <trkpt lat="43.66035" lon="6.66584">
        <ele>721.64617919922</ele>
        <time>2011-06-02T08:56:03Z</time>
      </trkpt>
      <trkpt lat="43.66033" lon="6.66579">
        <ele>721.70397949219</ele>
        <time>2011-06-02T08:56:05Z</time>
      </trkpt>
      <trkpt lat="43.66026" lon="6.66559">
        <ele>721.765625</ele>
        <time>2011-06-02T08:56:13Z</time>
      </trkpt>
      <trkpt lat="43.66025" lon="6.66556">
        <ele>721.77618408203</ele>
        <time>2011-06-02T08:56:14Z</time>
      </trkpt>
      <trkpt lat="43.66014" lon="6.66535">
        <ele>721.30279541016</ele>
        <time>2011-06-02T08:56:21Z</time>
      </trkpt>
      <trkpt lat="43.66009" lon="6.66518">
        <ele>720.91284179688</ele>
        <time>2011-06-02T08:56:26Z</time>
      </trkpt>
      <trkpt lat="43.65996" lon="6.66517">
        <ele>720</ele>
        <time>2011-06-02T08:56:31Z</time>
      </trkpt>
      <trkpt lat="43.65979" lon="6.66517">
        <ele>720</ele>
        <time>2011-06-02T08:56:35Z</time>
      </trkpt>
      <trkpt lat="43.65964" lon="6.66517">
        <ele>720</ele>
        <time>2011-06-02T08:56:39Z</time>
      </trkpt>
      <trkpt lat="43.65952" lon="6.66507">
        <ele>720</ele>
        <time>2011-06-02T08:56:43Z</time>
      </trkpt>
      <trkpt lat="43.65939" lon="6.66489">
        <ele>720.03625488281</ele>
        <time>2011-06-02T08:56:49Z</time>
      </trkpt>
      <trkpt lat="43.65929" lon="6.66474">
        <ele>720.04815673828</ele>
        <time>2011-06-02T08:56:54Z</time>
      </trkpt>
      <trkpt lat="43.6591" lon="6.66445">
        <ele>720</ele>
        <time>2011-06-02T08:57:03Z</time>
      </trkpt>
      <trkpt lat="43.65902" lon="6.66441">
        <ele>720</ele>
        <time>2011-06-02T08:57:06Z</time>
      </trkpt>
      <trkpt lat="43.65887" lon="6.6644">
        <ele>720</ele>
        <time>2011-06-02T08:57:11Z</time>
      </trkpt>
      <trkpt lat="43.65884" lon="6.66436">
        <ele>720</ele>
        <time>2011-06-02T08:57:12Z</time>
      </trkpt>
      <trkpt lat="43.65866" lon="6.66415">
        <ele>720</ele>
        <time>2011-06-02T08:57:18Z</time>
      </trkpt>
      <trkpt lat="43.65851" lon="6.66417">
        <ele>720</ele>
        <time>2011-06-02T08:57:22Z</time>
      </trkpt>
      <trkpt lat="43.65835" lon="6.66429">
        <ele>720</ele>
        <time>2011-06-02T08:57:27Z</time>
      </trkpt>
      <trkpt lat="43.65813" lon="6.66458">
        <ele>719.87365722656</ele>
        <time>2011-06-02T08:57:35Z</time>
      </trkpt>
      <trkpt lat="43.65792" lon="6.66488">
        <ele>719.92645263672</ele>
        <time>2011-06-02T08:57:43Z</time>
      </trkpt>
      <trkpt lat="43.65775" lon="6.6651">
        <ele>720</ele>
        <time>2011-06-02T08:57:50Z</time>
      </trkpt>
      <trkpt lat="43.65758" lon="6.66537">
        <ele>720</ele>
        <time>2011-06-02T08:57:58Z</time>
      </trkpt>
      <trkpt lat="43.65741" lon="6.66564">
        <ele>719.62347412109</ele>
        <time>2011-06-02T08:58:06Z</time>
      </trkpt>
      <trkpt lat="43.65726" lon="6.66594">
        <ele>719.16290283203</ele>
        <time>2011-06-02T08:58:14Z</time>
      </trkpt>
      <trkpt lat="43.65724" lon="6.66597">
        <ele>719.10797119141</ele>
        <time>2011-06-02T08:58:15Z</time>
      </trkpt>
      <trkpt lat="43.65714" lon="6.66597">
        <ele>718.75524902344</ele>
        <time>2011-06-02T08:58:19Z</time>
      </trkpt>
      <trkpt lat="43.65685" lon="6.66572">
        <ele>717.46118164062</ele>
        <time>2011-06-02T08:58:28Z</time>
      </trkpt>
      <trkpt lat="43.65659" lon="6.66555">
        <ele>716.04229736328</ele>
        <time>2011-06-02T08:58:35Z</time>
      </trkpt>
      <trkpt lat="43.65651" lon="6.6655">
        <ele>715.62438964844</ele>
        <time>2011-06-02T08:58:37Z</time>
      </trkpt>
      <trkpt lat="43.65623" lon="6.66534">
        <ele>713.83929443359</ele>
        <time>2011-06-02T08:58:45Z</time>
      </trkpt>
      <trkpt lat="43.65616" lon="6.66526">
        <ele>713.16009521484</ele>
        <time>2011-06-02T08:58:48Z</time>
      </trkpt>
      <trkpt lat="43.65596" lon="6.66526">
        <ele>712.21398925781</ele>
        <time>2011-06-02T08:58:54Z</time>
      </trkpt>
      <trkpt lat="43.65577" lon="6.66522">
        <ele>711.27282714844</ele>
        <time>2011-06-02T08:58:59Z</time>
      </trkpt>
      <trkpt lat="43.65551" lon="6.6651">
        <ele>710.30889892578</ele>
        <time>2011-06-02T08:59:06Z</time>
      </trkpt>
      <trkpt lat="43.65539" lon="6.66503">
        <ele>709.708984375</ele>
        <time>2011-06-02T08:59:09Z</time>
      </trkpt>
      <trkpt lat="43.65513" lon="6.66492">
        <ele>708.60363769531</ele>
        <time>2011-06-02T08:59:15Z</time>
      </trkpt>
      <trkpt lat="43.65501" lon="6.66487">
        <ele>708.10589599609</ele>
        <time>2011-06-02T08:59:18Z</time>
      </trkpt>
      <trkpt lat="43.65478" lon="6.66467">
        <ele>706.10260009766</ele>
        <time>2011-06-02T08:59:24Z</time>
      </trkpt>
      <trkpt lat="43.65455" lon="6.66449">
        <ele>704.25665283203</ele>
        <time>2011-06-02T08:59:30Z</time>
      </trkpt>
      <trkpt lat="43.65451" lon="6.66446">
        <ele>703.93395996094</ele>
        <time>2011-06-02T08:59:31Z</time>
      </trkpt>
      <trkpt lat="43.6543" lon="6.66418">
        <ele>701.38305664062</ele>
        <time>2011-06-02T08:59:38Z</time>
      </trkpt>
      <trkpt lat="43.65418" lon="6.66404">
        <ele>700.10833740234</ele>
        <time>2011-06-02T08:59:42Z</time>
      </trkpt>
      <trkpt lat="43.65409" lon="6.66377">
        <ele>697.40185546875</ele>
        <time>2011-06-02T08:59:48Z</time>
      </trkpt>
      <trkpt lat="43.65409" lon="6.66357">
        <ele>696.0400390625</ele>
        <time>2011-06-02T08:59:53Z</time>
      </trkpt>
      <trkpt lat="43.65412" lon="6.66334">
        <ele>694.60034179688</ele>
        <time>2011-06-02T08:59:58Z</time>
      </trkpt>
      <trkpt lat="43.65417" lon="6.66297">
        <ele>692.35711669922</ele>
        <time>2011-06-02T09:00:03Z</time>
      </trkpt>
      <trkpt lat="43.65417" lon="6.6626">
        <ele>689.80395507812</ele>
        <time>2011-06-02T09:00:07Z</time>
      </trkpt>
      <trkpt lat="43.65405" lon="6.66213">
        <ele>685.4736328125</ele>
        <time>2011-06-02T09:00:12Z</time>
      </trkpt>
      <trkpt lat="43.65388" lon="6.66159">
        <ele>680.43640136719</ele>
        <time>2011-06-02T09:00:17Z</time>
      </trkpt>
      <trkpt lat="43.65385" lon="6.66147">
        <ele>679.80755615234</ele>
        <time>2011-06-02T09:00:18Z</time>
      </trkpt>
      <trkpt lat="43.65383" lon="6.66098">
        <ele>678.67803955078</ele>
        <time>2011-06-02T09:00:22Z</time>
      </trkpt>
      <trkpt lat="43.65387" lon="6.66087">
        <ele>678.66265869141</ele>
        <time>2011-06-02T09:00:23Z</time>
      </trkpt>
      <trkpt lat="43.65413" lon="6.66018">
        <ele>679.89019775391</ele>
        <time>2011-06-02T09:00:29Z</time>
      </trkpt>
      <trkpt lat="43.65434" lon="6.65963">
        <ele>680.54895019531</ele>
        <time>2011-06-02T09:00:34Z</time>
      </trkpt>
      <trkpt lat="43.65439" lon="6.65947">
        <ele>680.56402587891</ele>
        <time>2011-06-02T09:00:36Z</time>
      </trkpt>
      <trkpt lat="43.65436" lon="6.65919">
        <ele>680.25787353516</ele>
        <time>2011-06-02T09:00:40Z</time>
      </trkpt>
      <trkpt lat="43.65424" lon="6.65919">
        <ele>680.10089111328</ele>
        <time>2011-06-02T09:00:42Z</time>
      </trkpt>
      <trkpt lat="43.65415" lon="6.65936">
        <ele>680.02355957031</ele>
        <time>2011-06-02T09:00:45Z</time>
      </trkpt>
      <trkpt lat="43.65406" lon="6.6595">
        <ele>680.05297851562</ele>
        <time>2011-06-02T09:00:47Z</time>
      </trkpt>
      <trkpt lat="43.65395" lon="6.65962">
        <ele>679.95086669922</ele>
        <time>2011-06-02T09:00:49Z</time>
      </trkpt>
      <trkpt lat="43.65364" lon="6.65973">
        <ele>679.55621337891</ele>
        <time>2011-06-02T09:00:53Z</time>
      </trkpt>
      <trkpt lat="43.65324" lon="6.65966">
        <ele>680.23858642578</ele>
        <time>2011-06-02T09:00:58Z</time>
      </trkpt>
      <trkpt lat="43.65292" lon="6.65981">
        <ele>680.51385498047</ele>
        <time>2011-06-02T09:01:02Z</time>
      </trkpt>
      <trkpt lat="43.6526" lon="6.66035">
        <ele>674.75299072266</ele>
        <time>2011-06-02T09:01:09Z</time>
      </trkpt>
      <trkpt lat="43.65244" lon="6.66058">
        <ele>670.30499267578</ele>
        <time>2011-06-02T09:01:12Z</time>
      </trkpt>
      <trkpt lat="43.65209" lon="6.661">
        <ele>660.48083496094</ele>
        <time>2011-06-02T09:01:17Z</time>
      </trkpt>
      <trkpt lat="43.6518" lon="6.66114">
        <ele>656.11505126953</ele>
        <time>2011-06-02T09:01:20Z</time>
      </trkpt>
      <trkpt lat="43.65163" lon="6.66105">
        <ele>653.46038818359</ele>
        <time>2011-06-02T09:01:22Z</time>
      </trkpt>
      <trkpt lat="43.65157" lon="6.66097">
        <ele>652.57263183594</ele>
        <time>2011-06-02T09:01:23Z</time>
      </trkpt>
      <trkpt lat="43.65128" lon="6.66053">
        <ele>655.83148193359</ele>
        <time>2011-06-02T09:01:28Z</time>
      </trkpt>
      <trkpt lat="43.651" lon="6.66034">
        <ele>658.67138671875</ele>
        <time>2011-06-02T09:01:32Z</time>
      </trkpt>
      <trkpt lat="43.65091" lon="6.66033">
        <ele>658.31610107422</ele>
        <time>2011-06-02T09:01:33Z</time>
      </trkpt>
      <trkpt lat="43.65043" lon="6.66035">
        <ele>654.32727050781</ele>
        <time>2011-06-02T09:01:39Z</time>
      </trkpt>
      <trkpt lat="43.64971" lon="6.66025">
        <ele>649.02917480469</ele>
        <time>2011-06-02T09:01:46Z</time>
      </trkpt>
      <trkpt lat="43.6491" lon="6.66008">
        <ele>642.06982421875</ele>
        <time>2011-06-02T09:01:52Z</time>
      </trkpt>
      <trkpt lat="43.64902" lon="6.66004">
        <ele>641.62121582031</ele>
        <time>2011-06-02T09:01:53Z</time>
      </trkpt>
      <trkpt lat="43.64867" lon="6.66001">
        <ele>636.62408447266</ele>
        <time>2011-06-02T09:01:57Z</time>
      </trkpt>
      <trkpt lat="43.64812" lon="6.66009">
        <ele>628.18969726562</ele>
        <time>2011-06-02T09:02:03Z</time>
      </trkpt>
      <trkpt lat="43.64757" lon="6.66011">
        <ele>623.98425292969</ele>
        <time>2011-06-02T09:02:08Z</time>
      </trkpt>
      <trkpt lat="43.64708" lon="6.65999">
        <ele>620.17224121094</ele>
        <time>2011-06-02T09:02:12Z</time>
      </trkpt>
      <trkpt lat="43.64674" lon="6.65989">
        <ele>616.7265625</ele>
        <time>2011-06-02T09:02:16Z</time>
      </trkpt>
      <trkpt lat="43.64655" lon="6.65978">
        <ele>614.4423828125</ele>
        <time>2011-06-02T09:02:20Z</time>
      </trkpt>
      <trkpt lat="43.64651" lon="6.65972">
        <ele>614.1884765625</ele>
        <time>2011-06-02T09:02:23Z</time>
      </trkpt>
      <trkpt lat="43.6465" lon="6.6596">
        <ele>615.54266357422</ele>
        <time>2011-06-02T09:02:26Z</time>
      </trkpt>
      <trkpt lat="43.64653" lon="6.65918">
        <ele>621.58386230469</ele>
        <time>2011-06-02T09:02:32Z</time>
      </trkpt>
      <trkpt lat="43.64653" lon="6.65909">
        <ele>621.82641601562</ele>
        <time>2011-06-02T09:02:33Z</time>
      </trkpt>
      <trkpt lat="43.64672" lon="6.65849">
        <ele>624.80151367188</ele>
        <time>2011-06-02T09:02:39Z</time>
      </trkpt>
      <trkpt lat="43.64679" lon="6.65829">
        <ele>626.32330322266</ele>
        <time>2011-06-02T09:02:41Z</time>
      </trkpt>
      <trkpt lat="43.64681" lon="6.65788">
        <ele>629.400390625</ele>
        <time>2011-06-02T09:02:45Z</time>
      </trkpt>
      <trkpt lat="43.64666" lon="6.65758">
        <ele>628.23760986328</ele>
        <time>2011-06-02T09:02:49Z</time>
      </trkpt>
      <trkpt lat="43.64628" lon="6.65748">
        <ele>620.33172607422</ele>
        <time>2011-06-02T09:02:53Z</time>
      </trkpt>
      <trkpt lat="43.64596" lon="6.65722">
        <ele>614.99401855469</ele>
        <time>2011-06-02T09:02:57Z</time>
      </trkpt>
      <trkpt lat="43.6459" lon="6.657">
        <ele>615.24591064453</ele>
        <time>2011-06-02T09:02:59Z</time>
      </trkpt>
      <trkpt lat="43.6459" lon="6.65675">
        <ele>617.15338134766</ele>
        <time>2011-06-02T09:03:01Z</time>
      </trkpt>
      <trkpt lat="43.6458" lon="6.65624">
        <ele>618.2685546875</ele>
        <time>2011-06-02T09:03:05Z</time>
      </trkpt>
      <trkpt lat="43.64563" lon="6.65587">
        <ele>616.45416259766</ele>
        <time>2011-06-02T09:03:08Z</time>
      </trkpt>
      <trkpt lat="43.64518" lon="6.65533">
        <ele>609.79486083984</ele>
        <time>2011-06-02T09:03:14Z</time>
      </trkpt>
      <trkpt lat="43.64477" lon="6.65445">
        <ele>603.06701660156</ele>
        <time>2011-06-02T09:03:21Z</time>
      </trkpt>
      <trkpt lat="43.6446" lon="6.65382">
        <ele>594.11682128906</ele>
        <time>2011-06-02T09:03:26Z</time>
      </trkpt>
      <trkpt lat="43.64462" lon="6.65338">
        <ele>590.80718994141</ele>
        <time>2011-06-02T09:03:30Z</time>
      </trkpt>
      <trkpt lat="43.64468" lon="6.65328">
        <ele>591.53100585938</ele>
        <time>2011-06-02T09:03:31Z</time>
      </trkpt>
      <trkpt lat="43.64515" lon="6.65263">
        <ele>595.31872558594</ele>
        <time>2011-06-02T09:03:38Z</time>
      </trkpt>
      <trkpt lat="43.64529" lon="6.65247">
        <ele>594.53350830078</ele>
        <time>2011-06-02T09:03:40Z</time>
      </trkpt>
      <trkpt lat="43.64546" lon="6.65227">
        <ele>590.43188476562</ele>
        <time>2011-06-02T09:03:44Z</time>
      </trkpt>
      <trkpt lat="43.64558" lon="6.65229">
        <ele>593.94525146484</ele>
        <time>2011-06-02T09:03:47Z</time>
      </trkpt>
      <trkpt lat="43.64568" lon="6.65236">
        <ele>598.224609375</ele>
        <time>2011-06-02T09:03:50Z</time>
      </trkpt>
      <trkpt lat="43.64584" lon="6.65233">
        <ele>600.56121826172</ele>
        <time>2011-06-02T09:03:54Z</time>
      </trkpt>
      <trkpt lat="43.64597" lon="6.65226">
        <ele>599.76470947266</ele>
        <time>2011-06-02T09:03:57Z</time>
      </trkpt>
      <trkpt lat="43.64613" lon="6.65211">
        <ele>596.73541259766</ele>
        <time>2011-06-02T09:04:02Z</time>
      </trkpt>
      <trkpt lat="43.64629" lon="6.65195">
        <ele>593.19281005859</ele>
        <time>2011-06-02T09:04:08Z</time>
      </trkpt>
      <trkpt lat="43.64639" lon="6.65181">
        <ele>589.95556640625</ele>
        <time>2011-06-02T09:04:12Z</time>
      </trkpt>
      <trkpt lat="43.64648" lon="6.65162">
        <ele>585.29125976562</ele>
        <time>2011-06-02T09:04:18Z</time>
      </trkpt>
      <trkpt lat="43.64654" lon="6.65147">
        <ele>580.96356201172</ele>
        <time>2011-06-02T09:04:24Z</time>
      </trkpt>
      <trkpt lat="43.64661" lon="6.65131">
        <ele>577.05755615234</ele>
        <time>2011-06-02T09:04:31Z</time>
      </trkpt>
      <trkpt lat="43.64668" lon="6.65122">
        <ele>575.43804931641</ele>
        <time>2011-06-02T09:04:36Z</time>
      </trkpt>
      <trkpt lat="43.64678" lon="6.65113">
        <ele>575.43438720703</ele>
        <time>2011-06-02T09:04:43Z</time>
      </trkpt>
      <trkpt lat="43.64687" lon="6.65097">
        <ele>573.43096923828</ele>
        <time>2011-06-02T09:04:50Z</time>
      </trkpt>
      <trkpt lat="43.64698" lon="6.65081">
        <ele>572.14489746094</ele>
        <time>2011-06-02T09:04:57Z</time>
      </trkpt>
      <trkpt lat="43.64706" lon="6.65071">
        <ele>571.11962890625</ele>
        <time>2011-06-02T09:05:02Z</time>
      </trkpt>
      <trkpt lat="43.64717" lon="6.65054">
        <ele>569.11474609375</ele>
        <time>2011-06-02T09:05:10Z</time>
      </trkpt>
      <trkpt lat="43.64727" lon="6.65038">
        <ele>568.17199707031</ele>
        <time>2011-06-02T09:05:17Z</time>
      </trkpt>
      <trkpt lat="43.64744" lon="6.65023">
        <ele>569.91522216797</ele>
        <time>2011-06-02T09:05:26Z</time>
      </trkpt>
      <trkpt lat="43.64759" lon="6.6501">
        <ele>572.40002441406</ele>
        <time>2011-06-02T09:05:32Z</time>
      </trkpt>
      <trkpt lat="43.64785" lon="6.6499">
        <ele>577.087890625</ele>
        <time>2011-06-02T09:05:41Z</time>
      </trkpt>
      <trkpt lat="43.64799" lon="6.64965">
        <ele>575.82757568359</ele>
        <time>2011-06-02T09:05:47Z</time>
      </trkpt>
      <trkpt lat="43.64817" lon="6.64934">
        <ele>574.06927490234</ele>
        <time>2011-06-02T09:05:54Z</time>
      </trkpt>
      <trkpt lat="43.64819" lon="6.64929">
        <ele>573.67138671875</ele>
        <time>2011-06-02T09:05:55Z</time>
      </trkpt>
      <trkpt lat="43.64822" lon="6.64901">
        <ele>566.98895263672</ele>
        <time>2011-06-02T09:05:59Z</time>
      </trkpt>
      <trkpt lat="43.64829" lon="6.6488">
        <ele>563.70989990234</ele>
        <time>2011-06-02T09:06:02Z</time>
      </trkpt>
      <trkpt lat="43.64854" lon="6.64836">
        <ele>561.63793945312</ele>
        <time>2011-06-02T09:06:09Z</time>
      </trkpt>
      <trkpt lat="43.6487" lon="6.64797">
        <ele>562.86572265625</ele>
        <time>2011-06-02T09:06:15Z</time>
      </trkpt>
      <trkpt lat="43.64874" lon="6.64789">
        <ele>563.3125</ele>
        <time>2011-06-02T09:06:16Z</time>
      </trkpt>
      <trkpt lat="43.64896" lon="6.64757">
        <ele>568.32727050781</ele>
        <time>2011-06-02T09:06:21Z</time>
      </trkpt>
      <trkpt lat="43.64928" lon="6.64728">
        <ele>581.98767089844</ele>
        <time>2011-06-02T09:06:27Z</time>
      </trkpt>
      <trkpt lat="43.64946" lon="6.64697">
        <ele>591.1171875</ele>
        <time>2011-06-02T09:06:32Z</time>
      </trkpt>
      <trkpt lat="43.64942" lon="6.64676">
        <ele>590.294921875</ele>
        <time>2011-06-02T09:06:35Z</time>
      </trkpt>
      <trkpt lat="43.64939" lon="6.64664">
        <ele>589.40655517578</ele>
        <time>2011-06-02T09:06:37Z</time>
      </trkpt>
      <trkpt lat="43.6493" lon="6.64636">
        <ele>589.77465820312</ele>
        <time>2011-06-02T09:06:41Z</time>
      </trkpt>
      <trkpt lat="43.64914" lon="6.64602">
        <ele>588.87164306641</ele>
        <time>2011-06-02T09:06:47Z</time>
      </trkpt>
      <trkpt lat="43.64898" lon="6.64578">
        <ele>587.78631591797</ele>
        <time>2011-06-02T09:06:52Z</time>
      </trkpt>
      <trkpt lat="43.6489" lon="6.64552">
        <ele>589.67633056641</ele>
        <time>2011-06-02T09:06:56Z</time>
      </trkpt>
      <trkpt lat="43.64891" lon="6.6454">
        <ele>591.96252441406</ele>
        <time>2011-06-02T09:06:58Z</time>
      </trkpt>
      <trkpt lat="43.64892" lon="6.64529">
        <ele>593.86944580078</ele>
        <time>2011-06-02T09:07:00Z</time>
      </trkpt>
      <trkpt lat="43.64888" lon="6.645">
        <ele>597.71807861328</ele>
        <time>2011-06-02T09:07:07Z</time>
      </trkpt>
      <trkpt lat="43.64878" lon="6.64481">
        <ele>599.3076171875</ele>
        <time>2011-06-02T09:07:12Z</time>
      </trkpt>
      <trkpt lat="43.64875" lon="6.64454">
        <ele>604.48645019531</ele>
        <time>2011-06-02T09:07:17Z</time>
      </trkpt>
      <trkpt lat="43.64872" lon="6.64431">
        <ele>608.88464355469</ele>
        <time>2011-06-02T09:07:21Z</time>
      </trkpt>
      <trkpt lat="43.64871" lon="6.64419">
        <ele>611.5205078125</ele>
        <time>2011-06-02T09:07:23Z</time>
      </trkpt>
      <trkpt lat="43.64861" lon="6.6442">
        <ele>609.74426269531</ele>
        <time>2011-06-02T09:07:27Z</time>
      </trkpt>
      <trkpt lat="43.64838" lon="6.64438">
        <ele>601.77276611328</ele>
        <time>2011-06-02T09:07:32Z</time>
      </trkpt>
      <trkpt lat="43.64819" lon="6.64436">
        <ele>602.47839355469</ele>
        <time>2011-06-02T09:07:36Z</time>
      </trkpt>
      <trkpt lat="43.64804" lon="6.64416">
        <ele>609.39654541016</ele>
        <time>2011-06-02T09:07:40Z</time>
      </trkpt>
      <trkpt lat="43.64777" lon="6.64419">
        <ele>610.17218017578</ele>
        <time>2011-06-02T09:07:45Z</time>
      </trkpt>
      <trkpt lat="43.64772" lon="6.6442">
        <ele>610.29425048828</ele>
        <time>2011-06-02T09:07:46Z</time>
      </trkpt>
      <trkpt lat="43.64731" lon="6.64426">
        <ele>611.00079345703</ele>
        <time>2011-06-02T09:07:55Z</time>
      </trkpt>
      <trkpt lat="43.64722" lon="6.6443">
        <ele>610.31488037109</ele>
        <time>2011-06-02T09:07:57Z</time>
      </trkpt>
      <trkpt lat="43.64701" lon="6.64449">
        <ele>604.56439208984</ele>
        <time>2011-06-02T09:08:02Z</time>
      </trkpt>
      <trkpt lat="43.64691" lon="6.64464">
        <ele>599.32830810547</ele>
        <time>2011-06-02T09:08:06Z</time>
      </trkpt>
      <trkpt lat="43.64676" lon="6.64474">
        <ele>595.88513183594</ele>
        <time>2011-06-02T09:08:11Z</time>
      </trkpt>
      <trkpt lat="43.64661" lon="6.64472">
        <ele>596.74853515625</ele>
        <time>2011-06-02T09:08:16Z</time>
      </trkpt>
      <trkpt lat="43.64653" lon="6.64468">
        <ele>597.29370117188</ele>
        <time>2011-06-02T09:08:19Z</time>
      </trkpt>
      <trkpt lat="43.6463" lon="6.64457">
        <ele>599.06378173828</ele>
        <time>2011-06-02T09:08:26Z</time>
      </trkpt>
      <trkpt lat="43.64609" lon="6.64445">
        <ele>600.67810058594</ele>
        <time>2011-06-02T09:08:32Z</time>
      </trkpt>
      <trkpt lat="43.64589" lon="6.64422">
        <ele>605.068359375</ele>
        <time>2011-06-02T09:08:39Z</time>
      </trkpt>
      <trkpt lat="43.64574" lon="6.64406">
        <ele>607.20489501953</ele>
        <time>2011-06-02T09:08:45Z</time>
      </trkpt>
      <trkpt lat="43.64557" lon="6.64396">
        <ele>605.49639892578</ele>
        <time>2011-06-02T09:08:52Z</time>
      </trkpt>
      <trkpt lat="43.64543" lon="6.64383">
        <ele>605.08221435547</ele>
        <time>2011-06-02T09:08:58Z</time>
      </trkpt>
      <trkpt lat="43.64528" lon="6.64371">
        <ele>603.58264160156</ele>
        <time>2011-06-02T09:09:04Z</time>
      </trkpt>
      <trkpt lat="43.64517" lon="6.64355">
        <ele>603.98779296875</ele>
        <time>2011-06-02T09:09:09Z</time>
      </trkpt>
      <trkpt lat="43.64503" lon="6.6434">
        <ele>602.56872558594</ele>
        <time>2011-06-02T09:09:15Z</time>
      </trkpt>
      <trkpt lat="43.6449" lon="6.64326">
        <ele>602.01190185547</ele>
        <time>2011-06-02T09:09:21Z</time>
      </trkpt>
      <trkpt lat="43.64482" lon="6.64309">
        <ele>604.20788574219</ele>
        <time>2011-06-02T09:09:26Z</time>
      </trkpt>
      <trkpt lat="43.64473" lon="6.64292">
        <ele>605.79461669922</ele>
        <time>2011-06-02T09:09:32Z</time>
      </trkpt>
      <trkpt lat="43.64462" lon="6.64274">
        <ele>605.95324707031</ele>
        <time>2011-06-02T09:09:39Z</time>
      </trkpt>
      <trkpt lat="43.64454" lon="6.64258">
        <ele>606.39245605469</ele>
        <time>2011-06-02T09:09:45Z</time>
      </trkpt>
      <trkpt lat="43.64449" lon="6.64241">
        <ele>608.46691894531</ele>
        <time>2011-06-02T09:09:50Z</time>
      </trkpt>
      <trkpt lat="43.64447" lon="6.64216">
        <ele>613.07482910156</ele>
        <time>2011-06-02T09:09:57Z</time>
      </trkpt>
      <trkpt lat="43.64447" lon="6.64187">
        <ele>619.05084228516</ele>
        <time>2011-06-02T09:10:05Z</time>
      </trkpt>
      <trkpt lat="43.64447" lon="6.64159">
        <ele>624.95867919922</ele>
        <time>2011-06-02T09:10:13Z</time>
      </trkpt>
      <trkpt lat="43.64444" lon="6.64132">
        <ele>629.45642089844</ele>
        <time>2011-06-02T09:10:21Z</time>
      </trkpt>
      <trkpt lat="43.64434" lon="6.6411">
        <ele>629.01989746094</ele>
        <time>2011-06-02T09:10:28Z</time>
      </trkpt>
      <trkpt lat="43.64425" lon="6.64094">
        <ele>627.03161621094</ele>
        <time>2011-06-02T09:10:34Z</time>
      </trkpt>
      <trkpt lat="43.64415" lon="6.6408">
        <ele>625.00091552734</ele>
        <time>2011-06-02T09:10:40Z</time>
      </trkpt>
      <trkpt lat="43.64409" lon="6.6407">
        <ele>624.66973876953</ele>
        <time>2011-06-02T09:10:44Z</time>
      </trkpt>
      <trkpt lat="43.64402" lon="6.64046">
        <ele>627.05462646484</ele>
        <time>2011-06-02T09:10:51Z</time>
      </trkpt>
      <trkpt lat="43.64398" lon="6.64027">
        <ele>629.29797363281</ele>
        <time>2011-06-02T09:10:56Z</time>
      </trkpt>
      <trkpt lat="43.64388" lon="6.64005">
        <ele>628.33514404297</ele>
        <time>2011-06-02T09:11:02Z</time>
      </trkpt>
      <trkpt lat="43.64375" lon="6.63986">
        <ele>625.25146484375</ele>
        <time>2011-06-02T09:11:08Z</time>
      </trkpt>
      <trkpt lat="43.6436" lon="6.63978">
        <ele>618.25366210938</ele>
        <time>2011-06-02T09:11:13Z</time>
      </trkpt>
      <trkpt lat="43.64341" lon="6.63964">
        <ele>608.93884277344</ele>
        <time>2011-06-02T09:11:19Z</time>
      </trkpt>
      <trkpt lat="43.64323" lon="6.63944">
        <ele>604.46966552734</ele>
        <time>2011-06-02T09:11:25Z</time>
      </trkpt>
      <trkpt lat="43.64314" lon="6.63927">
        <ele>603.71319580078</ele>
        <time>2011-06-02T09:11:30Z</time>
      </trkpt>
      <trkpt lat="43.64304" lon="6.63902">
        <ele>605.42913818359</ele>
        <time>2011-06-02T09:11:35Z</time>
      </trkpt>
      <trkpt lat="43.64299" lon="6.63881">
        <ele>609.04736328125</ele>
        <time>2011-06-02T09:11:38Z</time>
      </trkpt>
      <trkpt lat="43.64285" lon="6.63848">
        <ele>609.3564453125</ele>
        <time>2011-06-02T09:11:45Z</time>
      </trkpt>
      <trkpt lat="43.64284" lon="6.63843">
        <ele>610.04693603516</ele>
        <time>2011-06-02T09:11:46Z</time>
      </trkpt>
      <trkpt lat="43.64276" lon="6.63817">
        <ele>610.78186035156</ele>
        <time>2011-06-02T09:11:52Z</time>
      </trkpt>
      <trkpt lat="43.64274" lon="6.63813">
        <ele>610.28942871094</ele>
        <time>2011-06-02T09:11:53Z</time>
      </trkpt>
      <trkpt lat="43.64257" lon="6.63785">
        <ele>604.97399902344</ele>
        <time>2011-06-02T09:12:02Z</time>
      </trkpt>
      <trkpt lat="43.64242" lon="6.63765">
        <ele>600.96722412109</ele>
        <time>2011-06-02T09:12:08Z</time>
      </trkpt>
      <trkpt lat="43.64232" lon="6.6374">
        <ele>600.30889892578</ele>
        <time>2011-06-02T09:12:13Z</time>
      </trkpt>
      <trkpt lat="43.64224" lon="6.63717">
        <ele>599.52014160156</ele>
        <time>2011-06-02T09:12:18Z</time>
      </trkpt>
      <trkpt lat="43.64213" lon="6.6369">
        <ele>597.48889160156</ele>
        <time>2011-06-02T09:12:24Z</time>
      </trkpt>
      <trkpt lat="43.64203" lon="6.63664">
        <ele>595.86218261719</ele>
        <time>2011-06-02T09:12:28Z</time>
      </trkpt>
      <trkpt lat="43.64199" lon="6.63652">
        <ele>595.18695068359</ele>
        <time>2011-06-02T09:12:30Z</time>
      </trkpt>
      <trkpt lat="43.64196" lon="6.63639">
        <ele>595.43872070312</ele>
        <time>2011-06-02T09:12:32Z</time>
      </trkpt>
      <trkpt lat="43.64192" lon="6.63631">
        <ele>594.58618164062</ele>
        <time>2011-06-02T09:12:34Z</time>
      </trkpt>
      <trkpt lat="43.64188" lon="6.63604">
        <ele>595.75915527344</ele>
        <time>2011-06-02T09:12:39Z</time>
      </trkpt>
      <trkpt lat="43.64187" lon="6.63585">
        <ele>597.45288085938</ele>
        <time>2011-06-02T09:12:42Z</time>
      </trkpt>
      <trkpt lat="43.64186" lon="6.63568">
        <ele>599.26776123047</ele>
        <time>2011-06-02T09:12:45Z</time>
      </trkpt>
      <trkpt lat="43.6418" lon="6.63535">
        <ele>600.47552490234</ele>
        <time>2011-06-02T09:12:51Z</time>
      </trkpt>
      <trkpt lat="43.64168" lon="6.63495">
        <ele>600.43359375</ele>
        <time>2011-06-02T09:12:59Z</time>
      </trkpt>
      <trkpt lat="43.64161" lon="6.6346">
        <ele>603.78234863281</ele>
        <time>2011-06-02T09:13:05Z</time>
      </trkpt>
      <trkpt lat="43.64159" lon="6.6345">
        <ele>604.90368652344</ele>
        <time>2011-06-02T09:13:07Z</time>
      </trkpt>
      <trkpt lat="43.64154" lon="6.63439">
        <ele>605.77911376953</ele>
        <time>2011-06-02T09:13:09Z</time>
      </trkpt>
      <trkpt lat="43.64143" lon="6.63423">
        <ele>606.2314453125</ele>
        <time>2011-06-02T09:13:12Z</time>
      </trkpt>
      <trkpt lat="43.64129" lon="6.63411">
        <ele>606.23602294922</ele>
        <time>2011-06-02T09:13:15Z</time>
      </trkpt>
      <trkpt lat="43.6412" lon="6.63403">
        <ele>606.75555419922</ele>
        <time>2011-06-02T09:13:17Z</time>
      </trkpt>
      <trkpt lat="43.64106" lon="6.63377">
        <ele>610.24212646484</ele>
        <time>2011-06-02T09:13:22Z</time>
      </trkpt>
      <trkpt lat="43.641" lon="6.63374">
        <ele>610.13214111328</ele>
        <time>2011-06-02T09:13:26Z</time>
      </trkpt>
      <trkpt lat="43.64101" lon="6.63376">
        <ele>609.69030761719</ele>
        <time>2011-06-02T09:13:27Z</time>
      </trkpt>
      <trkpt lat="43.64092" lon="6.63395">
        <ele>604.28332519531</ele>
        <time>2011-06-02T09:13:33Z</time>
      </trkpt>
      <trkpt lat="43.64075" lon="6.63422">
        <ele>597.56457519531</ele>
        <time>2011-06-02T09:13:38Z</time>
      </trkpt>
      <trkpt lat="43.64056" lon="6.63427">
        <ele>597.90100097656</ele>
        <time>2011-06-02T09:13:42Z</time>
      </trkpt>
      <trkpt lat="43.64045" lon="6.63426">
        <ele>598.76507568359</ele>
        <time>2011-06-02T09:13:44Z</time>
      </trkpt>
      <trkpt lat="43.64027" lon="6.63428">
        <ele>599.48602294922</ele>
        <time>2011-06-02T09:13:49Z</time>
      </trkpt>
      <trkpt lat="43.64012" lon="6.63443">
        <ele>597.95141601562</ele>
        <time>2011-06-02T09:13:53Z</time>
      </trkpt>
      <trkpt lat="43.64008" lon="6.63443">
        <ele>598.05212402344</ele>
        <time>2011-06-02T09:13:54Z</time>
      </trkpt>
      <trkpt lat="43.63982" lon="6.63437">
        <ele>603.42639160156</ele>
        <time>2011-06-02T09:14:01Z</time>
      </trkpt>
      <trkpt lat="43.63979" lon="6.63435">
        <ele>604.26361083984</ele>
        <time>2011-06-02T09:14:02Z</time>
      </trkpt>
      <trkpt lat="43.63958" lon="6.6343">
        <ele>609.83386230469</ele>
        <time>2011-06-02T09:14:09Z</time>
      </trkpt>
      <trkpt lat="43.63934" lon="6.63422">
        <ele>616.79376220703</ele>
        <time>2011-06-02T09:14:14Z</time>
      </trkpt>
      <trkpt lat="43.63915" lon="6.63414">
        <ele>622.88928222656</ele>
        <time>2011-06-02T09:14:18Z</time>
      </trkpt>
      <trkpt lat="43.63891" lon="6.63409">
        <ele>626.03857421875</ele>
        <time>2011-06-02T09:14:23Z</time>
      </trkpt>
      <trkpt lat="43.6387" lon="6.63406">
        <ele>628.42864990234</ele>
        <time>2011-06-02T09:14:27Z</time>
      </trkpt>
      <trkpt lat="43.63853" lon="6.63407">
        <ele>629.62835693359</ele>
        <time>2011-06-02T09:14:30Z</time>
      </trkpt>
      <trkpt lat="43.63842" lon="6.63408">
        <ele>630.17736816406</ele>
        <time>2011-06-02T09:14:32Z</time>
      </trkpt>
      <trkpt lat="43.63815" lon="6.63428">
        <ele>625.41046142578</ele>
        <time>2011-06-02T09:14:37Z</time>
      </trkpt>
      <trkpt lat="43.63806" lon="6.63442">
        <ele>621.18731689453</ele>
        <time>2011-06-02T09:14:39Z</time>
      </trkpt>
      <trkpt lat="43.63797" lon="6.63462">
        <ele>615.40405273438</ele>
        <time>2011-06-02T09:14:42Z</time>
      </trkpt>
      <trkpt lat="43.63783" lon="6.63479">
        <ele>611.03131103516</ele>
        <time>2011-06-02T09:14:46Z</time>
      </trkpt>
      <trkpt lat="43.63764" lon="6.63481">
        <ele>610.57867431641</ele>
        <time>2011-06-02T09:14:50Z</time>
      </trkpt>
      <trkpt lat="43.63744" lon="6.63485">
        <ele>609.01538085938</ele>
        <time>2011-06-02T09:14:54Z</time>
      </trkpt>
      <trkpt lat="43.63723" lon="6.63478">
        <ele>608.005859375</ele>
        <time>2011-06-02T09:14:58Z</time>
      </trkpt>
      <trkpt lat="43.63715" lon="6.63461">
        <ele>610.95098876953</ele>
        <time>2011-06-02T09:15:01Z</time>
      </trkpt>
      <trkpt lat="43.63702" lon="6.63423">
        <ele>618.51062011719</ele>
        <time>2011-06-02T09:15:07Z</time>
      </trkpt>
      <trkpt lat="43.6369" lon="6.63394">
        <ele>622.58996582031</ele>
        <time>2011-06-02T09:15:11Z</time>
      </trkpt>
      <trkpt lat="43.63674" lon="6.63388">
        <ele>621.46728515625</ele>
        <time>2011-06-02T09:15:15Z</time>
      </trkpt>
      <trkpt lat="43.63657" lon="6.63396">
        <ele>616.61395263672</ele>
        <time>2011-06-02T09:15:18Z</time>
      </trkpt>
      <trkpt lat="43.63644" lon="6.63392">
        <ele>614.23950195312</ele>
        <time>2011-06-02T09:15:20Z</time>
      </trkpt>
      <trkpt lat="43.63626" lon="6.6338">
        <ele>611.97760009766</ele>
        <time>2011-06-02T09:15:23Z</time>
      </trkpt>
      <trkpt lat="43.63606" lon="6.63353">
        <ele>612.11047363281</ele>
        <time>2011-06-02T09:15:28Z</time>
      </trkpt>
      <trkpt lat="43.63603" lon="6.63344">
        <ele>612.97137451172</ele>
        <time>2011-06-02T09:15:30Z</time>
      </trkpt>
      <trkpt lat="43.636" lon="6.63333">
        <ele>614.34100341797</ele>
        <time>2011-06-02T09:15:33Z</time>
      </trkpt>
      <trkpt lat="43.63595" lon="6.63311">
        <ele>617.72052001953</ele>
        <time>2011-06-02T09:15:39Z</time>
      </trkpt>
      <trkpt lat="43.63591" lon="6.63297">
        <ele>619.5830078125</ele>
        <time>2011-06-02T09:15:43Z</time>
      </trkpt>
      <trkpt lat="43.63586" lon="6.63281">
        <ele>621.72619628906</ele>
        <time>2011-06-02T09:15:48Z</time>
      </trkpt>
      <trkpt lat="43.63578" lon="6.63267">
        <ele>623.29724121094</ele>
        <time>2011-06-02T09:15:55Z</time>
      </trkpt>
      <trkpt lat="43.63571" lon="6.63254">
        <ele>624.82965087891</ele>
        <time>2011-06-02T09:16:01Z</time>
      </trkpt>
      <trkpt lat="43.63565" lon="6.63245">
        <ele>625.46380615234</ele>
        <time>2011-06-02T09:16:06Z</time>
      </trkpt>
      <trkpt lat="43.63557" lon="6.63238">
        <ele>625.75622558594</ele>
        <time>2011-06-02T09:16:12Z</time>
      </trkpt>
      <trkpt lat="43.63549" lon="6.63229">
        <ele>626.31329345703</ele>
        <time>2011-06-02T09:16:17Z</time>
      </trkpt>
      <trkpt lat="43.63541" lon="6.63217">
        <ele>627.87121582031</ele>
        <time>2011-06-02T09:16:23Z</time>
      </trkpt>
      <trkpt lat="43.63535" lon="6.63204">
        <ele>629.83099365234</ele>
        <time>2011-06-02T09:16:29Z</time>
      </trkpt>
      <trkpt lat="43.6353" lon="6.63191">
        <ele>632.18432617188</ele>
        <time>2011-06-02T09:16:36Z</time>
      </trkpt>
      <trkpt lat="43.63524" lon="6.63177">
        <ele>634.95208740234</ele>
        <time>2011-06-02T09:16:43Z</time>
      </trkpt>
      <trkpt lat="43.63519" lon="6.63166">
        <ele>636.91198730469</ele>
        <time>2011-06-02T09:16:48Z</time>
      </trkpt>
      <trkpt lat="43.63507" lon="6.63146">
        <ele>640.23083496094</ele>
        <time>2011-06-02T09:16:53Z</time>
      </trkpt>
      <trkpt lat="43.63492" lon="6.63126">
        <ele>643.51776123047</ele>
        <time>2011-06-02T09:16:57Z</time>
      </trkpt>
      <trkpt lat="43.63477" lon="6.63114">
        <ele>644.91345214844</ele>
        <time>2011-06-02T09:17:00Z</time>
      </trkpt>
      <trkpt lat="43.63446" lon="6.63111">
        <ele>642.40087890625</ele>
        <time>2011-06-02T09:17:05Z</time>
      </trkpt>
      <trkpt lat="43.63426" lon="6.63118">
        <ele>638.78845214844</ele>
        <time>2011-06-02T09:17:09Z</time>
      </trkpt>
      <trkpt lat="43.63413" lon="6.63122">
        <ele>636.98303222656</ele>
        <time>2011-06-02T09:17:13Z</time>
      </trkpt>
      <trkpt lat="43.63387" lon="6.63136">
        <ele>632.919921875</ele>
        <time>2011-06-02T09:17:20Z</time>
      </trkpt>
      <trkpt lat="43.63364" lon="6.63141">
        <ele>631.05987548828</ele>
        <time>2011-06-02T09:17:28Z</time>
      </trkpt>
      <trkpt lat="43.63342" lon="6.63141">
        <ele>630.1708984375</ele>
        <time>2011-06-02T09:17:34Z</time>
      </trkpt>
      <trkpt lat="43.63322" lon="6.63145">
        <ele>628.45294189453</ele>
        <time>2011-06-02T09:17:39Z</time>
      </trkpt>
      <trkpt lat="43.6331" lon="6.63153">
        <ele>626.87371826172</ele>
        <time>2011-06-02T09:17:42Z</time>
      </trkpt>
      <trkpt lat="43.63287" lon="6.63156">
        <ele>624.98248291016</ele>
        <time>2011-06-02T09:17:47Z</time>
      </trkpt>
      <trkpt lat="43.63264" lon="6.63156">
        <ele>623.46331787109</ele>
        <time>2011-06-02T09:17:52Z</time>
      </trkpt>
      <trkpt lat="43.63246" lon="6.63155">
        <ele>621.77154541016</ele>
        <time>2011-06-02T09:17:57Z</time>
      </trkpt>
      <trkpt lat="43.63224" lon="6.63153">
        <ele>617.84124755859</ele>
        <time>2011-06-02T09:18:04Z</time>
      </trkpt>
      <trkpt lat="43.63211" lon="6.63144">
        <ele>615.48779296875</ele>
        <time>2011-06-02T09:18:09Z</time>
      </trkpt>
      <trkpt lat="43.63198" lon="6.63131">
        <ele>613.30859375</ele>
        <time>2011-06-02T09:18:14Z</time>
      </trkpt>
      <trkpt lat="43.63192" lon="6.63124">
        <ele>612.18341064453</ele>
        <time>2011-06-02T09:18:16Z</time>
      </trkpt>
      <trkpt lat="43.63187" lon="6.63091">
        <ele>611.63647460938</ele>
        <time>2011-06-02T09:18:21Z</time>
      </trkpt>
      <trkpt lat="43.63199" lon="6.63053">
        <ele>614.22991943359</ele>
        <time>2011-06-02T09:18:26Z</time>
      </trkpt>
      <trkpt lat="43.63206" lon="6.63001">
        <ele>616.41717529297</ele>
        <time>2011-06-02T09:18:31Z</time>
      </trkpt>
      <trkpt lat="43.63205" lon="6.6298">
        <ele>616.27093505859</ele>
        <time>2011-06-02T09:18:33Z</time>
      </trkpt>
      <trkpt lat="43.63199" lon="6.6293">
        <ele>614.49810791016</ele>
        <time>2011-06-02T09:18:38Z</time>
      </trkpt>
      <trkpt lat="43.63197" lon="6.62921">
        <ele>613.74053955078</ele>
        <time>2011-06-02T09:18:39Z</time>
      </trkpt>
      <trkpt lat="43.63193" lon="6.62902">
        <ele>613.29406738281</ele>
        <time>2011-06-02T09:18:41Z</time>
      </trkpt>
      <trkpt lat="43.63192" lon="6.62885">
        <ele>613.63519287109</ele>
        <time>2011-06-02T09:18:43Z</time>
      </trkpt>
      <trkpt lat="43.63194" lon="6.62858">
        <ele>615.72277832031</ele>
        <time>2011-06-02T09:18:47Z</time>
      </trkpt>
      <trkpt lat="43.63188" lon="6.62837">
        <ele>614.87506103516</ele>
        <time>2011-06-02T09:18:51Z</time>
      </trkpt>
      <trkpt lat="43.63168" lon="6.62801">
        <ele>609.96112060547</ele>
        <time>2011-06-02T09:19:00Z</time>
      </trkpt>
      <trkpt lat="43.63158" lon="6.62781">
        <ele>607.21313476562</ele>
        <time>2011-06-02T09:19:05Z</time>
      </trkpt>
      <trkpt lat="43.63153" lon="6.62757">
        <ele>605.84930419922</ele>
        <time>2011-06-02T09:19:10Z</time>
      </trkpt>
      <trkpt lat="43.63149" lon="6.62731">
        <ele>603.22137451172</ele>
        <time>2011-06-02T09:19:15Z</time>
      </trkpt>
      <trkpt lat="43.63148" lon="6.62705">
        <ele>600.83923339844</ele>
        <time>2011-06-02T09:19:20Z</time>
      </trkpt>
      <trkpt lat="43.63147" lon="6.62699">
        <ele>599.89086914062</ele>
        <time>2011-06-02T09:19:21Z</time>
      </trkpt>
      <trkpt lat="43.63144" lon="6.62667">
        <ele>596.05450439453</ele>
        <time>2011-06-02T09:19:25Z</time>
      </trkpt>
      <trkpt lat="43.63143" lon="6.62648">
        <ele>592.62908935547</ele>
        <time>2011-06-02T09:19:28Z</time>
      </trkpt>
      <trkpt lat="43.63147" lon="6.62628">
        <ele>591.31762695312</ele>
        <time>2011-06-02T09:19:32Z</time>
      </trkpt>
      <trkpt lat="43.63158" lon="6.62609">
        <ele>592.39105224609</ele>
        <time>2011-06-02T09:19:37Z</time>
      </trkpt>
      <trkpt lat="43.63167" lon="6.62594">
        <ele>593.86102294922</ele>
        <time>2011-06-02T09:19:42Z</time>
      </trkpt>
      <trkpt lat="43.63171" lon="6.62588">
        <ele>595.07879638672</ele>
        <time>2011-06-02T09:19:44Z</time>
      </trkpt>
      <trkpt lat="43.63173" lon="6.62581">
        <ele>595.11877441406</ele>
        <time>2011-06-02T09:19:47Z</time>
      </trkpt>
      <trkpt lat="43.63165" lon="6.62586">
        <ele>591.86407470703</ele>
        <time>2011-06-02T09:19:51Z</time>
      </trkpt>
      <trkpt lat="43.63155" lon="6.62595">
        <ele>589.29772949219</ele>
        <time>2011-06-02T09:19:55Z</time>
      </trkpt>
      <trkpt lat="43.63139" lon="6.62598">
        <ele>583.50354003906</ele>
        <time>2011-06-02T09:20:00Z</time>
      </trkpt>
      <trkpt lat="43.63134" lon="6.62602">
        <ele>581.75836181641</ele>
        <time>2011-06-02T09:20:02Z</time>
      </trkpt>
      <trkpt lat="43.63122" lon="6.62624">
        <ele>580.6162109375</ele>
        <time>2011-06-02T09:20:07Z</time>
      </trkpt>
      <trkpt lat="43.63116" lon="6.62644">
        <ele>581.57354736328</ele>
        <time>2011-06-02T09:20:12Z</time>
      </trkpt>
      <trkpt lat="43.63109" lon="6.62662">
        <ele>581.30456542969</ele>
        <time>2011-06-02T09:20:17Z</time>
      </trkpt>
      <trkpt lat="43.63102" lon="6.62675">
        <ele>580.08807373047</ele>
        <time>2011-06-02T09:20:22Z</time>
      </trkpt>
      <trkpt lat="43.63096" lon="6.62695">
        <ele>578.74151611328</ele>
        <time>2011-06-02T09:20:27Z</time>
      </trkpt>
      <trkpt lat="43.63091" lon="6.62693">
        <ele>576.45330810547</ele>
        <time>2011-06-02T09:20:32Z</time>
      </trkpt>
      <trkpt lat="43.63092" lon="6.62668">
        <ele>575.37377929688</ele>
        <time>2011-06-02T09:20:37Z</time>
      </trkpt>
      <trkpt lat="43.63089" lon="6.6265">
        <ele>571.6640625</ele>
        <time>2011-06-02T09:20:41Z</time>
      </trkpt>
      <trkpt lat="43.63082" lon="6.62632">
        <ele>566.15411376953</ele>
        <time>2011-06-02T09:20:45Z</time>
      </trkpt>
      <trkpt lat="43.63078" lon="6.62613">
        <ele>561.60546875</ele>
        <time>2011-06-02T09:20:50Z</time>
      </trkpt>
      <trkpt lat="43.63083" lon="6.62596">
        <ele>560.77752685547</ele>
        <time>2011-06-02T09:20:54Z</time>
      </trkpt>
      <trkpt lat="43.63079" lon="6.62592">
        <ele>558.76312255859</ele>
        <time>2011-06-02T09:20:59Z</time>
      </trkpt>
      <trkpt lat="43.63074" lon="6.62605">
        <ele>558.76898193359</ele>
        <time>2011-06-02T09:21:04Z</time>
      </trkpt>
      <trkpt lat="43.63066" lon="6.6263">
        <ele>559.392578125</ele>
        <time>2011-06-02T09:21:10Z</time>
      </trkpt>
      <trkpt lat="43.6306" lon="6.62647">
        <ele>559.041015625</ele>
        <time>2011-06-02T09:21:15Z</time>
      </trkpt>
      <trkpt lat="43.6306" lon="6.62652">
        <ele>559.52166748047</ele>
        <time>2011-06-02T09:21:18Z</time>
      </trkpt>
      <trkpt lat="43.63053" lon="6.6265">
        <ele>556.3720703125</ele>
        <time>2011-06-02T09:21:23Z</time>
      </trkpt>
      <trkpt lat="43.63049" lon="6.62636">
        <ele>552.84814453125</ele>
        <time>2011-06-02T09:21:28Z</time>
      </trkpt>
      <trkpt lat="43.63049" lon="6.62614">
        <ele>550.16650390625</ele>
        <time>2011-06-02T09:21:34Z</time>
      </trkpt>
      <trkpt lat="43.63049" lon="6.6259">
        <ele>547.58599853516</ele>
        <time>2011-06-02T09:21:40Z</time>
      </trkpt>
      <trkpt lat="43.63049" lon="6.62569">
        <ele>546.72198486328</ele>
        <time>2011-06-02T09:21:45Z</time>
      </trkpt>
      <trkpt lat="43.63054" lon="6.62554">
        <ele>548.29730224609</ele>
        <time>2011-06-02T09:21:49Z</time>
      </trkpt>
      <trkpt lat="43.63069" lon="6.62534">
        <ele>553.36883544922</ele>
        <time>2011-06-02T09:21:53Z</time>
      </trkpt>
      <trkpt lat="43.63081" lon="6.62509">
        <ele>557.31182861328</ele>
        <time>2011-06-02T09:21:57Z</time>
      </trkpt>
      <trkpt lat="43.63083" lon="6.62504">
        <ele>557.77362060547</ele>
        <time>2011-06-02T09:21:58Z</time>
      </trkpt>
      <trkpt lat="43.63086" lon="6.62485">
        <ele>560.04235839844</ele>
        <time>2011-06-02T09:22:03Z</time>
      </trkpt>
      <trkpt lat="43.63093" lon="6.62464">
        <ele>563.54418945312</ele>
        <time>2011-06-02T09:22:08Z</time>
      </trkpt>
      <trkpt lat="43.63099" lon="6.62448">
        <ele>566.32458496094</ele>
        <time>2011-06-02T09:22:12Z</time>
      </trkpt>
      <trkpt lat="43.63092" lon="6.62443">
        <ele>564.72570800781</ele>
        <time>2011-06-02T09:22:17Z</time>
      </trkpt>
      <trkpt lat="43.63086" lon="6.62441">
        <ele>563.09521484375</ele>
        <time>2011-06-02T09:22:19Z</time>
      </trkpt>
      <trkpt lat="43.63073" lon="6.62435">
        <ele>559.35485839844</ele>
        <time>2011-06-02T09:22:23Z</time>
      </trkpt>
      <trkpt lat="43.63058" lon="6.62427">
        <ele>555.15112304688</ele>
        <time>2011-06-02T09:22:28Z</time>
      </trkpt>
      <trkpt lat="43.63044" lon="6.62418">
        <ele>551.49945068359</ele>
        <time>2011-06-02T09:22:33Z</time>
      </trkpt>
      <trkpt lat="43.63028" lon="6.62406">
        <ele>548.37310791016</ele>
        <time>2011-06-02T09:22:37Z</time>
      </trkpt>
      <trkpt lat="43.63014" lon="6.62391">
        <ele>546.34387207031</ele>
        <time>2011-06-02T09:22:41Z</time>
      </trkpt>
      <trkpt lat="43.62996" lon="6.62383">
        <ele>542.26531982422</ele>
        <time>2011-06-02T09:22:45Z</time>
      </trkpt>
      <trkpt lat="43.62981" lon="6.62368">
        <ele>541.05786132812</ele>
        <time>2011-06-02T09:22:49Z</time>
      </trkpt>
      <trkpt lat="43.62976" lon="6.62344">
        <ele>543.61926269531</ele>
        <time>2011-06-02T09:22:53Z</time>
      </trkpt>
      <trkpt lat="43.62972" lon="6.62332">
        <ele>544.64056396484</ele>
        <time>2011-06-02T09:22:56Z</time>
      </trkpt>
      <trkpt lat="43.62967" lon="6.62314">
        <ele>546.31939697266</ele>
        <time>2011-06-02T09:22:59Z</time>
      </trkpt>
      <trkpt lat="43.62961" lon="6.62293">
        <ele>548.80438232422</ele>
        <time>2011-06-02T09:23:02Z</time>
      </trkpt>
      <trkpt lat="43.62944" lon="6.62266">
        <ele>548.93524169922</ele>
        <time>2011-06-02T09:23:06Z</time>
      </trkpt>
      <trkpt lat="43.62922" lon="6.62244">
        <ele>546.32794189453</ele>
        <time>2011-06-02T09:23:11Z</time>
      </trkpt>
      <trkpt lat="43.62915" lon="6.62248">
        <ele>543.89477539062</ele>
        <time>2011-06-02T09:23:14Z</time>
      </trkpt>
      <trkpt lat="43.62915" lon="6.62254">
        <ele>543.06365966797</ele>
        <time>2011-06-02T09:23:15Z</time>
      </trkpt>
      <trkpt lat="43.6292" lon="6.62324">
        <ele>533.2509765625</ele>
        <time>2011-06-02T09:23:23Z</time>
      </trkpt>
      <trkpt lat="43.62921" lon="6.62366">
        <ele>527.29962158203</ele>
        <time>2011-06-02T09:23:27Z</time>
      </trkpt>
      <trkpt lat="43.62932" lon="6.62423">
        <ele>521.82580566406</ele>
        <time>2011-06-02T09:23:32Z</time>
      </trkpt>
      <trkpt lat="43.62941" lon="6.62445">
        <ele>521.73425292969</ele>
        <time>2011-06-02T09:23:34Z</time>
      </trkpt>
      <trkpt lat="43.62968" lon="6.62477">
        <ele>524.94317626953</ele>
        <time>2011-06-02T09:23:38Z</time>
      </trkpt>
      <trkpt lat="43.62983" lon="6.62488">
        <ele>527.22741699219</ele>
        <time>2011-06-02T09:23:40Z</time>
      </trkpt>
      <trkpt lat="43.62981" lon="6.62517">
        <ele>525.19573974609</ele>
        <time>2011-06-02T09:23:44Z</time>
      </trkpt>
      <trkpt lat="43.62968" lon="6.62535">
        <ele>521.54974365234</ele>
        <time>2011-06-02T09:23:46Z</time>
      </trkpt>
      <trkpt lat="43.62952" lon="6.62566">
        <ele>516.36614990234</ele>
        <time>2011-06-02T09:23:49Z</time>
      </trkpt>
      <trkpt lat="43.6293" lon="6.6263">
        <ele>509.24642944336</ele>
        <time>2011-06-02T09:23:55Z</time>
      </trkpt>
      <trkpt lat="43.62905" lon="6.62712">
        <ele>501.43728637695</ele>
        <time>2011-06-02T09:24:02Z</time>
      </trkpt>
      <trkpt lat="43.62897" lon="6.62737">
        <ele>499.935546875</ele>
        <time>2011-06-02T09:24:04Z</time>
      </trkpt>
      <trkpt lat="43.62889" lon="6.62791">
        <ele>498.46307373047</ele>
        <time>2011-06-02T09:24:08Z</time>
      </trkpt>
      <trkpt lat="43.62876" lon="6.62843">
        <ele>496.10321044922</ele>
        <time>2011-06-02T09:24:12Z</time>
      </trkpt>
      <trkpt lat="43.62871" lon="6.62854">
        <ele>494.94277954102</ele>
        <time>2011-06-02T09:24:13Z</time>
      </trkpt>
      <trkpt lat="43.62849" lon="6.62899">
        <ele>490.15573120117</ele>
        <time>2011-06-02T09:24:17Z</time>
      </trkpt>
      <trkpt lat="43.62831" lon="6.62979">
        <ele>487.27151489258</ele>
        <time>2011-06-02T09:24:23Z</time>
      </trkpt>
      <trkpt lat="43.62825" lon="6.63006">
        <ele>486.63479614258</ele>
        <time>2011-06-02T09:24:25Z</time>
      </trkpt>
      <trkpt lat="43.62804" lon="6.63051">
        <ele>484.56454467773</ele>
        <time>2011-06-02T09:24:29Z</time>
      </trkpt>
      <trkpt lat="43.62766" lon="6.63117">
        <ele>480.45132446289</ele>
        <time>2011-06-02T09:24:35Z</time>
      </trkpt>
      <trkpt lat="43.62749" lon="6.63168">
        <ele>479.92752075195</ele>
        <time>2011-06-02T09:24:39Z</time>
      </trkpt>
      <trkpt lat="43.62737" lon="6.63206">
        <ele>479.05883789062</ele>
        <time>2011-06-02T09:24:42Z</time>
      </trkpt>
      <trkpt lat="43.62714" lon="6.63284">
        <ele>477.1399230957</ele>
        <time>2011-06-02T09:24:48Z</time>
      </trkpt>
      <trkpt lat="43.62701" lon="6.63335">
        <ele>476.05056762695</ele>
        <time>2011-06-02T09:24:52Z</time>
      </trkpt>
      <trkpt lat="43.62698" lon="6.63391">
        <ele>473.84274291992</ele>
        <time>2011-06-02T09:24:56Z</time>
      </trkpt>
      <trkpt lat="43.62701" lon="6.63435">
        <ele>473.22991943359</ele>
        <time>2011-06-02T09:24:59Z</time>
      </trkpt>
      <trkpt lat="43.62693" lon="6.63508">
        <ele>470.17556762695</ele>
        <time>2011-06-02T09:25:04Z</time>
      </trkpt>
      <trkpt lat="43.62675" lon="6.63621">
        <ele>464.68212890625</ele>
        <time>2011-06-02T09:25:12Z</time>
      </trkpt>
      <trkpt lat="43.62663" lon="6.63702">
        <ele>463.56976318359</ele>
        <time>2011-06-02T09:25:18Z</time>
      </trkpt>
      <trkpt lat="43.62642" lon="6.63744">
        <ele>466.89761352539</ele>
        <time>2011-06-02T09:25:22Z</time>
      </trkpt>
      <trkpt lat="43.62617" lon="6.6376">
        <ele>470.88259887695</ele>
        <time>2011-06-02T09:25:25Z</time>
      </trkpt>
      <trkpt lat="43.62592" lon="6.63756">
        <ele>475.95541381836</ele>
        <time>2011-06-02T09:25:28Z</time>
      </trkpt>
      <trkpt lat="43.62553" lon="6.63759">
        <ele>484.11212158203</ele>
        <time>2011-06-02T09:25:34Z</time>
      </trkpt>
      <trkpt lat="43.62535" lon="6.63775">
        <ele>486.29949951172</ele>
        <time>2011-06-02T09:25:38Z</time>
      </trkpt>
      <trkpt lat="43.62531" lon="6.63789">
        <ele>485.63568115234</ele>
        <time>2011-06-02T09:25:41Z</time>
      </trkpt>
      <trkpt lat="43.62528" lon="6.63796">
        <ele>485.2568359375</ele>
        <time>2011-06-02T09:25:43Z</time>
      </trkpt>
      <trkpt lat="43.62526" lon="6.63811">
        <ele>483.9208984375</ele>
        <time>2011-06-02T09:25:47Z</time>
      </trkpt>
      <trkpt lat="43.62525" lon="6.63814">
        <ele>483.73739624023</ele>
        <time>2011-06-02T09:25:48Z</time>
      </trkpt>
      <trkpt lat="43.62524" lon="6.63819">
        <ele>483.41525268555</ele>
        <time>2011-06-02T09:25:49Z</time>
      </trkpt>
      <trkpt lat="43.62523" lon="6.63828">
        <ele>482.48458862305</ele>
        <time>2011-06-02T09:25:51Z</time>
      </trkpt>
      <trkpt lat="43.62525" lon="6.63835">
        <ele>481.33093261719</ele>
        <time>2011-06-02T09:25:53Z</time>
      </trkpt>
      <trkpt lat="43.62525" lon="6.63867">
        <ele>478.208984375</ele>
        <time>2011-06-02T09:26:00Z</time>
      </trkpt>
      <trkpt lat="43.62521" lon="6.63886">
        <ele>477.11950683594</ele>
        <time>2011-06-02T09:26:04Z</time>
      </trkpt>
      <trkpt lat="43.62512" lon="6.63897">
        <ele>477.64593505859</ele>
        <time>2011-06-02T09:26:07Z</time>
      </trkpt>
      <trkpt lat="43.62495" lon="6.6391">
        <ele>478.74456787109</ele>
        <time>2011-06-02T09:26:13Z</time>
      </trkpt>
      <trkpt lat="43.62478" lon="6.63915">
        <ele>478.71969604492</ele>
        <time>2011-06-02T09:26:19Z</time>
      </trkpt>
      <trkpt lat="43.62454" lon="6.63915">
        <ele>479.25820922852</ele>
        <time>2011-06-02T09:26:24Z</time>
      </trkpt>
      <trkpt lat="43.62445" lon="6.63914">
        <ele>479.62042236328</ele>
        <time>2011-06-02T09:26:26Z</time>
      </trkpt>
      <trkpt lat="43.62423" lon="6.63905">
        <ele>481.2177734375</ele>
        <time>2011-06-02T09:26:31Z</time>
      </trkpt>
      <trkpt lat="43.62398" lon="6.63892">
        <ele>482.44055175781</ele>
        <time>2011-06-02T09:26:36Z</time>
      </trkpt>
      <trkpt lat="43.62373" lon="6.63882">
        <ele>482.89120483398</ele>
        <time>2011-06-02T09:26:40Z</time>
      </trkpt>
      <trkpt lat="43.62351" lon="6.63875">
        <ele>482.9928894043</ele>
        <time>2011-06-02T09:26:43Z</time>
      </trkpt>
      <trkpt lat="43.62343" lon="6.63873">
        <ele>483.01889038086</ele>
        <time>2011-06-02T09:26:44Z</time>
      </trkpt>
      <trkpt lat="43.62317" lon="6.63867">
        <ele>481.72842407227</ele>
        <time>2011-06-02T09:26:47Z</time>
      </trkpt>
      <trkpt lat="43.62285" lon="6.63866">
        <ele>478.76098632812</ele>
        <time>2011-06-02T09:26:51Z</time>
      </trkpt>
      <trkpt lat="43.6227" lon="6.63869">
        <ele>476.69140625</ele>
        <time>2011-06-02T09:26:53Z</time>
      </trkpt>
      <trkpt lat="43.62225" lon="6.63897">
        <ele>466.28662109375</ele>
        <time>2011-06-02T09:26:59Z</time>
      </trkpt>
      <trkpt lat="43.62217" lon="6.63898">
        <ele>465.23696899414</ele>
        <time>2011-06-02T09:27:00Z</time>
      </trkpt>
      <trkpt lat="43.62176" lon="6.63893">
        <ele>461.6015625</ele>
        <time>2011-06-02T09:27:06Z</time>
      </trkpt>
      <trkpt lat="43.62141" lon="6.6389">
        <ele>457.28015136719</ele>
        <time>2011-06-02T09:27:12Z</time>
      </trkpt>
      <trkpt lat="43.62117" lon="6.63887">
        <ele>453.99859619141</ele>
        <time>2011-06-02T09:27:16Z</time>
      </trkpt>
      <trkpt lat="43.6211" lon="6.63887">
        <ele>453.12731933594</ele>
        <time>2011-06-02T09:27:17Z</time>
      </trkpt>
      <trkpt lat="43.62093" lon="6.63882">
        <ele>451.37854003906</ele>
        <time>2011-06-02T09:27:20Z</time>
      </trkpt>
      <trkpt lat="43.62084" lon="6.6388">
        <ele>450.22702026367</ele>
        <time>2011-06-02T09:27:22Z</time>
      </trkpt>
      <trkpt lat="43.62056" lon="6.63891">
        <ele>442.05987548828</ele>
        <time>2011-06-02T09:27:27Z</time>
      </trkpt>
      <trkpt lat="43.62033" lon="6.63898">
        <ele>436.17700195312</ele>
        <time>2011-06-02T09:27:30Z</time>
      </trkpt>
      <trkpt lat="43.62011" lon="6.639">
        <ele>430.95315551758</ele>
        <time>2011-06-02T09:27:33Z</time>
      </trkpt>
      <trkpt lat="43.61963" lon="6.63892">
        <ele>425.04702758789</ele>
        <time>2011-06-02T09:27:40Z</time>
      </trkpt>
      <trkpt lat="43.61956" lon="6.63891">
        <ele>424.26318359375</ele>
        <time>2011-06-02T09:27:41Z</time>
      </trkpt>
      <trkpt lat="43.6193" lon="6.63875">
        <ele>421.30081176758</ele>
        <time>2011-06-02T09:27:45Z</time>
      </trkpt>
      <trkpt lat="43.61915" lon="6.63857">
        <ele>419.05822753906</ele>
        <time>2011-06-02T09:27:48Z</time>
      </trkpt>
      <trkpt lat="43.61893" lon="6.63847">
        <ele>416.00106811523</ele>
        <time>2011-06-02T09:27:53Z</time>
      </trkpt>
      <trkpt lat="43.61884" lon="6.63858">
        <ele>415.27661132812</ele>
        <time>2011-06-02T09:27:56Z</time>
      </trkpt>
      <trkpt lat="43.61878" lon="6.63871">
        <ele>415.14367675781</ele>
        <time>2011-06-02T09:27:58Z</time>
      </trkpt>
      <trkpt lat="43.61862" lon="6.6389">
        <ele>414.43890380859</ele>
        <time>2011-06-02T09:28:02Z</time>
      </trkpt>
      <trkpt lat="43.61832" lon="6.63914">
        <ele>413.53646850586</ele>
        <time>2011-06-02T09:28:08Z</time>
      </trkpt>
      <trkpt lat="43.61823" lon="6.63923">
        <ele>413.1448059082</ele>
        <time>2011-06-02T09:28:10Z</time>
      </trkpt>
      <trkpt lat="43.61807" lon="6.63952">
        <ele>413.49029541016</ele>
        <time>2011-06-02T09:28:15Z</time>
      </trkpt>
      <trkpt lat="43.61796" lon="6.63966">
        <ele>412.91018676758</ele>
        <time>2011-06-02T09:28:18Z</time>
      </trkpt>
      <trkpt lat="43.61774" lon="6.63988">
        <ele>410.81280517578</ele>
        <time>2011-06-02T09:28:23Z</time>
      </trkpt>
      <trkpt lat="43.61771" lon="6.63992">
        <ele>410.40127563477</ele>
        <time>2011-06-02T09:28:24Z</time>
      </trkpt>
      <trkpt lat="43.61752" lon="6.64014">
        <ele>407.98434448242</ele>
        <time>2011-06-02T09:28:29Z</time>
      </trkpt>
      <trkpt lat="43.61748" lon="6.64019">
        <ele>407.77288818359</ele>
        <time>2011-06-02T09:28:30Z</time>
      </trkpt>
      <trkpt lat="43.6174" lon="6.64031">
        <ele>407.79806518555</ele>
        <time>2011-06-02T09:28:32Z</time>
      </trkpt>
      <trkpt lat="43.61727" lon="6.64046">
        <ele>407.5302734375</ele>
        <time>2011-06-02T09:28:35Z</time>
      </trkpt>
      <trkpt lat="43.61712" lon="6.64064">
        <ele>407.28994750977</ele>
        <time>2011-06-02T09:28:38Z</time>
      </trkpt>
      <trkpt lat="43.61692" lon="6.64089">
        <ele>406.62026977539</ele>
        <time>2011-06-02T09:28:42Z</time>
      </trkpt>
      <trkpt lat="43.61682" lon="6.64103">
        <ele>405.15612792969</ele>
        <time>2011-06-02T09:28:45Z</time>
      </trkpt>
      <trkpt lat="43.61674" lon="6.64116">
        <ele>403.80722045898</ele>
        <time>2011-06-02T09:28:49Z</time>
      </trkpt>
      <trkpt lat="43.6167" lon="6.64125">
        <ele>402.82330322266</ele>
        <time>2011-06-02T09:28:51Z</time>
      </trkpt>
      <trkpt lat="43.61658" lon="6.64143">
        <ele>401.15991210938</ele>
        <time>2011-06-02T09:28:56Z</time>
      </trkpt>
      <trkpt lat="43.61649" lon="6.64159">
        <ele>400.27813720703</ele>
        <time>2011-06-02T09:29:01Z</time>
      </trkpt>
      <trkpt lat="43.61635" lon="6.64171">
        <ele>399.74508666992</ele>
        <time>2011-06-02T09:29:05Z</time>
      </trkpt>
      <trkpt lat="43.61617" lon="6.64173">
        <ele>399.64361572266</ele>
        <time>2011-06-02T09:29:09Z</time>
      </trkpt>
      <trkpt lat="43.61598" lon="6.64176">
        <ele>399.5403137207</ele>
        <time>2011-06-02T09:29:13Z</time>
      </trkpt>
      <trkpt lat="43.61573" lon="6.64188">
        <ele>397.46527099609</ele>
        <time>2011-06-02T09:29:18Z</time>
      </trkpt>
      <trkpt lat="43.61561" lon="6.64208">
        <ele>395.2243347168</ele>
        <time>2011-06-02T09:29:21Z</time>
      </trkpt>
      <trkpt lat="43.61558" lon="6.64215">
        <ele>394.61819458008</ele>
        <time>2011-06-02T09:29:22Z</time>
      </trkpt>
      <trkpt lat="43.61547" lon="6.6424">
        <ele>392.70166015625</ele>
        <time>2011-06-02T09:29:27Z</time>
      </trkpt>
      <trkpt lat="43.61536" lon="6.64233">
        <ele>391.69854736328</ele>
        <time>2011-06-02T09:29:30Z</time>
      </trkpt>
      <trkpt lat="43.61533" lon="6.64229">
        <ele>391.45721435547</ele>
        <time>2011-06-02T09:29:31Z</time>
      </trkpt>
      <trkpt lat="43.61527" lon="6.64219">
        <ele>390.84994506836</ele>
        <time>2011-06-02T09:29:33Z</time>
      </trkpt>
      <trkpt lat="43.6152" lon="6.64208">
        <ele>390.02172851562</ele>
        <time>2011-06-02T09:29:35Z</time>
      </trkpt>
      <trkpt lat="43.61512" lon="6.6417">
        <ele>388.82507324219</ele>
        <time>2011-06-02T09:29:40Z</time>
      </trkpt>
      <trkpt lat="43.61507" lon="6.64138">
        <ele>384.32318115234</ele>
        <time>2011-06-02T09:29:44Z</time>
      </trkpt>
      <trkpt lat="43.61506" lon="6.64131">
        <ele>383.10946655273</ele>
        <time>2011-06-02T09:29:45Z</time>
      </trkpt>
      <trkpt lat="43.61497" lon="6.64108">
        <ele>378.01574707031</ele>
        <time>2011-06-02T09:29:50Z</time>
      </trkpt>
      <trkpt lat="43.61486" lon="6.64113">
        <ele>376.69802856445</ele>
        <time>2011-06-02T09:29:52Z</time>
      </trkpt>
      <trkpt lat="43.61451" lon="6.64119">
        <ele>371.4367980957</ele>
        <time>2011-06-02T09:29:57Z</time>
      </trkpt>
      <trkpt lat="43.61442" lon="6.6412">
        <ele>370.15042114258</ele>
        <time>2011-06-02T09:29:58Z</time>
      </trkpt>
      <trkpt lat="43.61415" lon="6.64125">
        <ele>366.36373901367</ele>
        <time>2011-06-02T09:30:02Z</time>
      </trkpt>
      <trkpt lat="43.61403" lon="6.64128">
        <ele>365.77038574219</ele>
        <time>2011-06-02T09:30:04Z</time>
      </trkpt>
      <trkpt lat="43.61381" lon="6.64144">
        <ele>365.95458984375</ele>
        <time>2011-06-02T09:30:08Z</time>
      </trkpt>
      <trkpt lat="43.61366" lon="6.64167">
        <ele>367.49282836914</ele>
        <time>2011-06-02T09:30:12Z</time>
      </trkpt>
      <trkpt lat="43.61361" lon="6.6418">
        <ele>367.26052856445</ele>
        <time>2011-06-02T09:30:14Z</time>
      </trkpt>
      <trkpt lat="43.6135" lon="6.64179">
        <ele>366.02450561523</ele>
        <time>2011-06-02T09:30:18Z</time>
      </trkpt>
      <trkpt lat="43.61319" lon="6.64161">
        <ele>362.53921508789</ele>
        <time>2011-06-02T09:30:26Z</time>
      </trkpt>
      <trkpt lat="43.61311" lon="6.64154">
        <ele>361.1676940918</ele>
        <time>2011-06-02T09:30:28Z</time>
      </trkpt>
      <trkpt lat="43.61305" lon="6.64144">
        <ele>359.66882324219</ele>
        <time>2011-06-02T09:30:30Z</time>
      </trkpt>
      <trkpt lat="43.61279" lon="6.64111">
        <ele>354.43859863281</ele>
        <time>2011-06-02T09:30:37Z</time>
      </trkpt>
      <trkpt lat="43.61248" lon="6.64089">
        <ele>350.62377929688</ele>
        <time>2011-06-02T09:30:43Z</time>
      </trkpt>
      <trkpt lat="43.61215" lon="6.6407">
        <ele>348.45544433594</ele>
        <time>2011-06-02T09:30:48Z</time>
      </trkpt>
      <trkpt lat="43.61181" lon="6.64054">
        <ele>346.90808105469</ele>
        <time>2011-06-02T09:30:53Z</time>
      </trkpt>
      <trkpt lat="43.61167" lon="6.64062">
        <ele>347.45935058594</ele>
        <time>2011-06-02T09:30:57Z</time>
      </trkpt>
      <trkpt lat="43.61162" lon="6.64068">
        <ele>347.72033691406</ele>
        <time>2011-06-02T09:30:59Z</time>
      </trkpt>
      <trkpt lat="43.61157" lon="6.64075">
        <ele>347.96420288086</ele>
        <time>2011-06-02T09:31:01Z</time>
      </trkpt>
      <trkpt lat="43.61135" lon="6.64085">
        <ele>347.58947753906</ele>
        <time>2011-06-02T09:31:08Z</time>
      </trkpt>
      <trkpt lat="43.61113" lon="6.64085">
        <ele>346.51373291016</ele>
        <time>2011-06-02T09:31:15Z</time>
      </trkpt>
      <trkpt lat="43.61101" lon="6.64098">
        <ele>346.45361328125</ele>
        <time>2011-06-02T09:31:20Z</time>
      </trkpt>
      <trkpt lat="43.61082" lon="6.64121">
        <ele>346.43014526367</ele>
        <time>2011-06-02T09:31:27Z</time>
      </trkpt>
      <trkpt lat="43.6106" lon="6.64145">
        <ele>348.93661499023</ele>
        <time>2011-06-02T09:31:35Z</time>
      </trkpt>
      <trkpt lat="43.6104" lon="6.64171">
        <ele>351.16122436523</ele>
        <time>2011-06-02T09:31:43Z</time>
      </trkpt>
      <trkpt lat="43.61026" lon="6.64194">
        <ele>352.10403442383</ele>
        <time>2011-06-02T09:31:49Z</time>
      </trkpt>
      <trkpt lat="43.61002" lon="6.64214">
        <ele>352.81253051758</ele>
        <time>2011-06-02T09:31:57Z</time>
      </trkpt>
      <trkpt lat="43.60973" lon="6.64224">
        <ele>354.31283569336</ele>
        <time>2011-06-02T09:32:06Z</time>
      </trkpt>
      <trkpt lat="43.60949" lon="6.6423">
        <ele>355.70797729492</ele>
        <time>2011-06-02T09:32:13Z</time>
      </trkpt>
      <trkpt lat="43.60919" lon="6.6424">
        <ele>357.2223815918</ele>
        <time>2011-06-02T09:32:20Z</time>
      </trkpt>
      <trkpt lat="43.60888" lon="6.64271">
        <ele>352.50366210938</ele>
        <time>2011-06-02T09:32:27Z</time>
      </trkpt>
      <trkpt lat="43.60871" lon="6.64288">
        <ele>349.74755859375</ele>
        <time>2011-06-02T09:32:30Z</time>
      </trkpt>
      <trkpt lat="43.60844" lon="6.64301">
        <ele>347.12481689453</ele>
        <time>2011-06-02T09:32:34Z</time>
      </trkpt>
      <trkpt lat="43.60821" lon="6.64321">
        <ele>344.31741333008</ele>
        <time>2011-06-02T09:32:38Z</time>
      </trkpt>
      <trkpt lat="43.60806" lon="6.64344">
        <ele>342.28091430664</ele>
        <time>2011-06-02T09:32:41Z</time>
      </trkpt>
      <trkpt lat="43.60785" lon="6.64373">
        <ele>340.58944702148</ele>
        <time>2011-06-02T09:32:45Z</time>
      </trkpt>
      <trkpt lat="43.60777" lon="6.64385">
        <ele>340.08325195312</ele>
        <time>2011-06-02T09:32:47Z</time>
      </trkpt>
      <trkpt lat="43.60771" lon="6.64401">
        <ele>339.58636474609</ele>
        <time>2011-06-02T09:32:51Z</time>
      </trkpt>
      <trkpt lat="43.60772" lon="6.64404">
        <ele>339.53457641602</ele>
        <time>2011-06-02T09:32:52Z</time>
      </trkpt>
      <trkpt lat="43.6078" lon="6.64416">
        <ele>339.37048339844</ele>
        <time>2011-06-02T09:32:55Z</time>
      </trkpt>
      <trkpt lat="43.60798" lon="6.64452">
        <ele>339.39938354492</ele>
        <time>2011-06-02T09:33:01Z</time>
      </trkpt>
      <trkpt lat="43.60803" lon="6.64476">
        <ele>339.37518310547</ele>
        <time>2011-06-02T09:33:05Z</time>
      </trkpt>
      <trkpt lat="43.60805" lon="6.64491">
        <ele>339.35223388672</ele>
        <time>2011-06-02T09:33:08Z</time>
      </trkpt>
      <trkpt lat="43.6081" lon="6.64511">
        <ele>339.45129394531</ele>
        <time>2011-06-02T09:33:12Z</time>
      </trkpt>
      <trkpt lat="43.60812" lon="6.64516">
        <ele>339.4970703125</ele>
        <time>2011-06-02T09:33:13Z</time>
      </trkpt>
      <trkpt lat="43.60823" lon="6.64541">
        <ele>339.76257324219</ele>
        <time>2011-06-02T09:33:18Z</time>
      </trkpt>
      <trkpt lat="43.6083" lon="6.64556">
        <ele>339.90905761719</ele>
        <time>2011-06-02T09:33:21Z</time>
      </trkpt>
      <trkpt lat="43.60829" lon="6.64574">
        <ele>339.89990234375</ele>
        <time>2011-06-02T09:33:25Z</time>
      </trkpt>
      <trkpt lat="43.60817" lon="6.64595">
        <ele>339.56988525391</ele>
        <time>2011-06-02T09:33:30Z</time>
      </trkpt>
      <trkpt lat="43.60792" lon="6.64615">
        <ele>338.81512451172</ele>
        <time>2011-06-02T09:33:36Z</time>
      </trkpt>
      <trkpt lat="43.60772" lon="6.64622">
        <ele>338.19589233398</ele>
        <time>2011-06-02T09:33:40Z</time>
      </trkpt>
      <trkpt lat="43.60762" lon="6.64621">
        <ele>337.91622924805</ele>
        <time>2011-06-02T09:33:44Z</time>
      </trkpt>
      <trkpt lat="43.60762" lon="6.64621">
        <ele>337.88592529297</ele>
        <time>2011-06-02T09:33:46Z</time>
      </trkpt>
      <trkpt lat="43.6076" lon="6.64622">
        <ele>337.84869384766</ele>
        <time>2011-06-02T09:33:47Z</time>
      </trkpt>
      <trkpt lat="43.60751" lon="6.64621">
        <ele>337.56652832031</ele>
        <time>2011-06-02T09:33:51Z</time>
      </trkpt>
      <trkpt lat="43.60732" lon="6.64626">
        <ele>335.35943603516</ele>
        <time>2011-06-02T09:33:55Z</time>
      </trkpt>
      <trkpt lat="43.6071" lon="6.64623">
        <ele>332.74444580078</ele>
        <time>2011-06-02T09:33:59Z</time>
      </trkpt>
      <trkpt lat="43.60694" lon="6.64617">
        <ele>330.83901977539</ele>
        <time>2011-06-02T09:34:02Z</time>
      </trkpt>
      <trkpt lat="43.60683" lon="6.64613">
        <ele>329.6110534668</ele>
        <time>2011-06-02T09:34:04Z</time>
      </trkpt>
      <trkpt lat="43.60662" lon="6.64609">
        <ele>327.31216430664</ele>
        <time>2011-06-02T09:34:09Z</time>
      </trkpt>
      <trkpt lat="43.60647" lon="6.64613">
        <ele>326.15994262695</ele>
        <time>2011-06-02T09:34:13Z</time>
      </trkpt>
      <trkpt lat="43.60628" lon="6.64619">
        <ele>324.56790161133</ele>
        <time>2011-06-02T09:34:19Z</time>
      </trkpt>
      <trkpt lat="43.6062" lon="6.64634">
        <ele>323.73571777344</ele>
        <time>2011-06-02T09:34:22Z</time>
      </trkpt>
      <trkpt lat="43.60616" lon="6.64658">
        <ele>322.92849731445</ele>
        <time>2011-06-02T09:34:26Z</time>
      </trkpt>
      <trkpt lat="43.60604" lon="6.64675">
        <ele>321.88864135742</ele>
        <time>2011-06-02T09:34:30Z</time>
      </trkpt>
      <trkpt lat="43.60579" lon="6.64684">
        <ele>320.19329833984</ele>
        <time>2011-06-02T09:34:35Z</time>
      </trkpt>
      <trkpt lat="43.60562" lon="6.64694">
        <ele>320.24136352539</ele>
        <time>2011-06-02T09:34:39Z</time>
      </trkpt>
      <trkpt lat="43.60535" lon="6.647">
        <ele>320.16949462891</ele>
        <time>2011-06-02T09:34:45Z</time>
      </trkpt>
      <trkpt lat="43.60526" lon="6.64702">
        <ele>320.13064575195</ele>
        <time>2011-06-02T09:34:47Z</time>
      </trkpt>
      <trkpt lat="43.60518" lon="6.64703">
        <ele>320.09033203125</ele>
        <time>2011-06-02T09:34:49Z</time>
      </trkpt>
      <trkpt lat="43.60508" lon="6.64705">
        <ele>320.04565429688</ele>
        <time>2011-06-02T09:34:51Z</time>
      </trkpt>
      <trkpt lat="43.60478" lon="6.64702">
        <ele>320</ele>
        <time>2011-06-02T09:34:57Z</time>
      </trkpt>
      <trkpt lat="43.60471" lon="6.64702">
        <ele>320</ele>
        <time>2011-06-02T09:34:59Z</time>
      </trkpt>
      <trkpt lat="43.60463" lon="6.64701">
        <ele>320</ele>
        <time>2011-06-02T09:35:01Z</time>
      </trkpt>
      <trkpt lat="43.60446" lon="6.64699">
        <ele>320</ele>
        <time>2011-06-02T09:35:06Z</time>
      </trkpt>
      <trkpt lat="43.60442" lon="6.64709">
        <ele>320</ele>
        <time>2011-06-02T09:35:09Z</time>
      </trkpt>
      <trkpt lat="43.60441" lon="6.64714">
        <ele>320</ele>
        <time>2011-06-02T09:35:10Z</time>
      </trkpt>
      <trkpt lat="43.60433" lon="6.64743">
        <ele>320</ele>
        <time>2011-06-02T09:35:16Z</time>
      </trkpt>
      <trkpt lat="43.60428" lon="6.64768">
        <ele>319.84042358398</ele>
        <time>2011-06-02T09:35:21Z</time>
      </trkpt>
      <trkpt lat="43.60423" lon="6.64802">
        <ele>319.47146606445</ele>
        <time>2011-06-02T09:35:27Z</time>
      </trkpt>
      <trkpt lat="43.6042" lon="6.64812">
        <ele>319.31231689453</ele>
        <time>2011-06-02T09:35:29Z</time>
      </trkpt>
      <trkpt lat="43.60409" lon="6.64832">
        <ele>318.9201965332</ele>
        <time>2011-06-02T09:35:33Z</time>
      </trkpt>
      <trkpt lat="43.60401" lon="6.6485">
        <ele>319.1467590332</ele>
        <time>2011-06-02T09:35:39Z</time>
      </trkpt>
      <trkpt lat="43.60386" lon="6.6487">
        <ele>319.1882019043</ele>
        <time>2011-06-02T09:35:45Z</time>
      </trkpt>
      <trkpt lat="43.60375" lon="6.64885">
        <ele>319.11260986328</ele>
        <time>2011-06-02T09:35:51Z</time>
      </trkpt>
      <trkpt lat="43.60366" lon="6.64898">
        <ele>319.01171875</ele>
        <time>2011-06-02T09:35:57Z</time>
      </trkpt>
      <trkpt lat="43.60362" lon="6.64915">
        <ele>319.03036499023</ele>
        <time>2011-06-02T09:36:04Z</time>
      </trkpt>
      <trkpt lat="43.60363" lon="6.64928">
        <ele>319.37182617188</ele>
        <time>2011-06-02T09:36:09Z</time>
      </trkpt>
      <trkpt lat="43.6036" lon="6.64938">
        <ele>319.56497192383</ele>
        <time>2011-06-02T09:36:13Z</time>
      </trkpt>
      <trkpt lat="43.60355" lon="6.64951">
        <ele>319.68991088867</ele>
        <time>2011-06-02T09:36:18Z</time>
      </trkpt>
      <trkpt lat="43.6035" lon="6.64963">
        <ele>319.83752441406</ele>
        <time>2011-06-02T09:36:23Z</time>
      </trkpt>
      <trkpt lat="43.60342" lon="6.64982">
        <ele>319.96234130859</ele>
        <time>2011-06-02T09:36:30Z</time>
      </trkpt>
      <trkpt lat="43.60338" lon="6.64999">
        <ele>320.203125</ele>
        <time>2011-06-02T09:36:36Z</time>
      </trkpt>
      <trkpt lat="43.60329" lon="6.65018">
        <ele>319.9670715332</ele>
        <time>2011-06-02T09:36:43Z</time>
      </trkpt>
      <trkpt lat="43.60315" lon="6.65038">
        <ele>319.2746887207</ele>
        <time>2011-06-02T09:36:50Z</time>
      </trkpt>
      <trkpt lat="43.6031" lon="6.65046">
        <ele>318.99398803711</ele>
        <time>2011-06-02T09:36:52Z</time>
      </trkpt>
      <trkpt lat="43.60299" lon="6.65062">
        <ele>318.39990234375</ele>
        <time>2011-06-02T09:36:56Z</time>
      </trkpt>
      <trkpt lat="43.60285" lon="6.65076">
        <ele>317.46978759766</ele>
        <time>2011-06-02T09:37:00Z</time>
      </trkpt>
      <trkpt lat="43.60281" lon="6.6508">
        <ele>317.21612548828</ele>
        <time>2011-06-02T09:37:01Z</time>
      </trkpt>
      <trkpt lat="43.60274" lon="6.65089">
        <ele>316.76086425781</ele>
        <time>2011-06-02T09:37:03Z</time>
      </trkpt>
      <trkpt lat="43.60262" lon="6.65114">
        <ele>316.20184326172</ele>
        <time>2011-06-02T09:37:07Z</time>
      </trkpt>
      <trkpt lat="43.60254" lon="6.65141">
        <ele>315.94091796875</ele>
        <time>2011-06-02T09:37:11Z</time>
      </trkpt>
      <trkpt lat="43.60257" lon="6.65165">
        <ele>316.42416381836</ele>
        <time>2011-06-02T09:37:16Z</time>
      </trkpt>
      <trkpt lat="43.60258" lon="6.65172">
        <ele>316.61178588867</ele>
        <time>2011-06-02T09:37:18Z</time>
      </trkpt>
      <trkpt lat="43.60265" lon="6.65189">
        <ele>317.58810424805</ele>
        <time>2011-06-02T09:37:22Z</time>
      </trkpt>
      <trkpt lat="43.60264" lon="6.65195">
        <ele>317.66833496094</ele>
        <time>2011-06-02T09:37:27Z</time>
      </trkpt>
      <trkpt lat="43.60264" lon="6.65196">
        <ele>317.73031616211</ele>
        <time>2011-06-02T09:37:29Z</time>
      </trkpt>
      <trkpt lat="43.60266" lon="6.65197">
        <ele>317.90417480469</ele>
        <time>2011-06-02T09:37:38Z</time>
      </trkpt>
      <trkpt lat="43.60267" lon="6.65193">
        <ele>317.86334228516</ele>
        <time>2011-06-02T09:37:44Z</time>
      </trkpt>
      <trkpt lat="43.60267" lon="6.65191">
        <ele>317.7883605957</ele>
        <time>2011-06-02T09:37:48Z</time>
      </trkpt>
      <trkpt lat="43.60263" lon="6.65185">
        <ele>317.36367797852</ele>
        <time>2011-06-02T09:37:53Z</time>
      </trkpt>
      <trkpt lat="43.60263" lon="6.65178">
        <ele>317.13342285156</ele>
        <time>2011-06-02T09:37:59Z</time>
      </trkpt>
      <trkpt lat="43.60263" lon="6.65178">
        <ele>317.08261108398</ele>
        <time>2011-06-02T09:38:08Z</time>
      </trkpt>
      <trkpt lat="43.60263" lon="6.65179">
        <ele>317.11492919922</ele>
        <time>2011-06-02T09:38:35Z</time>
      </trkpt>
      <trkpt lat="43.60263" lon="6.65179">
        <ele>317.15393066406</ele>
        <time>2011-06-02T09:38:42Z</time>
      </trkpt>
      <trkpt lat="43.60263" lon="6.65179">
        <ele>317.16101074219</ele>
        <time>2011-06-02T09:38:46Z</time>
      </trkpt>
      <trkpt lat="43.60263" lon="6.65179">
        <ele>317.16384887695</ele>
        <time>2011-06-02T09:38:47Z</time>
      </trkpt>
      <trkpt lat="43.60263" lon="6.65175">
        <ele>317.02813720703</ele>
        <time>2011-06-02T09:54:08Z</time>
      </trkpt>
      <trkpt lat="43.60262" lon="6.65175">
        <ele>316.96514892578</ele>
        <time>2011-06-02T09:54:10Z</time>
      </trkpt>
      <trkpt lat="43.60252" lon="6.65181">
        <ele>316.50555419922</ele>
        <time>2011-06-02T09:54:16Z</time>
      </trkpt>
      <trkpt lat="43.60249" lon="6.65183">
        <ele>316.28112792969</ele>
        <time>2011-06-02T09:54:21Z</time>
      </trkpt>
      <trkpt lat="43.60248" lon="6.65183">
        <ele>316.21307373047</ele>
        <time>2011-06-02T09:54:29Z</time>
      </trkpt>
      <trkpt lat="43.60247" lon="6.65182">
        <ele>316.1379699707</ele>
        <time>2011-06-02T09:54:33Z</time>
      </trkpt>
      <trkpt lat="43.60247" lon="6.65182">
        <ele>316.0986328125</ele>
        <time>2011-06-02T09:54:35Z</time>
      </trkpt>
      <trkpt lat="43.60242" lon="6.65178">
        <ele>315.65023803711</ele>
        <time>2011-06-02T09:54:53Z</time>
      </trkpt>
      <trkpt lat="43.60241" lon="6.6518">
        <ele>315.61978149414</ele>
        <time>2011-06-02T09:55:06Z</time>
      </trkpt>
      <trkpt lat="43.60242" lon="6.65183">
        <ele>315.74230957031</ele>
        <time>2011-06-02T09:55:20Z</time>
      </trkpt>
      <trkpt lat="43.60242" lon="6.65182">
        <ele>315.72912597656</ele>
        <time>2011-06-02T09:55:21Z</time>
      </trkpt>
      <trkpt lat="43.60242" lon="6.65191">
        <ele>315.95568847656</ele>
        <time>2011-06-02T09:55:40Z</time>
      </trkpt>
      <trkpt lat="43.60243" lon="6.65192">
        <ele>316.04092407227</ele>
        <time>2011-06-02T09:55:41Z</time>
      </trkpt>
      <trkpt lat="43.60244" lon="6.65192">
        <ele>316.13519287109</ele>
        <time>2011-06-02T09:55:42Z</time>
      </trkpt>
      <trkpt lat="43.60247" lon="6.65197">
        <ele>316.45233154297</ele>
        <time>2011-06-02T09:55:49Z</time>
      </trkpt>
      <trkpt lat="43.60248" lon="6.65197">
        <ele>316.57278442383</ele>
        <time>2011-06-02T09:56:08Z</time>
      </trkpt>
      <trkpt lat="43.60249" lon="6.65198">
        <ele>316.70190429688</ele>
        <time>2011-06-02T09:56:31Z</time>
      </trkpt>
      <trkpt lat="43.60249" lon="6.65201">
        <ele>316.76510620117</ele>
        <time>2011-06-02T09:56:35Z</time>
      </trkpt>
      <trkpt lat="43.60249" lon="6.65204">
        <ele>316.82360839844</ele>
        <time>2011-06-02T09:56:38Z</time>
      </trkpt>
      <trkpt lat="43.60248" lon="6.65205">
        <ele>316.78448486328</ele>
        <time>2011-06-02T09:56:39Z</time>
      </trkpt>
      <trkpt lat="43.60244" lon="6.65206">
        <ele>316.48141479492</ele>
        <time>2011-06-02T09:56:41Z</time>
      </trkpt>
      <trkpt lat="43.60242" lon="6.65206">
        <ele>316.28903198242</ele>
        <time>2011-06-02T09:56:42Z</time>
      </trkpt>
      <trkpt lat="43.6024" lon="6.65205">
        <ele>316.12377929688</ele>
        <time>2011-06-02T09:56:43Z</time>
      </trkpt>
      <trkpt lat="43.60235" lon="6.65203">
        <ele>315.71356201172</ele>
        <time>2011-06-02T09:56:47Z</time>
      </trkpt>
      <trkpt lat="43.60232" lon="6.65202">
        <ele>315.44793701172</ele>
        <time>2011-06-02T09:56:51Z</time>
      </trkpt>
      <trkpt lat="43.60231" lon="6.65205">
        <ele>315.42779541016</ele>
        <time>2011-06-02T09:57:36Z</time>
      </trkpt>
      <trkpt lat="43.60231" lon="6.65204">
        <ele>315.4462890625</ele>
        <time>2011-06-02T09:57:42Z</time>
      </trkpt>
      <trkpt lat="43.60232" lon="6.65205">
        <ele>315.48641967773</ele>
        <time>2011-06-02T09:57:54Z</time>
      </trkpt>
      <trkpt lat="43.60233" lon="6.65202">
        <ele>315.47045898438</ele>
        <time>2011-06-02T09:58:08Z</time>
      </trkpt>
      <trkpt lat="43.60231" lon="6.65202">
        <ele>315.33142089844</ele>
        <time>2011-06-02T09:58:10Z</time>
      </trkpt>
      <trkpt lat="43.60223" lon="6.65202">
        <ele>314.69842529297</ele>
        <time>2011-06-02T09:58:14Z</time>
      </trkpt>
      <trkpt lat="43.6022" lon="6.65202">
        <ele>314.49502563477</ele>
        <time>2011-06-02T09:58:15Z</time>
      </trkpt>
      <trkpt lat="43.60197" lon="6.65197">
        <ele>312.55801391602</ele>
        <time>2011-06-02T09:58:22Z</time>
      </trkpt>
      <trkpt lat="43.60174" lon="6.65204">
        <ele>310.94799804688</ele>
        <time>2011-06-02T09:58:27Z</time>
      </trkpt>
      <trkpt lat="43.60136" lon="6.65218">
        <ele>307.88259887695</ele>
        <time>2011-06-02T09:58:33Z</time>
      </trkpt>
      <trkpt lat="43.60104" lon="6.65229">
        <ele>304.63223266602</ele>
        <time>2011-06-02T09:58:38Z</time>
      </trkpt>
      <trkpt lat="43.60086" lon="6.65244">
        <ele>302.49920654297</ele>
        <time>2011-06-02T09:58:43Z</time>
      </trkpt>
      <trkpt lat="43.60083" lon="6.65248">
        <ele>302.06460571289</ele>
        <time>2011-06-02T09:58:44Z</time>
      </trkpt>
      <trkpt lat="43.60051" lon="6.65285">
        <ele>301.9670715332</ele>
        <time>2011-06-02T09:58:50Z</time>
      </trkpt>
      <trkpt lat="43.60016" lon="6.65314">
        <ele>300.86309814453</ele>
        <time>2011-06-02T09:58:55Z</time>
      </trkpt>
      <trkpt lat="43.60007" lon="6.65319">
        <ele>300.46682739258</ele>
        <time>2011-06-02T09:58:56Z</time>
      </trkpt>
      <trkpt lat="43.59961" lon="6.65346">
        <ele>300.55630493164</ele>
        <time>2011-06-02T09:59:02Z</time>
      </trkpt>
      <trkpt lat="43.59952" lon="6.65353">
        <ele>300.64175415039</ele>
        <time>2011-06-02T09:59:04Z</time>
      </trkpt>
      <trkpt lat="43.59929" lon="6.65379">
        <ele>300.54489135742</ele>
        <time>2011-06-02T09:59:11Z</time>
      </trkpt>
      <trkpt lat="43.59914" lon="6.65399">
        <ele>300.25433349609</ele>
        <time>2011-06-02T09:59:16Z</time>
      </trkpt>
      <trkpt lat="43.59911" lon="6.65402">
        <ele>300.24176025391</ele>
        <time>2011-06-02T09:59:17Z</time>
      </trkpt>
      <trkpt lat="43.59891" lon="6.65426">
        <ele>300.2412109375</ele>
        <time>2011-06-02T09:59:24Z</time>
      </trkpt>
      <trkpt lat="43.59877" lon="6.65442">
        <ele>300.18392944336</ele>
        <time>2011-06-02T09:59:29Z</time>
      </trkpt>
      <trkpt lat="43.59858" lon="6.6546">
        <ele>299.96896362305</ele>
        <time>2011-06-02T09:59:36Z</time>
      </trkpt>
      <trkpt lat="43.59843" lon="6.65475">
        <ele>299.64007568359</ele>
        <time>2011-06-02T09:59:41Z</time>
      </trkpt>
      <trkpt lat="43.59826" lon="6.65491">
        <ele>298.98217773438</ele>
        <time>2011-06-02T09:59:46Z</time>
      </trkpt>
      <trkpt lat="43.59813" lon="6.65506">
        <ele>298.06958007812</ele>
        <time>2011-06-02T09:59:50Z</time>
      </trkpt>
      <trkpt lat="43.59806" lon="6.65512">
        <ele>297.57821655273</ele>
        <time>2011-06-02T09:59:52Z</time>
      </trkpt>
      <trkpt lat="43.59782" lon="6.65529">
        <ele>295.52874755859</ele>
        <time>2011-06-02T09:59:58Z</time>
      </trkpt>
      <trkpt lat="43.59759" lon="6.65542">
        <ele>293.09918212891</ele>
        <time>2011-06-02T10:00:04Z</time>
      </trkpt>
      <trkpt lat="43.59756" lon="6.65544">
        <ele>292.80270385742</ele>
        <time>2011-06-02T10:00:05Z</time>
      </trkpt>
      <trkpt lat="43.59748" lon="6.65553">
        <ele>291.4426574707</ele>
        <time>2011-06-02T10:00:09Z</time>
      </trkpt>
      <trkpt lat="43.59739" lon="6.65572">
        <ele>289.48742675781</ele>
        <time>2011-06-02T10:00:15Z</time>
      </trkpt>
      <trkpt lat="43.59729" lon="6.65589">
        <ele>287.81036376953</ele>
        <time>2011-06-02T10:00:20Z</time>
      </trkpt>
      <trkpt lat="43.59726" lon="6.656">
        <ele>286.97769165039</ele>
        <time>2011-06-02T10:00:23Z</time>
      </trkpt>
      <trkpt lat="43.5972" lon="6.65616">
        <ele>285.67617797852</ele>
        <time>2011-06-02T10:00:28Z</time>
      </trkpt>
      <trkpt lat="43.59703" lon="6.6564">
        <ele>283.5964050293</ele>
        <time>2011-06-02T10:00:35Z</time>
      </trkpt>
      <trkpt lat="43.59697" lon="6.65661">
        <ele>282.11959838867</ele>
        <time>2011-06-02T10:00:39Z</time>
      </trkpt>
      <trkpt lat="43.5969" lon="6.65686">
        <ele>281.45178222656</ele>
        <time>2011-06-02T10:00:44Z</time>
      </trkpt>
      <trkpt lat="43.59684" lon="6.65706">
        <ele>281.13958740234</ele>
        <time>2011-06-02T10:00:49Z</time>
      </trkpt>
      <trkpt lat="43.59676" lon="6.65727">
        <ele>280.67407226562</ele>
        <time>2011-06-02T10:00:54Z</time>
      </trkpt>
      <trkpt lat="43.59666" lon="6.65753">
        <ele>280.03747558594</ele>
        <time>2011-06-02T10:01:00Z</time>
      </trkpt>
      <trkpt lat="43.59659" lon="6.65774">
        <ele>280.39080810547</ele>
        <time>2011-06-02T10:01:05Z</time>
      </trkpt>
      <trkpt lat="43.59652" lon="6.65799">
        <ele>280.6291809082</ele>
        <time>2011-06-02T10:01:11Z</time>
      </trkpt>
      <trkpt lat="43.59639" lon="6.65836">
        <ele>280.76913452148</ele>
        <time>2011-06-02T10:01:19Z</time>
      </trkpt>
      <trkpt lat="43.59636" lon="6.65861">
        <ele>281.46389770508</ele>
        <time>2011-06-02T10:01:24Z</time>
      </trkpt>
      <trkpt lat="43.59643" lon="6.65891">
        <ele>282.67144775391</ele>
        <time>2011-06-02T10:01:30Z</time>
      </trkpt>
      <trkpt lat="43.59649" lon="6.65901">
        <ele>283.30627441406</ele>
        <time>2011-06-02T10:01:32Z</time>
      </trkpt>
      <trkpt lat="43.5965" lon="6.65926">
        <ele>284.66348266602</ele>
        <time>2011-06-02T10:01:36Z</time>
      </trkpt>
      <trkpt lat="43.59646" lon="6.65934">
        <ele>284.86895751953</ele>
        <time>2011-06-02T10:01:38Z</time>
      </trkpt>
      <trkpt lat="43.59634" lon="6.65947">
        <ele>284.6877746582</ele>
        <time>2011-06-02T10:01:44Z</time>
      </trkpt>
      <trkpt lat="43.59626" lon="6.65958">
        <ele>284.63446044922</ele>
        <time>2011-06-02T10:01:49Z</time>
      </trkpt>
      <trkpt lat="43.59618" lon="6.65969">
        <ele>284.25439453125</ele>
        <time>2011-06-02T10:01:54Z</time>
      </trkpt>
      <trkpt lat="43.59602" lon="6.65987">
        <ele>283.14715576172</ele>
        <time>2011-06-02T10:02:01Z</time>
      </trkpt>
      <trkpt lat="43.59594" lon="6.66007">
        <ele>282.67465209961</ele>
        <time>2011-06-02T10:02:05Z</time>
      </trkpt>
      <trkpt lat="43.59592" lon="6.66042">
        <ele>283.69821166992</ele>
        <time>2011-06-02T10:02:09Z</time>
      </trkpt>
      <trkpt lat="43.59587" lon="6.66069">
        <ele>283.96173095703</ele>
        <time>2011-06-02T10:02:13Z</time>
      </trkpt>
      <trkpt lat="43.59582" lon="6.66074">
        <ele>283.58251953125</ele>
        <time>2011-06-02T10:02:15Z</time>
      </trkpt>
      <trkpt lat="43.59576" lon="6.66078">
        <ele>283.45065307617</ele>
        <time>2011-06-02T10:02:18Z</time>
      </trkpt>
      <trkpt lat="43.59565" lon="6.6608">
        <ele>283.03439331055</ele>
        <time>2011-06-02T10:02:24Z</time>
      </trkpt>
      <trkpt lat="43.59558" lon="6.66083">
        <ele>282.80743408203</ele>
        <time>2011-06-02T10:02:28Z</time>
      </trkpt>
      <trkpt lat="43.59544" lon="6.66092">
        <ele>282.32794189453</ele>
        <time>2011-06-02T10:02:36Z</time>
      </trkpt>
      <trkpt lat="43.59534" lon="6.66099">
        <ele>281.99261474609</ele>
        <time>2011-06-02T10:02:42Z</time>
      </trkpt>
      <trkpt lat="43.59523" lon="6.66107">
        <ele>281.65960693359</ele>
        <time>2011-06-02T10:02:49Z</time>
      </trkpt>
      <trkpt lat="43.59518" lon="6.66122">
        <ele>281.80493164062</ele>
        <time>2011-06-02T10:02:55Z</time>
      </trkpt>
      <trkpt lat="43.59517" lon="6.66131">
        <ele>281.94912719727</ele>
        <time>2011-06-02T10:02:58Z</time>
      </trkpt>
      <trkpt lat="43.59528" lon="6.66146">
        <ele>282.83605957031</ele>
        <time>2011-06-02T10:03:05Z</time>
      </trkpt>
      <trkpt lat="43.59544" lon="6.66162">
        <ele>284.00219726562</ele>
        <time>2011-06-02T10:03:11Z</time>
      </trkpt>
      <trkpt lat="43.59561" lon="6.6618">
        <ele>285.47015380859</ele>
        <time>2011-06-02T10:03:17Z</time>
      </trkpt>
      <trkpt lat="43.59578" lon="6.6619">
        <ele>286.81188964844</ele>
        <time>2011-06-02T10:03:22Z</time>
      </trkpt>
      <trkpt lat="43.59589" lon="6.66207">
        <ele>288.60931396484</ele>
        <time>2011-06-02T10:03:27Z</time>
      </trkpt>
      <trkpt lat="43.59591" lon="6.66244">
        <ele>290.65090942383</ele>
        <time>2011-06-02T10:03:34Z</time>
      </trkpt>
      <trkpt lat="43.59592" lon="6.6627">
        <ele>291.79022216797</ele>
        <time>2011-06-02T10:03:40Z</time>
      </trkpt>
      <trkpt lat="43.59593" lon="6.6629">
        <ele>292.513671875</ele>
        <time>2011-06-02T10:03:44Z</time>
      </trkpt>
      <trkpt lat="43.59592" lon="6.66299">
        <ele>292.76608276367</ele>
        <time>2011-06-02T10:03:47Z</time>
      </trkpt>
      <trkpt lat="43.59593" lon="6.66306">
        <ele>293.1162109375</ele>
        <time>2011-06-02T10:03:56Z</time>
      </trkpt>
      <trkpt lat="43.59592" lon="6.6631">
        <ele>293.18792724609</ele>
        <time>2011-06-02T10:03:58Z</time>
      </trkpt>
      <trkpt lat="43.59583" lon="6.6634">
        <ele>292.52481079102</ele>
        <time>2011-06-02T10:04:05Z</time>
      </trkpt>
      <trkpt lat="43.59568" lon="6.6638">
        <ele>288.86920166016</ele>
        <time>2011-06-02T10:04:11Z</time>
      </trkpt>
      <trkpt lat="43.59557" lon="6.66409">
        <ele>286.5227355957</ele>
        <time>2011-06-02T10:04:15Z</time>
      </trkpt>
      <trkpt lat="43.59553" lon="6.66423">
        <ele>285.43194580078</ele>
        <time>2011-06-02T10:04:17Z</time>
      </trkpt>
      <trkpt lat="43.59551" lon="6.66439">
        <ele>284.45581054688</ele>
        <time>2011-06-02T10:04:19Z</time>
      </trkpt>
      <trkpt lat="43.59547" lon="6.66498">
        <ele>281.24136352539</ele>
        <time>2011-06-02T10:04:26Z</time>
      </trkpt>
      <trkpt lat="43.59546" lon="6.66506">
        <ele>281.13238525391</ele>
        <time>2011-06-02T10:04:27Z</time>
      </trkpt>
      <trkpt lat="43.5954" lon="6.6655">
        <ele>281.24334716797</ele>
        <time>2011-06-02T10:04:33Z</time>
      </trkpt>
      <trkpt lat="43.59538" lon="6.66568">
        <ele>281.29077148438</ele>
        <time>2011-06-02T10:04:36Z</time>
      </trkpt>
      <trkpt lat="43.59537" lon="6.66581">
        <ele>281.30868530273</ele>
        <time>2011-06-02T10:04:40Z</time>
      </trkpt>
      <trkpt lat="43.59533" lon="6.66599">
        <ele>282.85717773438</ele>
        <time>2011-06-02T10:04:47Z</time>
      </trkpt>
      <trkpt lat="43.59531" lon="6.66608">
        <ele>283.76162719727</ele>
        <time>2011-06-02T10:04:51Z</time>
      </trkpt>
      <trkpt lat="43.5953" lon="6.66616">
        <ele>284.50109863281</ele>
        <time>2011-06-02T10:04:54Z</time>
      </trkpt>
      <trkpt lat="43.59526" lon="6.66632">
        <ele>285.95419311523</ele>
        <time>2011-06-02T10:05:00Z</time>
      </trkpt>
      <trkpt lat="43.59524" lon="6.6664">
        <ele>286.66403198242</ele>
        <time>2011-06-02T10:05:03Z</time>
      </trkpt>
      <trkpt lat="43.59521" lon="6.66647">
        <ele>287.31887817383</ele>
        <time>2011-06-02T10:05:06Z</time>
      </trkpt>
      <trkpt lat="43.59521" lon="6.66649">
        <ele>287.45236206055</ele>
        <time>2011-06-02T10:05:07Z</time>
      </trkpt>
      <trkpt lat="43.59517" lon="6.66654">
        <ele>287.80786132812</ele>
        <time>2011-06-02T10:05:11Z</time>
      </trkpt>
      <trkpt lat="43.59513" lon="6.66662">
        <ele>288.30960083008</ele>
        <time>2011-06-02T10:05:18Z</time>
      </trkpt>
      <trkpt lat="43.59509" lon="6.66664">
        <ele>288.24453735352</ele>
        <time>2011-06-02T10:05:21Z</time>
      </trkpt>
      <trkpt lat="43.59505" lon="6.66669">
        <ele>288.56823730469</ele>
        <time>2011-06-02T10:05:25Z</time>
      </trkpt>
      <trkpt lat="43.59503" lon="6.66677">
        <ele>289.57302856445</ele>
        <time>2011-06-02T10:05:30Z</time>
      </trkpt>
      <trkpt lat="43.59502" lon="6.6668">
        <ele>289.84921264648</ele>
        <time>2011-06-02T10:05:32Z</time>
      </trkpt>
      <trkpt lat="43.59501" lon="6.66688">
        <ele>290.94241333008</ele>
        <time>2011-06-02T10:05:39Z</time>
      </trkpt>
      <trkpt lat="43.595" lon="6.66695">
        <ele>291.79965209961</ele>
        <time>2011-06-02T10:05:45Z</time>
      </trkpt>
      <trkpt lat="43.595" lon="6.66698">
        <ele>292.11505126953</ele>
        <time>2011-06-02T10:05:50Z</time>
      </trkpt>
      <trkpt lat="43.59499" lon="6.66701">
        <ele>292.60305786133</ele>
        <time>2011-06-02T10:05:57Z</time>
      </trkpt>
      <trkpt lat="43.59492" lon="6.66716">
        <ele>294.6946105957</ele>
        <time>2011-06-02T10:06:04Z</time>
      </trkpt>
      <trkpt lat="43.59489" lon="6.66722">
        <ele>295.46200561523</ele>
        <time>2011-06-02T10:06:07Z</time>
      </trkpt>
      <trkpt lat="43.59485" lon="6.66729">
        <ele>296.54571533203</ele>
        <time>2011-06-02T10:06:13Z</time>
      </trkpt>
      <trkpt lat="43.59483" lon="6.66738">
        <ele>297.7262878418</ele>
        <time>2011-06-02T10:06:18Z</time>
      </trkpt>
      <trkpt lat="43.59478" lon="6.6675">
        <ele>299.25088500977</ele>
        <time>2011-06-02T10:06:24Z</time>
      </trkpt>
      <trkpt lat="43.5947" lon="6.66763">
        <ele>299.89904785156</ele>
        <time>2011-06-02T10:06:30Z</time>
      </trkpt>
      <trkpt lat="43.59467" lon="6.66774">
        <ele>300.38430786133</ele>
        <time>2011-06-02T10:06:36Z</time>
      </trkpt>
      <trkpt lat="43.59462" lon="6.66792">
        <ele>301.17895507812</ele>
        <time>2011-06-02T10:06:44Z</time>
      </trkpt>
      <trkpt lat="43.5946" lon="6.66806">
        <ele>301.81051635742</ele>
        <time>2011-06-02T10:06:50Z</time>
      </trkpt>
      <trkpt lat="43.59459" lon="6.66808">
        <ele>301.92358398438</ele>
        <time>2011-06-02T10:06:51Z</time>
      </trkpt>
      <trkpt lat="43.59454" lon="6.66828">
        <ele>302.86712646484</ele>
        <time>2011-06-02T10:06:58Z</time>
      </trkpt>
      <trkpt lat="43.59452" lon="6.66838">
        <ele>303.31298828125</ele>
        <time>2011-06-02T10:07:02Z</time>
      </trkpt>
      <trkpt lat="43.59451" lon="6.66852">
        <ele>303.87170410156</ele>
        <time>2011-06-02T10:07:07Z</time>
      </trkpt>
      <trkpt lat="43.59448" lon="6.6687">
        <ele>304.69207763672</ele>
        <time>2011-06-02T10:07:15Z</time>
      </trkpt>
      <trkpt lat="43.59446" lon="6.66884">
        <ele>305.28866577148</ele>
        <time>2011-06-02T10:07:20Z</time>
      </trkpt>
      <trkpt lat="43.59445" lon="6.66911">
        <ele>306.40716552734</ele>
        <time>2011-06-02T10:07:29Z</time>
      </trkpt>
      <trkpt lat="43.59445" lon="6.66929">
        <ele>307.13507080078</ele>
        <time>2011-06-02T10:07:36Z</time>
      </trkpt>
      <trkpt lat="43.59446" lon="6.66946">
        <ele>307.79077148438</ele>
        <time>2011-06-02T10:07:43Z</time>
      </trkpt>
      <trkpt lat="43.59443" lon="6.6695">
        <ele>308.08258056641</ele>
        <time>2011-06-02T10:07:48Z</time>
      </trkpt>
      <trkpt lat="43.5944" lon="6.66952">
        <ele>308.31094360352</ele>
        <time>2011-06-02T10:07:58Z</time>
      </trkpt>
      <trkpt lat="43.59443" lon="6.66951">
        <ele>308.125</ele>
        <time>2011-06-02T10:08:05Z</time>
      </trkpt>
      <trkpt lat="43.59441" lon="6.66952">
        <ele>308.26007080078</ele>
        <time>2011-06-02T10:08:10Z</time>
      </trkpt>
      <trkpt lat="43.5944" lon="6.66952">
        <ele>308.3547668457</ele>
        <time>2011-06-02T10:08:15Z</time>
      </trkpt>
      <trkpt lat="43.59438" lon="6.66951">
        <ele>308.40377807617</ele>
        <time>2011-06-02T10:08:18Z</time>
      </trkpt>
      <trkpt lat="43.59436" lon="6.66954">
        <ele>308.63555908203</ele>
        <time>2011-06-02T10:08:27Z</time>
      </trkpt>
      <trkpt lat="43.59438" lon="6.66953">
        <ele>308.51174926758</ele>
        <time>2011-06-02T10:08:32Z</time>
      </trkpt>
      <trkpt lat="43.59435" lon="6.66955">
        <ele>308.75564575195</ele>
        <time>2011-06-02T10:08:38Z</time>
      </trkpt>
      <trkpt lat="43.5943" lon="6.66953">
        <ele>308.97982788086</ele>
        <time>2011-06-02T10:08:43Z</time>
      </trkpt>
      <trkpt lat="43.59428" lon="6.66952">
        <ele>309.0241394043</ele>
        <time>2011-06-02T10:08:45Z</time>
      </trkpt>
      <trkpt lat="43.59417" lon="6.6695">
        <ele>309.60479736328</ele>
        <time>2011-06-02T10:08:52Z</time>
      </trkpt>
      <trkpt lat="43.59415" lon="6.6695">
        <ele>309.65515136719</ele>
        <time>2011-06-02T10:08:53Z</time>
      </trkpt>
      <trkpt lat="43.59402" lon="6.66949">
        <ele>310.07858276367</ele>
        <time>2011-06-02T10:09:00Z</time>
      </trkpt>
      <trkpt lat="43.59389" lon="6.66948">
        <ele>310.50201416016</ele>
        <time>2011-06-02T10:09:06Z</time>
      </trkpt>
      <trkpt lat="43.5937" lon="6.66947">
        <ele>311.14974975586</ele>
        <time>2011-06-02T10:09:13Z</time>
      </trkpt>
      <trkpt lat="43.59349" lon="6.66946">
        <ele>311.806640625</ele>
        <time>2011-06-02T10:09:19Z</time>
      </trkpt>
      <trkpt lat="43.59342" lon="6.66946">
        <ele>312.09045410156</ele>
        <time>2011-06-02T10:09:24Z</time>
      </trkpt>
      <trkpt lat="43.5934" lon="6.66943">
        <ele>312.02178955078</ele>
        <time>2011-06-02T10:09:36Z</time>
      </trkpt>
      <trkpt lat="43.59337" lon="6.6694">
        <ele>311.95999145508</ele>
        <time>2011-06-02T10:09:42Z</time>
      </trkpt>
      <trkpt lat="43.59336" lon="6.66939">
        <ele>311.96685791016</ele>
        <time>2011-06-02T10:09:50Z</time>
      </trkpt>
      <trkpt lat="43.59334" lon="6.66939">
        <ele>312.06069946289</ele>
        <time>2011-06-02T10:10:07Z</time>
      </trkpt>
      <trkpt lat="43.59324" lon="6.66942">
        <ele>312.09460449219</ele>
        <time>2011-06-02T10:10:12Z</time>
      </trkpt>
      <trkpt lat="43.59314" lon="6.6694">
        <ele>311.88861083984</ele>
        <time>2011-06-02T10:10:15Z</time>
      </trkpt>
      <trkpt lat="43.59311" lon="6.66939">
        <ele>311.82452392578</ele>
        <time>2011-06-02T10:10:16Z</time>
      </trkpt>
      <trkpt lat="43.59296" lon="6.66941">
        <ele>311.72839355469</ele>
        <time>2011-06-02T10:10:20Z</time>
      </trkpt>
      <trkpt lat="43.59279" lon="6.6695">
        <ele>311.94812011719</ele>
        <time>2011-06-02T10:10:24Z</time>
      </trkpt>
      <trkpt lat="43.59257" lon="6.6695">
        <ele>311.70321655273</ele>
        <time>2011-06-02T10:10:28Z</time>
      </trkpt>
      <trkpt lat="43.59251" lon="6.66946">
        <ele>311.42626953125</ele>
        <time>2011-06-02T10:10:29Z</time>
      </trkpt>
      <trkpt lat="43.59208" lon="6.66922">
        <ele>309.19012451172</ele>
        <time>2011-06-02T10:10:35Z</time>
      </trkpt>
      <trkpt lat="43.59172" lon="6.66898">
        <ele>307.46984863281</ele>
        <time>2011-06-02T10:10:40Z</time>
      </trkpt>
      <trkpt lat="43.59159" lon="6.66885">
        <ele>306.07736206055</ele>
        <time>2011-06-02T10:10:43Z</time>
      </trkpt>
      <trkpt lat="43.59155" lon="6.66882">
        <ele>305.46453857422</ele>
        <time>2011-06-02T10:10:46Z</time>
      </trkpt>
      <trkpt lat="43.59153" lon="6.66885">
        <ele>305.32891845703</ele>
        <time>2011-06-02T10:10:54Z</time>
      </trkpt>
      <trkpt lat="43.59153" lon="6.66886">
        <ele>305.43536376953</ele>
        <time>2011-06-02T10:10:57Z</time>
      </trkpt>
      <trkpt lat="43.59148" lon="6.66877">
        <ele>304.52899169922</ele>
        <time>2011-06-02T10:11:11Z</time>
      </trkpt>
      <trkpt lat="43.59135" lon="6.66865">
        <ele>302.67504882812</ele>
        <time>2011-06-02T10:11:15Z</time>
      </trkpt>
      <trkpt lat="43.59114" lon="6.66848">
        <ele>299.87869262695</ele>
        <time>2011-06-02T10:11:19Z</time>
      </trkpt>
      <trkpt lat="43.59079" lon="6.66813">
        <ele>294.95413208008</ele>
        <time>2011-06-02T10:11:25Z</time>
      </trkpt>
      <trkpt lat="43.5905" lon="6.66785">
        <ele>291.68069458008</ele>
        <time>2011-06-02T10:11:30Z</time>
      </trkpt>
      <trkpt lat="43.59016" lon="6.66747">
        <ele>288.11303710938</ele>
        <time>2011-06-02T10:11:35Z</time>
      </trkpt>
      <trkpt lat="43.58981" lon="6.66708">
        <ele>284.95349121094</ele>
        <time>2011-06-02T10:11:40Z</time>
      </trkpt>
      <trkpt lat="43.58942" lon="6.66667">
        <ele>282.24008178711</ele>
        <time>2011-06-02T10:11:46Z</time>
      </trkpt>
      <trkpt lat="43.58915" lon="6.66643">
        <ele>281.02746582031</ele>
        <time>2011-06-02T10:11:51Z</time>
      </trkpt>
      <trkpt lat="43.58894" lon="6.66631">
        <ele>281.42126464844</ele>
        <time>2011-06-02T10:11:55Z</time>
      </trkpt>
      <trkpt lat="43.58873" lon="6.66626">
        <ele>281.79119873047</ele>
        <time>2011-06-02T10:11:59Z</time>
      </trkpt>
      <trkpt lat="43.58845" lon="6.6662">
        <ele>282.24621582031</ele>
        <time>2011-06-02T10:12:05Z</time>
      </trkpt>
      <trkpt lat="43.58825" lon="6.66617">
        <ele>282.79479980469</ele>
        <time>2011-06-02T10:12:09Z</time>
      </trkpt>
      <trkpt lat="43.58807" lon="6.66615">
        <ele>283.55337524414</ele>
        <time>2011-06-02T10:12:13Z</time>
      </trkpt>
      <trkpt lat="43.58798" lon="6.66615">
        <ele>283.96673583984</ele>
        <time>2011-06-02T10:12:15Z</time>
      </trkpt>
      <trkpt lat="43.58789" lon="6.66614">
        <ele>284.35412597656</ele>
        <time>2011-06-02T10:12:17Z</time>
      </trkpt>
      <trkpt lat="43.58773" lon="6.66614">
        <ele>285.08557128906</ele>
        <time>2011-06-02T10:12:21Z</time>
      </trkpt>
      <trkpt lat="43.58765" lon="6.66612">
        <ele>285.35491943359</ele>
        <time>2011-06-02T10:12:23Z</time>
      </trkpt>
      <trkpt lat="43.58746" lon="6.6661">
        <ele>286.24713134766</ele>
        <time>2011-06-02T10:12:28Z</time>
      </trkpt>
      <trkpt lat="43.58727" lon="6.66609">
        <ele>287.52194213867</ele>
        <time>2011-06-02T10:12:33Z</time>
      </trkpt>
      <trkpt lat="43.58718" lon="6.66607">
        <ele>288.00430297852</ele>
        <time>2011-06-02T10:12:35Z</time>
      </trkpt>
      <trkpt lat="43.58701" lon="6.66607">
        <ele>289.15042114258</ele>
        <time>2011-06-02T10:12:39Z</time>
      </trkpt>
      <trkpt lat="43.58687" lon="6.66607">
        <ele>290.0627746582</ele>
        <time>2011-06-02T10:12:42Z</time>
      </trkpt>
      <trkpt lat="43.58667" lon="6.66608">
        <ele>291.42114257812</ele>
        <time>2011-06-02T10:12:46Z</time>
      </trkpt>
      <trkpt lat="43.58634" lon="6.66608">
        <ele>291.48284912109</ele>
        <time>2011-06-02T10:12:53Z</time>
      </trkpt>
      <trkpt lat="43.58626" lon="6.6661">
        <ele>291.60015869141</ele>
        <time>2011-06-02T10:12:55Z</time>
      </trkpt>
      <trkpt lat="43.58608" lon="6.66616">
        <ele>291.98352050781</ele>
        <time>2011-06-02T10:13:00Z</time>
      </trkpt>
      <trkpt lat="43.58587" lon="6.66631">
        <ele>292.87045288086</ele>
        <time>2011-06-02T10:13:06Z</time>
      </trkpt>
      <trkpt lat="43.5857" lon="6.66631">
        <ele>291.72958374023</ele>
        <time>2011-06-02T10:13:10Z</time>
      </trkpt>
      <trkpt lat="43.58554" lon="6.66631">
        <ele>290.38430786133</ele>
        <time>2011-06-02T10:13:13Z</time>
      </trkpt>
      <trkpt lat="43.58542" lon="6.66631">
        <ele>289.42529296875</ele>
        <time>2011-06-02T10:13:15Z</time>
      </trkpt>
      <trkpt lat="43.58509" lon="6.66624">
        <ele>286.22610473633</ele>
        <time>2011-06-02T10:13:20Z</time>
      </trkpt>
      <trkpt lat="43.58474" lon="6.66607">
        <ele>281.40307617188</ele>
        <time>2011-06-02T10:13:25Z</time>
      </trkpt>
      <trkpt lat="43.58467" lon="6.66603">
        <ele>280.35583496094</ele>
        <time>2011-06-02T10:13:26Z</time>
      </trkpt>
      <trkpt lat="43.58453" lon="6.66599">
        <ele>278.37509155273</ele>
        <time>2011-06-02T10:13:28Z</time>
      </trkpt>
      <trkpt lat="43.58438" lon="6.666">
        <ele>276.77572631836</ele>
        <time>2011-06-02T10:13:30Z</time>
      </trkpt>
      <trkpt lat="43.58388" lon="6.66615">
        <ele>272.36047363281</ele>
        <time>2011-06-02T10:13:37Z</time>
      </trkpt>
      <trkpt lat="43.5835" lon="6.66625">
        <ele>269.1794128418</ele>
        <time>2011-06-02T10:13:43Z</time>
      </trkpt>
      <trkpt lat="43.5834" lon="6.66629">
        <ele>268.38516235352</ele>
        <time>2011-06-02T10:13:45Z</time>
      </trkpt>
      <trkpt lat="43.58306" lon="6.66633">
        <ele>265.34112548828</ele>
        <time>2011-06-02T10:13:51Z</time>
      </trkpt>
      <trkpt lat="43.583" lon="6.66633">
        <ele>264.71569824219</ele>
        <time>2011-06-02T10:13:52Z</time>
      </trkpt>
      <trkpt lat="43.5827" lon="6.66648">
        <ele>262.74960327148</ele>
        <time>2011-06-02T10:13:57Z</time>
      </trkpt>
      <trkpt lat="43.58231" lon="6.66676">
        <ele>261.67663574219</ele>
        <time>2011-06-02T10:14:04Z</time>
      </trkpt>
      <trkpt lat="43.58192" lon="6.66708">
        <ele>261.45205688477</ele>
        <time>2011-06-02T10:14:12Z</time>
      </trkpt>
      <trkpt lat="43.5816" lon="6.66738">
        <ele>261.72082519531</ele>
        <time>2011-06-02T10:14:19Z</time>
      </trkpt>
      <trkpt lat="43.58134" lon="6.66764">
        <ele>262</ele>
        <time>2011-06-02T10:14:25Z</time>
      </trkpt>
      <trkpt lat="43.58116" lon="6.66784">
        <ele>262</ele>
        <time>2011-06-02T10:14:29Z</time>
      </trkpt>
      <trkpt lat="43.58105" lon="6.66793">
        <ele>262</ele>
        <time>2011-06-02T10:14:31Z</time>
      </trkpt>
      <trkpt lat="43.58081" lon="6.66804">
        <ele>262</ele>
        <time>2011-06-02T10:14:35Z</time>
      </trkpt>
      <trkpt lat="43.58055" lon="6.66803">
        <ele>262</ele>
        <time>2011-06-02T10:14:39Z</time>
      </trkpt>
      <trkpt lat="43.5803" lon="6.66798">
        <ele>262</ele>
        <time>2011-06-02T10:14:43Z</time>
      </trkpt>
      <trkpt lat="43.58001" lon="6.66778">
        <ele>262</ele>
        <time>2011-06-02T10:14:48Z</time>
      </trkpt>
      <trkpt lat="43.57971" lon="6.66764">
        <ele>262</ele>
        <time>2011-06-02T10:14:53Z</time>
      </trkpt>
      <trkpt lat="43.57945" lon="6.6676">
        <ele>262</ele>
        <time>2011-06-02T10:14:57Z</time>
      </trkpt>
      <trkpt lat="43.57918" lon="6.66759">
        <ele>262</ele>
        <time>2011-06-02T10:15:01Z</time>
      </trkpt>
      <trkpt lat="43.57905" lon="6.66759">
        <ele>261.87365722656</ele>
        <time>2011-06-02T10:15:03Z</time>
      </trkpt>
      <trkpt lat="43.57854" lon="6.66755">
        <ele>261.30053710938</ele>
        <time>2011-06-02T10:15:10Z</time>
      </trkpt>
      <trkpt lat="43.57812" lon="6.66754">
        <ele>261.04235839844</ele>
        <time>2011-06-02T10:15:16Z</time>
      </trkpt>
      <trkpt lat="43.57797" lon="6.66754">
        <ele>261.04522705078</ele>
        <time>2011-06-02T10:15:18Z</time>
      </trkpt>
      <trkpt lat="43.57756" lon="6.66743">
        <ele>260.59384155273</ele>
        <time>2011-06-02T10:15:24Z</time>
      </trkpt>
      <trkpt lat="43.57726" lon="6.6673">
        <ele>259.78131103516</ele>
        <time>2011-06-02T10:15:29Z</time>
      </trkpt>
      <trkpt lat="43.57691" lon="6.6672">
        <ele>259.18334960938</ele>
        <time>2011-06-02T10:15:34Z</time>
      </trkpt>
      <trkpt lat="43.57655" lon="6.66713">
        <ele>257.85009765625</ele>
        <time>2011-06-02T10:15:39Z</time>
      </trkpt>
      <trkpt lat="43.57616" lon="6.66704">
        <ele>254.36940002441</ele>
        <time>2011-06-02T10:15:45Z</time>
      </trkpt>
      <trkpt lat="43.57605" lon="6.66702">
        <ele>253.34443664551</ele>
        <time>2011-06-02T10:15:47Z</time>
      </trkpt>
      <trkpt lat="43.57585" lon="6.66699">
        <ele>251.69215393066</ele>
        <time>2011-06-02T10:15:52Z</time>
      </trkpt>
      <trkpt lat="43.57582" lon="6.66699">
        <ele>251.45596313477</ele>
        <time>2011-06-02T10:15:53Z</time>
      </trkpt>
      <trkpt lat="43.57561" lon="6.66693">
        <ele>249.75500488281</ele>
        <time>2011-06-02T10:15:59Z</time>
      </trkpt>
      <trkpt lat="43.57547" lon="6.66692">
        <ele>248.77912902832</ele>
        <time>2011-06-02T10:16:03Z</time>
      </trkpt>
      <trkpt lat="43.57537" lon="6.66686">
        <ele>247.85899353027</ele>
        <time>2011-06-02T10:16:07Z</time>
      </trkpt>
      <trkpt lat="43.57522" lon="6.66677">
        <ele>246.65914916992</ele>
        <time>2011-06-02T10:16:12Z</time>
      </trkpt>
      <trkpt lat="43.57508" lon="6.6667">
        <ele>245.56069946289</ele>
        <time>2011-06-02T10:16:17Z</time>
      </trkpt>
      <trkpt lat="43.57487" lon="6.66655">
        <ele>245.67701721191</ele>
        <time>2011-06-02T10:16:23Z</time>
      </trkpt>
      <trkpt lat="43.57467" lon="6.66641">
        <ele>246.63909912109</ele>
        <time>2011-06-02T10:16:28Z</time>
      </trkpt>
      <trkpt lat="43.57446" lon="6.66631">
        <ele>247.62617492676</ele>
        <time>2011-06-02T10:16:34Z</time>
      </trkpt>
      <trkpt lat="43.57435" lon="6.66629">
        <ele>248.14836120606</ele>
        <time>2011-06-02T10:16:38Z</time>
      </trkpt>
      <trkpt lat="43.5742" lon="6.66613">
        <ele>247.98147583008</ele>
        <time>2011-06-02T10:16:43Z</time>
      </trkpt>
      <trkpt lat="43.57397" lon="6.66595">
        <ele>245.77239990234</ele>
        <time>2011-06-02T10:16:50Z</time>
      </trkpt>
      <trkpt lat="43.57383" lon="6.66582">
        <ele>244.27856445312</ele>
        <time>2011-06-02T10:16:55Z</time>
      </trkpt>
      <trkpt lat="43.57368" lon="6.66561">
        <ele>242.65797424316</ele>
        <time>2011-06-02T10:17:00Z</time>
      </trkpt>
      <trkpt lat="43.57359" lon="6.66548">
        <ele>241.73202514648</ele>
        <time>2011-06-02T10:17:02Z</time>
      </trkpt>
      <trkpt lat="43.57338" lon="6.66525">
        <ele>240.04396057129</ele>
        <time>2011-06-02T10:17:06Z</time>
      </trkpt>
      <trkpt lat="43.57325" lon="6.66512">
        <ele>238.9782409668</ele>
        <time>2011-06-02T10:17:08Z</time>
      </trkpt>
      <trkpt lat="43.57294" lon="6.66476">
        <ele>233.42779541016</ele>
        <time>2011-06-02T10:17:13Z</time>
      </trkpt>
      <trkpt lat="43.57285" lon="6.66466">
        <ele>231.61904907227</ele>
        <time>2011-06-02T10:17:16Z</time>
      </trkpt>
      <trkpt lat="43.57286" lon="6.66468">
        <ele>231.98773193359</ele>
        <time>2011-06-02T10:17:19Z</time>
      </trkpt>
      <trkpt lat="43.57288" lon="6.66472">
        <ele>232.61892700195</ele>
        <time>2011-06-02T10:17:22Z</time>
      </trkpt>
      <trkpt lat="43.57286" lon="6.66477">
        <ele>233.28219604492</ele>
        <time>2011-06-02T10:17:27Z</time>
      </trkpt>
      <trkpt lat="43.57276" lon="6.66477">
        <ele>232.94764709473</ele>
        <time>2011-06-02T10:17:32Z</time>
      </trkpt>
      <trkpt lat="43.57262" lon="6.66482">
        <ele>233.11518859863</ele>
        <time>2011-06-02T10:17:36Z</time>
      </trkpt>
      <trkpt lat="43.57254" lon="6.66486">
        <ele>233.34671020508</ele>
        <time>2011-06-02T10:17:38Z</time>
      </trkpt>
      <trkpt lat="43.57244" lon="6.66486">
        <ele>232.27925109863</ele>
        <time>2011-06-02T10:17:41Z</time>
      </trkpt>
      <trkpt lat="43.57232" lon="6.66496">
        <ele>231.52812194824</ele>
        <time>2011-06-02T10:17:46Z</time>
      </trkpt>
      <trkpt lat="43.57225" lon="6.66506">
        <ele>230.78211975098</ele>
        <time>2011-06-02T10:17:50Z</time>
      </trkpt>
      <trkpt lat="43.57225" lon="6.66508">
        <ele>230.75025939941</ele>
        <time>2011-06-02T10:17:51Z</time>
      </trkpt>
      <trkpt lat="43.57225" lon="6.66518">
        <ele>230.58427429199</ele>
        <time>2011-06-02T10:17:54Z</time>
      </trkpt>
      <trkpt lat="43.57219" lon="6.66544">
        <ele>228.99006652832</ele>
        <time>2011-06-02T10:18:00Z</time>
      </trkpt>
      <trkpt lat="43.57206" lon="6.66564">
        <ele>226.49055480957</ele>
        <time>2011-06-02T10:18:05Z</time>
      </trkpt>
      <trkpt lat="43.57198" lon="6.66582">
        <ele>224.58671569824</ele>
        <time>2011-06-02T10:18:10Z</time>
      </trkpt>
      <trkpt lat="43.57195" lon="6.66592">
        <ele>223.55609130859</ele>
        <time>2011-06-02T10:18:13Z</time>
      </trkpt>
      <trkpt lat="43.57188" lon="6.66606">
        <ele>221.80342102051</ele>
        <time>2011-06-02T10:18:19Z</time>
      </trkpt>
      <trkpt lat="43.57179" lon="6.66613">
        <ele>219.99780273438</ele>
        <time>2011-06-02T10:18:24Z</time>
      </trkpt>
      <trkpt lat="43.57165" lon="6.6663">
        <ele>217.11254882812</ele>
        <time>2011-06-02T10:18:29Z</time>
      </trkpt>
      <trkpt lat="43.57161" lon="6.6664">
        <ele>216.24398803711</ele>
        <time>2011-06-02T10:18:31Z</time>
      </trkpt>
      <trkpt lat="43.57146" lon="6.66657">
        <ele>213.96994018555</ele>
        <time>2011-06-02T10:18:37Z</time>
      </trkpt>
      <trkpt lat="43.57136" lon="6.66661">
        <ele>212.81036376953</ele>
        <time>2011-06-02T10:18:41Z</time>
      </trkpt>
      <trkpt lat="43.57118" lon="6.66668">
        <ele>210.70634460449</ele>
        <time>2011-06-02T10:18:46Z</time>
      </trkpt>
      <trkpt lat="43.571" lon="6.66681">
        <ele>208.54272460938</ele>
        <time>2011-06-02T10:18:50Z</time>
      </trkpt>
      <trkpt lat="43.5709" lon="6.66673">
        <ele>207.67599487305</ele>
        <time>2011-06-02T10:18:54Z</time>
      </trkpt>
      <trkpt lat="43.57078" lon="6.66651">
        <ele>206.44271850586</ele>
        <time>2011-06-02T10:19:00Z</time>
      </trkpt>
      <trkpt lat="43.57061" lon="6.66639">
        <ele>205.03108215332</ele>
        <time>2011-06-02T10:19:05Z</time>
      </trkpt>
      <trkpt lat="43.57046" lon="6.66623">
        <ele>203.79168701172</ele>
        <time>2011-06-02T10:19:10Z</time>
      </trkpt>
      <trkpt lat="43.57032" lon="6.66607">
        <ele>202.56546020508</ele>
        <time>2011-06-02T10:19:15Z</time>
      </trkpt>
      <trkpt lat="43.57021" lon="6.66592">
        <ele>201.58183288574</ele>
        <time>2011-06-02T10:19:20Z</time>
      </trkpt>
      <trkpt lat="43.57014" lon="6.66579">
        <ele>200.97280883789</ele>
        <time>2011-06-02T10:19:24Z</time>
      </trkpt>
      <trkpt lat="43.57009" lon="6.66551">
        <ele>200.31523132324</ele>
        <time>2011-06-02T10:19:30Z</time>
      </trkpt>
      <trkpt lat="43.57003" lon="6.66521">
        <ele>199.53001403809</ele>
        <time>2011-06-02T10:19:35Z</time>
      </trkpt>
      <trkpt lat="43.57" lon="6.66509">
        <ele>199.14111328125</ele>
        <time>2011-06-02T10:19:37Z</time>
      </trkpt>
      <trkpt lat="43.56997" lon="6.665">
        <ele>198.99993896484</ele>
        <time>2011-06-02T10:19:39Z</time>
      </trkpt>
      <trkpt lat="43.56997" lon="6.66478">
        <ele>198.99136352539</ele>
        <time>2011-06-02T10:19:44Z</time>
      </trkpt>
      <trkpt lat="43.56995" lon="6.66451">
        <ele>198.96722412109</ele>
        <time>2011-06-02T10:19:49Z</time>
      </trkpt>
      <trkpt lat="43.56997" lon="6.66441">
        <ele>198.97074890137</ele>
        <time>2011-06-02T10:19:51Z</time>
      </trkpt>
      <trkpt lat="43.56994" lon="6.66422">
        <ele>198.93525695801</ele>
        <time>2011-06-02T10:19:56Z</time>
      </trkpt>
      <trkpt lat="43.56993" lon="6.66417">
        <ele>198.91764831543</ele>
        <time>2011-06-02T10:19:57Z</time>
      </trkpt>
      <trkpt lat="43.56989" lon="6.66389">
        <ele>198.8623046875</ele>
        <time>2011-06-02T10:20:04Z</time>
      </trkpt>
      <trkpt lat="43.56986" lon="6.66372">
        <ele>198.83026123047</ele>
        <time>2011-06-02T10:20:08Z</time>
      </trkpt>
      <trkpt lat="43.56982" lon="6.66355">
        <ele>198.7890625</ele>
        <time>2011-06-02T10:20:12Z</time>
      </trkpt>
      <trkpt lat="43.56982" lon="6.66352">
        <ele>198.77990722656</ele>
        <time>2011-06-02T10:20:13Z</time>
      </trkpt>
      <trkpt lat="43.56983" lon="6.66341">
        <ele>198.79364013672</ele>
        <time>2011-06-02T10:20:17Z</time>
      </trkpt>
      <trkpt lat="43.56984" lon="6.66322">
        <ele>198.82997131348</ele>
        <time>2011-06-02T10:20:23Z</time>
      </trkpt>
      <trkpt lat="43.56982" lon="6.66302">
        <ele>198.86712646484</ele>
        <time>2011-06-02T10:20:28Z</time>
      </trkpt>
      <trkpt lat="43.56984" lon="6.66279">
        <ele>198.93333435059</ele>
        <time>2011-06-02T10:20:33Z</time>
      </trkpt>
      <trkpt lat="43.56991" lon="6.66269">
        <ele>198.9743347168</ele>
        <time>2011-06-02T10:20:36Z</time>
      </trkpt>
      <trkpt lat="43.56992" lon="6.6626">
        <ele>198.98864746094</ele>
        <time>2011-06-02T10:20:41Z</time>
      </trkpt>
      <trkpt lat="43.56992" lon="6.66255">
        <ele>198.99438476562</ele>
        <time>2011-06-02T10:20:43Z</time>
      </trkpt>
      <trkpt lat="43.56998" lon="6.66236">
        <ele>199.16604614258</ele>
        <time>2011-06-02T10:20:50Z</time>
      </trkpt>
      <trkpt lat="43.57" lon="6.66229">
        <ele>199.26333618164</ele>
        <time>2011-06-02T10:20:54Z</time>
      </trkpt>
      <trkpt lat="43.57003" lon="6.6622">
        <ele>199.42153930664</ele>
        <time>2011-06-02T10:20:58Z</time>
      </trkpt>
      <trkpt lat="43.57004" lon="6.66217">
        <ele>199.51072692871</ele>
        <time>2011-06-02T10:21:00Z</time>
      </trkpt>
      <trkpt lat="43.57003" lon="6.66198">
        <ele>199.74555969238</ele>
        <time>2011-06-02T10:21:07Z</time>
      </trkpt>
      <trkpt lat="43.57" lon="6.6618">
        <ele>199.85319519043</ele>
        <time>2011-06-02T10:21:13Z</time>
      </trkpt>
      <trkpt lat="43.56993" lon="6.66163">
        <ele>200.1946105957</ele>
        <time>2011-06-02T10:21:19Z</time>
      </trkpt>
      <trkpt lat="43.5699" lon="6.6615">
        <ele>200.93115234375</ele>
        <time>2011-06-02T10:21:24Z</time>
      </trkpt>
      <trkpt lat="43.56988" lon="6.66135">
        <ele>201.73905944824</ele>
        <time>2011-06-02T10:21:30Z</time>
      </trkpt>
      <trkpt lat="43.56986" lon="6.66124">
        <ele>202.29287719727</ele>
        <time>2011-06-02T10:21:35Z</time>
      </trkpt>
      <trkpt lat="43.56974" lon="6.66111">
        <ele>202.70166015625</ele>
        <time>2011-06-02T10:21:44Z</time>
      </trkpt>
      <trkpt lat="43.56965" lon="6.66104">
        <ele>202.79273986816</ele>
        <time>2011-06-02T10:21:50Z</time>
      </trkpt>
      <trkpt lat="43.56956" lon="6.66098">
        <ele>202.81332397461</ele>
        <time>2011-06-02T10:21:56Z</time>
      </trkpt>
      <trkpt lat="43.56945" lon="6.66095">
        <ele>202.60777282715</ele>
        <time>2011-06-02T10:22:02Z</time>
      </trkpt>
      <trkpt lat="43.56929" lon="6.66092">
        <ele>202.17733764648</ele>
        <time>2011-06-02T10:22:10Z</time>
      </trkpt>
      <trkpt lat="43.56911" lon="6.66088">
        <ele>201.66836547852</ele>
        <time>2011-06-02T10:22:19Z</time>
      </trkpt>
      <trkpt lat="43.56897" lon="6.66088">
        <ele>201.19306945801</ele>
        <time>2011-06-02T10:22:25Z</time>
      </trkpt>
      <trkpt lat="43.56886" lon="6.66078">
        <ele>201.72203063965</ele>
        <time>2011-06-02T10:22:31Z</time>
      </trkpt>
      <trkpt lat="43.56882" lon="6.6606">
        <ele>204.0262298584</ele>
        <time>2011-06-02T10:22:38Z</time>
      </trkpt>
      <trkpt lat="43.56881" lon="6.66054">
        <ele>204.80574035644</ele>
        <time>2011-06-02T10:22:40Z</time>
      </trkpt>
      <trkpt lat="43.56873" lon="6.66039">
        <ele>206.18629455566</ele>
        <time>2011-06-02T10:22:46Z</time>
      </trkpt>
      <trkpt lat="43.5686" lon="6.66041">
        <ele>204.85809326172</ele>
        <time>2011-06-02T10:22:51Z</time>
      </trkpt>
      <trkpt lat="43.5684" lon="6.6604">
        <ele>203.26885986328</ele>
        <time>2011-06-02T10:22:59Z</time>
      </trkpt>
      <trkpt lat="43.56818" lon="6.66029">
        <ele>202.52586364746</ele>
        <time>2011-06-02T10:23:06Z</time>
      </trkpt>
      <trkpt lat="43.56806" lon="6.66006">
        <ele>203.0047454834</ele>
        <time>2011-06-02T10:23:11Z</time>
      </trkpt>
      <trkpt lat="43.56797" lon="6.65998">
        <ele>202.85443115234</ele>
        <time>2011-06-02T10:23:13Z</time>
      </trkpt>
      <trkpt lat="43.56777" lon="6.65982">
        <ele>202.28764343262</ele>
        <time>2011-06-02T10:23:17Z</time>
      </trkpt>
      <trkpt lat="43.56767" lon="6.65945">
        <ele>203.46411132812</ele>
        <time>2011-06-02T10:23:22Z</time>
      </trkpt>
      <trkpt lat="43.56759" lon="6.65917">
        <ele>203.43656921387</ele>
        <time>2011-06-02T10:23:26Z</time>
      </trkpt>
      <trkpt lat="43.56751" lon="6.65899">
        <ele>202.75096130371</ele>
        <time>2011-06-02T10:23:30Z</time>
      </trkpt>
      <trkpt lat="43.56738" lon="6.65885">
        <ele>202.71797180176</ele>
        <time>2011-06-02T10:23:34Z</time>
      </trkpt>
      <trkpt lat="43.56729" lon="6.65874">
        <ele>202.83741760254</ele>
        <time>2011-06-02T10:23:37Z</time>
      </trkpt>
      <trkpt lat="43.56709" lon="6.65849">
        <ele>202.31986999512</ele>
        <time>2011-06-02T10:23:42Z</time>
      </trkpt>
      <trkpt lat="43.56701" lon="6.6584">
        <ele>201.79650878906</ele>
        <time>2011-06-02T10:23:44Z</time>
      </trkpt>
      <trkpt lat="43.56696" lon="6.65835">
        <ele>201.44512939453</ele>
        <time>2011-06-02T10:23:45Z</time>
      </trkpt>
      <trkpt lat="43.56668" lon="6.65806">
        <ele>198.56285095215</ele>
        <time>2011-06-02T10:23:50Z</time>
      </trkpt>
      <trkpt lat="43.56632" lon="6.65771">
        <ele>197.81813049316</ele>
        <time>2011-06-02T10:23:56Z</time>
      </trkpt>
      <trkpt lat="43.56626" lon="6.65766">
        <ele>197.7467956543</ele>
        <time>2011-06-02T10:23:57Z</time>
      </trkpt>
      <trkpt lat="43.5659" lon="6.6573">
        <ele>197.62872314453</ele>
        <time>2011-06-02T10:24:04Z</time>
      </trkpt>
      <trkpt lat="43.56586" lon="6.65726">
        <ele>197.63246154785</ele>
        <time>2011-06-02T10:24:05Z</time>
      </trkpt>
      <trkpt lat="43.56571" lon="6.65717">
        <ele>197.28723144531</ele>
        <time>2011-06-02T10:24:09Z</time>
      </trkpt>
      <trkpt lat="43.56538" lon="6.65709">
        <ele>196.10375976562</ele>
        <time>2011-06-02T10:24:17Z</time>
      </trkpt>
      <trkpt lat="43.56517" lon="6.65694">
        <ele>195.44195556641</ele>
        <time>2011-06-02T10:24:24Z</time>
      </trkpt>
      <trkpt lat="43.56502" lon="6.65681">
        <ele>194.92765808106</ele>
        <time>2011-06-02T10:24:29Z</time>
      </trkpt>
      <trkpt lat="43.5649" lon="6.65671">
        <ele>194.60647583008</ele>
        <time>2011-06-02T10:24:33Z</time>
      </trkpt>
      <trkpt lat="43.56467" lon="6.6565">
        <ele>194.32495117188</ele>
        <time>2011-06-02T10:24:40Z</time>
      </trkpt>
      <trkpt lat="43.56455" lon="6.65634">
        <ele>194.3293762207</ele>
        <time>2011-06-02T10:24:44Z</time>
      </trkpt>
      <trkpt lat="43.56451" lon="6.6563">
        <ele>194.27174377441</ele>
        <time>2011-06-02T10:24:45Z</time>
      </trkpt>
      <trkpt lat="43.56434" lon="6.65619">
        <ele>193.90296936035</ele>
        <time>2011-06-02T10:24:49Z</time>
      </trkpt>
      <trkpt lat="43.56423" lon="6.65614">
        <ele>193.54023742676</ele>
        <time>2011-06-02T10:24:52Z</time>
      </trkpt>
      <trkpt lat="43.56406" lon="6.65609">
        <ele>193.17094421387</ele>
        <time>2011-06-02T10:24:56Z</time>
      </trkpt>
      <trkpt lat="43.5638" lon="6.65602">
        <ele>192.62754821777</ele>
        <time>2011-06-02T10:25:04Z</time>
      </trkpt>
      <trkpt lat="43.56361" lon="6.65597">
        <ele>192.11685180664</ele>
        <time>2011-06-02T10:25:10Z</time>
      </trkpt>
      <trkpt lat="43.56346" lon="6.65594">
        <ele>191.62356567383</ele>
        <time>2011-06-02T10:25:16Z</time>
      </trkpt>
      <trkpt lat="43.56334" lon="6.65593">
        <ele>191.25831604004</ele>
        <time>2011-06-02T10:25:20Z</time>
      </trkpt>
      <trkpt lat="43.56318" lon="6.65592">
        <ele>191.92210388184</ele>
        <time>2011-06-02T10:25:25Z</time>
      </trkpt>
      <trkpt lat="43.56299" lon="6.6559">
        <ele>192.76153564453</ele>
        <time>2011-06-02T10:25:31Z</time>
      </trkpt>
      <trkpt lat="43.56281" lon="6.65588">
        <ele>193.61396789551</ele>
        <time>2011-06-02T10:25:37Z</time>
      </trkpt>
      <trkpt lat="43.56257" lon="6.65588">
        <ele>194.72604370117</ele>
        <time>2011-06-02T10:25:44Z</time>
      </trkpt>
      <trkpt lat="43.56233" lon="6.65589">
        <ele>195.67280578613</ele>
        <time>2011-06-02T10:25:52Z</time>
      </trkpt>
      <trkpt lat="43.56231" lon="6.65589">
        <ele>195.75805664062</ele>
        <time>2011-06-02T10:25:53Z</time>
      </trkpt>
      <trkpt lat="43.56215" lon="6.65589">
        <ele>196.35029602051</ele>
        <time>2011-06-02T10:26:01Z</time>
      </trkpt>
      <trkpt lat="43.56204" lon="6.65589">
        <ele>196.71650695801</ele>
        <time>2011-06-02T10:26:07Z</time>
      </trkpt>
      <trkpt lat="43.5619" lon="6.6559">
        <ele>197.2526550293</ele>
        <time>2011-06-02T10:26:14Z</time>
      </trkpt>
      <trkpt lat="43.5618" lon="6.65594">
        <ele>197.65263366699</ele>
        <time>2011-06-02T10:26:19Z</time>
      </trkpt>
      <trkpt lat="43.56168" lon="6.65596">
        <ele>198.12127685547</ele>
        <time>2011-06-02T10:26:26Z</time>
      </trkpt>
      <trkpt lat="43.56155" lon="6.65596">
        <ele>198.52267456055</ele>
        <time>2011-06-02T10:26:33Z</time>
      </trkpt>
      <trkpt lat="43.56149" lon="6.65598">
        <ele>198.70193481445</ele>
        <time>2011-06-02T10:26:36Z</time>
      </trkpt>
      <trkpt lat="43.56146" lon="6.6559">
        <ele>198.76858520508</ele>
        <time>2011-06-02T10:26:41Z</time>
      </trkpt>
      <trkpt lat="43.56147" lon="6.65588">
        <ele>198.72557067871</ele>
        <time>2011-06-02T10:26:42Z</time>
      </trkpt>
      <trkpt lat="43.56156" lon="6.65579">
        <ele>198.68597412109</ele>
        <time>2011-06-02T10:26:49Z</time>
      </trkpt>
      <trkpt lat="43.56165" lon="6.65574">
        <ele>198.64190673828</ele>
        <time>2011-06-02T10:26:55Z</time>
      </trkpt>
      <trkpt lat="43.56174" lon="6.65568">
        <ele>198.51261901856</ele>
        <time>2011-06-02T10:27:00Z</time>
      </trkpt>
      <trkpt lat="43.56183" lon="6.65565">
        <ele>198.2233581543</ele>
        <time>2011-06-02T10:27:05Z</time>
      </trkpt>
      <trkpt lat="43.56192" lon="6.65561">
        <ele>197.87376403809</ele>
        <time>2011-06-02T10:27:10Z</time>
      </trkpt>
      <trkpt lat="43.56202" lon="6.65555">
        <ele>197.38812255859</ele>
        <time>2011-06-02T10:27:16Z</time>
      </trkpt>
      <trkpt lat="43.56213" lon="6.65544">
        <ele>196.85536193848</ele>
        <time>2011-06-02T10:27:23Z</time>
      </trkpt>
      <trkpt lat="43.56223" lon="6.65531">
        <ele>196.14743041992</ele>
        <time>2011-06-02T10:27:30Z</time>
      </trkpt>
      <trkpt lat="43.56232" lon="6.65517">
        <ele>195.28962707519</ele>
        <time>2011-06-02T10:27:37Z</time>
      </trkpt>
      <trkpt lat="43.56231" lon="6.65497">
        <ele>195.23483276367</ele>
        <time>2011-06-02T10:27:44Z</time>
      </trkpt>
      <trkpt lat="43.56223" lon="6.65481">
        <ele>195.57844543457</ele>
        <time>2011-06-02T10:27:50Z</time>
      </trkpt>
      <trkpt lat="43.56221" lon="6.65477">
        <ele>195.66481018066</ele>
        <time>2011-06-02T10:27:52Z</time>
      </trkpt>
      <trkpt lat="43.56215" lon="6.65461">
        <ele>195.73722839356</ele>
        <time>2011-06-02T10:27:59Z</time>
      </trkpt>
      <trkpt lat="43.5621" lon="6.65446">
        <ele>195.53709411621</ele>
        <time>2011-06-02T10:28:05Z</time>
      </trkpt>
      <trkpt lat="43.56202" lon="6.6543">
        <ele>195.61167907715</ele>
        <time>2011-06-02T10:28:12Z</time>
      </trkpt>
      <trkpt lat="43.56193" lon="6.65412">
        <ele>195.56855773926</ele>
        <time>2011-06-02T10:28:18Z</time>
      </trkpt>
      <trkpt lat="43.56183" lon="6.65397">
        <ele>195.4884185791</ele>
        <time>2011-06-02T10:28:25Z</time>
      </trkpt>
      <trkpt lat="43.56176" lon="6.65387">
        <ele>195.31182861328</ele>
        <time>2011-06-02T10:28:31Z</time>
      </trkpt>
      <trkpt lat="43.56162" lon="6.6538">
        <ele>195.83116149902</ele>
        <time>2011-06-02T10:28:38Z</time>
      </trkpt>
      <trkpt lat="43.5615" lon="6.65381">
        <ele>197.01924133301</ele>
        <time>2011-06-02T10:28:44Z</time>
      </trkpt>
      <trkpt lat="43.56141" lon="6.65384">
        <ele>198.22679138184</ele>
        <time>2011-06-02T10:28:49Z</time>
      </trkpt>
      <trkpt lat="43.56128" lon="6.65394">
        <ele>200.49459838867</ele>
        <time>2011-06-02T10:28:56Z</time>
      </trkpt>
      <trkpt lat="43.56126" lon="6.65396">
        <ele>200.87582397461</ele>
        <time>2011-06-02T10:28:57Z</time>
      </trkpt>
      <trkpt lat="43.56112" lon="6.65404">
        <ele>203.3010559082</ele>
        <time>2011-06-02T10:29:05Z</time>
      </trkpt>
      <trkpt lat="43.56099" lon="6.65413">
        <ele>205.75987243652</ele>
        <time>2011-06-02T10:29:12Z</time>
      </trkpt>
      <trkpt lat="43.56084" lon="6.65427">
        <ele>209.01402282715</ele>
        <time>2011-06-02T10:29:20Z</time>
      </trkpt>
      <trkpt lat="43.56069" lon="6.65436">
        <ele>212.90367126465</ele>
        <time>2011-06-02T10:29:28Z</time>
      </trkpt>
      <trkpt lat="43.56062" lon="6.65445">
        <ele>215.25811767578</ele>
        <time>2011-06-02T10:29:33Z</time>
      </trkpt>
      <trkpt lat="43.56054" lon="6.65455">
        <ele>217.74488830566</ele>
        <time>2011-06-02T10:29:38Z</time>
      </trkpt>
      <trkpt lat="43.56042" lon="6.65465">
        <ele>220.62794494629</ele>
        <time>2011-06-02T10:29:45Z</time>
      </trkpt>
      <trkpt lat="43.56033" lon="6.65462">
        <ele>222.14692687988</ele>
        <time>2011-06-02T10:29:51Z</time>
      </trkpt>
      <trkpt lat="43.56017" lon="6.65458">
        <ele>224.77651977539</ele>
        <time>2011-06-02T10:29:59Z</time>
      </trkpt>
      <trkpt lat="43.56002" lon="6.65457">
        <ele>227.54243469238</ele>
        <time>2011-06-02T10:30:07Z</time>
      </trkpt>
      <trkpt lat="43.55992" lon="6.65456">
        <ele>229.24319458008</ele>
        <time>2011-06-02T10:30:13Z</time>
      </trkpt>
      <trkpt lat="43.55986" lon="6.65453">
        <ele>230.09167480469</ele>
        <time>2011-06-02T10:30:17Z</time>
      </trkpt>
      <trkpt lat="43.55975" lon="6.65445">
        <ele>231.82829284668</ele>
        <time>2011-06-02T10:30:22Z</time>
      </trkpt>
      <trkpt lat="43.55961" lon="6.6544">
        <ele>234.11756896973</ele>
        <time>2011-06-02T10:30:29Z</time>
      </trkpt>
      <trkpt lat="43.5595" lon="6.65438">
        <ele>236.11811828613</ele>
        <time>2011-06-02T10:30:34Z</time>
      </trkpt>
      <trkpt lat="43.55939" lon="6.65442">
        <ele>238.14768981934</ele>
        <time>2011-06-02T10:30:40Z</time>
      </trkpt>
      <trkpt lat="43.55923" lon="6.65449">
        <ele>240.73382568359</ele>
        <time>2011-06-02T10:30:47Z</time>
      </trkpt>
      <trkpt lat="43.5591" lon="6.65458">
        <ele>242.50941467285</ele>
        <time>2011-06-02T10:30:53Z</time>
      </trkpt>
      <trkpt lat="43.55904" lon="6.65458">
        <ele>243.44104003906</ele>
        <time>2011-06-02T10:30:56Z</time>
      </trkpt>
      <trkpt lat="43.559" lon="6.65451">
        <ele>244.39974975586</ele>
        <time>2011-06-02T10:31:00Z</time>
      </trkpt>
      <trkpt lat="43.559" lon="6.65437">
        <ele>245.29988098144</ele>
        <time>2011-06-02T10:31:07Z</time>
      </trkpt>
      <trkpt lat="43.55902" lon="6.65423">
        <ele>245.87867736816</ele>
        <time>2011-06-02T10:31:13Z</time>
      </trkpt>
      <trkpt lat="43.55906" lon="6.654">
        <ele>246.05763244629</ele>
        <time>2011-06-02T10:31:21Z</time>
      </trkpt>
      <trkpt lat="43.5591" lon="6.65378">
        <ele>245.72518920898</ele>
        <time>2011-06-02T10:31:29Z</time>
      </trkpt>
      <trkpt lat="43.55917" lon="6.65357">
        <ele>244.35980224609</ele>
        <time>2011-06-02T10:31:37Z</time>
      </trkpt>
      <trkpt lat="43.55919" lon="6.65337">
        <ele>244.39125061035</ele>
        <time>2011-06-02T10:31:44Z</time>
      </trkpt>
      <trkpt lat="43.55919" lon="6.65324">
        <ele>244.92559814453</ele>
        <time>2011-06-02T10:31:50Z</time>
      </trkpt>
      <trkpt lat="43.55914" lon="6.65306">
        <ele>247.27352905273</ele>
        <time>2011-06-02T10:31:56Z</time>
      </trkpt>
      <trkpt lat="43.5591" lon="6.65288">
        <ele>249.3232421875</ele>
        <time>2011-06-02T10:32:02Z</time>
      </trkpt>
      <trkpt lat="43.55909" lon="6.65273">
        <ele>250.62205505371</ele>
        <time>2011-06-02T10:32:08Z</time>
      </trkpt>
      <trkpt lat="43.55906" lon="6.65252">
        <ele>252.76286315918</ele>
        <time>2011-06-02T10:32:15Z</time>
      </trkpt>
      <trkpt lat="43.55907" lon="6.65232">
        <ele>253.71713256836</ele>
        <time>2011-06-02T10:32:21Z</time>
      </trkpt>
      <trkpt lat="43.55909" lon="6.65215">
        <ele>254.24555969238</ele>
        <time>2011-06-02T10:32:27Z</time>
      </trkpt>
      <trkpt lat="43.55906" lon="6.65195">
        <ele>256.8942565918</ele>
        <time>2011-06-02T10:32:34Z</time>
      </trkpt>
      <trkpt lat="43.55908" lon="6.65183">
        <ele>256.79794311523</ele>
        <time>2011-06-02T10:32:39Z</time>
      </trkpt>
      <trkpt lat="43.55914" lon="6.65172">
        <ele>255.71508789062</ele>
        <time>2011-06-02T10:32:44Z</time>
      </trkpt>
      <trkpt lat="43.55919" lon="6.65157">
        <ele>255.50717163086</ele>
        <time>2011-06-02T10:32:51Z</time>
      </trkpt>
      <trkpt lat="43.55921" lon="6.65137">
        <ele>256.92608642578</ele>
        <time>2011-06-02T10:32:58Z</time>
      </trkpt>
      <trkpt lat="43.55925" lon="6.65122">
        <ele>258.05111694336</ele>
        <time>2011-06-02T10:33:04Z</time>
      </trkpt>
      <trkpt lat="43.55931" lon="6.65105">
        <ele>259.26974487305</ele>
        <time>2011-06-02T10:33:11Z</time>
      </trkpt>
      <trkpt lat="43.55932" lon="6.65104">
        <ele>259.35464477539</ele>
        <time>2011-06-02T10:33:12Z</time>
      </trkpt>
      <trkpt lat="43.55942" lon="6.65108">
        <ele>258.23434448242</ele>
        <time>2011-06-02T10:33:18Z</time>
      </trkpt>
      <trkpt lat="43.55949" lon="6.65121">
        <ele>255.95556640625</ele>
        <time>2011-06-02T10:33:25Z</time>
      </trkpt>
      <trkpt lat="43.55958" lon="6.65131">
        <ele>253.54791259766</ele>
        <time>2011-06-02T10:33:32Z</time>
      </trkpt>
      <trkpt lat="43.55965" lon="6.65142">
        <ele>251.03732299805</ele>
        <time>2011-06-02T10:33:38Z</time>
      </trkpt>
      <trkpt lat="43.55974" lon="6.65149">
        <ele>248.54501342773</ele>
        <time>2011-06-02T10:33:43Z</time>
      </trkpt>
      <trkpt lat="43.55981" lon="6.65152">
        <ele>246.91125488281</ele>
        <time>2011-06-02T10:33:47Z</time>
      </trkpt>
      <trkpt lat="43.55992" lon="6.65147">
        <ele>246.49433898926</ele>
        <time>2011-06-02T10:33:53Z</time>
      </trkpt>
      <trkpt lat="43.56" lon="6.65132">
        <ele>248.90946960449</ele>
        <time>2011-06-02T10:34:00Z</time>
      </trkpt>
      <trkpt lat="43.56005" lon="6.65118">
        <ele>250.30979919434</ele>
        <time>2011-06-02T10:34:06Z</time>
      </trkpt>
      <trkpt lat="43.5601" lon="6.65103">
        <ele>251.72814941406</ele>
        <time>2011-06-02T10:34:12Z</time>
      </trkpt>
      <trkpt lat="43.56017" lon="6.65082">
        <ele>253.22384643555</ele>
        <time>2011-06-02T10:34:20Z</time>
      </trkpt>
      <trkpt lat="43.56021" lon="6.65064">
        <ele>254.81521606445</ele>
        <time>2011-06-02T10:34:26Z</time>
      </trkpt>
      <trkpt lat="43.56026" lon="6.6505">
        <ele>255.54301452637</ele>
        <time>2011-06-02T10:34:32Z</time>
      </trkpt>
      <trkpt lat="43.5603" lon="6.65029">
        <ele>257.92916870117</ele>
        <time>2011-06-02T10:34:40Z</time>
      </trkpt>
      <trkpt lat="43.56035" lon="6.65009">
        <ele>259.59060668945</ele>
        <time>2011-06-02T10:34:47Z</time>
      </trkpt>
      <trkpt lat="43.56041" lon="6.6499">
        <ele>260.80578613281</ele>
        <time>2011-06-02T10:34:54Z</time>
      </trkpt>
      <trkpt lat="43.56047" lon="6.64971">
        <ele>262.49633789062</ele>
        <time>2011-06-02T10:35:01Z</time>
      </trkpt>
      <trkpt lat="43.56052" lon="6.64954">
        <ele>263.69165039062</ele>
        <time>2011-06-02T10:35:07Z</time>
      </trkpt>
      <trkpt lat="43.5606" lon="6.64931">
        <ele>266.12002563477</ele>
        <time>2011-06-02T10:35:16Z</time>
      </trkpt>
      <trkpt lat="43.56067" lon="6.64908">
        <ele>268.66241455078</ele>
        <time>2011-06-02T10:35:24Z</time>
      </trkpt>
      <trkpt lat="43.56073" lon="6.64886">
        <ele>271.19647216797</ele>
        <time>2011-06-02T10:35:32Z</time>
      </trkpt>
      <trkpt lat="43.56076" lon="6.64873">
        <ele>272.91799926758</ele>
        <time>2011-06-02T10:35:37Z</time>
      </trkpt>
      <trkpt lat="43.56081" lon="6.64855">
        <ele>275.38305664062</ele>
        <time>2011-06-02T10:35:43Z</time>
      </trkpt>
      <trkpt lat="43.56085" lon="6.64842">
        <ele>276.5505065918</ele>
        <time>2011-06-02T10:35:48Z</time>
      </trkpt>
      <trkpt lat="43.5609" lon="6.64825">
        <ele>276.31518554688</ele>
        <time>2011-06-02T10:35:54Z</time>
      </trkpt>
      <trkpt lat="43.56098" lon="6.64801">
        <ele>275.88534545898</ele>
        <time>2011-06-02T10:36:02Z</time>
      </trkpt>
      <trkpt lat="43.56104" lon="6.64782">
        <ele>276.07452392578</ele>
        <time>2011-06-02T10:36:09Z</time>
      </trkpt>
      <trkpt lat="43.56109" lon="6.64765">
        <ele>276.27069091797</ele>
        <time>2011-06-02T10:36:15Z</time>
      </trkpt>
      <trkpt lat="43.56113" lon="6.64752">
        <ele>276.57278442383</ele>
        <time>2011-06-02T10:36:21Z</time>
      </trkpt>
      <trkpt lat="43.56115" lon="6.64745">
        <ele>276.59661865234</ele>
        <time>2011-06-02T10:36:24Z</time>
      </trkpt>
      <trkpt lat="43.56121" lon="6.64731">
        <ele>275.46270751953</ele>
        <time>2011-06-02T10:36:29Z</time>
      </trkpt>
      <trkpt lat="43.56126" lon="6.64715">
        <ele>275.10745239258</ele>
        <time>2011-06-02T10:36:35Z</time>
      </trkpt>
      <trkpt lat="43.56131" lon="6.64706">
        <ele>274.24948120117</ele>
        <time>2011-06-02T10:36:39Z</time>
      </trkpt>
      <trkpt lat="43.56141" lon="6.64688">
        <ele>272.86181640625</ele>
        <time>2011-06-02T10:36:47Z</time>
      </trkpt>
      <trkpt lat="43.56149" lon="6.6467">
        <ele>272.60690307617</ele>
        <time>2011-06-02T10:36:54Z</time>
      </trkpt>
      <trkpt lat="43.56154" lon="6.64648">
        <ele>271.38836669922</ele>
        <time>2011-06-02T10:37:02Z</time>
      </trkpt>
      <trkpt lat="43.56154" lon="6.64632">
        <ele>271.44564819336</ele>
        <time>2011-06-02T10:37:08Z</time>
      </trkpt>
      <trkpt lat="43.56154" lon="6.64629">
        <ele>271.45553588867</ele>
        <time>2011-06-02T10:37:09Z</time>
      </trkpt>
      <trkpt lat="43.56152" lon="6.64608">
        <ele>272.36575317383</ele>
        <time>2011-06-02T10:37:16Z</time>
      </trkpt>
      <trkpt lat="43.56148" lon="6.64591">
        <ele>273.99069213867</ele>
        <time>2011-06-02T10:37:22Z</time>
      </trkpt>
      <trkpt lat="43.56145" lon="6.64575">
        <ele>273.83700561523</ele>
        <time>2011-06-02T10:37:28Z</time>
      </trkpt>
      <trkpt lat="43.56142" lon="6.64559">
        <ele>272.71340942383</ele>
        <time>2011-06-02T10:37:34Z</time>
      </trkpt>
      <trkpt lat="43.56139" lon="6.64545">
        <ele>271.85147094727</ele>
        <time>2011-06-02T10:37:39Z</time>
      </trkpt>
      <trkpt lat="43.56134" lon="6.64528">
        <ele>272.02453613281</ele>
        <time>2011-06-02T10:37:45Z</time>
      </trkpt>
      <trkpt lat="43.56126" lon="6.64508">
        <ele>273.6242980957</ele>
        <time>2011-06-02T10:37:53Z</time>
      </trkpt>
      <trkpt lat="43.56111" lon="6.64487">
        <ele>280.0856628418</ele>
        <time>2011-06-02T10:38:01Z</time>
      </trkpt>
      <trkpt lat="43.56101" lon="6.64473">
        <ele>284.55523681641</ele>
        <time>2011-06-02T10:38:07Z</time>
      </trkpt>
      <trkpt lat="43.56094" lon="6.6446">
        <ele>288.55786132812</ele>
        <time>2011-06-02T10:38:13Z</time>
      </trkpt>
      <trkpt lat="43.56087" lon="6.64442">
        <ele>291.79940795898</ele>
        <time>2011-06-02T10:38:21Z</time>
      </trkpt>
      <trkpt lat="43.56086" lon="6.64425">
        <ele>292.31744384766</ele>
        <time>2011-06-02T10:38:27Z</time>
      </trkpt>
      <trkpt lat="43.56081" lon="6.64402">
        <ele>293.42953491211</ele>
        <time>2011-06-02T10:38:35Z</time>
      </trkpt>
      <trkpt lat="43.56074" lon="6.64384">
        <ele>292.82275390625</ele>
        <time>2011-06-02T10:38:42Z</time>
      </trkpt>
      <trkpt lat="43.56063" lon="6.64373">
        <ele>292.57733154297</ele>
        <time>2011-06-02T10:38:48Z</time>
      </trkpt>
      <trkpt lat="43.56049" lon="6.64375">
        <ele>293.26187133789</ele>
        <time>2011-06-02T10:38:55Z</time>
      </trkpt>
      <trkpt lat="43.56039" lon="6.64392">
        <ele>295.07138061523</ele>
        <time>2011-06-02T10:39:02Z</time>
      </trkpt>
      <trkpt lat="43.56034" lon="6.64407">
        <ele>296.73931884766</ele>
        <time>2011-06-02T10:39:08Z</time>
      </trkpt>
      <trkpt lat="43.56026" lon="6.64431">
        <ele>298.20455932617</ele>
        <time>2011-06-02T10:39:17Z</time>
      </trkpt>
      <trkpt lat="43.56023" lon="6.64453">
        <ele>298.56015014648</ele>
        <time>2011-06-02T10:39:25Z</time>
      </trkpt>
      <trkpt lat="43.56018" lon="6.64475">
        <ele>298.98251342773</ele>
        <time>2011-06-02T10:39:32Z</time>
      </trkpt>
      <trkpt lat="43.5601" lon="6.64492">
        <ele>299.47506713867</ele>
        <time>2011-06-02T10:39:37Z</time>
      </trkpt>
      <trkpt lat="43.55992" lon="6.64508">
        <ele>299.12780761719</ele>
        <time>2011-06-02T10:39:43Z</time>
      </trkpt>
      <trkpt lat="43.5597" lon="6.64527">
        <ele>297.32620239258</ele>
        <time>2011-06-02T10:39:49Z</time>
      </trkpt>
      <trkpt lat="43.55962" lon="6.64535">
        <ele>296.92825317383</ele>
        <time>2011-06-02T10:39:51Z</time>
      </trkpt>
      <trkpt lat="43.55949" lon="6.6455">
        <ele>296.79333496094</ele>
        <time>2011-06-02T10:39:54Z</time>
      </trkpt>
      <trkpt lat="43.55933" lon="6.64579">
        <ele>298.03271484375</ele>
        <time>2011-06-02T10:39:58Z</time>
      </trkpt>
      <trkpt lat="43.55923" lon="6.64607">
        <ele>298.14477539062</ele>
        <time>2011-06-02T10:40:01Z</time>
      </trkpt>
      <trkpt lat="43.55893" lon="6.64661">
        <ele>293.62368774414</ele>
        <time>2011-06-02T10:40:07Z</time>
      </trkpt>
      <trkpt lat="43.55876" lon="6.64699">
        <ele>291.21951293945</ele>
        <time>2011-06-02T10:40:12Z</time>
      </trkpt>
      <trkpt lat="43.55864" lon="6.64735">
        <ele>291.16137695312</ele>
        <time>2011-06-02T10:40:17Z</time>
      </trkpt>
      <trkpt lat="43.55858" lon="6.6475">
        <ele>291.57662963867</ele>
        <time>2011-06-02T10:40:19Z</time>
      </trkpt>
      <trkpt lat="43.55845" lon="6.64793">
        <ele>294.02200317383</ele>
        <time>2011-06-02T10:40:25Z</time>
      </trkpt>
      <trkpt lat="43.55836" lon="6.64825">
        <ele>297.01565551758</ele>
        <time>2011-06-02T10:40:30Z</time>
      </trkpt>
      <trkpt lat="43.55832" lon="6.64835">
        <ele>298.18518066406</ele>
        <time>2011-06-02T10:40:32Z</time>
      </trkpt>
      <trkpt lat="43.5582" lon="6.64858">
        <ele>300.41082763672</ele>
        <time>2011-06-02T10:40:38Z</time>
      </trkpt>
      <trkpt lat="43.55806" lon="6.64871">
        <ele>302.7707824707</ele>
        <time>2011-06-02T10:40:43Z</time>
      </trkpt>
      <trkpt lat="43.55802" lon="6.64871">
        <ele>303.20733642578</ele>
        <time>2011-06-02T10:40:44Z</time>
      </trkpt>
      <trkpt lat="43.55775" lon="6.64864">
        <ele>305.98864746094</ele>
        <time>2011-06-02T10:40:52Z</time>
      </trkpt>
      <trkpt lat="43.55752" lon="6.64858">
        <ele>308.19549560547</ele>
        <time>2011-06-02T10:40:59Z</time>
      </trkpt>
      <trkpt lat="43.55733" lon="6.64858">
        <ele>310.35781860352</ele>
        <time>2011-06-02T10:41:05Z</time>
      </trkpt>
      <trkpt lat="43.55716" lon="6.64862">
        <ele>312.60504150391</ele>
        <time>2011-06-02T10:41:11Z</time>
      </trkpt>
      <trkpt lat="43.55697" lon="6.64856">
        <ele>314.32797241211</ele>
        <time>2011-06-02T10:41:18Z</time>
      </trkpt>
      <trkpt lat="43.55691" lon="6.64846">
        <ele>314.44229125977</ele>
        <time>2011-06-02T10:41:23Z</time>
      </trkpt>
      <trkpt lat="43.55686" lon="6.64834">
        <ele>314.48159790039</ele>
        <time>2011-06-02T10:41:28Z</time>
      </trkpt>
      <trkpt lat="43.55679" lon="6.64824">
        <ele>314.67120361328</ele>
        <time>2011-06-02T10:41:33Z</time>
      </trkpt>
      <trkpt lat="43.5567" lon="6.64814">
        <ele>315.04873657227</ele>
        <time>2011-06-02T10:41:39Z</time>
      </trkpt>
      <trkpt lat="43.55662" lon="6.64804">
        <ele>315.13467407227</ele>
        <time>2011-06-02T10:41:44Z</time>
      </trkpt>
      <trkpt lat="43.55653" lon="6.64792">
        <ele>314.83224487305</ele>
        <time>2011-06-02T10:41:50Z</time>
      </trkpt>
      <trkpt lat="43.55646" lon="6.64783">
        <ele>314.78497314453</ele>
        <time>2011-06-02T10:41:55Z</time>
      </trkpt>
      <trkpt lat="43.55636" lon="6.64776">
        <ele>315.12612915039</ele>
        <time>2011-06-02T10:42:00Z</time>
      </trkpt>
      <trkpt lat="43.55626" lon="6.64775">
        <ele>315.87554931641</ele>
        <time>2011-06-02T10:42:05Z</time>
      </trkpt>
      <trkpt lat="43.5561" lon="6.64781">
        <ele>317.1296081543</ele>
        <time>2011-06-02T10:42:12Z</time>
      </trkpt>
      <trkpt lat="43.55594" lon="6.64791">
        <ele>318.34176635742</ele>
        <time>2011-06-02T10:42:19Z</time>
      </trkpt>
      <trkpt lat="43.55578" lon="6.64801">
        <ele>318.65682983398</ele>
        <time>2011-06-02T10:42:27Z</time>
      </trkpt>
      <trkpt lat="43.55565" lon="6.64805">
        <ele>317.82305908203</ele>
        <time>2011-06-02T10:42:33Z</time>
      </trkpt>
      <trkpt lat="43.55551" lon="6.64816">
        <ele>316.8464050293</ele>
        <time>2011-06-02T10:42:39Z</time>
      </trkpt>
      <trkpt lat="43.55535" lon="6.64829">
        <ele>315.56268310547</ele>
        <time>2011-06-02T10:42:46Z</time>
      </trkpt>
      <trkpt lat="43.55517" lon="6.64851">
        <ele>313.69268798828</ele>
        <time>2011-06-02T10:42:52Z</time>
      </trkpt>
      <trkpt lat="43.55499" lon="6.64873">
        <ele>311.46124267578</ele>
        <time>2011-06-02T10:42:58Z</time>
      </trkpt>
      <trkpt lat="43.55483" lon="6.64893">
        <ele>309.17758178711</ele>
        <time>2011-06-02T10:43:03Z</time>
      </trkpt>
      <trkpt lat="43.55466" lon="6.64913">
        <ele>307.21676635742</ele>
        <time>2011-06-02T10:43:08Z</time>
      </trkpt>
      <trkpt lat="43.55438" lon="6.64948">
        <ele>304.14898681641</ele>
        <time>2011-06-02T10:43:14Z</time>
      </trkpt>
      <trkpt lat="43.55411" lon="6.64988">
        <ele>302.07205200195</ele>
        <time>2011-06-02T10:43:19Z</time>
      </trkpt>
      <trkpt lat="43.55393" lon="6.65009">
        <ele>301.61322021484</ele>
        <time>2011-06-02T10:43:22Z</time>
      </trkpt>
      <trkpt lat="43.55368" lon="6.65045">
        <ele>300.88250732422</ele>
        <time>2011-06-02T10:43:27Z</time>
      </trkpt>
      <trkpt lat="43.55351" lon="6.65052">
        <ele>300.59356689453</ele>
        <time>2011-06-02T10:43:30Z</time>
      </trkpt>
      <trkpt lat="43.55339" lon="6.65035">
        <ele>300.6462097168</ele>
        <time>2011-06-02T10:43:33Z</time>
      </trkpt>
      <trkpt lat="43.55324" lon="6.64991">
        <ele>300.69384765625</ele>
        <time>2011-06-02T10:43:39Z</time>
      </trkpt>
      <trkpt lat="43.55306" lon="6.64963">
        <ele>300.30966186523</ele>
        <time>2011-06-02T10:43:43Z</time>
      </trkpt>
      <trkpt lat="43.55295" lon="6.64938">
        <ele>300.31173706055</ele>
        <time>2011-06-02T10:43:47Z</time>
      </trkpt>
      <trkpt lat="43.55293" lon="6.64926">
        <ele>300.40762329102</ele>
        <time>2011-06-02T10:43:49Z</time>
      </trkpt>
      <trkpt lat="43.55278" lon="6.64888">
        <ele>297.55838012695</ele>
        <time>2011-06-02T10:43:56Z</time>
      </trkpt>
      <trkpt lat="43.5526" lon="6.64873">
        <ele>296.21618652344</ele>
        <time>2011-06-02T10:44:00Z</time>
      </trkpt>
      <trkpt lat="43.55242" lon="6.64874">
        <ele>296.37945556641</ele>
        <time>2011-06-02T10:44:03Z</time>
      </trkpt>
      <trkpt lat="43.55222" lon="6.64883">
        <ele>296.70785522461</ele>
        <time>2011-06-02T10:44:06Z</time>
      </trkpt>
      <trkpt lat="43.55185" lon="6.649">
        <ele>296.10171508789</ele>
        <time>2011-06-02T10:44:12Z</time>
      </trkpt>
      <trkpt lat="43.5518" lon="6.64902">
        <ele>295.87942504883</ele>
        <time>2011-06-02T10:44:13Z</time>
      </trkpt>
      <trkpt lat="43.55167" lon="6.64913">
        <ele>295.1369934082</ele>
        <time>2011-06-02T10:44:18Z</time>
      </trkpt>
      <trkpt lat="43.55165" lon="6.64912">
        <ele>295.30935668945</ele>
        <time>2011-06-02T10:44:21Z</time>
      </trkpt>
      <trkpt lat="43.55157" lon="6.64904">
        <ele>296.23709106445</ele>
        <time>2011-06-02T10:44:26Z</time>
      </trkpt>
      <trkpt lat="43.55154" lon="6.64903">
        <ele>296.50769042969</ele>
        <time>2011-06-02T10:44:27Z</time>
      </trkpt>
      <trkpt lat="43.55146" lon="6.64898">
        <ele>297.33303833008</ele>
        <time>2011-06-02T10:44:30Z</time>
      </trkpt>
      <trkpt lat="43.55129" lon="6.64878">
        <ele>299.30731201172</ele>
        <time>2011-06-02T10:44:37Z</time>
      </trkpt>
      <trkpt lat="43.55119" lon="6.64865">
        <ele>300.47271728516</ele>
        <time>2011-06-02T10:44:42Z</time>
      </trkpt>
      <trkpt lat="43.55106" lon="6.64848">
        <ele>301.90093994141</ele>
        <time>2011-06-02T10:44:48Z</time>
      </trkpt>
      <trkpt lat="43.55101" lon="6.64844">
        <ele>302.38977050781</ele>
        <time>2011-06-02T10:44:50Z</time>
      </trkpt>
      <trkpt lat="43.55101" lon="6.64829">
        <ele>303.07046508789</ele>
        <time>2011-06-02T10:44:55Z</time>
      </trkpt>
      <trkpt lat="43.55105" lon="6.64825">
        <ele>303.25527954102</ele>
        <time>2011-06-02T10:44:57Z</time>
      </trkpt>
      <trkpt lat="43.55122" lon="6.64815">
        <ele>302.78610229492</ele>
        <time>2011-06-02T10:45:05Z</time>
      </trkpt>
      <trkpt lat="43.55129" lon="6.64805">
        <ele>302.90246582031</ele>
        <time>2011-06-02T10:45:10Z</time>
      </trkpt>
      <trkpt lat="43.55136" lon="6.64787">
        <ele>303.57034301758</ele>
        <time>2011-06-02T10:45:18Z</time>
      </trkpt>
      <trkpt lat="43.55144" lon="6.64773">
        <ele>303.54663085938</ele>
        <time>2011-06-02T10:45:25Z</time>
      </trkpt>
      <trkpt lat="43.55146" lon="6.64769">
        <ele>303.57965087891</ele>
        <time>2011-06-02T10:45:27Z</time>
      </trkpt>
      <trkpt lat="43.55153" lon="6.64748">
        <ele>303.78079223633</ele>
        <time>2011-06-02T10:45:35Z</time>
      </trkpt>
      <trkpt lat="43.55154" lon="6.64745">
        <ele>303.80264282227</ele>
        <time>2011-06-02T10:45:37Z</time>
      </trkpt>
      <trkpt lat="43.55159" lon="6.64735">
        <ele>303.76089477539</ele>
        <time>2011-06-02T10:45:44Z</time>
      </trkpt>
      <trkpt lat="43.55167" lon="6.64722">
        <ele>303.31701660156</ele>
        <time>2011-06-02T10:45:51Z</time>
      </trkpt>
      <trkpt lat="43.55174" lon="6.64708">
        <ele>302.73876953125</ele>
        <time>2011-06-02T10:45:57Z</time>
      </trkpt>
      <trkpt lat="43.55182" lon="6.64689">
        <ele>302.2825012207</ele>
        <time>2011-06-02T10:46:05Z</time>
      </trkpt>
      <trkpt lat="43.55187" lon="6.64668">
        <ele>302.1208190918</ele>
        <time>2011-06-02T10:46:13Z</time>
      </trkpt>
      <trkpt lat="43.55188" lon="6.64644">
        <ele>303.44546508789</ele>
        <time>2011-06-02T10:46:21Z</time>
      </trkpt>
      <trkpt lat="43.5518" lon="6.6463">
        <ele>306.57263183594</ele>
        <time>2011-06-02T10:46:27Z</time>
      </trkpt>
      <trkpt lat="43.55164" lon="6.64618">
        <ele>312.18557739258</ele>
        <time>2011-06-02T10:46:35Z</time>
      </trkpt>
      <trkpt lat="43.55146" lon="6.64604">
        <ele>318.53982543945</ele>
        <time>2011-06-02T10:46:45Z</time>
      </trkpt>
      <trkpt lat="43.55139" lon="6.64592">
        <ele>321.74884033203</ele>
        <time>2011-06-02T10:46:51Z</time>
      </trkpt>
      <trkpt lat="43.55132" lon="6.6458">
        <ele>325.01986694336</ele>
        <time>2011-06-02T10:46:57Z</time>
      </trkpt>
      <trkpt lat="43.5513" lon="6.64569">
        <ele>326.64965820312</ele>
        <time>2011-06-02T10:47:01Z</time>
      </trkpt>
      <trkpt lat="43.5513" lon="6.64554">
        <ele>327.74780273438</ele>
        <time>2011-06-02T10:47:06Z</time>
      </trkpt>
      <trkpt lat="43.5513" lon="6.64544">
        <ele>328.53015136719</ele>
        <time>2011-06-02T10:47:10Z</time>
      </trkpt>
      <trkpt lat="43.5513" lon="6.64529">
        <ele>329.8974609375</ele>
        <time>2011-06-02T10:47:15Z</time>
      </trkpt>
      <trkpt lat="43.55135" lon="6.64513">
        <ele>329.5690612793</ele>
        <time>2011-06-02T10:47:21Z</time>
      </trkpt>
      <trkpt lat="43.5514" lon="6.64504">
        <ele>328.50485229492</ele>
        <time>2011-06-02T10:47:26Z</time>
      </trkpt>
      <trkpt lat="43.55149" lon="6.64492">
        <ele>326.17391967773</ele>
        <time>2011-06-02T10:47:32Z</time>
      </trkpt>
      <trkpt lat="43.55159" lon="6.6447">
        <ele>324.03598022461</ele>
        <time>2011-06-02T10:47:39Z</time>
      </trkpt>
      <trkpt lat="43.55164" lon="6.64448">
        <ele>323.54095458984</ele>
        <time>2011-06-02T10:47:46Z</time>
      </trkpt>
      <trkpt lat="43.5517" lon="6.64426">
        <ele>322.68008422852</ele>
        <time>2011-06-02T10:47:54Z</time>
      </trkpt>
      <trkpt lat="43.55172" lon="6.64404">
        <ele>322.99905395508</ele>
        <time>2011-06-02T10:48:00Z</time>
      </trkpt>
      <trkpt lat="43.55173" lon="6.64387">
        <ele>323.498046875</ele>
        <time>2011-06-02T10:48:05Z</time>
      </trkpt>
      <trkpt lat="43.55175" lon="6.64374">
        <ele>323.73965454102</ele>
        <time>2011-06-02T10:48:10Z</time>
      </trkpt>
      <trkpt lat="43.55183" lon="6.64361">
        <ele>322.11566162109</ele>
        <time>2011-06-02T10:48:16Z</time>
      </trkpt>
      <trkpt lat="43.55191" lon="6.64349">
        <ele>320.81201171875</ele>
        <time>2011-06-02T10:48:21Z</time>
      </trkpt>
      <trkpt lat="43.55191" lon="6.64334">
        <ele>321.40368652344</ele>
        <time>2011-06-02T10:48:26Z</time>
      </trkpt>
      <trkpt lat="43.55188" lon="6.64318">
        <ele>322.09307861328</ele>
        <time>2011-06-02T10:48:32Z</time>
      </trkpt>
      <trkpt lat="43.55187" lon="6.64315">
        <ele>322.23175048828</ele>
        <time>2011-06-02T10:48:33Z</time>
      </trkpt>
      <trkpt lat="43.5518" lon="6.64302">
        <ele>323.67883300781</ele>
        <time>2011-06-02T10:48:39Z</time>
      </trkpt>
      <trkpt lat="43.55172" lon="6.6429">
        <ele>325.09594726562</ele>
        <time>2011-06-02T10:48:44Z</time>
      </trkpt>
      <trkpt lat="43.55161" lon="6.64275">
        <ele>327.37445068359</ele>
        <time>2011-06-02T10:48:51Z</time>
      </trkpt>
      <trkpt lat="43.55151" lon="6.64259">
        <ele>329.19827270508</ele>
        <time>2011-06-02T10:48:58Z</time>
      </trkpt>
      <trkpt lat="43.55141" lon="6.64243">
        <ele>329.61703491211</ele>
        <time>2011-06-02T10:49:05Z</time>
      </trkpt>
      <trkpt lat="43.55132" lon="6.6423">
        <ele>329.14825439453</ele>
        <time>2011-06-02T10:49:11Z</time>
      </trkpt>
      <trkpt lat="43.55122" lon="6.6422">
        <ele>329.17538452148</ele>
        <time>2011-06-02T10:49:16Z</time>
      </trkpt>
      <trkpt lat="43.55113" lon="6.6421">
        <ele>328.69052124023</ele>
        <time>2011-06-02T10:49:21Z</time>
      </trkpt>
      <trkpt lat="43.55106" lon="6.64203">
        <ele>328.72360229492</ele>
        <time>2011-06-02T10:49:26Z</time>
      </trkpt>
      <trkpt lat="43.55093" lon="6.64194">
        <ele>328.98822021484</ele>
        <time>2011-06-02T10:49:32Z</time>
      </trkpt>
      <trkpt lat="43.55079" lon="6.6419">
        <ele>330.78286743164</ele>
        <time>2011-06-02T10:49:39Z</time>
      </trkpt>
      <trkpt lat="43.55072" lon="6.64188">
        <ele>331.31420898438</ele>
        <time>2011-06-02T10:49:42Z</time>
      </trkpt>
      <trkpt lat="43.55065" lon="6.64184">
        <ele>331.86227416992</ele>
        <time>2011-06-02T10:49:46Z</time>
      </trkpt>
      <trkpt lat="43.55049" lon="6.6418">
        <ele>333.58297729492</ele>
        <time>2011-06-02T10:49:53Z</time>
      </trkpt>
      <trkpt lat="43.55047" lon="6.64179">
        <ele>333.82836914062</ele>
        <time>2011-06-02T10:49:54Z</time>
      </trkpt>
      <trkpt lat="43.55038" lon="6.64174">
        <ele>334.05520629883</ele>
        <time>2011-06-02T10:49:58Z</time>
      </trkpt>
      <trkpt lat="43.5502" lon="6.64172">
        <ele>336.70758056641</ele>
        <time>2011-06-02T10:50:06Z</time>
      </trkpt>
      <trkpt lat="43.55005" lon="6.64177">
        <ele>341.04708862305</ele>
        <time>2011-06-02T10:50:14Z</time>
      </trkpt>
      <trkpt lat="43.54993" lon="6.64188">
        <ele>345.57171630859</ele>
        <time>2011-06-02T10:50:21Z</time>
      </trkpt>
      <trkpt lat="43.54982" lon="6.64199">
        <ele>349.29107666016</ele>
        <time>2011-06-02T10:50:28Z</time>
      </trkpt>
      <trkpt lat="43.54967" lon="6.64206">
        <ele>352.68594360352</ele>
        <time>2011-06-02T10:50:37Z</time>
      </trkpt>
      <trkpt lat="43.54958" lon="6.64209">
        <ele>354.15252685547</ele>
        <time>2011-06-02T10:50:43Z</time>
      </trkpt>
      <trkpt lat="43.54947" lon="6.64211">
        <ele>355.74554443359</ele>
        <time>2011-06-02T10:50:49Z</time>
      </trkpt>
      <trkpt lat="43.54932" lon="6.64213">
        <ele>357.48217773438</ele>
        <time>2011-06-02T10:50:58Z</time>
      </trkpt>
      <trkpt lat="43.54914" lon="6.64215">
        <ele>359.42788696289</ele>
        <time>2011-06-02T10:51:07Z</time>
      </trkpt>
      <trkpt lat="43.54902" lon="6.64216">
        <ele>359.93695068359</ele>
        <time>2011-06-02T10:51:13Z</time>
      </trkpt>
      <trkpt lat="43.54888" lon="6.64219">
        <ele>361.34368896484</ele>
        <time>2011-06-02T10:51:20Z</time>
      </trkpt>
      <trkpt lat="43.54874" lon="6.64225">
        <ele>363.40686035156</ele>
        <time>2011-06-02T10:51:27Z</time>
      </trkpt>
      <trkpt lat="43.54859" lon="6.64236">
        <ele>366.68591308594</ele>
        <time>2011-06-02T10:51:34Z</time>
      </trkpt>
      <trkpt lat="43.54846" lon="6.64251">
        <ele>371.15216064453</ele>
        <time>2011-06-02T10:51:40Z</time>
      </trkpt>
      <trkpt lat="43.54836" lon="6.64262">
        <ele>375.15515136719</ele>
        <time>2011-06-02T10:51:45Z</time>
      </trkpt>
      <trkpt lat="43.54823" lon="6.64262">
        <ele>375.18441772461</ele>
        <time>2011-06-02T10:51:51Z</time>
      </trkpt>
      <trkpt lat="43.54812" lon="6.64254">
        <ele>372.61184692383</ele>
        <time>2011-06-02T10:51:57Z</time>
      </trkpt>
      <trkpt lat="43.54797" lon="6.64251">
        <ele>371.62380981445</ele>
        <time>2011-06-02T10:52:04Z</time>
      </trkpt>
      <trkpt lat="43.54784" lon="6.64252">
        <ele>372.08352661133</ele>
        <time>2011-06-02T10:52:11Z</time>
      </trkpt>
      <trkpt lat="43.54771" lon="6.64252">
        <ele>372.24597167969</ele>
        <time>2011-06-02T10:52:18Z</time>
      </trkpt>
      <trkpt lat="43.54759" lon="6.64253">
        <ele>372.96078491211</ele>
        <time>2011-06-02T10:52:25Z</time>
      </trkpt>
      <trkpt lat="43.54744" lon="6.64258">
        <ele>375.24865722656</ele>
        <time>2011-06-02T10:52:34Z</time>
      </trkpt>
      <trkpt lat="43.54731" lon="6.64262">
        <ele>377.7014465332</ele>
        <time>2011-06-02T10:52:41Z</time>
      </trkpt>
      <trkpt lat="43.5472" lon="6.64266">
        <ele>379.75531005859</ele>
        <time>2011-06-02T10:52:48Z</time>
      </trkpt>
      <trkpt lat="43.54712" lon="6.64263">
        <ele>379.70739746094</ele>
        <time>2011-06-02T10:52:54Z</time>
      </trkpt>
      <trkpt lat="43.54705" lon="6.64256">
        <ele>378.32434082031</ele>
        <time>2011-06-02T10:53:00Z</time>
      </trkpt>
      <trkpt lat="43.54702" lon="6.64245">
        <ele>376.45516967773</ele>
        <time>2011-06-02T10:53:05Z</time>
      </trkpt>
      <trkpt lat="43.54696" lon="6.64236">
        <ele>375.79327392578</ele>
        <time>2011-06-02T10:53:10Z</time>
      </trkpt>
      <trkpt lat="43.54685" lon="6.64232">
        <ele>376.53533935547</ele>
        <time>2011-06-02T10:53:16Z</time>
      </trkpt>
      <trkpt lat="43.54674" lon="6.64235">
        <ele>378.36145019531</ele>
        <time>2011-06-02T10:53:22Z</time>
      </trkpt>
      <trkpt lat="43.54668" lon="6.64248">
        <ele>380.54302978516</ele>
        <time>2011-06-02T10:53:28Z</time>
      </trkpt>
      <trkpt lat="43.54662" lon="6.64264">
        <ele>385.21606445312</ele>
        <time>2011-06-02T10:53:34Z</time>
      </trkpt>
      <trkpt lat="43.54652" lon="6.64278">
        <ele>389.9489440918</ele>
        <time>2011-06-02T10:53:40Z</time>
      </trkpt>
      <trkpt lat="43.54641" lon="6.64285">
        <ele>393.13903808594</ele>
        <time>2011-06-02T10:53:46Z</time>
      </trkpt>
      <trkpt lat="43.54634" lon="6.64291">
        <ele>395.44223022461</ele>
        <time>2011-06-02T10:53:51Z</time>
      </trkpt>
      <trkpt lat="43.54627" lon="6.64294">
        <ele>397.28051757812</ele>
        <time>2011-06-02T10:53:55Z</time>
      </trkpt>
      <trkpt lat="43.54617" lon="6.64291">
        <ele>397.93298339844</ele>
        <time>2011-06-02T10:54:00Z</time>
      </trkpt>
      <trkpt lat="43.54612" lon="6.64278">
        <ele>396.54077148438</ele>
        <time>2011-06-02T10:54:05Z</time>
      </trkpt>
      <trkpt lat="43.54604" lon="6.64264">
        <ele>395.44659423828</ele>
        <time>2011-06-02T10:54:11Z</time>
      </trkpt>
      <trkpt lat="43.54599" lon="6.6425">
        <ele>394.04556274414</ele>
        <time>2011-06-02T10:54:16Z</time>
      </trkpt>
      <trkpt lat="43.5459" lon="6.64234">
        <ele>394.54299926758</ele>
        <time>2011-06-02T10:54:21Z</time>
      </trkpt>
      <trkpt lat="43.5458" lon="6.64218">
        <ele>394.66592407227</ele>
        <time>2011-06-02T10:54:26Z</time>
      </trkpt>
      <trkpt lat="43.54568" lon="6.64195">
        <ele>392.25924682617</ele>
        <time>2011-06-02T10:54:32Z</time>
      </trkpt>
      <trkpt lat="43.5456" lon="6.64169">
        <ele>388.94830322266</ele>
        <time>2011-06-02T10:54:37Z</time>
      </trkpt>
      <trkpt lat="43.5456" lon="6.64148">
        <ele>386.58416748047</ele>
        <time>2011-06-02T10:54:41Z</time>
      </trkpt>
      <trkpt lat="43.5456" lon="6.64126">
        <ele>384.08923339844</ele>
        <time>2011-06-02T10:54:46Z</time>
      </trkpt>
      <trkpt lat="43.5456" lon="6.64122">
        <ele>383.58587646484</ele>
        <time>2011-06-02T10:54:47Z</time>
      </trkpt>
      <trkpt lat="43.54549" lon="6.6411">
        <ele>380.03826904297</ele>
        <time>2011-06-02T10:54:52Z</time>
      </trkpt>
      <trkpt lat="43.54541" lon="6.64118">
        <ele>379.56436157227</ele>
        <time>2011-06-02T10:54:55Z</time>
      </trkpt>
      <trkpt lat="43.54535" lon="6.6413">
        <ele>380.40631103516</ele>
        <time>2011-06-02T10:54:58Z</time>
      </trkpt>
      <trkpt lat="43.54523" lon="6.64162">
        <ele>384.28643798828</ele>
        <time>2011-06-02T10:55:04Z</time>
      </trkpt>
      <trkpt lat="43.5451" lon="6.64184">
        <ele>387.21054077148</ele>
        <time>2011-06-02T10:55:09Z</time>
      </trkpt>
      <trkpt lat="43.54498" lon="6.64201">
        <ele>389.83734130859</ele>
        <time>2011-06-02T10:55:13Z</time>
      </trkpt>
      <trkpt lat="43.54482" lon="6.64217">
        <ele>391.54504394531</ele>
        <time>2011-06-02T10:55:17Z</time>
      </trkpt>
      <trkpt lat="43.54457" lon="6.64242">
        <ele>394.63107299805</ele>
        <time>2011-06-02T10:55:24Z</time>
      </trkpt>
      <trkpt lat="43.54445" lon="6.64249">
        <ele>395.17269897461</ele>
        <time>2011-06-02T10:55:27Z</time>
      </trkpt>
      <trkpt lat="43.54414" lon="6.64253">
        <ele>393.8923034668</ele>
        <time>2011-06-02T10:55:36Z</time>
      </trkpt>
      <trkpt lat="43.54394" lon="6.64256">
        <ele>394.14688110352</ele>
        <time>2011-06-02T10:55:42Z</time>
      </trkpt>
      <trkpt lat="43.5437" lon="6.64264">
        <ele>395.75830078125</ele>
        <time>2011-06-02T10:55:48Z</time>
      </trkpt>
      <trkpt lat="43.5435" lon="6.64276">
        <ele>397.9358215332</ele>
        <time>2011-06-02T10:55:54Z</time>
      </trkpt>
      <trkpt lat="43.54348" lon="6.64279">
        <ele>398.39373779297</ele>
        <time>2011-06-02T10:55:55Z</time>
      </trkpt>
      <trkpt lat="43.54339" lon="6.64297">
        <ele>401.88940429688</ele>
        <time>2011-06-02T10:56:01Z</time>
      </trkpt>
      <trkpt lat="43.54327" lon="6.64307">
        <ele>404.86547851562</ele>
        <time>2011-06-02T10:56:06Z</time>
      </trkpt>
      <trkpt lat="43.54304" lon="6.64309">
        <ele>409.35757446289</ele>
        <time>2011-06-02T10:56:14Z</time>
      </trkpt>
      <trkpt lat="43.54284" lon="6.64313">
        <ele>413.69186401367</ele>
        <time>2011-06-02T10:56:22Z</time>
      </trkpt>
      <trkpt lat="43.54268" lon="6.64316">
        <ele>416.86895751953</ele>
        <time>2011-06-02T10:56:30Z</time>
      </trkpt>
      <trkpt lat="43.54266" lon="6.64315">
        <ele>417.10296630859</ele>
        <time>2011-06-02T10:56:31Z</time>
      </trkpt>
      <trkpt lat="43.5426" lon="6.64304">
        <ele>416.51739501953</ele>
        <time>2011-06-02T10:56:37Z</time>
      </trkpt>
      <trkpt lat="43.54266" lon="6.64285">
        <ele>412.86993408203</ele>
        <time>2011-06-02T10:56:44Z</time>
      </trkpt>
      <trkpt lat="43.54278" lon="6.6426">
        <ele>406.77767944336</ele>
        <time>2011-06-02T10:56:50Z</time>
      </trkpt>
      <trkpt lat="43.54285" lon="6.64244">
        <ele>402.61907958984</ele>
        <time>2011-06-02T10:56:54Z</time>
      </trkpt>
      <trkpt lat="43.54293" lon="6.64226">
        <ele>397.51126098633</ele>
        <time>2011-06-02T10:56:59Z</time>
      </trkpt>
      <trkpt lat="43.54299" lon="6.64198">
        <ele>391.34170532227</ele>
        <time>2011-06-02T10:57:04Z</time>
      </trkpt>
      <trkpt lat="43.54304" lon="6.64176">
        <ele>386.4182434082</ele>
        <time>2011-06-02T10:57:09Z</time>
      </trkpt>
      <trkpt lat="43.54311" lon="6.64153">
        <ele>380.42028808594</ele>
        <time>2011-06-02T10:57:15Z</time>
      </trkpt>
      <trkpt lat="43.54313" lon="6.64134">
        <ele>376.41876220703</ele>
        <time>2011-06-02T10:57:20Z</time>
      </trkpt>
      <trkpt lat="43.54306" lon="6.64116">
        <ele>374.47576904297</ele>
        <time>2011-06-02T10:57:26Z</time>
      </trkpt>
      <trkpt lat="43.5429" lon="6.64104">
        <ele>375.3212890625</ele>
        <time>2011-06-02T10:57:34Z</time>
      </trkpt>
      <trkpt lat="43.5428" lon="6.64096">
        <ele>376.07891845703</ele>
        <time>2011-06-02T10:57:40Z</time>
      </trkpt>
      <trkpt lat="43.54264" lon="6.64087">
        <ele>377.77108764648</ele>
        <time>2011-06-02T10:57:48Z</time>
      </trkpt>
      <trkpt lat="43.54246" lon="6.64083">
        <ele>380.27990722656</ele>
        <time>2011-06-02T10:57:56Z</time>
      </trkpt>
      <trkpt lat="43.54237" lon="6.64079">
        <ele>380.28356933594</ele>
        <time>2011-06-02T10:58:00Z</time>
      </trkpt>
      <trkpt lat="43.54221" lon="6.64074">
        <ele>380.42504882812</ele>
        <time>2011-06-02T10:58:07Z</time>
      </trkpt>
      <trkpt lat="43.54206" lon="6.64067">
        <ele>380.22290039062</ele>
        <time>2011-06-02T10:58:14Z</time>
      </trkpt>
      <trkpt lat="43.54193" lon="6.64057">
        <ele>379.01181030273</ele>
        <time>2011-06-02T10:58:21Z</time>
      </trkpt>
      <trkpt lat="43.54187" lon="6.64052">
        <ele>378.09143066406</ele>
        <time>2011-06-02T10:58:25Z</time>
      </trkpt>
      <trkpt lat="43.54181" lon="6.64042">
        <ele>376.44223022461</ele>
        <time>2011-06-02T10:58:30Z</time>
      </trkpt>
      <trkpt lat="43.54173" lon="6.64029">
        <ele>373.88259887695</ele>
        <time>2011-06-02T10:58:36Z</time>
      </trkpt>
      <trkpt lat="43.54166" lon="6.64016">
        <ele>371.10375976562</ele>
        <time>2011-06-02T10:58:41Z</time>
      </trkpt>
      <trkpt lat="43.54163" lon="6.64011">
        <ele>369.67776489258</ele>
        <time>2011-06-02T10:58:43Z</time>
      </trkpt>
      <trkpt lat="43.54152" lon="6.64006">
        <ele>368.25375366211</ele>
        <time>2011-06-02T10:58:47Z</time>
      </trkpt>
      <trkpt lat="43.54136" lon="6.6402">
        <ele>371.87640380859</ele>
        <time>2011-06-02T10:58:53Z</time>
      </trkpt>
      <trkpt lat="43.54121" lon="6.64036">
        <ele>375.85635375977</ele>
        <time>2011-06-02T10:58:58Z</time>
      </trkpt>
      <trkpt lat="43.54103" lon="6.64051">
        <ele>379.51010131836</ele>
        <time>2011-06-02T10:59:03Z</time>
      </trkpt>
      <trkpt lat="43.54078" lon="6.64061">
        <ele>381.69409179688</ele>
        <time>2011-06-02T10:59:10Z</time>
      </trkpt>
      <trkpt lat="43.54051" lon="6.64078">
        <ele>383.99069213867</ele>
        <time>2011-06-02T10:59:17Z</time>
      </trkpt>
      <trkpt lat="43.5403" lon="6.64101">
        <ele>388.2346496582</ele>
        <time>2011-06-02T10:59:23Z</time>
      </trkpt>
      <trkpt lat="43.54015" lon="6.64115">
        <ele>390.84619140625</ele>
        <time>2011-06-02T10:59:28Z</time>
      </trkpt>
      <trkpt lat="43.53987" lon="6.64135">
        <ele>393.78482055664</ele>
        <time>2011-06-02T10:59:36Z</time>
      </trkpt>
      <trkpt lat="43.5397" lon="6.64147">
        <ele>395.36102294922</ele>
        <time>2011-06-02T10:59:41Z</time>
      </trkpt>
      <trkpt lat="43.53957" lon="6.64142">
        <ele>393.31210327148</ele>
        <time>2011-06-02T10:59:45Z</time>
      </trkpt>
      <trkpt lat="43.53939" lon="6.64141">
        <ele>391.73229980469</ele>
        <time>2011-06-02T10:59:50Z</time>
      </trkpt>
      <trkpt lat="43.53923" lon="6.64147">
        <ele>391.75637817383</ele>
        <time>2011-06-02T10:59:55Z</time>
      </trkpt>
      <trkpt lat="43.53914" lon="6.64152">
        <ele>392.44641113281</ele>
        <time>2011-06-02T11:00:00Z</time>
      </trkpt>
      <trkpt lat="43.53902" lon="6.64158">
        <ele>394.44583129883</ele>
        <time>2011-06-02T11:00:05Z</time>
      </trkpt>
      <trkpt lat="43.53887" lon="6.6416">
        <ele>395.83865356445</ele>
        <time>2011-06-02T11:00:11Z</time>
      </trkpt>
      <trkpt lat="43.53875" lon="6.64169">
        <ele>398.10842895508</ele>
        <time>2011-06-02T11:00:17Z</time>
      </trkpt>
      <trkpt lat="43.5387" lon="6.64173">
        <ele>399.76132202148</ele>
        <time>2011-06-02T11:00:20Z</time>
      </trkpt>
      <trkpt lat="43.53859" lon="6.64175">
        <ele>400.99371337891</ele>
        <time>2011-06-02T11:00:26Z</time>
      </trkpt>
      <trkpt lat="43.53855" lon="6.64176">
        <ele>401.44604492188</ele>
        <time>2011-06-02T11:00:28Z</time>
      </trkpt>
      <trkpt lat="43.53847" lon="6.64172">
        <ele>400.83099365234</ele>
        <time>2011-06-02T11:00:33Z</time>
      </trkpt>
      <trkpt lat="43.53839" lon="6.64173">
        <ele>401.50720214844</ele>
        <time>2011-06-02T11:00:38Z</time>
      </trkpt>
      <trkpt lat="43.53831" lon="6.64171">
        <ele>401.66055297852</ele>
        <time>2011-06-02T11:00:43Z</time>
      </trkpt>
      <trkpt lat="43.53825" lon="6.64164">
        <ele>401.73837280273</ele>
        <time>2011-06-02T11:00:47Z</time>
      </trkpt>
      <trkpt lat="43.53822" lon="6.64162">
        <ele>402.22784423828</ele>
        <time>2011-06-02T11:00:49Z</time>
      </trkpt>
      <trkpt lat="43.53812" lon="6.64154">
        <ele>404.09585571289</ele>
        <time>2011-06-02T11:00:56Z</time>
      </trkpt>
      <trkpt lat="43.53803" lon="6.64148">
        <ele>406.005859375</ele>
        <time>2011-06-02T11:01:01Z</time>
      </trkpt>
      <trkpt lat="43.53793" lon="6.64144">
        <ele>408.28671264648</ele>
        <time>2011-06-02T11:01:07Z</time>
      </trkpt>
      <trkpt lat="43.5379" lon="6.64142">
        <ele>409.15161132812</ele>
        <time>2011-06-02T11:01:09Z</time>
      </trkpt>
      <trkpt lat="43.53782" lon="6.64135">
        <ele>410.94799804688</ele>
        <time>2011-06-02T11:01:14Z</time>
      </trkpt>
      <trkpt lat="43.53782" lon="6.64128">
        <ele>410.66000366211</ele>
        <time>2011-06-02T11:01:18Z</time>
      </trkpt>
      <trkpt lat="43.53787" lon="6.64123">
        <ele>409.10998535156</ele>
        <time>2011-06-02T11:01:22Z</time>
      </trkpt>
      <trkpt lat="43.53793" lon="6.6412">
        <ele>407.46081542969</ele>
        <time>2011-06-02T11:01:25Z</time>
      </trkpt>
      <trkpt lat="43.53809" lon="6.64111">
        <ele>402.5944519043</ele>
        <time>2011-06-02T11:01:30Z</time>
      </trkpt>
      <trkpt lat="43.53831" lon="6.641">
        <ele>395.92858886719</ele>
        <time>2011-06-02T11:01:35Z</time>
      </trkpt>
      <trkpt lat="43.53835" lon="6.64098">
        <ele>394.80294799805</ele>
        <time>2011-06-02T11:01:36Z</time>
      </trkpt>
      <trkpt lat="43.53853" lon="6.64082">
        <ele>390.45837402344</ele>
        <time>2011-06-02T11:01:41Z</time>
      </trkpt>
      <trkpt lat="43.53861" lon="6.64073">
        <ele>388.81033325195</ele>
        <time>2011-06-02T11:01:43Z</time>
      </trkpt>
      <trkpt lat="43.53866" lon="6.64068">
        <ele>387.64489746094</ele>
        <time>2011-06-02T11:01:45Z</time>
      </trkpt>
      <trkpt lat="43.53878" lon="6.64052">
        <ele>384.84399414062</ele>
        <time>2011-06-02T11:01:49Z</time>
      </trkpt>
      <trkpt lat="43.53882" lon="6.64044">
        <ele>383.52746582031</ele>
        <time>2011-06-02T11:01:51Z</time>
      </trkpt>
      <trkpt lat="43.53891" lon="6.64024">
        <ele>380.60247802734</ele>
        <time>2011-06-02T11:01:55Z</time>
      </trkpt>
      <trkpt lat="43.53901" lon="6.63989">
        <ele>377.22006225586</ele>
        <time>2011-06-02T11:02:01Z</time>
      </trkpt>
      <trkpt lat="43.539" lon="6.63959">
        <ele>377.86520385742</ele>
        <time>2011-06-02T11:02:06Z</time>
      </trkpt>
      <trkpt lat="43.53896" lon="6.6395">
        <ele>379.23129272461</ele>
        <time>2011-06-02T11:02:08Z</time>
      </trkpt>
      <trkpt lat="43.53874" lon="6.63927">
        <ele>386.50588989258</ele>
        <time>2011-06-02T11:02:16Z</time>
      </trkpt>
      <trkpt lat="43.53854" lon="6.6391">
        <ele>393.82006835938</ele>
        <time>2011-06-02T11:02:24Z</time>
      </trkpt>
      <trkpt lat="43.53851" lon="6.63909">
        <ele>394.74893188477</ele>
        <time>2011-06-02T11:02:25Z</time>
      </trkpt>
      <trkpt lat="43.53842" lon="6.63893">
        <ele>398.46377563477</ele>
        <time>2011-06-02T11:02:31Z</time>
      </trkpt>
      <trkpt lat="43.53845" lon="6.63884">
        <ele>397.86727905273</ele>
        <time>2011-06-02T11:02:34Z</time>
      </trkpt>
      <trkpt lat="43.53854" lon="6.63872">
        <ele>395.73654174805</ele>
        <time>2011-06-02T11:02:40Z</time>
      </trkpt>
      <trkpt lat="43.53857" lon="6.63868">
        <ele>395.29116821289</ele>
        <time>2011-06-02T11:02:44Z</time>
      </trkpt>
      <trkpt lat="43.53856" lon="6.63865">
        <ele>395.76950073242</ele>
        <time>2011-06-02T11:02:53Z</time>
      </trkpt>
      <trkpt lat="43.53858" lon="6.63859">
        <ele>395.46130371094</ele>
        <time>2011-06-02T11:02:58Z</time>
      </trkpt>
      <trkpt lat="43.5386" lon="6.63847">
        <ele>395.38342285156</ele>
        <time>2011-06-02T11:03:03Z</time>
      </trkpt>
      <trkpt lat="43.53862" lon="6.6383">
        <ele>395.81173706055</ele>
        <time>2011-06-02T11:03:08Z</time>
      </trkpt>
      <trkpt lat="43.53867" lon="6.63812">
        <ele>395.58630371094</ele>
        <time>2011-06-02T11:03:14Z</time>
      </trkpt>
      <trkpt lat="43.53871" lon="6.63793">
        <ele>395.60919189453</ele>
        <time>2011-06-02T11:03:20Z</time>
      </trkpt>
      <trkpt lat="43.53866" lon="6.63785">
        <ele>397.4482421875</ele>
        <time>2011-06-02T11:03:24Z</time>
      </trkpt>
      <trkpt lat="43.53859" lon="6.63774">
        <ele>400.28637695312</ele>
        <time>2011-06-02T11:03:29Z</time>
      </trkpt>
      <trkpt lat="43.53842" lon="6.63758">
        <ele>406.09024047852</ele>
        <time>2011-06-02T11:03:37Z</time>
      </trkpt>
      <trkpt lat="43.53831" lon="6.63751">
        <ele>410.22015380859</ele>
        <time>2011-06-02T11:03:43Z</time>
      </trkpt>
      <trkpt lat="43.53829" lon="6.63749">
        <ele>411.98663330078</ele>
        <time>2011-06-02T11:03:44Z</time>
      </trkpt>
      <trkpt lat="43.53822" lon="6.63737">
        <ele>418.03256225586</ele>
        <time>2011-06-02T11:03:49Z</time>
      </trkpt>
      <trkpt lat="43.5382" lon="6.63723">
        <ele>421.39483642578</ele>
        <time>2011-06-02T11:03:54Z</time>
      </trkpt>
      <trkpt lat="43.5382" lon="6.63713">
        <ele>422.03283691406</ele>
        <time>2011-06-02T11:03:58Z</time>
      </trkpt>
      <trkpt lat="43.5382" lon="6.637">
        <ele>423.376953125</ele>
        <time>2011-06-02T11:04:03Z</time>
      </trkpt>
      <trkpt lat="43.53821" lon="6.63697">
        <ele>423.22705078125</ele>
        <time>2011-06-02T11:04:05Z</time>
      </trkpt>
      <trkpt lat="43.53827" lon="6.63685">
        <ele>420.5319519043</ele>
        <time>2011-06-02T11:04:11Z</time>
      </trkpt>
      <trkpt lat="43.53833" lon="6.63672">
        <ele>417.64346313477</ele>
        <time>2011-06-02T11:04:17Z</time>
      </trkpt>
      <trkpt lat="43.5384" lon="6.63653">
        <ele>417.50216674805</ele>
        <time>2011-06-02T11:04:24Z</time>
      </trkpt>
      <trkpt lat="43.53845" lon="6.63639">
        <ele>417.88064575195</ele>
        <time>2011-06-02T11:04:30Z</time>
      </trkpt>
      <trkpt lat="43.53848" lon="6.63621">
        <ele>419.31268310547</ele>
        <time>2011-06-02T11:04:36Z</time>
      </trkpt>
      <trkpt lat="43.53852" lon="6.63606">
        <ele>419.59298706055</ele>
        <time>2011-06-02T11:04:42Z</time>
      </trkpt>
      <trkpt lat="43.53857" lon="6.63594">
        <ele>418.96783447266</ele>
        <time>2011-06-02T11:04:47Z</time>
      </trkpt>
      <trkpt lat="43.53864" lon="6.63586">
        <ele>417.24649047852</ele>
        <time>2011-06-02T11:04:52Z</time>
      </trkpt>
      <trkpt lat="43.53878" lon="6.63573">
        <ele>413.2932434082</ele>
        <time>2011-06-02T11:04:58Z</time>
      </trkpt>
      <trkpt lat="43.53884" lon="6.6357">
        <ele>411.1418762207</ele>
        <time>2011-06-02T11:05:01Z</time>
      </trkpt>
      <trkpt lat="43.53892" lon="6.63556">
        <ele>409.59411621094</ele>
        <time>2011-06-02T11:05:07Z</time>
      </trkpt>
      <trkpt lat="43.53895" lon="6.63542">
        <ele>409.9098815918</ele>
        <time>2011-06-02T11:05:12Z</time>
      </trkpt>
      <trkpt lat="43.53898" lon="6.63528">
        <ele>410.2790222168</ele>
        <time>2011-06-02T11:05:16Z</time>
      </trkpt>
      <trkpt lat="43.53899" lon="6.63521">
        <ele>410.54724121094</ele>
        <time>2011-06-02T11:05:18Z</time>
      </trkpt>
      <trkpt lat="43.53898" lon="6.63503">
        <ele>413.45788574219</ele>
        <time>2011-06-02T11:05:24Z</time>
      </trkpt>
      <trkpt lat="43.53896" lon="6.63487">
        <ele>417.52673339844</ele>
        <time>2011-06-02T11:05:29Z</time>
      </trkpt>
      <trkpt lat="43.53892" lon="6.63469">
        <ele>423.57113647461</ele>
        <time>2011-06-02T11:05:36Z</time>
      </trkpt>
      <trkpt lat="43.53892" lon="6.63465">
        <ele>424.49694824219</ele>
        <time>2011-06-02T11:05:38Z</time>
      </trkpt>
      <trkpt lat="43.53893" lon="6.63461">
        <ele>424.73614501953</ele>
        <time>2011-06-02T11:05:40Z</time>
      </trkpt>
      <trkpt lat="43.53902" lon="6.63451">
        <ele>422.55462646484</ele>
        <time>2011-06-02T11:05:47Z</time>
      </trkpt>
      <trkpt lat="43.53909" lon="6.63445">
        <ele>420.36111450195</ele>
        <time>2011-06-02T11:05:53Z</time>
      </trkpt>
      <trkpt lat="43.53923" lon="6.6344">
        <ele>417.24530029297</ele>
        <time>2011-06-02T11:05:59Z</time>
      </trkpt>
      <trkpt lat="43.53935" lon="6.63436">
        <ele>416.49032592773</ele>
        <time>2011-06-02T11:06:04Z</time>
      </trkpt>
      <trkpt lat="43.53947" lon="6.63431">
        <ele>416.09729003906</ele>
        <time>2011-06-02T11:06:10Z</time>
      </trkpt>
      <trkpt lat="43.53957" lon="6.63424">
        <ele>416.56512451172</ele>
        <time>2011-06-02T11:06:16Z</time>
      </trkpt>
      <trkpt lat="43.53965" lon="6.63412">
        <ele>418.71527099609</ele>
        <time>2011-06-02T11:06:21Z</time>
      </trkpt>
      <trkpt lat="43.53971" lon="6.63402">
        <ele>420.85528564453</ele>
        <time>2011-06-02T11:06:26Z</time>
      </trkpt>
      <trkpt lat="43.53982" lon="6.63388">
        <ele>423.83648681641</ele>
        <time>2011-06-02T11:06:32Z</time>
      </trkpt>
      <trkpt lat="43.5399" lon="6.63373">
        <ele>427.40991210938</ele>
        <time>2011-06-02T11:06:36Z</time>
      </trkpt>
      <trkpt lat="43.54001" lon="6.63345">
        <ele>434.38250732422</ele>
        <time>2011-06-02T11:06:42Z</time>
      </trkpt>
      <trkpt lat="43.54007" lon="6.63312">
        <ele>441.78695678711</ele>
        <time>2011-06-02T11:06:49Z</time>
      </trkpt>
      <trkpt lat="43.54009" lon="6.63293">
        <ele>444.85501098633</ele>
        <time>2011-06-02T11:06:53Z</time>
      </trkpt>
      <trkpt lat="43.5401" lon="6.63274">
        <ele>447.9680480957</ele>
        <time>2011-06-02T11:06:58Z</time>
      </trkpt>
      <trkpt lat="43.54015" lon="6.63257">
        <ele>450.34457397461</ele>
        <time>2011-06-02T11:07:04Z</time>
      </trkpt>
      <trkpt lat="43.5402" lon="6.63251">
        <ele>450.73007202148</ele>
        <time>2011-06-02T11:07:08Z</time>
      </trkpt>
      <trkpt lat="43.54029" lon="6.63251">
        <ele>449.67565917969</ele>
        <time>2011-06-02T11:07:15Z</time>
      </trkpt>
      <trkpt lat="43.54036" lon="6.63245">
        <ele>449.14395141602</ele>
        <time>2011-06-02T11:07:18Z</time>
      </trkpt>
      <trkpt lat="43.54042" lon="6.63223">
        <ele>448.17959594727</ele>
        <time>2011-06-02T11:07:22Z</time>
      </trkpt>
      <trkpt lat="43.54048" lon="6.63199">
        <ele>446.7184753418</ele>
        <time>2011-06-02T11:07:26Z</time>
      </trkpt>
      <trkpt lat="43.54049" lon="6.63194">
        <ele>446.38208007812</ele>
        <time>2011-06-02T11:07:27Z</time>
      </trkpt>
      <trkpt lat="43.54053" lon="6.6318">
        <ele>445.35220336914</ele>
        <time>2011-06-02T11:07:29Z</time>
      </trkpt>
      <trkpt lat="43.54057" lon="6.63145">
        <ele>443.02502441406</ele>
        <time>2011-06-02T11:07:33Z</time>
      </trkpt>
      <trkpt lat="43.54059" lon="6.6313">
        <ele>441.93829345703</ele>
        <time>2011-06-02T11:07:35Z</time>
      </trkpt>
      <trkpt lat="43.54066" lon="6.6309">
        <ele>437.74380493164</ele>
        <time>2011-06-02T11:07:40Z</time>
      </trkpt>
      <trkpt lat="43.54066" lon="6.63082">
        <ele>437.03869628906</ele>
        <time>2011-06-02T11:07:41Z</time>
      </trkpt>
      <trkpt lat="43.54067" lon="6.63066">
        <ele>436.25424194336</ele>
        <time>2011-06-02T11:07:43Z</time>
      </trkpt>
      <trkpt lat="43.54072" lon="6.63043">
        <ele>433.5419921875</ele>
        <time>2011-06-02T11:07:46Z</time>
      </trkpt>
      <trkpt lat="43.54076" lon="6.63028">
        <ele>431.24063110352</ele>
        <time>2011-06-02T11:07:48Z</time>
      </trkpt>
      <trkpt lat="43.54087" lon="6.63004">
        <ele>425.81976318359</ele>
        <time>2011-06-02T11:07:52Z</time>
      </trkpt>
      <trkpt lat="43.54092" lon="6.62989">
        <ele>424.0244140625</ele>
        <time>2011-06-02T11:07:54Z</time>
      </trkpt>
      <trkpt lat="43.54097" lon="6.62968">
        <ele>421.76831054688</ele>
        <time>2011-06-02T11:07:57Z</time>
      </trkpt>
      <trkpt lat="43.54105" lon="6.62934">
        <ele>418.23858642578</ele>
        <time>2011-06-02T11:08:01Z</time>
      </trkpt>
      <trkpt lat="43.54109" lon="6.62903">
        <ele>416.29531860352</ele>
        <time>2011-06-02T11:08:05Z</time>
      </trkpt>
      <trkpt lat="43.54107" lon="6.62878">
        <ele>417.06689453125</ele>
        <time>2011-06-02T11:08:11Z</time>
      </trkpt>
      <trkpt lat="43.54107" lon="6.62874">
        <ele>417.24792480469</ele>
        <time>2011-06-02T11:08:12Z</time>
      </trkpt>
      <trkpt lat="43.54107" lon="6.62861">
        <ele>417.34112548828</ele>
        <time>2011-06-02T11:08:16Z</time>
      </trkpt>
      <trkpt lat="43.54105" lon="6.62844">
        <ele>418.46252441406</ele>
        <time>2011-06-02T11:08:21Z</time>
      </trkpt>
      <trkpt lat="43.54104" lon="6.62823">
        <ele>418.84680175781</ele>
        <time>2011-06-02T11:08:26Z</time>
      </trkpt>
      <trkpt lat="43.54104" lon="6.62818">
        <ele>418.89889526367</ele>
        <time>2011-06-02T11:08:27Z</time>
      </trkpt>
      <trkpt lat="43.54107" lon="6.62785">
        <ele>418.28607177734</ele>
        <time>2011-06-02T11:08:34Z</time>
      </trkpt>
      <trkpt lat="43.54108" lon="6.62756">
        <ele>417.95703125</ele>
        <time>2011-06-02T11:08:40Z</time>
      </trkpt>
      <trkpt lat="43.54113" lon="6.62722">
        <ele>416.88687133789</ele>
        <time>2011-06-02T11:08:46Z</time>
      </trkpt>
      <trkpt lat="43.54117" lon="6.62704">
        <ele>415.56729125977</ele>
        <time>2011-06-02T11:08:49Z</time>
      </trkpt>
      <trkpt lat="43.5412" lon="6.62669">
        <ele>415.08236694336</ele>
        <time>2011-06-02T11:08:54Z</time>
      </trkpt>
      <trkpt lat="43.5412" lon="6.62655">
        <ele>415.6692199707</ele>
        <time>2011-06-02T11:08:56Z</time>
      </trkpt>
      <trkpt lat="43.54119" lon="6.62629">
        <ele>417.11825561523</ele>
        <time>2011-06-02T11:09:00Z</time>
      </trkpt>
      <trkpt lat="43.54121" lon="6.6258">
        <ele>418.35266113281</ele>
        <time>2011-06-02T11:09:06Z</time>
      </trkpt>
      <trkpt lat="43.54121" lon="6.62572">
        <ele>418.96664428711</ele>
        <time>2011-06-02T11:09:07Z</time>
      </trkpt>
      <trkpt lat="43.54119" lon="6.62558">
        <ele>420.43688964844</ele>
        <time>2011-06-02T11:09:09Z</time>
      </trkpt>
      <trkpt lat="43.5412" lon="6.62543">
        <ele>420.89617919922</ele>
        <time>2011-06-02T11:09:13Z</time>
      </trkpt>
      <trkpt lat="43.54119" lon="6.62524">
        <ele>422.2458190918</ele>
        <time>2011-06-02T11:09:19Z</time>
      </trkpt>
      <trkpt lat="43.54115" lon="6.62507">
        <ele>425.22088623047</ele>
        <time>2011-06-02T11:09:24Z</time>
      </trkpt>
      <trkpt lat="43.54115" lon="6.62487">
        <ele>426.34631347656</ele>
        <time>2011-06-02T11:09:29Z</time>
      </trkpt>
      <trkpt lat="43.54116" lon="6.62472">
        <ele>427.10430908203</ele>
        <time>2011-06-02T11:09:33Z</time>
      </trkpt>
      <trkpt lat="43.54117" lon="6.62468">
        <ele>427.05395507812</ele>
        <time>2011-06-02T11:09:34Z</time>
      </trkpt>
      <trkpt lat="43.5412" lon="6.62441">
        <ele>427.54544067383</ele>
        <time>2011-06-02T11:09:41Z</time>
      </trkpt>
      <trkpt lat="43.54123" lon="6.62416">
        <ele>428.48327636719</ele>
        <time>2011-06-02T11:09:48Z</time>
      </trkpt>
      <trkpt lat="43.54124" lon="6.62394">
        <ele>428.69256591797</ele>
        <time>2011-06-02T11:09:55Z</time>
      </trkpt>
      <trkpt lat="43.54124" lon="6.62371">
        <ele>429.39050292969</ele>
        <time>2011-06-02T11:10:03Z</time>
      </trkpt>
      <trkpt lat="43.54119" lon="6.62354">
        <ele>431.6608581543</ele>
        <time>2011-06-02T11:10:08Z</time>
      </trkpt>
      <trkpt lat="43.54117" lon="6.62338">
        <ele>433.00283813477</ele>
        <time>2011-06-02T11:10:13Z</time>
      </trkpt>
      <trkpt lat="43.54118" lon="6.62324">
        <ele>432.51916503906</ele>
        <time>2011-06-02T11:10:18Z</time>
      </trkpt>
      <trkpt lat="43.54119" lon="6.62298">
        <ele>431.45770263672</ele>
        <time>2011-06-02T11:10:27Z</time>
      </trkpt>
      <trkpt lat="43.54118" lon="6.62275">
        <ele>431.7431640625</ele>
        <time>2011-06-02T11:10:35Z</time>
      </trkpt>
      <trkpt lat="43.54116" lon="6.62263">
        <ele>431.9401550293</ele>
        <time>2011-06-02T11:10:40Z</time>
      </trkpt>
      <trkpt lat="43.54115" lon="6.62249">
        <ele>432.36401367188</ele>
        <time>2011-06-02T11:10:46Z</time>
      </trkpt>
      <trkpt lat="43.5411" lon="6.6223">
        <ele>433.61486816406</ele>
        <time>2011-06-02T11:10:52Z</time>
      </trkpt>
      <trkpt lat="43.54107" lon="6.62213">
        <ele>434.20880126953</ele>
        <time>2011-06-02T11:10:58Z</time>
      </trkpt>
      <trkpt lat="43.54105" lon="6.62196">
        <ele>434.63568115234</ele>
        <time>2011-06-02T11:11:04Z</time>
      </trkpt>
      <trkpt lat="43.54102" lon="6.62174">
        <ele>435.38641357422</ele>
        <time>2011-06-02T11:11:11Z</time>
      </trkpt>
      <trkpt lat="43.54099" lon="6.62169">
        <ele>436.40606689453</ele>
        <time>2011-06-02T11:11:13Z</time>
      </trkpt>
      <trkpt lat="43.54094" lon="6.62154">
        <ele>437.82656860352</ele>
        <time>2011-06-02T11:11:19Z</time>
      </trkpt>
      <trkpt lat="43.54087" lon="6.62135">
        <ele>440.14782714844</ele>
        <time>2011-06-02T11:11:26Z</time>
      </trkpt>
      <trkpt lat="43.54084" lon="6.62124">
        <ele>441.11505126953</ele>
        <time>2011-06-02T11:11:31Z</time>
      </trkpt>
      <trkpt lat="43.54082" lon="6.62119">
        <ele>441.61468505859</ele>
        <time>2011-06-02T11:11:33Z</time>
      </trkpt>
      <trkpt lat="43.54081" lon="6.62105">
        <ele>441.77102661133</ele>
        <time>2011-06-02T11:11:38Z</time>
      </trkpt>
      <trkpt lat="43.54078" lon="6.62079">
        <ele>441.97918701172</ele>
        <time>2011-06-02T11:11:46Z</time>
      </trkpt>
      <trkpt lat="43.54076" lon="6.62065">
        <ele>442.18435668945</ele>
        <time>2011-06-02T11:11:51Z</time>
      </trkpt>
      <trkpt lat="43.54075" lon="6.62049">
        <ele>442.27294921875</ele>
        <time>2011-06-02T11:11:57Z</time>
      </trkpt>
      <trkpt lat="43.54073" lon="6.62026">
        <ele>442.41516113281</ele>
        <time>2011-06-02T11:12:05Z</time>
      </trkpt>
      <trkpt lat="43.54072" lon="6.62006">
        <ele>442.30133056641</ele>
        <time>2011-06-02T11:12:12Z</time>
      </trkpt>
      <trkpt lat="43.54076" lon="6.6199">
        <ele>441.38717651367</ele>
        <time>2011-06-02T11:12:18Z</time>
      </trkpt>
      <trkpt lat="43.54081" lon="6.6198">
        <ele>440.37057495117</ele>
        <time>2011-06-02T11:12:23Z</time>
      </trkpt>
      <trkpt lat="43.54091" lon="6.6196">
        <ele>437.89733886719</ele>
        <time>2011-06-02T11:12:31Z</time>
      </trkpt>
      <trkpt lat="43.54098" lon="6.61938">
        <ele>436.26797485352</ele>
        <time>2011-06-02T11:12:39Z</time>
      </trkpt>
      <trkpt lat="43.54102" lon="6.61924">
        <ele>435.46014404297</ele>
        <time>2011-06-02T11:12:45Z</time>
      </trkpt>
      <trkpt lat="43.5411" lon="6.61901">
        <ele>434.48266601562</ele>
        <time>2011-06-02T11:12:53Z</time>
      </trkpt>
      <trkpt lat="43.54115" lon="6.61885">
        <ele>434.31439208984</ele>
        <time>2011-06-02T11:12:59Z</time>
      </trkpt>
      <trkpt lat="43.54116" lon="6.61869">
        <ele>434.9973449707</ele>
        <time>2011-06-02T11:13:04Z</time>
      </trkpt>
      <trkpt lat="43.54118" lon="6.6185">
        <ele>435.8571472168</ele>
        <time>2011-06-02T11:13:10Z</time>
      </trkpt>
      <trkpt lat="43.54119" lon="6.61834">
        <ele>436.66519165039</ele>
        <time>2011-06-02T11:13:16Z</time>
      </trkpt>
      <trkpt lat="43.54121" lon="6.61809">
        <ele>437.74862670898</ele>
        <time>2011-06-02T11:13:24Z</time>
      </trkpt>
      <trkpt lat="43.54123" lon="6.61797">
        <ele>438.12341308594</ele>
        <time>2011-06-02T11:13:29Z</time>
      </trkpt>
      <trkpt lat="43.54124" lon="6.61777">
        <ele>439.08013916016</ele>
        <time>2011-06-02T11:13:35Z</time>
      </trkpt>
      <trkpt lat="43.54128" lon="6.61765">
        <ele>439.10076904297</ele>
        <time>2011-06-02T11:13:40Z</time>
      </trkpt>
      <trkpt lat="43.5413" lon="6.61759">
        <ele>439.00289916992</ele>
        <time>2011-06-02T11:13:43Z</time>
      </trkpt>
      <trkpt lat="43.54134" lon="6.61744">
        <ele>438.93597412109</ele>
        <time>2011-06-02T11:13:49Z</time>
      </trkpt>
      <trkpt lat="43.54139" lon="6.61721">
        <ele>439.33190917969</ele>
        <time>2011-06-02T11:13:56Z</time>
      </trkpt>
      <trkpt lat="43.54142" lon="6.61713">
        <ele>439.24493408203</ele>
        <time>2011-06-02T11:13:59Z</time>
      </trkpt>
      <trkpt lat="43.54143" lon="6.61695">
        <ele>440.09582519531</ele>
        <time>2011-06-02T11:14:06Z</time>
      </trkpt>
      <trkpt lat="43.54144" lon="6.61692">
        <ele>440.14331054688</ele>
        <time>2011-06-02T11:14:07Z</time>
      </trkpt>
      <trkpt lat="43.54148" lon="6.61669">
        <ele>440.55413818359</ele>
        <time>2011-06-02T11:14:13Z</time>
      </trkpt>
      <trkpt lat="43.54153" lon="6.61653">
        <ele>440.17449951172</ele>
        <time>2011-06-02T11:14:18Z</time>
      </trkpt>
      <trkpt lat="43.54165" lon="6.61624">
        <ele>438.97860717773</ele>
        <time>2011-06-02T11:14:24Z</time>
      </trkpt>
      <trkpt lat="43.5417" lon="6.61611">
        <ele>438.19003295898</ele>
        <time>2011-06-02T11:14:26Z</time>
      </trkpt>
      <trkpt lat="43.54186" lon="6.61572">
        <ele>435.7463684082</ele>
        <time>2011-06-02T11:14:31Z</time>
      </trkpt>
      <trkpt lat="43.54206" lon="6.61532">
        <ele>431.57373046875</ele>
        <time>2011-06-02T11:14:37Z</time>
      </trkpt>
      <trkpt lat="43.54217" lon="6.61499">
        <ele>429.24755859375</ele>
        <time>2011-06-02T11:14:42Z</time>
      </trkpt>
      <trkpt lat="43.54221" lon="6.61481">
        <ele>427.84036254883</ele>
        <time>2011-06-02T11:14:45Z</time>
      </trkpt>
      <trkpt lat="43.54223" lon="6.61462">
        <ele>426.99703979492</ele>
        <time>2011-06-02T11:14:49Z</time>
      </trkpt>
      <trkpt lat="43.54225" lon="6.61446">
        <ele>426.21835327148</ele>
        <time>2011-06-02T11:14:52Z</time>
      </trkpt>
      <trkpt lat="43.54225" lon="6.61424">
        <ele>425.88412475586</ele>
        <time>2011-06-02T11:14:55Z</time>
      </trkpt>
      <trkpt lat="43.5422" lon="6.61393">
        <ele>425.75524902344</ele>
        <time>2011-06-02T11:14:59Z</time>
      </trkpt>
      <trkpt lat="43.54216" lon="6.61375">
        <ele>425.75640869141</ele>
        <time>2011-06-02T11:15:02Z</time>
      </trkpt>
      <trkpt lat="43.54214" lon="6.61369">
        <ele>425.88397216797</ele>
        <time>2011-06-02T11:15:03Z</time>
      </trkpt>
      <trkpt lat="43.54211" lon="6.61356">
        <ele>426.10076904297</ele>
        <time>2011-06-02T11:15:05Z</time>
      </trkpt>
      <trkpt lat="43.5421" lon="6.61321">
        <ele>424.82183837891</ele>
        <time>2011-06-02T11:15:10Z</time>
      </trkpt>
      <trkpt lat="43.54212" lon="6.61309">
        <ele>423.8359375</ele>
        <time>2011-06-02T11:15:12Z</time>
      </trkpt>
      <trkpt lat="43.54221" lon="6.61261">
        <ele>420.31573486328</ele>
        <time>2011-06-02T11:15:20Z</time>
      </trkpt>
      <trkpt lat="43.5423" lon="6.6122">
        <ele>416.20260620117</ele>
        <time>2011-06-02T11:15:25Z</time>
      </trkpt>
      <trkpt lat="43.5424" lon="6.61174">
        <ele>411.38977050781</ele>
        <time>2011-06-02T11:15:30Z</time>
      </trkpt>
      <trkpt lat="43.54247" lon="6.6113">
        <ele>407.41836547852</ele>
        <time>2011-06-02T11:15:35Z</time>
      </trkpt>
      <trkpt lat="43.54248" lon="6.61121">
        <ele>406.57235717773</ele>
        <time>2011-06-02T11:15:36Z</time>
      </trkpt>
      <trkpt lat="43.54245" lon="6.61074">
        <ele>404.20251464844</ele>
        <time>2011-06-02T11:15:41Z</time>
      </trkpt>
      <trkpt lat="43.54239" lon="6.6106">
        <ele>404.14874267578</ele>
        <time>2011-06-02T11:15:44Z</time>
      </trkpt>
      <trkpt lat="43.5423" lon="6.61041">
        <ele>404.283203125</ele>
        <time>2011-06-02T11:15:49Z</time>
      </trkpt>
      <trkpt lat="43.54211" lon="6.61018">
        <ele>405.95861816406</ele>
        <time>2011-06-02T11:15:54Z</time>
      </trkpt>
      <trkpt lat="43.54203" lon="6.60998">
        <ele>405.71105957031</ele>
        <time>2011-06-02T11:15:57Z</time>
      </trkpt>
      <trkpt lat="43.542" lon="6.60984">
        <ele>405.05255126953</ele>
        <time>2011-06-02T11:15:59Z</time>
      </trkpt>
      <trkpt lat="43.54192" lon="6.60961">
        <ele>404.60824584961</ele>
        <time>2011-06-02T11:16:04Z</time>
      </trkpt>
      <trkpt lat="43.54173" lon="6.60924">
        <ele>405.31243896484</ele>
        <time>2011-06-02T11:16:13Z</time>
      </trkpt>
      <trkpt lat="43.54153" lon="6.60892">
        <ele>404.83752441406</ele>
        <time>2011-06-02T11:16:21Z</time>
      </trkpt>
      <trkpt lat="43.54134" lon="6.60869">
        <ele>404.60345458984</ele>
        <time>2011-06-02T11:16:29Z</time>
      </trkpt>
      <trkpt lat="43.54124" lon="6.60859">
        <ele>404.67831420898</ele>
        <time>2011-06-02T11:16:35Z</time>
      </trkpt>
      <trkpt lat="43.54118" lon="6.60847">
        <ele>404.30743408203</ele>
        <time>2011-06-02T11:16:41Z</time>
      </trkpt>
      <trkpt lat="43.54116" lon="6.60847">
        <ele>404.41842651367</ele>
        <time>2011-06-02T11:16:49Z</time>
      </trkpt>
      <trkpt lat="43.54116" lon="6.60848">
        <ele>404.63323974609</ele>
        <time>2011-06-02T11:17:05Z</time>
      </trkpt>
      <trkpt lat="43.54114" lon="6.60852">
        <ele>405.21697998047</ele>
        <time>2011-06-02T11:19:15Z</time>
      </trkpt>
      <trkpt lat="43.54114" lon="6.60852">
        <ele>405.22177124023</ele>
        <time>2011-06-02T11:19:16Z</time>
      </trkpt>
      <trkpt lat="43.54113" lon="6.60853">
        <ele>405.38613891602</ele>
        <time>2011-06-02T11:19:53Z</time>
      </trkpt>
      <trkpt lat="43.54113" lon="6.60853">
        <ele>405.5041809082</ele>
        <time>2011-06-02T11:22:31Z</time>
      </trkpt>
      <trkpt lat="43.54113" lon="6.60853">
        <ele>405.40692138672</ele>
        <time>2011-06-02T11:22:48Z</time>
      </trkpt>
      <trkpt lat="43.54113" lon="6.60853">
        <ele>405.40213012695</ele>
        <time>2011-06-02T11:22:49Z</time>
      </trkpt>
      <trkpt lat="43.54113" lon="6.60853">
        <ele>405.36865234375</ele>
        <time>2011-06-02T11:22:58Z</time>
      </trkpt>
      <trkpt lat="43.54113" lon="6.60852">
        <ele>405.29522705078</ele>
        <time>2011-06-02T11:23:12Z</time>
      </trkpt>
      <trkpt lat="43.54111" lon="6.60852">
        <ele>405.54934692383</ele>
        <time>2011-06-02T11:23:45Z</time>
      </trkpt>
      <trkpt lat="43.5411" lon="6.60852">
        <ele>405.65975952148</ele>
        <time>2011-06-02T11:24:02Z</time>
      </trkpt>
      <trkpt lat="43.5411" lon="6.60852">
        <ele>405.64071655273</ele>
        <time>2011-06-02T11:24:03Z</time>
      </trkpt>
      <trkpt lat="43.54111" lon="6.60851">
        <ele>405.45111083984</ele>
        <time>2011-06-02T11:24:42Z</time>
      </trkpt>
      <trkpt lat="43.5411" lon="6.60852">
        <ele>405.66741943359</ele>
        <time>2011-06-02T11:25:37Z</time>
      </trkpt>
      <trkpt lat="43.54111" lon="6.60851">
        <ele>405.51306152344</ele>
        <time>2011-06-02T11:26:06Z</time>
      </trkpt>
      <trkpt lat="43.54109" lon="6.60851">
        <ele>405.71798706055</ele>
        <time>2011-06-02T11:26:11Z</time>
      </trkpt>
      <trkpt lat="43.54102" lon="6.60847">
        <ele>406.18353271484</ele>
        <time>2011-06-02T11:26:16Z</time>
      </trkpt>
      <trkpt lat="43.54087" lon="6.60843">
        <ele>407.54336547852</ele>
        <time>2011-06-02T11:26:23Z</time>
      </trkpt>
      <trkpt lat="43.5407" lon="6.60837">
        <ele>406.81140136719</ele>
        <time>2011-06-02T11:26:30Z</time>
      </trkpt>
      <trkpt lat="43.54055" lon="6.60829">
        <ele>405.73889160156</ele>
        <time>2011-06-02T11:26:36Z</time>
      </trkpt>
      <trkpt lat="43.54044" lon="6.60816">
        <ele>404.62197875977</ele>
        <time>2011-06-02T11:26:42Z</time>
      </trkpt>
      <trkpt lat="43.5403" lon="6.60806">
        <ele>403.74670410156</ele>
        <time>2011-06-02T11:26:49Z</time>
      </trkpt>
      <trkpt lat="43.54018" lon="6.6081">
        <ele>403.61846923828</ele>
        <time>2011-06-02T11:26:55Z</time>
      </trkpt>
      <trkpt lat="43.54017" lon="6.6081">
        <ele>403.6012878418</ele>
        <time>2011-06-02T11:27:08Z</time>
      </trkpt>
      <trkpt lat="43.54016" lon="6.60812">
        <ele>403.66546630859</ele>
        <time>2011-06-02T11:27:14Z</time>
      </trkpt>
      <trkpt lat="43.54015" lon="6.60816">
        <ele>403.79803466797</ele>
        <time>2011-06-02T11:27:18Z</time>
      </trkpt>
      <trkpt lat="43.54013" lon="6.60818">
        <ele>403.84976196289</ele>
        <time>2011-06-02T11:27:22Z</time>
      </trkpt>
      <trkpt lat="43.54013" lon="6.60819">
        <ele>403.86022949219</ele>
        <time>2011-06-02T11:27:24Z</time>
      </trkpt>
      <trkpt lat="43.54011" lon="6.60821">
        <ele>403.91015625</ele>
        <time>2011-06-02T11:27:31Z</time>
      </trkpt>
      <trkpt lat="43.54011" lon="6.60821">
        <ele>403.91403198242</ele>
        <time>2011-06-02T11:27:32Z</time>
      </trkpt>
      <trkpt lat="43.5401" lon="6.60821">
        <ele>403.86734008789</ele>
        <time>2011-06-02T11:27:42Z</time>
      </trkpt>
      <trkpt lat="43.54012" lon="6.60818">
        <ele>403.78314208984</ele>
        <time>2011-06-02T11:27:52Z</time>
      </trkpt>
      <trkpt lat="43.54012" lon="6.60817">
        <ele>403.72647094727</ele>
        <time>2011-06-02T11:28:02Z</time>
      </trkpt>
      <trkpt lat="43.54011" lon="6.60814">
        <ele>403.60375976562</ele>
        <time>2011-06-02T11:28:20Z</time>
      </trkpt>
      <trkpt lat="43.5401" lon="6.60816">
        <ele>403.66723632812</ele>
        <time>2011-06-02T11:28:27Z</time>
      </trkpt>
      <trkpt lat="43.54004" lon="6.60833">
        <ele>404.13006591797</ele>
        <time>2011-06-02T11:28:33Z</time>
      </trkpt>
      <trkpt lat="43.54003" lon="6.60836">
        <ele>404.24493408203</ele>
        <time>2011-06-02T11:28:34Z</time>
      </trkpt>
      <trkpt lat="43.54" lon="6.60844">
        <ele>404.47366333008</ele>
        <time>2011-06-02T11:28:36Z</time>
      </trkpt>
      <trkpt lat="43.53987" lon="6.6087">
        <ele>404.06292724609</ele>
        <time>2011-06-02T11:28:42Z</time>
      </trkpt>
      <trkpt lat="43.53968" lon="6.60911">
        <ele>403.13903808594</ele>
        <time>2011-06-02T11:28:51Z</time>
      </trkpt>
      <trkpt lat="43.53963" lon="6.60921">
        <ele>403.10659790039</ele>
        <time>2011-06-02T11:28:53Z</time>
      </trkpt>
      <trkpt lat="43.53955" lon="6.60949">
        <ele>404.07473754883</ele>
        <time>2011-06-02T11:28:58Z</time>
      </trkpt>
      <trkpt lat="43.53941" lon="6.60995">
        <ele>405.00128173828</ele>
        <time>2011-06-02T11:29:05Z</time>
      </trkpt>
      <trkpt lat="43.53939" lon="6.61002">
        <ele>405.14099121094</ele>
        <time>2011-06-02T11:29:06Z</time>
      </trkpt>
      <trkpt lat="43.53929" lon="6.61019">
        <ele>404.61569213867</ele>
        <time>2011-06-02T11:29:09Z</time>
      </trkpt>
      <trkpt lat="43.53915" lon="6.61053">
        <ele>404.59332275391</ele>
        <time>2011-06-02T11:29:14Z</time>
      </trkpt>
      <trkpt lat="43.53896" lon="6.61076">
        <ele>403.20745849609</ele>
        <time>2011-06-02T11:29:18Z</time>
      </trkpt>
      <trkpt lat="43.53883" lon="6.61079">
        <ele>401.43133544922</ele>
        <time>2011-06-02T11:29:20Z</time>
      </trkpt>
      <trkpt lat="43.53848" lon="6.61095">
        <ele>397.0778503418</ele>
        <time>2011-06-02T11:29:26Z</time>
      </trkpt>
      <trkpt lat="43.53817" lon="6.61144">
        <ele>395.85916137695</ele>
        <time>2011-06-02T11:29:33Z</time>
      </trkpt>
      <trkpt lat="43.53802" lon="6.61175">
        <ele>395.84902954102</ele>
        <time>2011-06-02T11:29:37Z</time>
      </trkpt>
      <trkpt lat="43.53791" lon="6.61205">
        <ele>396.88616943359</ele>
        <time>2011-06-02T11:29:41Z</time>
      </trkpt>
      <trkpt lat="43.53788" lon="6.61212">
        <ele>397.0143737793</ele>
        <time>2011-06-02T11:29:42Z</time>
      </trkpt>
      <trkpt lat="43.5377" lon="6.61232">
        <ele>395.83551025391</ele>
        <time>2011-06-02T11:29:46Z</time>
      </trkpt>
      <trkpt lat="43.53761" lon="6.61234">
        <ele>394.37176513672</ele>
        <time>2011-06-02T11:29:48Z</time>
      </trkpt>
      <trkpt lat="43.53751" lon="6.61234">
        <ele>392.74890136719</ele>
        <time>2011-06-02T11:29:50Z</time>
      </trkpt>
      <trkpt lat="43.53732" lon="6.61247">
        <ele>391.66128540039</ele>
        <time>2011-06-02T11:29:54Z</time>
      </trkpt>
      <trkpt lat="43.53722" lon="6.61268">
        <ele>392.86029052734</ele>
        <time>2011-06-02T11:29:57Z</time>
      </trkpt>
      <trkpt lat="43.53703" lon="6.61283">
        <ele>392.87246704102</ele>
        <time>2011-06-02T11:30:01Z</time>
      </trkpt>
      <trkpt lat="43.53698" lon="6.6128">
        <ele>392.07601928711</ele>
        <time>2011-06-02T11:30:02Z</time>
      </trkpt>
      <trkpt lat="43.53671" lon="6.61278">
        <ele>389.05728149414</ele>
        <time>2011-06-02T11:30:07Z</time>
      </trkpt>
      <trkpt lat="43.53651" lon="6.61286">
        <ele>389.64883422852</ele>
        <time>2011-06-02T11:30:10Z</time>
      </trkpt>
      <trkpt lat="43.53619" lon="6.61288">
        <ele>389.41891479492</ele>
        <time>2011-06-02T11:30:15Z</time>
      </trkpt>
      <trkpt lat="43.53581" lon="6.61273">
        <ele>385.451171875</ele>
        <time>2011-06-02T11:30:21Z</time>
      </trkpt>
      <trkpt lat="43.53549" lon="6.61259">
        <ele>380.48150634766</ele>
        <time>2011-06-02T11:30:26Z</time>
      </trkpt>
      <trkpt lat="43.53528" lon="6.61257">
        <ele>378.58489990234</ele>
        <time>2011-06-02T11:30:30Z</time>
      </trkpt>
      <trkpt lat="43.53489" lon="6.61267">
        <ele>377.36285400391</ele>
        <time>2011-06-02T11:30:36Z</time>
      </trkpt>
      <trkpt lat="43.53453" lon="6.61285">
        <ele>376.72894287109</ele>
        <time>2011-06-02T11:30:41Z</time>
      </trkpt>
      <trkpt lat="43.5343" lon="6.61297">
        <ele>376.21752929688</ele>
        <time>2011-06-02T11:30:44Z</time>
      </trkpt>
      <trkpt lat="43.53397" lon="6.61329">
        <ele>374.453125</ele>
        <time>2011-06-02T11:30:49Z</time>
      </trkpt>
      <trkpt lat="43.53386" lon="6.61344">
        <ele>372.97216796875</ele>
        <time>2011-06-02T11:30:51Z</time>
      </trkpt>
      <trkpt lat="43.53344" lon="6.61408">
        <ele>366.03213500977</ele>
        <time>2011-06-02T11:30:59Z</time>
      </trkpt>
      <trkpt lat="43.53339" lon="6.61417">
        <ele>365.22177124023</ele>
        <time>2011-06-02T11:31:00Z</time>
      </trkpt>
      <trkpt lat="43.53329" lon="6.61465">
        <ele>363.82623291016</ele>
        <time>2011-06-02T11:31:05Z</time>
      </trkpt>
      <trkpt lat="43.53333" lon="6.61539">
        <ele>369.21463012695</ele>
        <time>2011-06-02T11:31:13Z</time>
      </trkpt>
      <trkpt lat="43.53337" lon="6.61588">
        <ele>373.53161621094</ele>
        <time>2011-06-02T11:31:19Z</time>
      </trkpt>
      <trkpt lat="43.53338" lon="6.6164">
        <ele>376.48791503906</ele>
        <time>2011-06-02T11:31:26Z</time>
      </trkpt>
      <trkpt lat="43.53332" lon="6.61667">
        <ele>375.68515014648</ele>
        <time>2011-06-02T11:31:30Z</time>
      </trkpt>
      <trkpt lat="43.53322" lon="6.61688">
        <ele>374.18637084961</ele>
        <time>2011-06-02T11:31:34Z</time>
      </trkpt>
      <trkpt lat="43.53314" lon="6.6171">
        <ele>373.06915283203</ele>
        <time>2011-06-02T11:31:38Z</time>
      </trkpt>
      <trkpt lat="43.5332" lon="6.61739">
        <ele>375.28356933594</ele>
        <time>2011-06-02T11:31:43Z</time>
      </trkpt>
      <trkpt lat="43.53328" lon="6.61763">
        <ele>376.26327514648</ele>
        <time>2011-06-02T11:31:47Z</time>
      </trkpt>
      <trkpt lat="43.53323" lon="6.61777">
        <ele>373.79934692383</ele>
        <time>2011-06-02T11:31:49Z</time>
      </trkpt>
      <trkpt lat="43.53312" lon="6.61795">
        <ele>369.20159912109</ele>
        <time>2011-06-02T11:31:52Z</time>
      </trkpt>
      <trkpt lat="43.53311" lon="6.61827">
        <ele>365.77926635742</ele>
        <time>2011-06-02T11:31:56Z</time>
      </trkpt>
      <trkpt lat="43.53314" lon="6.61835">
        <ele>365.69189453125</ele>
        <time>2011-06-02T11:31:57Z</time>
      </trkpt>
      <trkpt lat="43.53335" lon="6.61883">
        <ele>366.62329101562</ele>
        <time>2011-06-02T11:32:03Z</time>
      </trkpt>
      <trkpt lat="43.53352" lon="6.61909">
        <ele>367.83917236328</ele>
        <time>2011-06-02T11:32:07Z</time>
      </trkpt>
      <trkpt lat="43.53358" lon="6.61922">
        <ele>367.98638916016</ele>
        <time>2011-06-02T11:32:09Z</time>
      </trkpt>
      <trkpt lat="43.53366" lon="6.61934">
        <ele>369.14727783203</ele>
        <time>2011-06-02T11:32:11Z</time>
      </trkpt>
      <trkpt lat="43.53374" lon="6.61968">
        <ele>369.42196655273</ele>
        <time>2011-06-02T11:32:16Z</time>
      </trkpt>
      <trkpt lat="43.53366" lon="6.61978">
        <ele>367.77697753906</ele>
        <time>2011-06-02T11:32:18Z</time>
      </trkpt>
      <trkpt lat="43.53332" lon="6.62008">
        <ele>362.43817138672</ele>
        <time>2011-06-02T11:32:25Z</time>
      </trkpt>
      <trkpt lat="43.53302" lon="6.62042">
        <ele>360.56018066406</ele>
        <time>2011-06-02T11:32:31Z</time>
      </trkpt>
      <trkpt lat="43.53292" lon="6.62056">
        <ele>360.12417602539</ele>
        <time>2011-06-02T11:32:33Z</time>
      </trkpt>
      <trkpt lat="43.53278" lon="6.62097">
        <ele>360.84243774414</ele>
        <time>2011-06-02T11:32:38Z</time>
      </trkpt>
      <trkpt lat="43.53276" lon="6.62106">
        <ele>361.14114379883</ele>
        <time>2011-06-02T11:32:39Z</time>
      </trkpt>
      <trkpt lat="43.53262" lon="6.62137">
        <ele>361.00823974609</ele>
        <time>2011-06-02T11:32:43Z</time>
      </trkpt>
      <trkpt lat="43.53254" lon="6.62149">
        <ele>360.46539306641</ele>
        <time>2011-06-02T11:32:45Z</time>
      </trkpt>
      <trkpt lat="43.5324" lon="6.62196">
        <ele>363.97317504883</ele>
        <time>2011-06-02T11:32:51Z</time>
      </trkpt>
      <trkpt lat="43.53241" lon="6.62204">
        <ele>364.99401855469</ele>
        <time>2011-06-02T11:32:52Z</time>
      </trkpt>
      <trkpt lat="43.53239" lon="6.62232">
        <ele>368.53341674805</ele>
        <time>2011-06-02T11:32:57Z</time>
      </trkpt>
      <trkpt lat="43.53234" lon="6.62225">
        <ele>367.77191162109</ele>
        <time>2011-06-02T11:32:59Z</time>
      </trkpt>
      <trkpt lat="43.53224" lon="6.62213">
        <ele>366.15270996094</ele>
        <time>2011-06-02T11:33:01Z</time>
      </trkpt>
      <trkpt lat="43.53215" lon="6.62204">
        <ele>364.68316650391</ele>
        <time>2011-06-02T11:33:03Z</time>
      </trkpt>
      <trkpt lat="43.53194" lon="6.62191">
        <ele>361.94259643555</ele>
        <time>2011-06-02T11:33:06Z</time>
      </trkpt>
      <trkpt lat="43.53162" lon="6.62184">
        <ele>359.33358764648</ele>
        <time>2011-06-02T11:33:10Z</time>
      </trkpt>
      <trkpt lat="43.53138" lon="6.62178">
        <ele>357.25518798828</ele>
        <time>2011-06-02T11:33:13Z</time>
      </trkpt>
      <trkpt lat="43.53101" lon="6.62152">
        <ele>350.15243530273</ele>
        <time>2011-06-02T11:33:18Z</time>
      </trkpt>
      <trkpt lat="43.53082" lon="6.62145">
        <ele>347.67227172852</ele>
        <time>2011-06-02T11:33:21Z</time>
      </trkpt>
      <trkpt lat="43.53063" lon="6.62164">
        <ele>349.68380737305</ele>
        <time>2011-06-02T11:33:24Z</time>
      </trkpt>
      <trkpt lat="43.53045" lon="6.622">
        <ele>356.24743652344</ele>
        <time>2011-06-02T11:33:28Z</time>
      </trkpt>
      <trkpt lat="43.53035" lon="6.62232">
        <ele>362.3616027832</ele>
        <time>2011-06-02T11:33:31Z</time>
      </trkpt>
      <trkpt lat="43.53016" lon="6.62262">
        <ele>364.15344238281</ele>
        <time>2011-06-02T11:33:35Z</time>
      </trkpt>
      <trkpt lat="43.5301" lon="6.62264">
        <ele>363.08349609375</ele>
        <time>2011-06-02T11:33:36Z</time>
      </trkpt>
      <trkpt lat="43.52972" lon="6.6228">
        <ele>358.40264892578</ele>
        <time>2011-06-02T11:33:42Z</time>
      </trkpt>
      <trkpt lat="43.52949" lon="6.62296">
        <ele>356.4508972168</ele>
        <time>2011-06-02T11:33:46Z</time>
      </trkpt>
      <trkpt lat="43.52923" lon="6.62332">
        <ele>355.11782836914</ele>
        <time>2011-06-02T11:33:52Z</time>
      </trkpt>
      <trkpt lat="43.529" lon="6.62368">
        <ele>352.90045166016</ele>
        <time>2011-06-02T11:33:57Z</time>
      </trkpt>
      <trkpt lat="43.52895" lon="6.62376">
        <ele>352.33349609375</ele>
        <time>2011-06-02T11:33:58Z</time>
      </trkpt>
      <trkpt lat="43.52864" lon="6.62413">
        <ele>347.26190185547</ele>
        <time>2011-06-02T11:34:03Z</time>
      </trkpt>
      <trkpt lat="43.52849" lon="6.62438">
        <ele>344.02600097656</ele>
        <time>2011-06-02T11:34:06Z</time>
      </trkpt>
      <trkpt lat="43.52825" lon="6.62458">
        <ele>337.69750976562</ele>
        <time>2011-06-02T11:34:10Z</time>
      </trkpt>
      <trkpt lat="43.52813" lon="6.62482">
        <ele>333.93630981445</ele>
        <time>2011-06-02T11:34:13Z</time>
      </trkpt>
      <trkpt lat="43.52814" lon="6.62513">
        <ele>335.74072265625</ele>
        <time>2011-06-02T11:34:16Z</time>
      </trkpt>
      <trkpt lat="43.52817" lon="6.62523">
        <ele>337.66018676758</ele>
        <time>2011-06-02T11:34:17Z</time>
      </trkpt>
      <trkpt lat="43.52828" lon="6.62553">
        <ele>344.45257568359</ele>
        <time>2011-06-02T11:34:20Z</time>
      </trkpt>
      <trkpt lat="43.52826" lon="6.62593">
        <ele>349.25054931641</ele>
        <time>2011-06-02T11:34:24Z</time>
      </trkpt>
      <trkpt lat="43.52806" lon="6.62615">
        <ele>346.07748413086</ele>
        <time>2011-06-02T11:34:27Z</time>
      </trkpt>
      <trkpt lat="43.52791" lon="6.62622">
        <ele>341.72885131836</ele>
        <time>2011-06-02T11:34:29Z</time>
      </trkpt>
      <trkpt lat="43.52768" lon="6.62627">
        <ele>333.65646362305</ele>
        <time>2011-06-02T11:34:32Z</time>
      </trkpt>
      <trkpt lat="43.52733" lon="6.62655">
        <ele>324.9033203125</ele>
        <time>2011-06-02T11:34:37Z</time>
      </trkpt>
      <trkpt lat="43.52728" lon="6.6266">
        <ele>324.05651855469</ele>
        <time>2011-06-02T11:34:38Z</time>
      </trkpt>
      <trkpt lat="43.52718" lon="6.62659">
        <ele>321.53848266602</ele>
        <time>2011-06-02T11:34:40Z</time>
      </trkpt>
      <trkpt lat="43.52717" lon="6.6265">
        <ele>320.57077026367</ele>
        <time>2011-06-02T11:34:41Z</time>
      </trkpt>
      <trkpt lat="43.52712" lon="6.62631">
        <ele>318.21081542969</ele>
        <time>2011-06-02T11:34:43Z</time>
      </trkpt>
      <trkpt lat="43.52697" lon="6.62574">
        <ele>311.37118530273</ele>
        <time>2011-06-02T11:34:48Z</time>
      </trkpt>
      <trkpt lat="43.52694" lon="6.62561">
        <ele>310.05722045898</ele>
        <time>2011-06-02T11:34:49Z</time>
      </trkpt>
      <trkpt lat="43.52685" lon="6.62525">
        <ele>306.02310180664</ele>
        <time>2011-06-02T11:34:52Z</time>
      </trkpt>
      <trkpt lat="43.52662" lon="6.62505">
        <ele>300.46267700195</ele>
        <time>2011-06-02T11:34:56Z</time>
      </trkpt>
      <trkpt lat="43.52655" lon="6.6252">
        <ele>299.84442138672</ele>
        <time>2011-06-02T11:34:58Z</time>
      </trkpt>
      <trkpt lat="43.52654" lon="6.62546">
        <ele>300.98080444336</ele>
        <time>2011-06-02T11:35:01Z</time>
      </trkpt>
      <trkpt lat="43.52655" lon="6.62554">
        <ele>301.60562133789</ele>
        <time>2011-06-02T11:35:02Z</time>
      </trkpt>
      <trkpt lat="43.52664" lon="6.62593">
        <ele>304.95544433594</ele>
        <time>2011-06-02T11:35:06Z</time>
      </trkpt>
      <trkpt lat="43.52669" lon="6.62658">
        <ele>309.20318603516</ele>
        <time>2011-06-02T11:35:12Z</time>
      </trkpt>
      <trkpt lat="43.52671" lon="6.62669">
        <ele>310.28945922852</ele>
        <time>2011-06-02T11:35:13Z</time>
      </trkpt>
      <trkpt lat="43.52672" lon="6.62711">
        <ele>311.99172973633</ele>
        <time>2011-06-02T11:35:17Z</time>
      </trkpt>
      <trkpt lat="43.52668" lon="6.62731">
        <ele>311.67590332031</ele>
        <time>2011-06-02T11:35:19Z</time>
      </trkpt>
      <trkpt lat="43.52663" lon="6.62782">
        <ele>312.24249267578</ele>
        <time>2011-06-02T11:35:24Z</time>
      </trkpt>
      <trkpt lat="43.52647" lon="6.62816">
        <ele>310.40679931641</ele>
        <time>2011-06-02T11:35:29Z</time>
      </trkpt>
      <trkpt lat="43.52604" lon="6.62819">
        <ele>303.67822265625</ele>
        <time>2011-06-02T11:35:35Z</time>
      </trkpt>
      <trkpt lat="43.5257" lon="6.62823">
        <ele>298.46920776367</ele>
        <time>2011-06-02T11:35:40Z</time>
      </trkpt>
      <trkpt lat="43.52558" lon="6.62826">
        <ele>296.56741333008</ele>
        <time>2011-06-02T11:35:42Z</time>
      </trkpt>
      <trkpt lat="43.52544" lon="6.6284">
        <ele>294.56256103516</ele>
        <time>2011-06-02T11:35:45Z</time>
      </trkpt>
      <trkpt lat="43.52522" lon="6.62876">
        <ele>291.97702026367</ele>
        <time>2011-06-02T11:35:51Z</time>
      </trkpt>
      <trkpt lat="43.52512" lon="6.62894">
        <ele>290.73944091797</ele>
        <time>2011-06-02T11:35:54Z</time>
      </trkpt>
      <trkpt lat="43.52483" lon="6.62929">
        <ele>287.58926391602</ele>
        <time>2011-06-02T11:36:00Z</time>
      </trkpt>
      <trkpt lat="43.5245" lon="6.62965">
        <ele>284.98345947266</ele>
        <time>2011-06-02T11:36:05Z</time>
      </trkpt>
      <trkpt lat="43.52437" lon="6.62981">
        <ele>283.93783569336</ele>
        <time>2011-06-02T11:36:07Z</time>
      </trkpt>
      <trkpt lat="43.52412" lon="6.63025">
        <ele>282.56790161133</ele>
        <time>2011-06-02T11:36:12Z</time>
      </trkpt>
      <trkpt lat="43.52405" lon="6.63069">
        <ele>283.31030273438</ele>
        <time>2011-06-02T11:36:17Z</time>
      </trkpt>
      <trkpt lat="43.52391" lon="6.63125">
        <ele>284.17532348633</ele>
        <time>2011-06-02T11:36:22Z</time>
      </trkpt>
      <trkpt lat="43.52377" lon="6.63165">
        <ele>283.81372070312</ele>
        <time>2011-06-02T11:36:26Z</time>
      </trkpt>
      <trkpt lat="43.52374" lon="6.63175">
        <ele>283.67752075195</ele>
        <time>2011-06-02T11:36:27Z</time>
      </trkpt>
      <trkpt lat="43.52359" lon="6.63197">
        <ele>281.82800292969</ele>
        <time>2011-06-02T11:36:31Z</time>
      </trkpt>
      <trkpt lat="43.52348" lon="6.63193">
        <ele>279.82186889648</ele>
        <time>2011-06-02T11:36:34Z</time>
      </trkpt>
      <trkpt lat="43.52333" lon="6.6318">
        <ele>277.13223266602</ele>
        <time>2011-06-02T11:36:40Z</time>
      </trkpt>
      <trkpt lat="43.52328" lon="6.63176">
        <ele>276.5119934082</ele>
        <time>2011-06-02T11:36:44Z</time>
      </trkpt>
      <trkpt lat="43.52321" lon="6.63168">
        <ele>275.57177734375</ele>
        <time>2011-06-02T11:36:48Z</time>
      </trkpt>
      <trkpt lat="43.52312" lon="6.63151">
        <ele>274.06915283203</ele>
        <time>2011-06-02T11:36:54Z</time>
      </trkpt>
      <trkpt lat="43.52304" lon="6.63134">
        <ele>272.49252319336</ele>
        <time>2011-06-02T11:36:59Z</time>
      </trkpt>
      <trkpt lat="43.52298" lon="6.63125">
        <ele>271.39401245117</ele>
        <time>2011-06-02T11:37:02Z</time>
      </trkpt>
      <trkpt lat="43.52288" lon="6.6311">
        <ele>269.3967590332</ele>
        <time>2011-06-02T11:37:08Z</time>
      </trkpt>
      <trkpt lat="43.52281" lon="6.63104">
        <ele>268.02917480469</ele>
        <time>2011-06-02T11:37:12Z</time>
      </trkpt>
      <trkpt lat="43.52269" lon="6.63096">
        <ele>265.76556396484</ele>
        <time>2011-06-02T11:37:18Z</time>
      </trkpt>
      <trkpt lat="43.52266" lon="6.63094">
        <ele>265.2919921875</ele>
        <time>2011-06-02T11:37:19Z</time>
      </trkpt>
      <trkpt lat="43.52253" lon="6.63091">
        <ele>263.03387451172</ele>
        <time>2011-06-02T11:37:25Z</time>
      </trkpt>
      <trkpt lat="43.52242" lon="6.63089">
        <ele>261.62875366211</ele>
        <time>2011-06-02T11:37:30Z</time>
      </trkpt>
      <trkpt lat="43.52224" lon="6.63081">
        <ele>259.40863037109</ele>
        <time>2011-06-02T11:37:36Z</time>
      </trkpt>
      <trkpt lat="43.52219" lon="6.63075">
        <ele>258.50469970703</ele>
        <time>2011-06-02T11:37:39Z</time>
      </trkpt>
      <trkpt lat="43.52207" lon="6.63074">
        <ele>257.18023681641</ele>
        <time>2011-06-02T11:37:44Z</time>
      </trkpt>
      <trkpt lat="43.52203" lon="6.63073">
        <ele>256.53515625</ele>
        <time>2011-06-02T11:37:46Z</time>
      </trkpt>
      <trkpt lat="43.52187" lon="6.63066">
        <ele>253.95736694336</ele>
        <time>2011-06-02T11:37:52Z</time>
      </trkpt>
      <trkpt lat="43.52176" lon="6.6306">
        <ele>251.86665344238</ele>
        <time>2011-06-02T11:37:58Z</time>
      </trkpt>
      <trkpt lat="43.52166" lon="6.63045">
        <ele>248.37055969238</ele>
        <time>2011-06-02T11:38:05Z</time>
      </trkpt>
      <trkpt lat="43.52156" lon="6.63028">
        <ele>243.20059204102</ele>
        <time>2011-06-02T11:38:11Z</time>
      </trkpt>
      <trkpt lat="43.52149" lon="6.63013">
        <ele>238.92556762695</ele>
        <time>2011-06-02T11:38:16Z</time>
      </trkpt>
      <trkpt lat="43.52142" lon="6.62996">
        <ele>234.66932678223</ele>
        <time>2011-06-02T11:38:21Z</time>
      </trkpt>
      <trkpt lat="43.52132" lon="6.62976">
        <ele>231.38417053223</ele>
        <time>2011-06-02T11:38:27Z</time>
      </trkpt>
      <trkpt lat="43.52124" lon="6.62963">
        <ele>228.36451721191</ele>
        <time>2011-06-02T11:38:33Z</time>
      </trkpt>
      <trkpt lat="43.52114" lon="6.62951">
        <ele>224.68608093262</ele>
        <time>2011-06-02T11:38:38Z</time>
      </trkpt>
      <trkpt lat="43.52106" lon="6.62933">
        <ele>221.39866638184</ele>
        <time>2011-06-02T11:38:45Z</time>
      </trkpt>
      <trkpt lat="43.521" lon="6.62915">
        <ele>218.68946838379</ele>
        <time>2011-06-02T11:38:51Z</time>
      </trkpt>
      <trkpt lat="43.52095" lon="6.62885">
        <ele>216.29536437988</ele>
        <time>2011-06-02T11:38:59Z</time>
      </trkpt>
      <trkpt lat="43.52094" lon="6.62869">
        <ele>215.41302490234</ele>
        <time>2011-06-02T11:39:04Z</time>
      </trkpt>
      <trkpt lat="43.52096" lon="6.62854">
        <ele>215.68882751465</ele>
        <time>2011-06-02T11:39:10Z</time>
      </trkpt>
      <trkpt lat="43.52099" lon="6.62844">
        <ele>216.47045898438</ele>
        <time>2011-06-02T11:39:14Z</time>
      </trkpt>
      <trkpt lat="43.52101" lon="6.62825">
        <ele>216.82803344727</ele>
        <time>2011-06-02T11:39:20Z</time>
      </trkpt>
      <trkpt lat="43.52102" lon="6.62812">
        <ele>217.15081787109</ele>
        <time>2011-06-02T11:39:23Z</time>
      </trkpt>
      <trkpt lat="43.52107" lon="6.62783">
        <ele>218.59417724609</ele>
        <time>2011-06-02T11:39:28Z</time>
      </trkpt>
      <trkpt lat="43.5211" lon="6.62762">
        <ele>219.04107666016</ele>
        <time>2011-06-02T11:39:32Z</time>
      </trkpt>
      <trkpt lat="43.52106" lon="6.62742">
        <ele>217.70063781738</ele>
        <time>2011-06-02T11:39:36Z</time>
      </trkpt>
      <trkpt lat="43.52103" lon="6.62728">
        <ele>216.78254699707</ele>
        <time>2011-06-02T11:39:38Z</time>
      </trkpt>
      <trkpt lat="43.52097" lon="6.62701">
        <ele>214.71914672852</ele>
        <time>2011-06-02T11:39:42Z</time>
      </trkpt>
      <trkpt lat="43.52092" lon="6.62674">
        <ele>212.91374206543</ele>
        <time>2011-06-02T11:39:46Z</time>
      </trkpt>
      <trkpt lat="43.52079" lon="6.62639">
        <ele>209.11172485352</ele>
        <time>2011-06-02T11:39:52Z</time>
      </trkpt>
      <trkpt lat="43.52061" lon="6.62621">
        <ele>204.59629821777</ele>
        <time>2011-06-02T11:39:56Z</time>
      </trkpt>
      <trkpt lat="43.52045" lon="6.62618">
        <ele>201.08018493652</ele>
        <time>2011-06-02T11:39:59Z</time>
      </trkpt>
      <trkpt lat="43.52035" lon="6.62635">
        <ele>199.80049133301</ele>
        <time>2011-06-02T11:40:02Z</time>
      </trkpt>
      <trkpt lat="43.52032" lon="6.62642">
        <ele>199.56784057617</ele>
        <time>2011-06-02T11:40:03Z</time>
      </trkpt>
      <trkpt lat="43.52011" lon="6.62687">
        <ele>196.37759399414</ele>
        <time>2011-06-02T11:40:09Z</time>
      </trkpt>
      <trkpt lat="43.51994" lon="6.62724">
        <ele>192.64245605469</ele>
        <time>2011-06-02T11:40:13Z</time>
      </trkpt>
      <trkpt lat="43.51975" lon="6.62753">
        <ele>188.27835083008</ele>
        <time>2011-06-02T11:40:17Z</time>
      </trkpt>
      <trkpt lat="43.51964" lon="6.62777">
        <ele>186.06562805176</ele>
        <time>2011-06-02T11:40:21Z</time>
      </trkpt>
      <trkpt lat="43.51957" lon="6.62802">
        <ele>184.77220153809</ele>
        <time>2011-06-02T11:40:24Z</time>
      </trkpt>
      <trkpt lat="43.51938" lon="6.62827">
        <ele>181.67468261719</ele>
        <time>2011-06-02T11:40:28Z</time>
      </trkpt>
      <trkpt lat="43.5192" lon="6.62828">
        <ele>178.4137878418</ele>
        <time>2011-06-02T11:40:30Z</time>
      </trkpt>
      <trkpt lat="43.51897" lon="6.62826">
        <ele>172.82615661621</ele>
        <time>2011-06-02T11:40:33Z</time>
      </trkpt>
      <trkpt lat="43.51881" lon="6.62808">
        <ele>168.3401184082</ele>
        <time>2011-06-02T11:40:37Z</time>
      </trkpt>
      <trkpt lat="43.51878" lon="6.62799">
        <ele>167.28993225098</ele>
        <time>2011-06-02T11:40:38Z</time>
      </trkpt>
      <trkpt lat="43.51852" lon="6.62724">
        <ele>158.65502929688</ele>
        <time>2011-06-02T11:40:45Z</time>
      </trkpt>
      <trkpt lat="43.51839" lon="6.62692">
        <ele>154.30227661133</ele>
        <time>2011-06-02T11:40:48Z</time>
      </trkpt>
      <trkpt lat="43.51828" lon="6.62654">
        <ele>150.65188598633</ele>
        <time>2011-06-02T11:40:52Z</time>
      </trkpt>
      <trkpt lat="43.51823" lon="6.62592">
        <ele>147.66212463379</ele>
        <time>2011-06-02T11:40:58Z</time>
      </trkpt>
      <trkpt lat="43.5182" lon="6.62567">
        <ele>146.11395263672</ele>
        <time>2011-06-02T11:41:01Z</time>
      </trkpt>
      <trkpt lat="43.51816" lon="6.6254">
        <ele>144.205078125</ele>
        <time>2011-06-02T11:41:05Z</time>
      </trkpt>
      <trkpt lat="43.51804" lon="6.62542">
        <ele>142.4358215332</ele>
        <time>2011-06-02T11:41:08Z</time>
      </trkpt>
      <trkpt lat="43.518" lon="6.62547">
        <ele>142.09707641602</ele>
        <time>2011-06-02T11:41:09Z</time>
      </trkpt>
      <trkpt lat="43.51786" lon="6.62571">
        <ele>141.10144042969</ele>
        <time>2011-06-02T11:41:12Z</time>
      </trkpt>
      <trkpt lat="43.51778" lon="6.62589">
        <ele>140.56564331055</ele>
        <time>2011-06-02T11:41:14Z</time>
      </trkpt>
      <trkpt lat="43.5176" lon="6.62608">
        <ele>138.41300964356</ele>
        <time>2011-06-02T11:41:17Z</time>
      </trkpt>
      <trkpt lat="43.5175" lon="6.62611">
        <ele>137.01454162598</ele>
        <time>2011-06-02T11:41:18Z</time>
      </trkpt>
      <trkpt lat="43.51721" lon="6.62615">
        <ele>131.76371765137</ele>
        <time>2011-06-02T11:41:22Z</time>
      </trkpt>
      <trkpt lat="43.51698" lon="6.62622">
        <ele>127.67136383057</ele>
        <time>2011-06-02T11:41:27Z</time>
      </trkpt>
      <trkpt lat="43.51693" lon="6.62614">
        <ele>126.57777404785</ele>
        <time>2011-06-02T11:41:30Z</time>
      </trkpt>
      <trkpt lat="43.51695" lon="6.62606">
        <ele>126.79063415527</ele>
        <time>2011-06-02T11:41:32Z</time>
      </trkpt>
      <trkpt lat="43.517" lon="6.62573">
        <ele>126.69501495361</ele>
        <time>2011-06-02T11:41:38Z</time>
      </trkpt>
      <trkpt lat="43.517" lon="6.62561">
        <ele>126.27449035644</ele>
        <time>2011-06-02T11:41:40Z</time>
      </trkpt>
      <trkpt lat="43.517" lon="6.62554">
        <ele>125.98274230957</ele>
        <time>2011-06-02T11:41:41Z</time>
      </trkpt>
      <trkpt lat="43.51711" lon="6.62517">
        <ele>126.51222229004</ele>
        <time>2011-06-02T11:41:47Z</time>
      </trkpt>
      <trkpt lat="43.51713" lon="6.62503">
        <ele>126.37564086914</ele>
        <time>2011-06-02T11:41:49Z</time>
      </trkpt>
      <trkpt lat="43.51715" lon="6.62474">
        <ele>125.27718353272</ele>
        <time>2011-06-02T11:41:53Z</time>
      </trkpt>
      <trkpt lat="43.51716" lon="6.62451">
        <ele>124.2845993042</ele>
        <time>2011-06-02T11:41:58Z</time>
      </trkpt>
      <trkpt lat="43.51717" lon="6.62447">
        <ele>124.17622375488</ele>
        <time>2011-06-02T11:41:59Z</time>
      </trkpt>
      <trkpt lat="43.51725" lon="6.62421">
        <ele>123.94912719727</ele>
        <time>2011-06-02T11:42:04Z</time>
      </trkpt>
      <trkpt lat="43.51728" lon="6.62407">
        <ele>123.68552398682</ele>
        <time>2011-06-02T11:42:06Z</time>
      </trkpt>
      <trkpt lat="43.51735" lon="6.62382">
        <ele>123.44715118408</ele>
        <time>2011-06-02T11:42:10Z</time>
      </trkpt>
      <trkpt lat="43.51741" lon="6.62373">
        <ele>123.84416198731</ele>
        <time>2011-06-02T11:42:14Z</time>
      </trkpt>
      <trkpt lat="43.5174" lon="6.62356">
        <ele>122.89618682861</ele>
        <time>2011-06-02T11:42:18Z</time>
      </trkpt>
      <trkpt lat="43.5173" lon="6.62337">
        <ele>120.93212890625</ele>
        <time>2011-06-02T11:42:22Z</time>
      </trkpt>
      <trkpt lat="43.51721" lon="6.62315">
        <ele>119.03353118897</ele>
        <time>2011-06-02T11:42:26Z</time>
      </trkpt>
      <trkpt lat="43.51712" lon="6.62306">
        <ele>117.7382888794</ele>
        <time>2011-06-02T11:42:28Z</time>
      </trkpt>
      <trkpt lat="43.5169" lon="6.62292">
        <ele>114.89917755127</ele>
        <time>2011-06-02T11:42:32Z</time>
      </trkpt>
      <trkpt lat="43.5167" lon="6.6227">
        <ele>112.04034423828</ele>
        <time>2011-06-02T11:42:36Z</time>
      </trkpt>
      <trkpt lat="43.51663" lon="6.62246">
        <ele>110.59841918945</ele>
        <time>2011-06-02T11:42:39Z</time>
      </trkpt>
      <trkpt lat="43.51655" lon="6.62199">
        <ele>108.39846038818</ele>
        <time>2011-06-02T11:42:44Z</time>
      </trkpt>
      <trkpt lat="43.51651" lon="6.62179">
        <ele>107.50762939453</ele>
        <time>2011-06-02T11:42:46Z</time>
      </trkpt>
      <trkpt lat="43.51642" lon="6.62129">
        <ele>105.76261138916</ele>
        <time>2011-06-02T11:42:51Z</time>
      </trkpt>
      <trkpt lat="43.51636" lon="6.621">
        <ele>104.86400604248</ele>
        <time>2011-06-02T11:42:54Z</time>
      </trkpt>
      <trkpt lat="43.51631" lon="6.62081">
        <ele>104.23276519775</ele>
        <time>2011-06-02T11:42:56Z</time>
      </trkpt>
      <trkpt lat="43.51627" lon="6.62044">
        <ele>102.90479278565</ele>
        <time>2011-06-02T11:43:00Z</time>
      </trkpt>
      <trkpt lat="43.51625" lon="6.62025">
        <ele>102.22370147705</ele>
        <time>2011-06-02T11:43:02Z</time>
      </trkpt>
      <trkpt lat="43.51627" lon="6.61991">
        <ele>101.35314941406</ele>
        <time>2011-06-02T11:43:06Z</time>
      </trkpt>
      <trkpt lat="43.51636" lon="6.61961">
        <ele>100.96977233887</ele>
        <time>2011-06-02T11:43:10Z</time>
      </trkpt>
      <trkpt lat="43.5164" lon="6.61942">
        <ele>100.63446044922</ele>
        <time>2011-06-02T11:43:13Z</time>
      </trkpt>
      <trkpt lat="43.51648" lon="6.61925">
        <ele>100.50170898438</ele>
        <time>2011-06-02T11:43:16Z</time>
      </trkpt>
      <trkpt lat="43.51648" lon="6.61899">
        <ele>100.13298797607</ele>
        <time>2011-06-02T11:43:20Z</time>
      </trkpt>
      <trkpt lat="43.51647" lon="6.61877">
        <ele>99.813125610352</ele>
        <time>2011-06-02T11:43:23Z</time>
      </trkpt>
      <trkpt lat="43.51652" lon="6.6186">
        <ele>99.801681518555</ele>
        <time>2011-06-02T11:43:27Z</time>
      </trkpt>
      <trkpt lat="43.51661" lon="6.61863">
        <ele>100.1318435669</ele>
        <time>2011-06-02T11:43:31Z</time>
      </trkpt>
      <trkpt lat="43.5167" lon="6.6186">
        <ele>100.49098968506</ele>
        <time>2011-06-02T11:43:35Z</time>
      </trkpt>
      <trkpt lat="43.51684" lon="6.61856">
        <ele>101.02422332764</ele>
        <time>2011-06-02T11:43:40Z</time>
      </trkpt>
      <trkpt lat="43.51698" lon="6.61854">
        <ele>101.56582641602</ele>
        <time>2011-06-02T11:43:45Z</time>
      </trkpt>
      <trkpt lat="43.51711" lon="6.6186">
        <ele>102.26814270019</ele>
        <time>2011-06-02T11:43:50Z</time>
      </trkpt>
      <trkpt lat="43.51729" lon="6.61865">
        <ele>103.1785736084</ele>
        <time>2011-06-02T11:43:56Z</time>
      </trkpt>
      <trkpt lat="43.51749" lon="6.61863">
        <ele>104.00960540772</ele>
        <time>2011-06-02T11:44:02Z</time>
      </trkpt>
      <trkpt lat="43.51767" lon="6.61847">
        <ele>104.5216293335</ele>
        <time>2011-06-02T11:44:08Z</time>
      </trkpt>
      <trkpt lat="43.5179" lon="6.61828">
        <ele>105.29578399658</ele>
        <time>2011-06-02T11:44:15Z</time>
      </trkpt>
      <trkpt lat="43.51812" lon="6.61823">
        <ele>106.51868438721</ele>
        <time>2011-06-02T11:44:21Z</time>
      </trkpt>
      <trkpt lat="43.51842" lon="6.61831">
        <ele>108.54850006103</ele>
        <time>2011-06-02T11:44:28Z</time>
      </trkpt>
      <trkpt lat="43.51865" lon="6.61841">
        <ele>110.54306030273</ele>
        <time>2011-06-02T11:44:34Z</time>
      </trkpt>
      <trkpt lat="43.51898" lon="6.61853">
        <ele>113.37718963623</ele>
        <time>2011-06-02T11:44:43Z</time>
      </trkpt>
      <trkpt lat="43.51927" lon="6.61863">
        <ele>115.9528427124</ele>
        <time>2011-06-02T11:44:51Z</time>
      </trkpt>
      <trkpt lat="43.51939" lon="6.61854">
        <ele>116.65216064453</ele>
        <time>2011-06-02T11:44:55Z</time>
      </trkpt>
      <trkpt lat="43.51946" lon="6.61834">
        <ele>116.14582824707</ele>
        <time>2011-06-02T11:44:59Z</time>
      </trkpt>
      <trkpt lat="43.51954" lon="6.61807">
        <ele>115.58933258057</ele>
        <time>2011-06-02T11:45:04Z</time>
      </trkpt>
      <trkpt lat="43.51968" lon="6.61795">
        <ele>115.99280548096</ele>
        <time>2011-06-02T11:45:09Z</time>
      </trkpt>
      <trkpt lat="43.51977" lon="6.61787">
        <ele>116.2660446167</ele>
        <time>2011-06-02T11:45:13Z</time>
      </trkpt>
      <trkpt lat="43.51979" lon="6.61783">
        <ele>116.22536468506</ele>
        <time>2011-06-02T11:45:19Z</time>
      </trkpt>
      <trkpt lat="43.51981" lon="6.61784">
        <ele>116.39417266846</ele>
        <time>2011-06-02T11:45:26Z</time>
      </trkpt>
      <trkpt lat="43.51981" lon="6.61786">
        <ele>116.51832580566</ele>
        <time>2011-06-02T11:45:33Z</time>
      </trkpt>
      <trkpt lat="43.51983" lon="6.61782">
        <ele>116.45573425293</ele>
        <time>2011-06-02T11:45:40Z</time>
      </trkpt>
      <trkpt lat="43.51984" lon="6.61779">
        <ele>116.35196685791</ele>
        <time>2011-06-02T11:45:45Z</time>
      </trkpt>
      <trkpt lat="43.51986" lon="6.61776">
        <ele>116.37397003174</ele>
        <time>2011-06-02T11:45:52Z</time>
      </trkpt>
      <trkpt lat="43.5199" lon="6.61774">
        <ele>116.50648498535</ele>
        <time>2011-06-02T11:45:59Z</time>
      </trkpt>
      <trkpt lat="43.51992" lon="6.61775">
        <ele>116.70057678223</ele>
        <time>2011-06-02T11:46:09Z</time>
      </trkpt>
      <trkpt lat="43.51992" lon="6.61774">
        <ele>116.65846252441</ele>
        <time>2011-06-02T11:46:15Z</time>
      </trkpt>
      <trkpt lat="43.51989" lon="6.61773">
        <ele>116.36531829834</ele>
        <time>2011-06-02T11:46:18Z</time>
      </trkpt>
      <trkpt lat="43.51986" lon="6.61774">
        <ele>116.25778198242</ele>
        <time>2011-06-02T11:46:21Z</time>
      </trkpt>
      <trkpt lat="43.51978" lon="6.61772">
        <ele>115.67467498779</ele>
        <time>2011-06-02T11:46:28Z</time>
      </trkpt>
      <trkpt lat="43.51977" lon="6.61772">
        <ele>115.60939788818</ele>
        <time>2011-06-02T11:46:35Z</time>
      </trkpt>
      <trkpt lat="43.51976" lon="6.61768">
        <ele>115.37356567383</ele>
        <time>2011-06-02T11:46:52Z</time>
      </trkpt>
      <trkpt lat="43.51973" lon="6.61765">
        <ele>114.99890899658</ele>
        <time>2011-06-02T11:47:03Z</time>
      </trkpt>
      <trkpt lat="43.51971" lon="6.61761">
        <ele>114.76879119873</ele>
        <time>2011-06-02T11:47:15Z</time>
      </trkpt>
      <trkpt lat="43.51972" lon="6.61764">
        <ele>114.94314575195</ele>
        <time>2011-06-02T11:47:21Z</time>
      </trkpt>
      <trkpt lat="43.51971" lon="6.6177">
        <ele>115.18314361572</ele>
        <time>2011-06-02T11:47:27Z</time>
      </trkpt>
      <trkpt lat="43.51972" lon="6.61774">
        <ele>115.35591888428</ele>
        <time>2011-06-02T11:47:39Z</time>
      </trkpt>
      <trkpt lat="43.51971" lon="6.61775">
        <ele>115.37566375732</ele>
        <time>2011-06-02T11:47:43Z</time>
      </trkpt>
      <trkpt lat="43.51971" lon="6.61775">
        <ele>115.38194274902</ele>
        <time>2011-06-02T11:47:44Z</time>
      </trkpt>
      <trkpt lat="43.51972" lon="6.61775">
        <ele>115.41667938232</ele>
        <time>2011-06-02T11:47:50Z</time>
      </trkpt>
      <trkpt lat="43.51971" lon="6.61774">
        <ele>115.35055541992</ele>
        <time>2011-06-02T11:47:59Z</time>
      </trkpt>
      <trkpt lat="43.51972" lon="6.61775">
        <ele>115.42506408691</ele>
        <time>2011-06-02T11:48:05Z</time>
      </trkpt>
      <trkpt lat="43.51973" lon="6.61776">
        <ele>115.53156280518</ele>
        <time>2011-06-02T11:48:07Z</time>
      </trkpt>
      <trkpt lat="43.51974" lon="6.61777">
        <ele>115.62142944336</ele>
        <time>2011-06-02T11:48:08Z</time>
      </trkpt>
      <trkpt lat="43.51976" lon="6.61776">
        <ele>115.75048828125</ele>
        <time>2011-06-02T11:48:10Z</time>
      </trkpt>
      <trkpt lat="43.51978" lon="6.61775">
        <ele>115.78931427002</ele>
        <time>2011-06-02T11:48:11Z</time>
      </trkpt>
      <trkpt lat="43.51979" lon="6.61774">
        <ele>115.82145690918</ele>
        <time>2011-06-02T11:48:12Z</time>
      </trkpt>
      <trkpt lat="43.51982" lon="6.61772">
        <ele>115.89417266846</ele>
        <time>2011-06-02T11:48:15Z</time>
      </trkpt>
      <trkpt lat="43.51981" lon="6.61771">
        <ele>115.80068206787</ele>
        <time>2011-06-02T11:48:21Z</time>
      </trkpt>
      <trkpt lat="43.51981" lon="6.61769">
        <ele>115.69689178467</ele>
        <time>2011-06-02T11:50:22Z</time>
      </trkpt>
      <trkpt lat="43.51981" lon="6.61769">
        <ele>115.69473266602</ele>
        <time>2011-06-02T11:50:23Z</time>
      </trkpt>
      <trkpt lat="43.51981" lon="6.61769">
        <ele>115.71198272705</ele>
        <time>2011-06-02T11:50:33Z</time>
      </trkpt>
      <trkpt lat="43.51979" lon="6.61768">
        <ele>115.57353973389</ele>
        <time>2011-06-02T11:50:40Z</time>
      </trkpt>
      <trkpt lat="43.51978" lon="6.61755">
        <ele>114.93914794922</ele>
        <time>2011-06-02T11:50:44Z</time>
      </trkpt>
      <trkpt lat="43.51984" lon="6.61729">
        <ele>114.33542633057</ele>
        <time>2011-06-02T11:50:50Z</time>
      </trkpt>
      <trkpt lat="43.51992" lon="6.61694">
        <ele>113.53399658203</ele>
        <time>2011-06-02T11:50:56Z</time>
      </trkpt>
      <trkpt lat="43.51992" lon="6.61689">
        <ele>113.40378570557</ele>
        <time>2011-06-02T11:50:57Z</time>
      </trkpt>
      <trkpt lat="43.51994" lon="6.61659">
        <ele>112.51266479492</ele>
        <time>2011-06-02T11:51:02Z</time>
      </trkpt>
      <trkpt lat="43.51992" lon="6.61646">
        <ele>112.09398651123</ele>
        <time>2011-06-02T11:51:04Z</time>
      </trkpt>
      <trkpt lat="43.51992" lon="6.61615">
        <ele>111.29942321777</ele>
        <time>2011-06-02T11:51:09Z</time>
      </trkpt>
      <trkpt lat="43.51988" lon="6.61594">
        <ele>110.57734680176</ele>
        <time>2011-06-02T11:51:13Z</time>
      </trkpt>
      <trkpt lat="43.51985" lon="6.61564">
        <ele>109.45756530762</ele>
        <time>2011-06-02T11:51:18Z</time>
      </trkpt>
      <trkpt lat="43.51994" lon="6.61546">
        <ele>109.34156799316</ele>
        <time>2011-06-02T11:51:21Z</time>
      </trkpt>
      <trkpt lat="43.52005" lon="6.61533">
        <ele>109.41529083252</ele>
        <time>2011-06-02T11:51:24Z</time>
      </trkpt>
      <trkpt lat="43.52008" lon="6.61528">
        <ele>109.38210296631</ele>
        <time>2011-06-02T11:51:25Z</time>
      </trkpt>
      <trkpt lat="43.52021" lon="6.61505">
        <ele>109.18755340576</ele>
        <time>2011-06-02T11:51:31Z</time>
      </trkpt>
      <trkpt lat="43.52029" lon="6.61488">
        <ele>109.53483581543</ele>
        <time>2011-06-02T11:51:37Z</time>
      </trkpt>
      <trkpt lat="43.52035" lon="6.61479">
        <ele>109.93595123291</ele>
        <time>2011-06-02T11:51:41Z</time>
      </trkpt>
      <trkpt lat="43.52039" lon="6.61472">
        <ele>110.20488739014</ele>
        <time>2011-06-02T11:51:44Z</time>
      </trkpt>
      <trkpt lat="43.52043" lon="6.61457">
        <ele>110.58139801025</ele>
        <time>2011-06-02T11:51:50Z</time>
      </trkpt>
      <trkpt lat="43.52048" lon="6.61443">
        <ele>110.99624633789</ele>
        <time>2011-06-02T11:51:56Z</time>
      </trkpt>
      <trkpt lat="43.52062" lon="6.61419">
        <ele>111.936378479</ele>
        <time>2011-06-02T11:52:04Z</time>
      </trkpt>
      <trkpt lat="43.52073" lon="6.6139">
        <ele>112.80212402344</ele>
        <time>2011-06-02T11:52:12Z</time>
      </trkpt>
      <trkpt lat="43.52081" lon="6.61365">
        <ele>113.50650787353</ele>
        <time>2011-06-02T11:52:19Z</time>
      </trkpt>
      <trkpt lat="43.52087" lon="6.61345">
        <ele>114.03293609619</ele>
        <time>2011-06-02T11:52:24Z</time>
      </trkpt>
      <trkpt lat="43.52093" lon="6.61328">
        <ele>114.5170211792</ele>
        <time>2011-06-02T11:52:29Z</time>
      </trkpt>
      <trkpt lat="43.52095" lon="6.61317">
        <ele>114.75677490234</ele>
        <time>2011-06-02T11:52:34Z</time>
      </trkpt>
      <trkpt lat="43.52103" lon="6.61292">
        <ele>115.42510986328</ele>
        <time>2011-06-02T11:52:42Z</time>
      </trkpt>
      <trkpt lat="43.52111" lon="6.61267">
        <ele>116.11175537109</ele>
        <time>2011-06-02T11:52:49Z</time>
      </trkpt>
      <trkpt lat="43.52119" lon="6.61241">
        <ele>116.63661193848</ele>
        <time>2011-06-02T11:52:55Z</time>
      </trkpt>
      <trkpt lat="43.52122" lon="6.61229">
        <ele>116.74746704102</ele>
        <time>2011-06-02T11:52:59Z</time>
      </trkpt>
      <trkpt lat="43.52124" lon="6.61221">
        <ele>116.7939529419</ele>
        <time>2011-06-02T11:53:06Z</time>
      </trkpt>
      <trkpt lat="43.52129" lon="6.61202">
        <ele>116.91236114502</ele>
        <time>2011-06-02T11:53:14Z</time>
      </trkpt>
      <trkpt lat="43.52134" lon="6.61181">
        <ele>117.10526275635</ele>
        <time>2011-06-02T11:53:20Z</time>
      </trkpt>
      <trkpt lat="43.52134" lon="6.61169">
        <ele>117.04931640625</ele>
        <time>2011-06-02T11:53:23Z</time>
      </trkpt>
      <trkpt lat="43.52143" lon="6.61153">
        <ele>117.11779785156</ele>
        <time>2011-06-02T11:53:28Z</time>
      </trkpt>
      <trkpt lat="43.52148" lon="6.61138">
        <ele>116.85515594482</ele>
        <time>2011-06-02T11:53:32Z</time>
      </trkpt>
      <trkpt lat="43.52153" lon="6.61121">
        <ele>116.5295715332</ele>
        <time>2011-06-02T11:53:37Z</time>
      </trkpt>
      <trkpt lat="43.52161" lon="6.61093">
        <ele>115.97968292236</ele>
        <time>2011-06-02T11:53:45Z</time>
      </trkpt>
      <trkpt lat="43.52172" lon="6.61067">
        <ele>115.46752929688</ele>
        <time>2011-06-02T11:53:52Z</time>
      </trkpt>
      <trkpt lat="43.52177" lon="6.61056">
        <ele>115.19287109375</ele>
        <time>2011-06-02T11:53:55Z</time>
      </trkpt>
      <trkpt lat="43.52182" lon="6.61045">
        <ele>114.89761352539</ele>
        <time>2011-06-02T11:53:59Z</time>
      </trkpt>
      <trkpt lat="43.52193" lon="6.61022">
        <ele>114.33685302734</ele>
        <time>2011-06-02T11:54:06Z</time>
      </trkpt>
      <trkpt lat="43.5221" lon="6.61">
        <ele>114.11254882812</ele>
        <time>2011-06-02T11:54:11Z</time>
      </trkpt>
      <trkpt lat="43.52214" lon="6.60994">
        <ele>114.00497436523</ele>
        <time>2011-06-02T11:54:12Z</time>
      </trkpt>
      <trkpt lat="43.52228" lon="6.60963">
        <ele>113.13980102539</ele>
        <time>2011-06-02T11:54:17Z</time>
      </trkpt>
      <trkpt lat="43.52235" lon="6.60951">
        <ele>112.94525146484</ele>
        <time>2011-06-02T11:54:19Z</time>
      </trkpt>
      <trkpt lat="43.52244" lon="6.60921">
        <ele>111.92672729492</ele>
        <time>2011-06-02T11:54:23Z</time>
      </trkpt>
      <trkpt lat="43.52246" lon="6.60902">
        <ele>111.09674835205</ele>
        <time>2011-06-02T11:54:25Z</time>
      </trkpt>
      <trkpt lat="43.52251" lon="6.60878">
        <ele>110.23291778565</ele>
        <time>2011-06-02T11:54:29Z</time>
      </trkpt>
      <trkpt lat="43.52258" lon="6.60856">
        <ele>109.56442260742</ele>
        <time>2011-06-02T11:54:33Z</time>
      </trkpt>
      <trkpt lat="43.52266" lon="6.60838">
        <ele>109.35922241211</ele>
        <time>2011-06-02T11:54:37Z</time>
      </trkpt>
      <trkpt lat="43.52272" lon="6.6082">
        <ele>109.46500396728</ele>
        <time>2011-06-02T11:54:42Z</time>
      </trkpt>
      <trkpt lat="43.52273" lon="6.60815">
        <ele>109.48445129394</ele>
        <time>2011-06-02T11:54:43Z</time>
      </trkpt>
      <trkpt lat="43.52283" lon="6.60779">
        <ele>109.95838165283</ele>
        <time>2011-06-02T11:54:51Z</time>
      </trkpt>
      <trkpt lat="43.5229" lon="6.60754">
        <ele>110.35131072998</ele>
        <time>2011-06-02T11:54:57Z</time>
      </trkpt>
      <trkpt lat="43.52294" lon="6.60733">
        <ele>110.52060699463</ele>
        <time>2011-06-02T11:55:03Z</time>
      </trkpt>
      <trkpt lat="43.52301" lon="6.60711">
        <ele>110.88604736328</ele>
        <time>2011-06-02T11:55:08Z</time>
      </trkpt>
      <trkpt lat="43.52308" lon="6.60685">
        <ele>111.4273147583</ele>
        <time>2011-06-02T11:55:15Z</time>
      </trkpt>
      <trkpt lat="43.52317" lon="6.60657">
        <ele>112.40257263184</ele>
        <time>2011-06-02T11:55:23Z</time>
      </trkpt>
      <trkpt lat="43.52326" lon="6.6063">
        <ele>113.63109588623</ele>
        <time>2011-06-02T11:55:31Z</time>
      </trkpt>
      <trkpt lat="43.52329" lon="6.60599">
        <ele>114.33090209961</ele>
        <time>2011-06-02T11:55:38Z</time>
      </trkpt>
      <trkpt lat="43.5233" lon="6.6057">
        <ele>114.64798736572</ele>
        <time>2011-06-02T11:55:44Z</time>
      </trkpt>
      <trkpt lat="43.52333" lon="6.60526">
        <ele>114.9736251831</ele>
        <time>2011-06-02T11:55:52Z</time>
      </trkpt>
      <trkpt lat="43.52328" lon="6.60491">
        <ele>114.5414352417</ele>
        <time>2011-06-02T11:55:58Z</time>
      </trkpt>
      <trkpt lat="43.52327" lon="6.6048">
        <ele>114.44288635254</ele>
        <time>2011-06-02T11:56:00Z</time>
      </trkpt>
      <trkpt lat="43.52327" lon="6.60467">
        <ele>114.45390319824</ele>
        <time>2011-06-02T11:56:02Z</time>
      </trkpt>
      <trkpt lat="43.52325" lon="6.60435">
        <ele>114.31574249268</ele>
        <time>2011-06-02T11:56:07Z</time>
      </trkpt>
      <trkpt lat="43.52325" lon="6.60429">
        <ele>114.32278442383</ele>
        <time>2011-06-02T11:56:08Z</time>
      </trkpt>
      <trkpt lat="43.52328" lon="6.60392">
        <ele>114.82748413086</ele>
        <time>2011-06-02T11:56:15Z</time>
      </trkpt>
      <trkpt lat="43.52328" lon="6.60386">
        <ele>114.90072631836</ele>
        <time>2011-06-02T11:56:16Z</time>
      </trkpt>
      <trkpt lat="43.52325" lon="6.60363">
        <ele>114.91846466065</ele>
        <time>2011-06-02T11:56:20Z</time>
      </trkpt>
      <trkpt lat="43.52322" lon="6.60342">
        <ele>114.97911834717</ele>
        <time>2011-06-02T11:56:24Z</time>
      </trkpt>
      <trkpt lat="43.52328" lon="6.60299">
        <ele>115.17275238037</ele>
        <time>2011-06-02T11:56:32Z</time>
      </trkpt>
      <trkpt lat="43.52335" lon="6.60282">
        <ele>115.73393249512</ele>
        <time>2011-06-02T11:56:36Z</time>
      </trkpt>
      <trkpt lat="43.52337" lon="6.60255">
        <ele>115.69980621338</ele>
        <time>2011-06-02T11:56:41Z</time>
      </trkpt>
      <trkpt lat="43.52349" lon="6.60222">
        <ele>117.08433532715</ele>
        <time>2011-06-02T11:56:48Z</time>
      </trkpt>
      <trkpt lat="43.52354" lon="6.60212">
        <ele>117.87855529785</ele>
        <time>2011-06-02T11:56:50Z</time>
      </trkpt>
      <trkpt lat="43.52363" lon="6.6018">
        <ele>118.63043212891</ele>
        <time>2011-06-02T11:56:56Z</time>
      </trkpt>
      <trkpt lat="43.52375" lon="6.60159">
        <ele>120.37467193603</ele>
        <time>2011-06-02T11:57:02Z</time>
      </trkpt>
      <trkpt lat="43.52401" lon="6.6015">
        <ele>124.86475372315</ele>
        <time>2011-06-02T11:57:08Z</time>
      </trkpt>
      <trkpt lat="43.52403" lon="6.6013">
        <ele>125.00486755371</ele>
        <time>2011-06-02T11:57:12Z</time>
      </trkpt>
      <trkpt lat="43.52391" lon="6.60116">
        <ele>122.59459686279</ele>
        <time>2011-06-02T11:57:16Z</time>
      </trkpt>
      <trkpt lat="43.52371" lon="6.60101">
        <ele>118.60431671143</ele>
        <time>2011-06-02T11:57:23Z</time>
      </trkpt>
      <trkpt lat="43.52367" lon="6.60081">
        <ele>117.52225494385</ele>
        <time>2011-06-02T11:57:27Z</time>
      </trkpt>
      <trkpt lat="43.52364" lon="6.60055">
        <ele>118.08749389648</ele>
        <time>2011-06-02T11:57:31Z</time>
      </trkpt>
      <trkpt lat="43.52365" lon="6.60034">
        <ele>119.3169631958</ele>
        <time>2011-06-02T11:57:34Z</time>
      </trkpt>
      <trkpt lat="43.52372" lon="6.60004">
        <ele>122.52167510986</ele>
        <time>2011-06-02T11:57:38Z</time>
      </trkpt>
      <trkpt lat="43.52365" lon="6.59986">
        <ele>121.05400848389</ele>
        <time>2011-06-02T11:57:41Z</time>
      </trkpt>
      <trkpt lat="43.52351" lon="6.59968">
        <ele>116.87697601318</ele>
        <time>2011-06-02T11:57:45Z</time>
      </trkpt>
      <trkpt lat="43.52346" lon="6.59956">
        <ele>115.0564956665</ele>
        <time>2011-06-02T11:57:47Z</time>
      </trkpt>
      <trkpt lat="43.52332" lon="6.59934">
        <ele>110.52770996094</ele>
        <time>2011-06-02T11:57:51Z</time>
      </trkpt>
      <trkpt lat="43.52317" lon="6.59896">
        <ele>106.98099517822</ele>
        <time>2011-06-02T11:57:57Z</time>
      </trkpt>
      <trkpt lat="43.52314" lon="6.59862">
        <ele>104.10900115967</ele>
        <time>2011-06-02T11:58:01Z</time>
      </trkpt>
      <trkpt lat="43.52308" lon="6.59806">
        <ele>99.378547668457</ele>
        <time>2011-06-02T11:58:07Z</time>
      </trkpt>
      <trkpt lat="43.52303" lon="6.59753">
        <ele>95.352569580078</ele>
        <time>2011-06-02T11:58:12Z</time>
      </trkpt>
      <trkpt lat="43.52299" lon="6.59734">
        <ele>94.118721008301</ele>
        <time>2011-06-02T11:58:14Z</time>
      </trkpt>
      <trkpt lat="43.52299" lon="6.59701">
        <ele>94.046058654785</ele>
        <time>2011-06-02T11:58:18Z</time>
      </trkpt>
      <trkpt lat="43.52305" lon="6.59671">
        <ele>95.181442260742</ele>
        <time>2011-06-02T11:58:22Z</time>
      </trkpt>
      <trkpt lat="43.52302" lon="6.59665">
        <ele>94.677520751953</ele>
        <time>2011-06-02T11:58:23Z</time>
      </trkpt>
      <trkpt lat="43.52289" lon="6.59629">
        <ele>93.811027526855</ele>
        <time>2011-06-02T11:58:28Z</time>
      </trkpt>
      <trkpt lat="43.52264" lon="6.59576">
        <ele>89.719451904297</ele>
        <time>2011-06-02T11:58:35Z</time>
      </trkpt>
      <trkpt lat="43.52247" lon="6.59517">
        <ele>88.341239929199</ele>
        <time>2011-06-02T11:58:42Z</time>
      </trkpt>
      <trkpt lat="43.5224" lon="6.59463">
        <ele>90.286964416504</ele>
        <time>2011-06-02T11:58:48Z</time>
      </trkpt>
      <trkpt lat="43.52234" lon="6.59411">
        <ele>92.034492492676</ele>
        <time>2011-06-02T11:58:53Z</time>
      </trkpt>
      <trkpt lat="43.52234" lon="6.594">
        <ele>92.16902923584</ele>
        <time>2011-06-02T11:58:54Z</time>
      </trkpt>
      <trkpt lat="43.52241" lon="6.59367">
        <ele>94.945533752441</ele>
        <time>2011-06-02T11:58:58Z</time>
      </trkpt>
      <trkpt lat="43.52242" lon="6.59348">
        <ele>95.851440429688</ele>
        <time>2011-06-02T11:59:01Z</time>
      </trkpt>
      <trkpt lat="43.52234" lon="6.59339">
        <ele>94.049499511719</ele>
        <time>2011-06-02T11:59:04Z</time>
      </trkpt>
      <trkpt lat="43.52225" lon="6.59338">
        <ele>92.258003234863</ele>
        <time>2011-06-02T11:59:06Z</time>
      </trkpt>
      <trkpt lat="43.5221" lon="6.59329">
        <ele>88.923873901367</ele>
        <time>2011-06-02T11:59:10Z</time>
      </trkpt>
      <trkpt lat="43.52203" lon="6.59323">
        <ele>87.346725463867</ele>
        <time>2011-06-02T11:59:12Z</time>
      </trkpt>
      <trkpt lat="43.52197" lon="6.59307">
        <ele>86.241271972656</ele>
        <time>2011-06-02T11:59:16Z</time>
      </trkpt>
      <trkpt lat="43.52194" lon="6.59289">
        <ele>85.936332702637</ele>
        <time>2011-06-02T11:59:20Z</time>
      </trkpt>
      <trkpt lat="43.52189" lon="6.59259">
        <ele>85.734115600586</ele>
        <time>2011-06-02T11:59:27Z</time>
      </trkpt>
      <trkpt lat="43.52186" lon="6.59224">
        <ele>86.40113067627</ele>
        <time>2011-06-02T11:59:35Z</time>
      </trkpt>
      <trkpt lat="43.52188" lon="6.592">
        <ele>87.517486572266</ele>
        <time>2011-06-02T11:59:41Z</time>
      </trkpt>
      <trkpt lat="43.52185" lon="6.5917">
        <ele>88.041679382324</ele>
        <time>2011-06-02T11:59:48Z</time>
      </trkpt>
      <trkpt lat="43.52179" lon="6.59142">
        <ele>88.316207885742</ele>
        <time>2011-06-02T11:59:55Z</time>
      </trkpt>
      <trkpt lat="43.52174" lon="6.59118">
        <ele>88.667541503906</ele>
        <time>2011-06-02T12:00:01Z</time>
      </trkpt>
      <trkpt lat="43.52178" lon="6.59093">
        <ele>89.979034423828</ele>
        <time>2011-06-02T12:00:09Z</time>
      </trkpt>
      <trkpt lat="43.52182" lon="6.59067">
        <ele>91.020576477051</ele>
        <time>2011-06-02T12:00:15Z</time>
      </trkpt>
      <trkpt lat="43.52187" lon="6.59022">
        <ele>92.328186035156</ele>
        <time>2011-06-02T12:00:23Z</time>
      </trkpt>
      <trkpt lat="43.52188" lon="6.58989">
        <ele>92.932907104492</ele>
        <time>2011-06-02T12:00:28Z</time>
      </trkpt>
      <trkpt lat="43.5219" lon="6.58966">
        <ele>93.39852142334</ele>
        <time>2011-06-02T12:00:31Z</time>
      </trkpt>
      <trkpt lat="43.52181" lon="6.5893">
        <ele>91.57373046875</ele>
        <time>2011-06-02T12:00:36Z</time>
      </trkpt>
      <trkpt lat="43.52163" lon="6.5889">
        <ele>86.70841217041</ele>
        <time>2011-06-02T12:00:42Z</time>
      </trkpt>
      <trkpt lat="43.52151" lon="6.5887">
        <ele>85.05989074707</ele>
        <time>2011-06-02T12:00:45Z</time>
      </trkpt>
      <trkpt lat="43.52137" lon="6.5884">
        <ele>82.75390625</ele>
        <time>2011-06-02T12:00:49Z</time>
      </trkpt>
      <trkpt lat="43.52129" lon="6.58817">
        <ele>81.341423034668</ele>
        <time>2011-06-02T12:00:52Z</time>
      </trkpt>
      <trkpt lat="43.52124" lon="6.58788">
        <ele>80.066368103027</ele>
        <time>2011-06-02T12:00:56Z</time>
      </trkpt>
      <trkpt lat="43.52118" lon="6.58752">
        <ele>78.387168884277</ele>
        <time>2011-06-02T12:01:02Z</time>
      </trkpt>
      <trkpt lat="43.52112" lon="6.58711">
        <ele>77.140960693359</ele>
        <time>2011-06-02T12:01:09Z</time>
      </trkpt>
      <trkpt lat="43.52111" lon="6.58705">
        <ele>76.937629699707</ele>
        <time>2011-06-02T12:01:10Z</time>
      </trkpt>
      <trkpt lat="43.52108" lon="6.58692">
        <ele>76.43384552002</ele>
        <time>2011-06-02T12:01:12Z</time>
      </trkpt>
      <trkpt lat="43.52095" lon="6.58668">
        <ele>74.962860107422</ele>
        <time>2011-06-02T12:01:16Z</time>
      </trkpt>
      <trkpt lat="43.52076" lon="6.58652">
        <ele>73.065101623535</ele>
        <time>2011-06-02T12:01:20Z</time>
      </trkpt>
      <trkpt lat="43.52057" lon="6.5865">
        <ele>71.794235229492</ele>
        <time>2011-06-02T12:01:23Z</time>
      </trkpt>
      <trkpt lat="43.52035" lon="6.58652">
        <ele>70.575439453125</ele>
        <time>2011-06-02T12:01:26Z</time>
      </trkpt>
      <trkpt lat="43.52016" lon="6.58673">
        <ele>70.233894348145</ele>
        <time>2011-06-02T12:01:30Z</time>
      </trkpt>
      <trkpt lat="43.52014" lon="6.5868">
        <ele>70.391777038574</ele>
        <time>2011-06-02T12:01:31Z</time>
      </trkpt>
      <trkpt lat="43.5201" lon="6.58694">
        <ele>70.803863525391</ele>
        <time>2011-06-02T12:01:33Z</time>
      </trkpt>
      <trkpt lat="43.52008" lon="6.58731">
        <ele>72.313171386719</ele>
        <time>2011-06-02T12:01:37Z</time>
      </trkpt>
      <trkpt lat="43.52" lon="6.58741">
        <ele>72.602584838867</ele>
        <time>2011-06-02T12:01:39Z</time>
      </trkpt>
      <trkpt lat="43.51989" lon="6.5874">
        <ele>72.141510009766</ele>
        <time>2011-06-02T12:01:42Z</time>
      </trkpt>
      <trkpt lat="43.51984" lon="6.58739">
        <ele>71.887451171875</ele>
        <time>2011-06-02T12:01:43Z</time>
      </trkpt>
      <trkpt lat="43.5196" lon="6.58725">
        <ele>70.360809326172</ele>
        <time>2011-06-02T12:01:48Z</time>
      </trkpt>
      <trkpt lat="43.51936" lon="6.58715">
        <ele>69.024139404297</ele>
        <time>2011-06-02T12:01:53Z</time>
      </trkpt>
      <trkpt lat="43.51912" lon="6.58721">
        <ele>68.405616760254</ele>
        <time>2011-06-02T12:01:57Z</time>
      </trkpt>
      <trkpt lat="43.51903" lon="6.58718">
        <ele>67.891403198242</ele>
        <time>2011-06-02T12:01:59Z</time>
      </trkpt>
      <trkpt lat="43.5189" lon="6.58712">
        <ele>67.043609619141</ele>
        <time>2011-06-02T12:02:02Z</time>
      </trkpt>
      <trkpt lat="43.51877" lon="6.58695">
        <ele>65.763816833496</ele>
        <time>2011-06-02T12:02:06Z</time>
      </trkpt>
      <trkpt lat="43.51859" lon="6.58636">
        <ele>62.704650878906</ele>
        <time>2011-06-02T12:02:15Z</time>
      </trkpt>
      <trkpt lat="43.51849" lon="6.58608">
        <ele>61.315837860107</ele>
        <time>2011-06-02T12:02:19Z</time>
      </trkpt>
      <trkpt lat="43.5183" lon="6.58588">
        <ele>59.869083404541</ele>
        <time>2011-06-02T12:02:23Z</time>
      </trkpt>
      <trkpt lat="43.51817" lon="6.58583">
        <ele>58.297107696533</ele>
        <time>2011-06-02T12:02:25Z</time>
      </trkpt>
      <trkpt lat="43.51768" lon="6.58574">
        <ele>52.469116210938</ele>
        <time>2011-06-02T12:02:31Z</time>
      </trkpt>
      <trkpt lat="43.5172" lon="6.58571">
        <ele>47.399993896484</ele>
        <time>2011-06-02T12:02:37Z</time>
      </trkpt>
      <trkpt lat="43.51672" lon="6.58561">
        <ele>42.068809509277</ele>
        <time>2011-06-02T12:02:43Z</time>
      </trkpt>
      <trkpt lat="43.51629" lon="6.58567">
        <ele>41.652759552002</ele>
        <time>2011-06-02T12:02:48Z</time>
      </trkpt>
      <trkpt lat="43.51607" lon="6.58581">
        <ele>42.149837493896</ele>
        <time>2011-06-02T12:02:51Z</time>
      </trkpt>
      <trkpt lat="43.51593" lon="6.58608">
        <ele>44.000785827637</ele>
        <time>2011-06-02T12:02:54Z</time>
      </trkpt>
      <trkpt lat="43.51587" lon="6.58637">
        <ele>46.029392242432</ele>
        <time>2011-06-02T12:02:57Z</time>
      </trkpt>
      <trkpt lat="43.51579" lon="6.58639">
        <ele>45.773002624512</ele>
        <time>2011-06-02T12:02:59Z</time>
      </trkpt>
      <trkpt lat="43.51575" lon="6.58636">
        <ele>45.342308044434</ele>
        <time>2011-06-02T12:03:00Z</time>
      </trkpt>
      <trkpt lat="43.51561" lon="6.58627">
        <ele>43.997310638428</ele>
        <time>2011-06-02T12:03:03Z</time>
      </trkpt>
      <trkpt lat="43.51527" lon="6.58623">
        <ele>42.217994689941</ele>
        <time>2011-06-02T12:03:09Z</time>
      </trkpt>
      <trkpt lat="43.51499" lon="6.5863">
        <ele>41.062576293945</ele>
        <time>2011-06-02T12:03:14Z</time>
      </trkpt>
      <trkpt lat="43.51467" lon="6.58635">
        <ele>39.805740356445</ele>
        <time>2011-06-02T12:03:19Z</time>
      </trkpt>
      <trkpt lat="43.51445" lon="6.58653">
        <ele>39.147815704346</ele>
        <time>2011-06-02T12:03:23Z</time>
      </trkpt>
      <trkpt lat="43.51446" lon="6.58682">
        <ele>39.51681137085</ele>
        <time>2011-06-02T12:03:26Z</time>
      </trkpt>
      <trkpt lat="43.51454" lon="6.58699">
        <ele>39.998195648193</ele>
        <time>2011-06-02T12:03:28Z</time>
      </trkpt>
      <trkpt lat="43.51464" lon="6.58739">
        <ele>40.666275024414</ele>
        <time>2011-06-02T12:03:33Z</time>
      </trkpt>
      <trkpt lat="43.5145" lon="6.58752">
        <ele>40.216602325439</ele>
        <time>2011-06-02T12:03:36Z</time>
      </trkpt>
      <trkpt lat="43.51425" lon="6.58765">
        <ele>39.438537597656</ele>
        <time>2011-06-02T12:03:40Z</time>
      </trkpt>
      <trkpt lat="43.51411" lon="6.5877">
        <ele>39.415245056152</ele>
        <time>2011-06-02T12:03:42Z</time>
      </trkpt>
      <trkpt lat="43.51386" lon="6.58764">
        <ele>39.916347503662</ele>
        <time>2011-06-02T12:03:46Z</time>
      </trkpt>
      <trkpt lat="43.51382" lon="6.58759">
        <ele>39.811176300049</ele>
        <time>2011-06-02T12:03:47Z</time>
      </trkpt>
      <trkpt lat="43.51364" lon="6.58738">
        <ele>39.390029907227</ele>
        <time>2011-06-02T12:03:52Z</time>
      </trkpt>
      <trkpt lat="43.51346" lon="6.58715">
        <ele>39.065860748291</ele>
        <time>2011-06-02T12:03:56Z</time>
      </trkpt>
      <trkpt lat="43.51319" lon="6.58693">
        <ele>38.800243377686</ele>
        <time>2011-06-02T12:04:00Z</time>
      </trkpt>
      <trkpt lat="43.5127" lon="6.58673">
        <ele>38.3293800354</ele>
        <time>2011-06-02T12:04:07Z</time>
      </trkpt>
      <trkpt lat="43.51244" lon="6.58661">
        <ele>37.726634979248</ele>
        <time>2011-06-02T12:04:11Z</time>
      </trkpt>
      <trkpt lat="43.51216" lon="6.58665">
        <ele>37.153476715088</ele>
        <time>2011-06-02T12:04:15Z</time>
      </trkpt>
      <trkpt lat="43.51203" lon="6.58674">
        <ele>37.239051818848</ele>
        <time>2011-06-02T12:04:17Z</time>
      </trkpt>
      <trkpt lat="43.51163" lon="6.5872">
        <ele>37.822357177734</ele>
        <time>2011-06-02T12:04:24Z</time>
      </trkpt>
      <trkpt lat="43.51135" lon="6.58754">
        <ele>37.732814788818</ele>
        <time>2011-06-02T12:04:29Z</time>
      </trkpt>
      <trkpt lat="43.51093" lon="6.58789">
        <ele>37.018085479736</ele>
        <time>2011-06-02T12:04:36Z</time>
      </trkpt>
      <trkpt lat="43.51077" lon="6.58806">
        <ele>36.843818664551</ele>
        <time>2011-06-02T12:04:39Z</time>
      </trkpt>
      <trkpt lat="43.51042" lon="6.58835">
        <ele>37.121810913086</ele>
        <time>2011-06-02T12:04:46Z</time>
      </trkpt>
      <trkpt lat="43.51036" lon="6.58841">
        <ele>37.387771606445</ele>
        <time>2011-06-02T12:04:47Z</time>
      </trkpt>
      <trkpt lat="43.51025" lon="6.5885">
        <ele>37.74605178833</ele>
        <time>2011-06-02T12:04:49Z</time>
      </trkpt>
      <trkpt lat="43.51007" lon="6.58868">
        <ele>38.276817321777</ele>
        <time>2011-06-02T12:04:53Z</time>
      </trkpt>
      <trkpt lat="43.50996" lon="6.58873">
        <ele>38.319915771484</ele>
        <time>2011-06-02T12:04:55Z</time>
      </trkpt>
      <trkpt lat="43.50963" lon="6.58882">
        <ele>38.489860534668</ele>
        <time>2011-06-02T12:05:01Z</time>
      </trkpt>
      <trkpt lat="43.50937" lon="6.58882">
        <ele>38.140815734863</ele>
        <time>2011-06-02T12:05:07Z</time>
      </trkpt>
      <trkpt lat="43.50928" lon="6.58882">
        <ele>38.07844543457</ele>
        <time>2011-06-02T12:05:11Z</time>
      </trkpt>
      <trkpt lat="43.50913" lon="6.58884">
        <ele>37.917984008789</ele>
        <time>2011-06-02T12:05:17Z</time>
      </trkpt>
      <trkpt lat="43.50898" lon="6.58888">
        <ele>37.707866668701</ele>
        <time>2011-06-02T12:05:21Z</time>
      </trkpt>
      <trkpt lat="43.50872" lon="6.58896">
        <ele>37.279663085938</ele>
        <time>2011-06-02T12:05:27Z</time>
      </trkpt>
      <trkpt lat="43.50846" lon="6.58899">
        <ele>36.590557098389</ele>
        <time>2011-06-02T12:05:33Z</time>
      </trkpt>
      <trkpt lat="43.50834" lon="6.58899">
        <ele>36.176319122314</ele>
        <time>2011-06-02T12:05:36Z</time>
      </trkpt>
      <trkpt lat="43.50822" lon="6.58901">
        <ele>35.750335693359</ele>
        <time>2011-06-02T12:05:39Z</time>
      </trkpt>
      <trkpt lat="43.50812" lon="6.589">
        <ele>35.351375579834</ele>
        <time>2011-06-02T12:05:41Z</time>
      </trkpt>
      <trkpt lat="43.50787" lon="6.58908">
        <ele>34.504348754883</ele>
        <time>2011-06-02T12:05:45Z</time>
      </trkpt>
      <trkpt lat="43.50753" lon="6.58922">
        <ele>33.310054779053</ele>
        <time>2011-06-02T12:05:50Z</time>
      </trkpt>
      <trkpt lat="43.50724" lon="6.58936">
        <ele>33.829212188721</ele>
        <time>2011-06-02T12:05:55Z</time>
      </trkpt>
      <trkpt lat="43.50704" lon="6.58941">
        <ele>34.21764755249</ele>
        <time>2011-06-02T12:05:59Z</time>
      </trkpt>
      <trkpt lat="43.50691" lon="6.58945">
        <ele>34.501522064209</ele>
        <time>2011-06-02T12:06:02Z</time>
      </trkpt>
      <trkpt lat="43.50659" lon="6.58954">
        <ele>35.161590576172</ele>
        <time>2011-06-02T12:06:09Z</time>
      </trkpt>
      <trkpt lat="43.50642" lon="6.58963">
        <ele>35.494853973389</ele>
        <time>2011-06-02T12:06:13Z</time>
      </trkpt>
      <trkpt lat="43.50616" lon="6.58969">
        <ele>35.707820892334</ele>
        <time>2011-06-02T12:06:19Z</time>
      </trkpt>
      <trkpt lat="43.50591" lon="6.58971">
        <ele>35.61349105835</ele>
        <time>2011-06-02T12:06:25Z</time>
      </trkpt>
      <trkpt lat="43.50565" lon="6.5898">
        <ele>35.243789672852</ele>
        <time>2011-06-02T12:06:31Z</time>
      </trkpt>
      <trkpt lat="43.50544" lon="6.58988">
        <ele>34.503749847412</ele>
        <time>2011-06-02T12:06:35Z</time>
      </trkpt>
      <trkpt lat="43.50535" lon="6.5899">
        <ele>34.043525695801</ele>
        <time>2011-06-02T12:06:37Z</time>
      </trkpt>
      <trkpt lat="43.50528" lon="6.5899">
        <ele>33.536323547363</ele>
        <time>2011-06-02T12:06:40Z</time>
      </trkpt>
      <trkpt lat="43.50512" lon="6.58997">
        <ele>32.744323730469</ele>
        <time>2011-06-02T12:06:46Z</time>
      </trkpt>
      <trkpt lat="43.50505" lon="6.59001">
        <ele>32.463897705078</ele>
        <time>2011-06-02T12:06:49Z</time>
      </trkpt>
      <trkpt lat="43.50483" lon="6.59017">
        <ele>33.043151855469</ele>
        <time>2011-06-02T12:06:55Z</time>
      </trkpt>
      <trkpt lat="43.50467" lon="6.59033">
        <ele>33.999877929688</ele>
        <time>2011-06-02T12:07:01Z</time>
      </trkpt>
      <trkpt lat="43.5045" lon="6.59044">
        <ele>34.732299804688</ele>
        <time>2011-06-02T12:07:06Z</time>
      </trkpt>
      <trkpt lat="43.50429" lon="6.59057">
        <ele>35.583740234375</ele>
        <time>2011-06-02T12:07:12Z</time>
      </trkpt>
      <trkpt lat="43.50406" lon="6.59069">
        <ele>36.666084289551</ele>
        <time>2011-06-02T12:07:19Z</time>
      </trkpt>
      <trkpt lat="43.50389" lon="6.59076">
        <ele>37.604839324951</ele>
        <time>2011-06-02T12:07:25Z</time>
      </trkpt>
      <trkpt lat="43.50372" lon="6.59085">
        <ele>38.804134368896</ele>
        <time>2011-06-02T12:07:31Z</time>
      </trkpt>
      <trkpt lat="43.50359" lon="6.59096">
        <ele>40.803890228271</ele>
        <time>2011-06-02T12:07:37Z</time>
      </trkpt>
      <trkpt lat="43.50356" lon="6.59109">
        <ele>42.68936920166</ele>
        <time>2011-06-02T12:07:41Z</time>
      </trkpt>
      <trkpt lat="43.50352" lon="6.59116">
        <ele>43.973068237305</ele>
        <time>2011-06-02T12:07:44Z</time>
      </trkpt>
      <trkpt lat="43.5034" lon="6.5912">
        <ele>45.264289855957</ele>
        <time>2011-06-02T12:07:50Z</time>
      </trkpt>
      <trkpt lat="43.50325" lon="6.59121">
        <ele>45.065101623535</ele>
        <time>2011-06-02T12:07:56Z</time>
      </trkpt>
      <trkpt lat="43.5031" lon="6.59124">
        <ele>44.143440246582</ele>
        <time>2011-06-02T12:08:01Z</time>
      </trkpt>
      <trkpt lat="43.50294" lon="6.59122">
        <ele>42.399486541748</ele>
        <time>2011-06-02T12:08:04Z</time>
      </trkpt>
      <trkpt lat="43.50267" lon="6.59111">
        <ele>39.010562896729</ele>
        <time>2011-06-02T12:08:08Z</time>
      </trkpt>
      <trkpt lat="43.50241" lon="6.59109">
        <ele>36.9635887146</ele>
        <time>2011-06-02T12:08:12Z</time>
      </trkpt>
      <trkpt lat="43.50212" lon="6.59106">
        <ele>34.804473876953</ele>
        <time>2011-06-02T12:08:18Z</time>
      </trkpt>
      <trkpt lat="43.50174" lon="6.59095">
        <ele>31.92209815979</ele>
        <time>2011-06-02T12:08:26Z</time>
      </trkpt>
      <trkpt lat="43.5017" lon="6.59094">
        <ele>31.615131378174</ele>
        <time>2011-06-02T12:08:27Z</time>
      </trkpt>
      <trkpt lat="43.50156" lon="6.59098">
        <ele>31.167442321777</ele>
        <time>2011-06-02T12:08:30Z</time>
      </trkpt>
      <trkpt lat="43.50149" lon="6.591">
        <ele>31.011964797974</ele>
        <time>2011-06-02T12:08:32Z</time>
      </trkpt>
      <trkpt lat="43.5013" lon="6.59102">
        <ele>30.459609985352</ele>
        <time>2011-06-02T12:08:36Z</time>
      </trkpt>
      <trkpt lat="43.50106" lon="6.59111">
        <ele>30.029117584229</ele>
        <time>2011-06-02T12:08:41Z</time>
      </trkpt>
      <trkpt lat="43.50101" lon="6.59112">
        <ele>29.956029891968</ele>
        <time>2011-06-02T12:08:42Z</time>
      </trkpt>
      <trkpt lat="43.50088" lon="6.5912">
        <ele>29.924486160278</ele>
        <time>2011-06-02T12:08:45Z</time>
      </trkpt>
      <trkpt lat="43.50067" lon="6.59132">
        <ele>30.231346130371</ele>
        <time>2011-06-02T12:08:50Z</time>
      </trkpt>
      <trkpt lat="43.50047" lon="6.59146">
        <ele>30.927347183227</ele>
        <time>2011-06-02T12:08:55Z</time>
      </trkpt>
      <trkpt lat="43.50035" lon="6.59153">
        <ele>31.268451690674</ele>
        <time>2011-06-02T12:08:58Z</time>
      </trkpt>
      <trkpt lat="43.50017" lon="6.59156">
        <ele>31.401605606079</ele>
        <time>2011-06-02T12:09:02Z</time>
      </trkpt>
      <trkpt lat="43.5" lon="6.59155">
        <ele>31.305599212646</ele>
        <time>2011-06-02T12:09:06Z</time>
      </trkpt>
      <trkpt lat="43.49989" lon="6.59151">
        <ele>30.782539367676</ele>
        <time>2011-06-02T12:09:09Z</time>
      </trkpt>
      <trkpt lat="43.49961" lon="6.5913">
        <ele>28.883392333984</ele>
        <time>2011-06-02T12:09:17Z</time>
      </trkpt>
      <trkpt lat="43.49934" lon="6.59116">
        <ele>27.386505126953</ele>
        <time>2011-06-02T12:09:24Z</time>
      </trkpt>
      <trkpt lat="43.49915" lon="6.59116">
        <ele>26.937007904053</ele>
        <time>2011-06-02T12:09:28Z</time>
      </trkpt>
      <trkpt lat="43.49896" lon="6.59123">
        <ele>27.027870178223</ele>
        <time>2011-06-02T12:09:33Z</time>
      </trkpt>
      <trkpt lat="43.49885" lon="6.59128">
        <ele>27.049518585205</ele>
        <time>2011-06-02T12:09:36Z</time>
      </trkpt>
      <trkpt lat="43.49863" lon="6.59145">
        <ele>27.272830963135</ele>
        <time>2011-06-02T12:09:42Z</time>
      </trkpt>
      <trkpt lat="43.49828" lon="6.59185">
        <ele>28.373645782471</ele>
        <time>2011-06-02T12:09:51Z</time>
      </trkpt>
      <trkpt lat="43.49825" lon="6.5919">
        <ele>28.562711715698</ele>
        <time>2011-06-02T12:09:52Z</time>
      </trkpt>
      <trkpt lat="43.49804" lon="6.5921">
        <ele>28.807744979858</ele>
        <time>2011-06-02T12:09:57Z</time>
      </trkpt>
      <trkpt lat="43.49794" lon="6.59221">
        <ele>28.770681381226</ele>
        <time>2011-06-02T12:09:59Z</time>
      </trkpt>
      <trkpt lat="43.49776" lon="6.59256">
        <ele>28.814893722534</ele>
        <time>2011-06-02T12:10:04Z</time>
      </trkpt>
      <trkpt lat="43.49761" lon="6.59302">
        <ele>29.437889099121</ele>
        <time>2011-06-02T12:10:10Z</time>
      </trkpt>
      <trkpt lat="43.49758" lon="6.59309">
        <ele>29.511888504028</ele>
        <time>2011-06-02T12:10:11Z</time>
      </trkpt>
      <trkpt lat="43.49741" lon="6.59343">
        <ele>30.14882850647</ele>
        <time>2011-06-02T12:10:16Z</time>
      </trkpt>
      <trkpt lat="43.49737" lon="6.59347">
        <ele>30.176900863648</ele>
        <time>2011-06-02T12:10:17Z</time>
      </trkpt>
      <trkpt lat="43.49724" lon="6.5936">
        <ele>30.214658737183</ele>
        <time>2011-06-02T12:10:22Z</time>
      </trkpt>
      <trkpt lat="43.4972" lon="6.59362">
        <ele>30.10883140564</ele>
        <time>2011-06-02T12:10:24Z</time>
      </trkpt>
      <trkpt lat="43.4972" lon="6.59366">
        <ele>30.384683609009</ele>
        <time>2011-06-02T12:10:30Z</time>
      </trkpt>
      <trkpt lat="43.4972" lon="6.59371">
        <ele>30.612791061401</ele>
        <time>2011-06-02T12:10:32Z</time>
      </trkpt>
      <trkpt lat="43.4972" lon="6.59377">
        <ele>30.960258483887</ele>
        <time>2011-06-02T12:10:38Z</time>
      </trkpt>
      <trkpt lat="43.49719" lon="6.59384">
        <ele>31.33182144165</ele>
        <time>2011-06-02T12:10:43Z</time>
      </trkpt>
      <trkpt lat="43.49718" lon="6.59389">
        <ele>31.551368713379</ele>
        <time>2011-06-02T12:10:46Z</time>
      </trkpt>
      <trkpt lat="43.49718" lon="6.5939">
        <ele>31.611610412598</ele>
        <time>2011-06-02T12:10:47Z</time>
      </trkpt>
      <trkpt lat="43.49703" lon="6.59403">
        <ele>31.474708557129</ele>
        <time>2011-06-02T12:10:53Z</time>
      </trkpt>
      <trkpt lat="43.49702" lon="6.59405">
        <ele>31.499937057495</ele>
        <time>2011-06-02T12:10:54Z</time>
      </trkpt>
      <trkpt lat="43.4969" lon="6.5941">
        <ele>31.056972503662</ele>
        <time>2011-06-02T12:10:59Z</time>
      </trkpt>
      <trkpt lat="43.49676" lon="6.5942">
        <ele>30.806022644043</ele>
        <time>2011-06-02T12:11:04Z</time>
      </trkpt>
      <trkpt lat="43.49667" lon="6.59426">
        <ele>30.828029632568</ele>
        <time>2011-06-02T12:11:07Z</time>
      </trkpt>
      <trkpt lat="43.49655" lon="6.59436">
        <ele>30.919624328613</ele>
        <time>2011-06-02T12:11:12Z</time>
      </trkpt>
      <trkpt lat="43.49643" lon="6.59442">
        <ele>30.661273956299</ele>
        <time>2011-06-02T12:11:16Z</time>
      </trkpt>
      <trkpt lat="43.49633" lon="6.59448">
        <ele>30.424335479736</ele>
        <time>2011-06-02T12:11:20Z</time>
      </trkpt>
      <trkpt lat="43.4962" lon="6.59452">
        <ele>29.948692321777</ele>
        <time>2011-06-02T12:11:24Z</time>
      </trkpt>
      <trkpt lat="43.49617" lon="6.59457">
        <ele>30.109487533569</ele>
        <time>2011-06-02T12:11:27Z</time>
      </trkpt>
      <trkpt lat="43.49615" lon="6.59459">
        <ele>30.170795440674</ele>
        <time>2011-06-02T12:11:30Z</time>
      </trkpt>
      <trkpt lat="43.49604" lon="6.59463">
        <ele>29.707267761231</ele>
        <time>2011-06-02T12:11:36Z</time>
      </trkpt>
      <trkpt lat="43.49601" lon="6.59464">
        <ele>29.611091613769</ele>
        <time>2011-06-02T12:11:37Z</time>
      </trkpt>
      <trkpt lat="43.49591" lon="6.59467">
        <ele>29.118173599243</ele>
        <time>2011-06-02T12:11:43Z</time>
      </trkpt>
      <trkpt lat="43.49583" lon="6.59471">
        <ele>28.937574386597</ele>
        <time>2011-06-02T12:11:47Z</time>
      </trkpt>
      <trkpt lat="43.49573" lon="6.59474">
        <ele>28.991949081421</ele>
        <time>2011-06-02T12:11:52Z</time>
      </trkpt>
      <trkpt lat="43.49565" lon="6.59475">
        <ele>28.922256469727</ele>
        <time>2011-06-02T12:11:55Z</time>
      </trkpt>
      <trkpt lat="43.49554" lon="6.5948">
        <ele>29.003971099854</ele>
        <time>2011-06-02T12:12:01Z</time>
      </trkpt>
      <trkpt lat="43.49543" lon="6.59481">
        <ele>28.894697189331</ele>
        <time>2011-06-02T12:12:06Z</time>
      </trkpt>
      <trkpt lat="43.49526" lon="6.59477">
        <ele>28.361848831177</ele>
        <time>2011-06-02T12:12:12Z</time>
      </trkpt>
      <trkpt lat="43.49513" lon="6.59478">
        <ele>28.158023834229</ele>
        <time>2011-06-02T12:12:16Z</time>
      </trkpt>
      <trkpt lat="43.49503" lon="6.59477">
        <ele>27.947294235229</ele>
        <time>2011-06-02T12:12:20Z</time>
      </trkpt>
      <trkpt lat="43.49491" lon="6.5948">
        <ele>27.835998535156</ele>
        <time>2011-06-02T12:12:24Z</time>
      </trkpt>
      <trkpt lat="43.49486" lon="6.59483">
        <ele>27.831420898438</ele>
        <time>2011-06-02T12:12:26Z</time>
      </trkpt>
      <trkpt lat="43.49468" lon="6.59481">
        <ele>27.332458496094</ele>
        <time>2011-06-02T12:12:32Z</time>
      </trkpt>
      <trkpt lat="43.49461" lon="6.59481">
        <ele>27.121887207031</ele>
        <time>2011-06-02T12:12:35Z</time>
      </trkpt>
      <trkpt lat="43.49442" lon="6.59485">
        <ele>26.883850097656</ele>
        <time>2011-06-02T12:12:41Z</time>
      </trkpt>
      <trkpt lat="43.49421" lon="6.59484">
        <ele>26.313934326172</ele>
        <time>2011-06-02T12:12:46Z</time>
      </trkpt>
      <trkpt lat="43.49408" lon="6.59481">
        <ele>26.949598312378</ele>
        <time>2011-06-02T12:12:50Z</time>
      </trkpt>
      <trkpt lat="43.49399" lon="6.59478">
        <ele>27.689519882202</ele>
        <time>2011-06-02T12:12:54Z</time>
      </trkpt>
      <trkpt lat="43.49389" lon="6.59477">
        <ele>28.596920013428</ele>
        <time>2011-06-02T12:13:00Z</time>
      </trkpt>
      <trkpt lat="43.49385" lon="6.59477">
        <ele>29.01975440979</ele>
        <time>2011-06-02T12:13:06Z</time>
      </trkpt>
      <trkpt lat="43.49379" lon="6.59471">
        <ele>29.176116943359</ele>
        <time>2011-06-02T12:13:13Z</time>
      </trkpt>
      <trkpt lat="43.49371" lon="6.59465">
        <ele>29.583393096924</ele>
        <time>2011-06-02T12:13:20Z</time>
      </trkpt>
      <trkpt lat="43.49361" lon="6.59455">
        <ele>29.730199813843</ele>
        <time>2011-06-02T12:13:25Z</time>
      </trkpt>
      <trkpt lat="43.49353" lon="6.59445">
        <ele>29.778341293335</ele>
        <time>2011-06-02T12:13:30Z</time>
      </trkpt>
      <trkpt lat="43.4935" lon="6.59441">
        <ele>29.727542877197</ele>
        <time>2011-06-02T12:13:33Z</time>
      </trkpt>
      <trkpt lat="43.49344" lon="6.59423">
        <ele>28.755060195923</ele>
        <time>2011-06-02T12:13:39Z</time>
      </trkpt>
      <trkpt lat="43.49342" lon="6.59419">
        <ele>28.625345230102</ele>
        <time>2011-06-02T12:13:41Z</time>
      </trkpt>
      <trkpt lat="43.49339" lon="6.59414">
        <ele>28.435285568237</ele>
        <time>2011-06-02T12:13:45Z</time>
      </trkpt>
      <trkpt lat="43.49332" lon="6.59394">
        <ele>27.866628646851</ele>
        <time>2011-06-02T12:13:51Z</time>
      </trkpt>
      <trkpt lat="43.49328" lon="6.59375">
        <ele>27.304000854492</ele>
        <time>2011-06-02T12:13:56Z</time>
      </trkpt>
      <trkpt lat="43.49326" lon="6.59353">
        <ele>26.47599029541</ele>
        <time>2011-06-02T12:14:03Z</time>
      </trkpt>
      <trkpt lat="43.49324" lon="6.59336">
        <ele>25.842464447021</ele>
        <time>2011-06-02T12:14:08Z</time>
      </trkpt>
      <trkpt lat="43.49324" lon="6.59333">
        <ele>25.746953964233</ele>
        <time>2011-06-02T12:14:09Z</time>
      </trkpt>
      <trkpt lat="43.49325" lon="6.59313">
        <ele>25.127489089966</ele>
        <time>2011-06-02T12:14:14Z</time>
      </trkpt>
      <trkpt lat="43.49324" lon="6.59295">
        <ele>25.011371612549</ele>
        <time>2011-06-02T12:14:19Z</time>
      </trkpt>
      <trkpt lat="43.49322" lon="6.59269">
        <ele>24.884204864502</ele>
        <time>2011-06-02T12:14:24Z</time>
      </trkpt>
      <trkpt lat="43.49323" lon="6.59253">
        <ele>24.374197006226</ele>
        <time>2011-06-02T12:14:28Z</time>
      </trkpt>
      <trkpt lat="43.49325" lon="6.59245">
        <ele>24.044134140015</ele>
        <time>2011-06-02T12:14:30Z</time>
      </trkpt>
      <trkpt lat="43.49326" lon="6.59223">
        <ele>23.803632736206</ele>
        <time>2011-06-02T12:14:35Z</time>
      </trkpt>
      <trkpt lat="43.49326" lon="6.59217">
        <ele>23.80348777771</ele>
        <time>2011-06-02T12:14:36Z</time>
      </trkpt>
      <trkpt lat="43.49323" lon="6.59202">
        <ele>23.90665435791</ele>
        <time>2011-06-02T12:14:39Z</time>
      </trkpt>
      <trkpt lat="43.49321" lon="6.59183">
        <ele>23.940645217896</ele>
        <time>2011-06-02T12:14:45Z</time>
      </trkpt>
      <trkpt lat="43.4932" lon="6.59169">
        <ele>23.813249588013</ele>
        <time>2011-06-02T12:14:48Z</time>
      </trkpt>
      <trkpt lat="43.49318" lon="6.59141">
        <ele>23.905067443848</ele>
        <time>2011-06-02T12:14:53Z</time>
      </trkpt>
      <trkpt lat="43.49312" lon="6.59101">
        <ele>23.86044883728</ele>
        <time>2011-06-02T12:14:59Z</time>
      </trkpt>
      <trkpt lat="43.4931" lon="6.5909">
        <ele>23.771902084351</ele>
        <time>2011-06-02T12:15:01Z</time>
      </trkpt>
      <trkpt lat="43.49302" lon="6.59067">
        <ele>23.751846313477</ele>
        <time>2011-06-02T12:15:05Z</time>
      </trkpt>
      <trkpt lat="43.493" lon="6.59058">
        <ele>23.789464950561</ele>
        <time>2011-06-02T12:15:07Z</time>
      </trkpt>
      <trkpt lat="43.49295" lon="6.59044">
        <ele>23.787822723389</ele>
        <time>2011-06-02T12:15:10Z</time>
      </trkpt>
      <trkpt lat="43.49278" lon="6.59027">
        <ele>23.560661315918</ele>
        <time>2011-06-02T12:15:16Z</time>
      </trkpt>
      <trkpt lat="43.49268" lon="6.59037">
        <ele>23.3293800354</ele>
        <time>2011-06-02T12:15:21Z</time>
      </trkpt>
      <trkpt lat="43.49257" lon="6.59053">
        <ele>23.119392395019</ele>
        <time>2011-06-02T12:15:24Z</time>
      </trkpt>
      <trkpt lat="43.49236" lon="6.59074">
        <ele>23.310356140137</ele>
        <time>2011-06-02T12:15:29Z</time>
      </trkpt>
      <trkpt lat="43.49204" lon="6.59097">
        <ele>24.920997619629</ele>
        <time>2011-06-02T12:15:37Z</time>
      </trkpt>
      <trkpt lat="43.49172" lon="6.59121">
        <ele>27.135429382324</ele>
        <time>2011-06-02T12:15:45Z</time>
      </trkpt>
      <trkpt lat="43.4916" lon="6.5913">
        <ele>27.603345870972</ele>
        <time>2011-06-02T12:15:49Z</time>
      </trkpt>
      <trkpt lat="43.49139" lon="6.59146">
        <ele>27.838436126709</ele>
        <time>2011-06-02T12:15:56Z</time>
      </trkpt>
      <trkpt lat="43.49117" lon="6.59162">
        <ele>27.943956375122</ele>
        <time>2011-06-02T12:16:03Z</time>
      </trkpt>
      <trkpt lat="43.49099" lon="6.59176">
        <ele>28.234912872314</ele>
        <time>2011-06-02T12:16:08Z</time>
      </trkpt>
      <trkpt lat="43.49076" lon="6.59193">
        <ele>28.545211791992</ele>
        <time>2011-06-02T12:16:14Z</time>
      </trkpt>
      <trkpt lat="43.49068" lon="6.59199">
        <ele>28.612457275391</ele>
        <time>2011-06-02T12:16:16Z</time>
      </trkpt>
      <trkpt lat="43.49059" lon="6.59212">
        <ele>28.914251327515</ele>
        <time>2011-06-02T12:16:19Z</time>
      </trkpt>
      <trkpt lat="43.49047" lon="6.59225">
        <ele>28.962285995483</ele>
        <time>2011-06-02T12:16:23Z</time>
      </trkpt>
      <trkpt lat="43.49038" lon="6.5923">
        <ele>28.675640106201</ele>
        <time>2011-06-02T12:16:26Z</time>
      </trkpt>
      <trkpt lat="43.4903" lon="6.59239">
        <ele>28.595520019531</ele>
        <time>2011-06-02T12:16:30Z</time>
      </trkpt>
      <trkpt lat="43.49016" lon="6.59251">
        <ele>28.24129486084</ele>
        <time>2011-06-02T12:16:37Z</time>
      </trkpt>
      <trkpt lat="43.49006" lon="6.59265">
        <ele>28.270477294922</ele>
        <time>2011-06-02T12:16:42Z</time>
      </trkpt>
      <trkpt lat="43.48987" lon="6.59284">
        <ele>28.305988311768</ele>
        <time>2011-06-02T12:16:49Z</time>
      </trkpt>
      <trkpt lat="43.48973" lon="6.59314">
        <ele>29.04008102417</ele>
        <time>2011-06-02T12:16:56Z</time>
      </trkpt>
      <trkpt lat="43.4896" lon="6.59348">
        <ele>29.818384170532</ele>
        <time>2011-06-02T12:17:03Z</time>
      </trkpt>
      <trkpt lat="43.48958" lon="6.59359">
        <ele>30.221050262451</ele>
        <time>2011-06-02T12:17:05Z</time>
      </trkpt>
      <trkpt lat="43.4895" lon="6.59382">
        <ele>30.859802246094</ele>
        <time>2011-06-02T12:17:09Z</time>
      </trkpt>
      <trkpt lat="43.48952" lon="6.59404">
        <ele>32.059600830078</ele>
        <time>2011-06-02T12:17:13Z</time>
      </trkpt>
      <trkpt lat="43.48971" lon="6.59441">
        <ele>34.513671875</ele>
        <time>2011-06-02T12:17:21Z</time>
      </trkpt>
      <trkpt lat="43.48985" lon="6.5946">
        <ele>35.615703582764</ele>
        <time>2011-06-02T12:17:26Z</time>
      </trkpt>
      <trkpt lat="43.49003" lon="6.59494">
        <ele>36.970138549805</ele>
        <time>2011-06-02T12:17:33Z</time>
      </trkpt>
      <trkpt lat="43.49015" lon="6.59525">
        <ele>38.053867340088</ele>
        <time>2011-06-02T12:17:39Z</time>
      </trkpt>
      <trkpt lat="43.49035" lon="6.59563">
        <ele>39.137271881104</ele>
        <time>2011-06-02T12:17:48Z</time>
      </trkpt>
      <trkpt lat="43.49058" lon="6.59585">
        <ele>39.724082946777</ele>
        <time>2011-06-02T12:17:55Z</time>
      </trkpt>
      <trkpt lat="43.49067" lon="6.59596">
        <ele>39.928260803223</ele>
        <time>2011-06-02T12:17:58Z</time>
      </trkpt>
      <trkpt lat="43.49092" lon="6.59627">
        <ele>40</ele>
        <time>2011-06-02T12:18:06Z</time>
      </trkpt>
      <trkpt lat="43.49109" lon="6.59657">
        <ele>40</ele>
        <time>2011-06-02T12:18:13Z</time>
      </trkpt>
      <trkpt lat="43.49127" lon="6.59698">
        <ele>40</ele>
        <time>2011-06-02T12:18:22Z</time>
      </trkpt>
      <trkpt lat="43.49143" lon="6.59738">
        <ele>40</ele>
        <time>2011-06-02T12:18:32Z</time>
      </trkpt>
      <trkpt lat="43.49158" lon="6.5978">
        <ele>40.035011291504</ele>
        <time>2011-06-02T12:18:42Z</time>
      </trkpt>
      <trkpt lat="43.49173" lon="6.59807">
        <ele>40</ele>
        <time>2011-06-02T12:18:50Z</time>
      </trkpt>
      <trkpt lat="43.49186" lon="6.59834">
        <ele>40</ele>
        <time>2011-06-02T12:18:58Z</time>
      </trkpt>
      <trkpt lat="43.49199" lon="6.59859">
        <ele>40</ele>
        <time>2011-06-02T12:19:06Z</time>
      </trkpt>
      <trkpt lat="43.49208" lon="6.59882">
        <ele>40</ele>
        <time>2011-06-02T12:19:14Z</time>
      </trkpt>
      <trkpt lat="43.49218" lon="6.59907">
        <ele>40</ele>
        <time>2011-06-02T12:19:23Z</time>
      </trkpt>
      <trkpt lat="43.49226" lon="6.59927">
        <ele>40</ele>
        <time>2011-06-02T12:19:31Z</time>
      </trkpt>
      <trkpt lat="43.49234" lon="6.59954">
        <ele>40</ele>
        <time>2011-06-02T12:19:40Z</time>
      </trkpt>
      <trkpt lat="43.4924" lon="6.59977">
        <ele>40</ele>
        <time>2011-06-02T12:19:47Z</time>
      </trkpt>
      <trkpt lat="43.49245" lon="6.60006">
        <ele>40</ele>
        <time>2011-06-02T12:19:56Z</time>
      </trkpt>
      <trkpt lat="43.49249" lon="6.6003">
        <ele>40</ele>
        <time>2011-06-02T12:20:04Z</time>
      </trkpt>
      <trkpt lat="43.4925" lon="6.60049">
        <ele>40</ele>
        <time>2011-06-02T12:20:10Z</time>
      </trkpt>
      <trkpt lat="43.49253" lon="6.60075">
        <ele>40.036987304688</ele>
        <time>2011-06-02T12:20:18Z</time>
      </trkpt>
      <trkpt lat="43.49252" lon="6.60104">
        <ele>41.275161743164</ele>
        <time>2011-06-02T12:20:27Z</time>
      </trkpt>
      <trkpt lat="43.49253" lon="6.6012">
        <ele>42.255504608154</ele>
        <time>2011-06-02T12:20:32Z</time>
      </trkpt>
      <trkpt lat="43.49255" lon="6.60143">
        <ele>43.690715789795</ele>
        <time>2011-06-02T12:20:39Z</time>
      </trkpt>
      <trkpt lat="43.49256" lon="6.60165">
        <ele>45.107570648193</ele>
        <time>2011-06-02T12:20:46Z</time>
      </trkpt>
      <trkpt lat="43.49257" lon="6.60188">
        <ele>47.11169052124</ele>
        <time>2011-06-02T12:20:53Z</time>
      </trkpt>
      <trkpt lat="43.49257" lon="6.60217">
        <ele>49.593780517578</ele>
        <time>2011-06-02T12:21:02Z</time>
      </trkpt>
      <trkpt lat="43.49258" lon="6.60237">
        <ele>51.345287322998</ele>
        <time>2011-06-02T12:21:08Z</time>
      </trkpt>
      <trkpt lat="43.49254" lon="6.60262">
        <ele>53.10725402832</ele>
        <time>2011-06-02T12:21:16Z</time>
      </trkpt>
      <trkpt lat="43.4925" lon="6.60285">
        <ele>54.466979980469</ele>
        <time>2011-06-02T12:21:24Z</time>
      </trkpt>
      <trkpt lat="43.49247" lon="6.603">
        <ele>55.373352050781</ele>
        <time>2011-06-02T12:21:30Z</time>
      </trkpt>
      <trkpt lat="43.49244" lon="6.60306">
        <ele>55.586212158203</ele>
        <time>2011-06-02T12:21:34Z</time>
      </trkpt>
      <trkpt lat="43.49245" lon="6.60319">
        <ele>56.626480102539</ele>
        <time>2011-06-02T12:21:40Z</time>
      </trkpt>
      <trkpt lat="43.49243" lon="6.60337">
        <ele>57.656803131104</ele>
        <time>2011-06-02T12:21:46Z</time>
      </trkpt>
      <trkpt lat="43.4924" lon="6.60352">
        <ele>58.042026519775</ele>
        <time>2011-06-02T12:21:51Z</time>
      </trkpt>
      <trkpt lat="43.49239" lon="6.60371">
        <ele>58.718414306641</ele>
        <time>2011-06-02T12:21:57Z</time>
      </trkpt>
      <trkpt lat="43.49236" lon="6.6039">
        <ele>59.236534118652</ele>
        <time>2011-06-02T12:22:03Z</time>
      </trkpt>
      <trkpt lat="43.49231" lon="6.60415">
        <ele>60.044403076172</ele>
        <time>2011-06-02T12:22:11Z</time>
      </trkpt>
      <trkpt lat="43.49227" lon="6.60435">
        <ele>60.634773254395</ele>
        <time>2011-06-02T12:22:17Z</time>
      </trkpt>
      <trkpt lat="43.49222" lon="6.60467">
        <ele>61.678337097168</ele>
        <time>2011-06-02T12:22:25Z</time>
      </trkpt>
      <trkpt lat="43.4922" lon="6.60505">
        <ele>63.063526153564</ele>
        <time>2011-06-02T12:22:34Z</time>
      </trkpt>
      <trkpt lat="43.4922" lon="6.60541">
        <ele>64.092399597168</ele>
        <time>2011-06-02T12:22:42Z</time>
      </trkpt>
      <trkpt lat="43.49222" lon="6.60571">
        <ele>64.996429443359</ele>
        <time>2011-06-02T12:22:49Z</time>
      </trkpt>
      <trkpt lat="43.49225" lon="6.60588">
        <ele>65.599418640137</ele>
        <time>2011-06-02T12:22:54Z</time>
      </trkpt>
      <trkpt lat="43.49226" lon="6.60619">
        <ele>66.85425567627</ele>
        <time>2011-06-02T12:23:01Z</time>
      </trkpt>
      <trkpt lat="43.49226" lon="6.60662">
        <ele>68.518592834473</ele>
        <time>2011-06-02T12:23:10Z</time>
      </trkpt>
      <trkpt lat="43.49224" lon="6.60694">
        <ele>69.11491394043</ele>
        <time>2011-06-02T12:23:17Z</time>
      </trkpt>
      <trkpt lat="43.4922" lon="6.60729">
        <ele>69.654670715332</ele>
        <time>2011-06-02T12:23:25Z</time>
      </trkpt>
      <trkpt lat="43.49214" lon="6.60762">
        <ele>70</ele>
        <time>2011-06-02T12:23:33Z</time>
      </trkpt>
      <trkpt lat="43.49213" lon="6.60795">
        <ele>70</ele>
        <time>2011-06-02T12:23:41Z</time>
      </trkpt>
      <trkpt lat="43.49216" lon="6.60831">
        <ele>70</ele>
        <time>2011-06-02T12:23:50Z</time>
      </trkpt>
      <trkpt lat="43.4922" lon="6.60838">
        <ele>69.980255126953</ele>
        <time>2011-06-02T12:23:53Z</time>
      </trkpt>
      <trkpt lat="43.49221" lon="6.60842">
        <ele>69.961814880371</ele>
        <time>2011-06-02T12:23:59Z</time>
      </trkpt>
      <trkpt lat="43.49221" lon="6.60844">
        <ele>69.95475769043</ele>
        <time>2011-06-02T12:24:07Z</time>
      </trkpt>
      <trkpt lat="43.49221" lon="6.60846">
        <ele>69.94750213623</ele>
        <time>2011-06-02T12:24:20Z</time>
      </trkpt>
      <trkpt lat="43.49222" lon="6.60847">
        <ele>69.944122314453</ele>
        <time>2011-06-02T12:24:30Z</time>
      </trkpt>
      <trkpt lat="43.49223" lon="6.60848">
        <ele>69.942398071289</ele>
        <time>2011-06-02T12:24:41Z</time>
      </trkpt>
      <trkpt lat="43.49224" lon="6.60849">
        <ele>69.940483093262</ele>
        <time>2011-06-02T12:24:55Z</time>
      </trkpt>
      <trkpt lat="43.49224" lon="6.60852">
        <ele>69.930877685547</ele>
        <time>2011-06-02T12:25:19Z</time>
      </trkpt>
      <trkpt lat="43.49216" lon="6.60859">
        <ele>69.876899719238</ele>
        <time>2011-06-02T12:25:24Z</time>
      </trkpt>
      <trkpt lat="43.49203" lon="6.60861">
        <ele>69.811477661133</ele>
        <time>2011-06-02T12:25:30Z</time>
      </trkpt>
      <trkpt lat="43.49186" lon="6.60862">
        <ele>69.738502502441</ele>
        <time>2011-06-02T12:25:37Z</time>
      </trkpt>
      <trkpt lat="43.49173" lon="6.60864">
        <ele>69.662734985352</ele>
        <time>2011-06-02T12:25:43Z</time>
      </trkpt>
      <trkpt lat="43.49161" lon="6.60862">
        <ele>69.763145446777</ele>
        <time>2011-06-02T12:25:48Z</time>
      </trkpt>
      <trkpt lat="43.49159" lon="6.60863">
        <ele>69.796852111816</ele>
        <time>2011-06-02T12:25:49Z</time>
      </trkpt>
      <trkpt lat="43.49158" lon="6.60874">
        <ele>69.727996826172</ele>
        <time>2011-06-02T12:25:54Z</time>
      </trkpt>
      <trkpt lat="43.49153" lon="6.60882">
        <ele>69.776031494141</ele>
        <time>2011-06-02T12:25:58Z</time>
      </trkpt>
      <trkpt lat="43.49134" lon="6.60886">
        <ele>70.243125915527</ele>
        <time>2011-06-02T12:26:07Z</time>
      </trkpt>
      <trkpt lat="43.49124" lon="6.60895">
        <ele>70.525398254395</ele>
        <time>2011-06-02T12:26:12Z</time>
      </trkpt>
      <trkpt lat="43.49108" lon="6.60908">
        <ele>71.066734313965</ele>
        <time>2011-06-02T12:26:19Z</time>
      </trkpt>
      <trkpt lat="43.49103" lon="6.60909">
        <ele>71.253707885742</ele>
        <time>2011-06-02T12:26:21Z</time>
      </trkpt>
      <trkpt lat="43.49088" lon="6.60921">
        <ele>71.767883300781</ele>
        <time>2011-06-02T12:26:28Z</time>
      </trkpt>
      <trkpt lat="43.49074" lon="6.60927">
        <ele>71.985809326172</ele>
        <time>2011-06-02T12:26:35Z</time>
      </trkpt>
      <trkpt lat="43.4906" lon="6.60932">
        <ele>72.094528198242</ele>
        <time>2011-06-02T12:26:42Z</time>
      </trkpt>
      <trkpt lat="43.49048" lon="6.60934">
        <ele>72.220413208008</ele>
        <time>2011-06-02T12:26:48Z</time>
      </trkpt>
      <trkpt lat="43.4903" lon="6.60934">
        <ele>72.429267883301</ele>
        <time>2011-06-02T12:26:56Z</time>
      </trkpt>
      <trkpt lat="43.49015" lon="6.6093">
        <ele>72.65128326416</ele>
        <time>2011-06-02T12:27:01Z</time>
      </trkpt>
      <trkpt lat="43.49001" lon="6.60923">
        <ele>72.913352966309</ele>
        <time>2011-06-02T12:27:05Z</time>
      </trkpt>
      <trkpt lat="43.48997" lon="6.60917">
        <ele>73.029335021973</ele>
        <time>2011-06-02T12:27:07Z</time>
      </trkpt>
      <trkpt lat="43.48991" lon="6.60914">
        <ele>73.115264892578</ele>
        <time>2011-06-02T12:27:09Z</time>
      </trkpt>
      <trkpt lat="43.48973" lon="6.60895">
        <ele>73.490852355957</ele>
        <time>2011-06-02T12:27:15Z</time>
      </trkpt>
      <trkpt lat="43.4896" lon="6.60884">
        <ele>73.846824645996</ele>
        <time>2011-06-02T12:27:20Z</time>
      </trkpt>
      <trkpt lat="43.48951" lon="6.60872">
        <ele>74.231140136719</ele>
        <time>2011-06-02T12:27:25Z</time>
      </trkpt>
      <trkpt lat="43.48941" lon="6.60865">
        <ele>74.599632263184</ele>
        <time>2011-06-02T12:27:30Z</time>
      </trkpt>
      <trkpt lat="43.48932" lon="6.60862">
        <ele>74.899101257324</ele>
        <time>2011-06-02T12:27:33Z</time>
      </trkpt>
      <trkpt lat="43.48925" lon="6.60869">
        <ele>74.912605285645</ele>
        <time>2011-06-02T12:27:37Z</time>
      </trkpt>
      <trkpt lat="43.48916" lon="6.60886">
        <ele>74.756881713867</ele>
        <time>2011-06-02T12:27:43Z</time>
      </trkpt>
      <trkpt lat="43.48912" lon="6.60891">
        <ele>74.763748168945</ele>
        <time>2011-06-02T12:27:45Z</time>
      </trkpt>
      <trkpt lat="43.48903" lon="6.60894">
        <ele>75.028106689453</ele>
        <time>2011-06-02T12:27:50Z</time>
      </trkpt>
      <trkpt lat="43.48899" lon="6.60895">
        <ele>75.139114379883</ele>
        <time>2011-06-02T12:27:52Z</time>
      </trkpt>
      <trkpt lat="43.48887" lon="6.60901">
        <ele>75.440093994141</ele>
        <time>2011-06-02T12:27:59Z</time>
      </trkpt>
      <trkpt lat="43.48877" lon="6.60898">
        <ele>75.879547119141</ele>
        <time>2011-06-02T12:28:04Z</time>
      </trkpt>
      <trkpt lat="43.48862" lon="6.60895">
        <ele>76.499816894531</ele>
        <time>2011-06-02T12:28:11Z</time>
      </trkpt>
      <trkpt lat="43.48847" lon="6.609">
        <ele>76.90837097168</ele>
        <time>2011-06-02T12:28:18Z</time>
      </trkpt>
      <trkpt lat="43.4883" lon="6.60917">
        <ele>77.088638305664</ele>
        <time>2011-06-02T12:28:27Z</time>
      </trkpt>
      <trkpt lat="43.48816" lon="6.60931">
        <ele>77.360870361328</ele>
        <time>2011-06-02T12:28:35Z</time>
      </trkpt>
      <trkpt lat="43.48802" lon="6.60943">
        <ele>77.727249145508</ele>
        <time>2011-06-02T12:28:41Z</time>
      </trkpt>
      <trkpt lat="43.48782" lon="6.60954">
        <ele>78.519416809082</ele>
        <time>2011-06-02T12:28:49Z</time>
      </trkpt>
      <trkpt lat="43.48764" lon="6.60957">
        <ele>79.312400817871</ele>
        <time>2011-06-02T12:28:55Z</time>
      </trkpt>
      <trkpt lat="43.48745" lon="6.60952">
        <ele>80</ele>
        <time>2011-06-02T12:29:02Z</time>
      </trkpt>
      <trkpt lat="43.48729" lon="6.60948">
        <ele>80</ele>
        <time>2011-06-02T12:29:08Z</time>
      </trkpt>
      <trkpt lat="43.48712" lon="6.60951">
        <ele>80</ele>
        <time>2011-06-02T12:29:15Z</time>
      </trkpt>
      <trkpt lat="43.48691" lon="6.60957">
        <ele>80</ele>
        <time>2011-06-02T12:29:22Z</time>
      </trkpt>
      <trkpt lat="43.48674" lon="6.60969">
        <ele>80</ele>
        <time>2011-06-02T12:29:28Z</time>
      </trkpt>
      <trkpt lat="43.48656" lon="6.60988">
        <ele>80</ele>
        <time>2011-06-02T12:29:35Z</time>
      </trkpt>
      <trkpt lat="43.48639" lon="6.61012">
        <ele>80</ele>
        <time>2011-06-02T12:29:43Z</time>
      </trkpt>
      <trkpt lat="43.48624" lon="6.61027">
        <ele>80</ele>
        <time>2011-06-02T12:29:49Z</time>
      </trkpt>
      <trkpt lat="43.48603" lon="6.61053">
        <ele>80</ele>
        <time>2011-06-02T12:29:58Z</time>
      </trkpt>
      <trkpt lat="43.48583" lon="6.61074">
        <ele>80.001197814941</ele>
        <time>2011-06-02T12:30:06Z</time>
      </trkpt>
      <trkpt lat="43.48563" lon="6.61092">
        <ele>80.239379882812</ele>
        <time>2011-06-02T12:30:14Z</time>
      </trkpt>
      <trkpt lat="43.48538" lon="6.61107">
        <ele>80.54150390625</ele>
        <time>2011-06-02T12:30:23Z</time>
      </trkpt>
      <trkpt lat="43.48516" lon="6.61117">
        <ele>80.811584472656</ele>
        <time>2011-06-02T12:30:30Z</time>
      </trkpt>
      <trkpt lat="43.48497" lon="6.61129">
        <ele>81.097221374512</ele>
        <time>2011-06-02T12:30:36Z</time>
      </trkpt>
      <trkpt lat="43.48487" lon="6.6114">
        <ele>81.518760681152</ele>
        <time>2011-06-02T12:30:41Z</time>
      </trkpt>
      <trkpt lat="43.48479" lon="6.61142">
        <ele>81.856491088867</ele>
        <time>2011-06-02T12:30:45Z</time>
      </trkpt>
      <trkpt lat="43.48465" lon="6.61154">
        <ele>82.570106506348</ele>
        <time>2011-06-02T12:30:53Z</time>
      </trkpt>
      <trkpt lat="43.48464" lon="6.61154">
        <ele>82.607902526855</ele>
        <time>2011-06-02T12:30:54Z</time>
      </trkpt>
      <trkpt lat="43.48456" lon="6.61162">
        <ele>83.049858093262</ele>
        <time>2011-06-02T12:31:00Z</time>
      </trkpt>
      <trkpt lat="43.48451" lon="6.61169">
        <ele>83.354225158691</ele>
        <time>2011-06-02T12:31:04Z</time>
      </trkpt>
      <trkpt lat="43.48447" lon="6.61172">
        <ele>83.599380493164</ele>
        <time>2011-06-02T12:31:08Z</time>
      </trkpt>
      <trkpt lat="43.48439" lon="6.6118">
        <ele>84.048187255859</ele>
        <time>2011-06-02T12:31:13Z</time>
      </trkpt>
      <trkpt lat="43.48433" lon="6.61188">
        <ele>84.421936035156</ele>
        <time>2011-06-02T12:31:17Z</time>
      </trkpt>
      <trkpt lat="43.48419" lon="6.61199">
        <ele>85.249580383301</ele>
        <time>2011-06-02T12:31:24Z</time>
      </trkpt>
      <trkpt lat="43.48404" lon="6.6121">
        <ele>86.206268310547</ele>
        <time>2011-06-02T12:31:32Z</time>
      </trkpt>
      <trkpt lat="43.48392" lon="6.6122">
        <ele>86.907760620117</ele>
        <time>2011-06-02T12:31:38Z</time>
      </trkpt>
      <trkpt lat="43.48382" lon="6.61233">
        <ele>87.551986694336</ele>
        <time>2011-06-02T12:31:44Z</time>
      </trkpt>
      <trkpt lat="43.48371" lon="6.61244">
        <ele>88.173881530762</ele>
        <time>2011-06-02T12:31:50Z</time>
      </trkpt>
      <trkpt lat="43.48355" lon="6.6126">
        <ele>88.723022460938</ele>
        <time>2011-06-02T12:31:58Z</time>
      </trkpt>
      <trkpt lat="43.48341" lon="6.61279">
        <ele>88.959197998047</ele>
        <time>2011-06-02T12:32:06Z</time>
      </trkpt>
      <trkpt lat="43.4833" lon="6.61292">
        <ele>89.040077209473</ele>
        <time>2011-06-02T12:32:12Z</time>
      </trkpt>
      <trkpt lat="43.4832" lon="6.61299">
        <ele>89.011901855469</ele>
        <time>2011-06-02T12:32:17Z</time>
      </trkpt>
      <trkpt lat="43.48305" lon="6.61307">
        <ele>89.100479125977</ele>
        <time>2011-06-02T12:32:23Z</time>
      </trkpt>
      <trkpt lat="43.48293" lon="6.61312">
        <ele>89.229034423828</ele>
        <time>2011-06-02T12:32:29Z</time>
      </trkpt>
      <trkpt lat="43.48278" lon="6.6132">
        <ele>89.444801330566</ele>
        <time>2011-06-02T12:32:36Z</time>
      </trkpt>
      <trkpt lat="43.4826" lon="6.6133">
        <ele>89.765846252441</ele>
        <time>2011-06-02T12:32:43Z</time>
      </trkpt>
      <trkpt lat="43.48244" lon="6.61344">
        <ele>89.691650390625</ele>
        <time>2011-06-02T12:32:49Z</time>
      </trkpt>
      <trkpt lat="43.48223" lon="6.61365">
        <ele>89.032600402832</ele>
        <time>2011-06-02T12:32:58Z</time>
      </trkpt>
      <trkpt lat="43.48218" lon="6.61372">
        <ele>88.868217468262</ele>
        <time>2011-06-02T12:33:01Z</time>
      </trkpt>
      <trkpt lat="43.48207" lon="6.61385">
        <ele>88.560729980469</ele>
        <time>2011-06-02T12:33:06Z</time>
      </trkpt>
      <trkpt lat="43.48186" lon="6.61399">
        <ele>88.262428283691</ele>
        <time>2011-06-02T12:33:12Z</time>
      </trkpt>
      <trkpt lat="43.48164" lon="6.61406">
        <ele>88.113906860352</ele>
        <time>2011-06-02T12:33:18Z</time>
      </trkpt>
      <trkpt lat="43.48149" lon="6.6141">
        <ele>88.048179626465</ele>
        <time>2011-06-02T12:33:23Z</time>
      </trkpt>
      <trkpt lat="43.48129" lon="6.61416">
        <ele>88.001167297363</ele>
        <time>2011-06-02T12:33:29Z</time>
      </trkpt>
      <trkpt lat="43.4811" lon="6.61424">
        <ele>87.857749938965</ele>
        <time>2011-06-02T12:33:35Z</time>
      </trkpt>
      <trkpt lat="43.48092" lon="6.6143">
        <ele>87.810920715332</ele>
        <time>2011-06-02T12:33:41Z</time>
      </trkpt>
      <trkpt lat="43.48075" lon="6.6144">
        <ele>87.519165039062</ele>
        <time>2011-06-02T12:33:47Z</time>
      </trkpt>
      <trkpt lat="43.48053" lon="6.61452">
        <ele>86.851974487305</ele>
        <time>2011-06-02T12:33:54Z</time>
      </trkpt>
      <trkpt lat="43.48026" lon="6.61465">
        <ele>86.052604675293</ele>
        <time>2011-06-02T12:34:02Z</time>
      </trkpt>
      <trkpt lat="43.48008" lon="6.61477">
        <ele>85.471817016602</ele>
        <time>2011-06-02T12:34:07Z</time>
      </trkpt>
      <trkpt lat="43.47986" lon="6.61495">
        <ele>84.726081848145</ele>
        <time>2011-06-02T12:34:14Z</time>
      </trkpt>
      <trkpt lat="43.47971" lon="6.61505">
        <ele>84.291496276855</ele>
        <time>2011-06-02T12:34:19Z</time>
      </trkpt>
      <trkpt lat="43.47955" lon="6.61514">
        <ele>83.815032958984</ele>
        <time>2011-06-02T12:34:25Z</time>
      </trkpt>
      <trkpt lat="43.47936" lon="6.61526">
        <ele>83.220146179199</ele>
        <time>2011-06-02T12:34:31Z</time>
      </trkpt>
      <trkpt lat="43.47915" lon="6.61539">
        <ele>82.505699157715</ele>
        <time>2011-06-02T12:34:37Z</time>
      </trkpt>
      <trkpt lat="43.47883" lon="6.61555">
        <ele>81.93692779541</ele>
        <time>2011-06-02T12:34:44Z</time>
      </trkpt>
      <trkpt lat="43.47851" lon="6.61564">
        <ele>81.444259643555</ele>
        <time>2011-06-02T12:34:50Z</time>
      </trkpt>
      <trkpt lat="43.47816" lon="6.61562">
        <ele>81.203071594238</ele>
        <time>2011-06-02T12:34:56Z</time>
      </trkpt>
      <trkpt lat="43.47777" lon="6.61545">
        <ele>81.14720916748</ele>
        <time>2011-06-02T12:35:03Z</time>
      </trkpt>
      <trkpt lat="43.47766" lon="6.61538">
        <ele>81.101982116699</ele>
        <time>2011-06-02T12:35:05Z</time>
      </trkpt>
      <trkpt lat="43.4774" lon="6.6151">
        <ele>80.739761352539</ele>
        <time>2011-06-02T12:35:10Z</time>
      </trkpt>
      <trkpt lat="43.47728" lon="6.61501">
        <ele>80.467025756836</ele>
        <time>2011-06-02T12:35:12Z</time>
      </trkpt>
      <trkpt lat="43.47673" lon="6.61468">
        <ele>78.802726745605</ele>
        <time>2011-06-02T12:35:21Z</time>
      </trkpt>
      <trkpt lat="43.47629" lon="6.61457">
        <ele>75.985054016113</ele>
        <time>2011-06-02T12:35:28Z</time>
      </trkpt>
      <trkpt lat="43.47575" lon="6.61448">
        <ele>72.243560791016</ele>
        <time>2011-06-02T12:35:36Z</time>
      </trkpt>
      <trkpt lat="43.47548" lon="6.61446">
        <ele>70.439865112305</ele>
        <time>2011-06-02T12:35:40Z</time>
      </trkpt>
      <trkpt lat="43.47511" lon="6.61427">
        <ele>67.27205657959</ele>
        <time>2011-06-02T12:35:46Z</time>
      </trkpt>
      <trkpt lat="43.47466" lon="6.61398">
        <ele>63.656806945801</ele>
        <time>2011-06-02T12:35:53Z</time>
      </trkpt>
      <trkpt lat="43.47441" lon="6.61382">
        <ele>62.069358825684</ele>
        <time>2011-06-02T12:35:57Z</time>
      </trkpt>
      <trkpt lat="43.47408" lon="6.61376">
        <ele>60.928318023682</ele>
        <time>2011-06-02T12:36:02Z</time>
      </trkpt>
      <trkpt lat="43.47402" lon="6.61378">
        <ele>60.871517181396</ele>
        <time>2011-06-02T12:36:03Z</time>
      </trkpt>
      <trkpt lat="43.47348" lon="6.61385">
        <ele>60.226161956787</ele>
        <time>2011-06-02T12:36:11Z</time>
      </trkpt>
      <trkpt lat="43.47342" lon="6.61385">
        <ele>60.122104644775</ele>
        <time>2011-06-02T12:36:12Z</time>
      </trkpt>
      <trkpt lat="43.47317" lon="6.61378">
        <ele>60</ele>
        <time>2011-06-02T12:36:16Z</time>
      </trkpt>
      <trkpt lat="43.47301" lon="6.61369">
        <ele>60</ele>
        <time>2011-06-02T12:36:19Z</time>
      </trkpt>
      <trkpt lat="43.47265" lon="6.61361">
        <ele>60</ele>
        <time>2011-06-02T12:36:25Z</time>
      </trkpt>
      <trkpt lat="43.47253" lon="6.61361">
        <ele>60</ele>
        <time>2011-06-02T12:36:27Z</time>
      </trkpt>
      <trkpt lat="43.47229" lon="6.61364">
        <ele>60</ele>
        <time>2011-06-02T12:36:31Z</time>
      </trkpt>
      <trkpt lat="43.47208" lon="6.6138">
        <ele>60</ele>
        <time>2011-06-02T12:36:35Z</time>
      </trkpt>
      <trkpt lat="43.47193" lon="6.61394">
        <ele>60</ele>
        <time>2011-06-02T12:36:38Z</time>
      </trkpt>
      <trkpt lat="43.47184" lon="6.61404">
        <ele>60</ele>
        <time>2011-06-02T12:36:40Z</time>
      </trkpt>
      <trkpt lat="43.47158" lon="6.61446">
        <ele>60</ele>
        <time>2011-06-02T12:36:47Z</time>
      </trkpt>
      <trkpt lat="43.47145" lon="6.61479">
        <ele>60</ele>
        <time>2011-06-02T12:36:53Z</time>
      </trkpt>
      <trkpt lat="43.47137" lon="6.61498">
        <ele>60</ele>
        <time>2011-06-02T12:36:57Z</time>
      </trkpt>
      <trkpt lat="43.47126" lon="6.61515">
        <ele>59.816024780273</ele>
        <time>2011-06-02T12:37:01Z</time>
      </trkpt>
      <trkpt lat="43.47122" lon="6.61524">
        <ele>59.713600158691</ele>
        <time>2011-06-02T12:37:03Z</time>
      </trkpt>
      <trkpt lat="43.47114" lon="6.61526">
        <ele>59.684417724609</ele>
        <time>2011-06-02T12:37:07Z</time>
      </trkpt>
      <trkpt lat="43.47107" lon="6.61525">
        <ele>59.704444885254</ele>
        <time>2011-06-02T12:37:09Z</time>
      </trkpt>
      <trkpt lat="43.471" lon="6.61527">
        <ele>59.678123474121</ele>
        <time>2011-06-02T12:37:11Z</time>
      </trkpt>
      <trkpt lat="43.47093" lon="6.61531">
        <ele>59.625480651855</ele>
        <time>2011-06-02T12:37:13Z</time>
      </trkpt>
      <trkpt lat="43.47076" lon="6.61551">
        <ele>58.460662841797</ele>
        <time>2011-06-02T12:37:18Z</time>
      </trkpt>
      <trkpt lat="43.47067" lon="6.61579">
        <ele>57.118270874023</ele>
        <time>2011-06-02T12:37:22Z</time>
      </trkpt>
      <trkpt lat="43.47055" lon="6.61595">
        <ele>55.337791442871</ele>
        <time>2011-06-02T12:37:26Z</time>
      </trkpt>
      <trkpt lat="43.47052" lon="6.61597">
        <ele>54.940410614014</ele>
        <time>2011-06-02T12:37:27Z</time>
      </trkpt>
      <trkpt lat="43.47028" lon="6.61609">
        <ele>52.003730773926</ele>
        <time>2011-06-02T12:37:34Z</time>
      </trkpt>
      <trkpt lat="43.47024" lon="6.6161">
        <ele>51.620471954346</ele>
        <time>2011-06-02T12:37:35Z</time>
      </trkpt>
      <trkpt lat="43.47012" lon="6.61622">
        <ele>50.234634399414</ele>
        <time>2011-06-02T12:37:40Z</time>
      </trkpt>
      <trkpt lat="43.47009" lon="6.61628">
        <ele>49.897285461426</ele>
        <time>2011-06-02T12:37:42Z</time>
      </trkpt>
      <trkpt lat="43.47013" lon="6.61645">
        <ele>50.18465423584</ele>
        <time>2011-06-02T12:37:47Z</time>
      </trkpt>
      <trkpt lat="43.4702" lon="6.61669">
        <ele>50.598827362061</ele>
        <time>2011-06-02T12:37:53Z</time>
      </trkpt>
      <trkpt lat="43.47021" lon="6.61682">
        <ele>50.471347808838</ele>
        <time>2011-06-02T12:37:57Z</time>
      </trkpt>
      <trkpt lat="43.47014" lon="6.61702">
        <ele>49.604721069336</ele>
        <time>2011-06-02T12:38:03Z</time>
      </trkpt>
      <trkpt lat="43.47004" lon="6.61725">
        <ele>48.563343048096</ele>
        <time>2011-06-02T12:38:08Z</time>
      </trkpt>
      <trkpt lat="43.46998" lon="6.6174">
        <ele>48.023315429688</ele>
        <time>2011-06-02T12:38:12Z</time>
      </trkpt>
      <trkpt lat="43.46988" lon="6.61758">
        <ele>47.466300964355</ele>
        <time>2011-06-02T12:38:17Z</time>
      </trkpt>
      <trkpt lat="43.4698" lon="6.61778">
        <ele>47.196746826172</ele>
        <time>2011-06-02T12:38:22Z</time>
      </trkpt>
      <trkpt lat="43.46965" lon="6.61797">
        <ele>46.811145782471</ele>
        <time>2011-06-02T12:38:28Z</time>
      </trkpt>
      <trkpt lat="43.4696" lon="6.61807">
        <ele>46.73673248291</ele>
        <time>2011-06-02T12:38:31Z</time>
      </trkpt>
      <trkpt lat="43.46952" lon="6.61823">
        <ele>46.696872711182</ele>
        <time>2011-06-02T12:38:36Z</time>
      </trkpt>
      <trkpt lat="43.4694" lon="6.6184">
        <ele>46.453262329102</ele>
        <time>2011-06-02T12:38:41Z</time>
      </trkpt>
      <trkpt lat="43.46928" lon="6.61859">
        <ele>45.914379119873</ele>
        <time>2011-06-02T12:38:46Z</time>
      </trkpt>
      <trkpt lat="43.46915" lon="6.61877">
        <ele>45.421085357666</ele>
        <time>2011-06-02T12:38:51Z</time>
      </trkpt>
      <trkpt lat="43.46899" lon="6.61894">
        <ele>44.777351379395</ele>
        <time>2011-06-02T12:38:56Z</time>
      </trkpt>
      <trkpt lat="43.46887" lon="6.61911">
        <ele>44.333515167236</ele>
        <time>2011-06-02T12:39:01Z</time>
      </trkpt>
      <trkpt lat="43.46879" lon="6.61925">
        <ele>43.99577331543</ele>
        <time>2011-06-02T12:39:05Z</time>
      </trkpt>
      <trkpt lat="43.46865" lon="6.61938">
        <ele>43.510543823242</ele>
        <time>2011-06-02T12:39:09Z</time>
      </trkpt>
      <trkpt lat="43.46855" lon="6.61962">
        <ele>42.982398986816</ele>
        <time>2011-06-02T12:39:14Z</time>
      </trkpt>
      <trkpt lat="43.46848" lon="6.61977">
        <ele>42.617332458496</ele>
        <time>2011-06-02T12:39:19Z</time>
      </trkpt>
      <trkpt lat="43.46831" lon="6.61993">
        <ele>42.061168670654</ele>
        <time>2011-06-02T12:39:24Z</time>
      </trkpt>
      <trkpt lat="43.46813" lon="6.6201">
        <ele>41.758422851562</ele>
        <time>2011-06-02T12:39:29Z</time>
      </trkpt>
      <trkpt lat="43.4681" lon="6.62014">
        <ele>41.717224121094</ele>
        <time>2011-06-02T12:39:30Z</time>
      </trkpt>
      <trkpt lat="43.46768" lon="6.62046">
        <ele>41.213684082031</ele>
        <time>2011-06-02T12:39:39Z</time>
      </trkpt>
      <trkpt lat="43.46754" lon="6.62056">
        <ele>41.053466796875</ele>
        <time>2011-06-02T12:39:42Z</time>
      </trkpt>
      <trkpt lat="43.46748" lon="6.62075">
        <ele>41</ele>
        <time>2011-06-02T12:39:46Z</time>
      </trkpt>
      <trkpt lat="43.46754" lon="6.62098">
        <ele>41.048889160156</ele>
        <time>2011-06-02T12:39:51Z</time>
      </trkpt>
      <trkpt lat="43.46752" lon="6.62104">
        <ele>41.026000976562</ele>
        <time>2011-06-02T12:39:53Z</time>
      </trkpt>
      <trkpt lat="43.46741" lon="6.62124">
        <ele>41</ele>
        <time>2011-06-02T12:39:58Z</time>
      </trkpt>
      <trkpt lat="43.46727" lon="6.62147">
        <ele>41</ele>
        <time>2011-06-02T12:40:04Z</time>
      </trkpt>
      <trkpt lat="43.46714" lon="6.62166">
        <ele>41</ele>
        <time>2011-06-02T12:40:09Z</time>
      </trkpt>
      <trkpt lat="43.46696" lon="6.62181">
        <ele>41</ele>
        <time>2011-06-02T12:40:14Z</time>
      </trkpt>
      <trkpt lat="43.46692" lon="6.62183">
        <ele>41</ele>
        <time>2011-06-02T12:40:15Z</time>
      </trkpt>
      <trkpt lat="43.46684" lon="6.62188">
        <ele>41</ele>
        <time>2011-06-02T12:40:17Z</time>
      </trkpt>
      <trkpt lat="43.46677" lon="6.62195">
        <ele>41</ele>
        <time>2011-06-02T12:40:19Z</time>
      </trkpt>
      <trkpt lat="43.46664" lon="6.62217">
        <ele>41</ele>
        <time>2011-06-02T12:40:24Z</time>
      </trkpt>
      <trkpt lat="43.46659" lon="6.62219">
        <ele>41</ele>
        <time>2011-06-02T12:40:25Z</time>
      </trkpt>
      <trkpt lat="43.46642" lon="6.62223">
        <ele>41</ele>
        <time>2011-06-02T12:40:29Z</time>
      </trkpt>
      <trkpt lat="43.46619" lon="6.6224">
        <ele>41</ele>
        <time>2011-06-02T12:40:35Z</time>
      </trkpt>
      <trkpt lat="43.46616" lon="6.62242">
        <ele>41</ele>
        <time>2011-06-02T12:40:36Z</time>
      </trkpt>
      <trkpt lat="43.46596" lon="6.62249">
        <ele>41</ele>
        <time>2011-06-02T12:40:42Z</time>
      </trkpt>
      <trkpt lat="43.46579" lon="6.62261">
        <ele>41</ele>
        <time>2011-06-02T12:40:47Z</time>
      </trkpt>
      <trkpt lat="43.46552" lon="6.62268">
        <ele>41</ele>
        <time>2011-06-02T12:40:54Z</time>
      </trkpt>
      <trkpt lat="43.46543" lon="6.6227">
        <ele>41</ele>
        <time>2011-06-02T12:40:56Z</time>
      </trkpt>
      <trkpt lat="43.46526" lon="6.62274">
        <ele>41</ele>
        <time>2011-06-02T12:40:59Z</time>
      </trkpt>
      <trkpt lat="43.46515" lon="6.62274">
        <ele>41</ele>
        <time>2011-06-02T12:41:01Z</time>
      </trkpt>
      <trkpt lat="43.46491" lon="6.62283">
        <ele>41</ele>
        <time>2011-06-02T12:41:06Z</time>
      </trkpt>
      <trkpt lat="43.46486" lon="6.62285">
        <ele>41</ele>
        <time>2011-06-02T12:41:07Z</time>
      </trkpt>
      <trkpt lat="43.46468" lon="6.62298">
        <ele>41</ele>
        <time>2011-06-02T12:41:12Z</time>
      </trkpt>
      <trkpt lat="43.46458" lon="6.62317">
        <ele>41</ele>
        <time>2011-06-02T12:41:17Z</time>
      </trkpt>
      <trkpt lat="43.46452" lon="6.62346">
        <ele>40.845932006836</ele>
        <time>2011-06-02T12:41:23Z</time>
      </trkpt>
      <trkpt lat="43.46454" lon="6.62382">
        <ele>40.410484313965</ele>
        <time>2011-06-02T12:41:30Z</time>
      </trkpt>
      <trkpt lat="43.46458" lon="6.62412">
        <ele>40.055145263672</ele>
        <time>2011-06-02T12:41:36Z</time>
      </trkpt>
      <trkpt lat="43.46462" lon="6.6243">
        <ele>39.92777633667</ele>
        <time>2011-06-02T12:41:41Z</time>
      </trkpt>
      <trkpt lat="43.46469" lon="6.62458">
        <ele>39.813522338867</ele>
        <time>2011-06-02T12:41:47Z</time>
      </trkpt>
      <trkpt lat="43.46474" lon="6.62474">
        <ele>39.786808013916</ele>
        <time>2011-06-02T12:41:51Z</time>
      </trkpt>
      <trkpt lat="43.46477" lon="6.62481">
        <ele>39.789447784424</ele>
        <time>2011-06-02T12:41:53Z</time>
      </trkpt>
      <trkpt lat="43.46479" lon="6.62506">
        <ele>39.646129608154</ele>
        <time>2011-06-02T12:41:59Z</time>
      </trkpt>
      <trkpt lat="43.46486" lon="6.62532">
        <ele>39.311931610107</ele>
        <time>2011-06-02T12:42:04Z</time>
      </trkpt>
      <trkpt lat="43.46503" lon="6.62557">
        <ele>39.319076538086</ele>
        <time>2011-06-02T12:42:09Z</time>
      </trkpt>
      <trkpt lat="43.46516" lon="6.62587">
        <ele>38.843505859375</ele>
        <time>2011-06-02T12:42:13Z</time>
      </trkpt>
      <trkpt lat="43.46529" lon="6.62626">
        <ele>36.930053710938</ele>
        <time>2011-06-02T12:42:17Z</time>
      </trkpt>
      <trkpt lat="43.46535" lon="6.62666">
        <ele>35.028045654297</ele>
        <time>2011-06-02T12:42:21Z</time>
      </trkpt>
      <trkpt lat="43.46535" lon="6.62706">
        <ele>32.903350830078</ele>
        <time>2011-06-02T12:42:25Z</time>
      </trkpt>
      <trkpt lat="43.46524" lon="6.6273">
        <ele>31.763872146606</ele>
        <time>2011-06-02T12:42:29Z</time>
      </trkpt>
      <trkpt lat="43.4651" lon="6.62739">
        <ele>31.406131744385</ele>
        <time>2011-06-02T12:42:32Z</time>
      </trkpt>
      <trkpt lat="43.465" lon="6.62762">
        <ele>30.403745651245</ele>
        <time>2011-06-02T12:42:36Z</time>
      </trkpt>
      <trkpt lat="43.46491" lon="6.62795">
        <ele>28.828435897827</ele>
        <time>2011-06-02T12:42:41Z</time>
      </trkpt>
      <trkpt lat="43.46484" lon="6.62803">
        <ele>28.502000808716</ele>
        <time>2011-06-02T12:42:43Z</time>
      </trkpt>
      <trkpt lat="43.46475" lon="6.62831">
        <ele>27.380657196045</ele>
        <time>2011-06-02T12:42:47Z</time>
      </trkpt>
      <trkpt lat="43.46476" lon="6.6284">
        <ele>26.976362228394</ele>
        <time>2011-06-02T12:42:48Z</time>
      </trkpt>
      <trkpt lat="43.46498" lon="6.62924">
        <ele>22.798446655273</ele>
        <time>2011-06-02T12:42:57Z</time>
      </trkpt>
      <trkpt lat="43.46511" lon="6.6299">
        <ele>20.322986602783</ele>
        <time>2011-06-02T12:43:04Z</time>
      </trkpt>
      <trkpt lat="43.46519" lon="6.63037">
        <ele>20</ele>
        <time>2011-06-02T12:43:09Z</time>
      </trkpt>
      <trkpt lat="43.46518" lon="6.63096">
        <ele>20</ele>
        <time>2011-06-02T12:43:15Z</time>
      </trkpt>
      <trkpt lat="43.46514" lon="6.63126">
        <ele>20</ele>
        <time>2011-06-02T12:43:19Z</time>
      </trkpt>
      <trkpt lat="43.46502" lon="6.63138">
        <ele>20</ele>
        <time>2011-06-02T12:43:23Z</time>
      </trkpt>
      <trkpt lat="43.46494" lon="6.63135">
        <ele>20</ele>
        <time>2011-06-02T12:43:25Z</time>
      </trkpt>
      <trkpt lat="43.46476" lon="6.63126">
        <ele>20</ele>
        <time>2011-06-02T12:43:29Z</time>
      </trkpt>
      <trkpt lat="43.46463" lon="6.63132">
        <ele>20</ele>
        <time>2011-06-02T12:43:32Z</time>
      </trkpt>
      <trkpt lat="43.4646" lon="6.63153">
        <ele>20</ele>
        <time>2011-06-02T12:43:35Z</time>
      </trkpt>
      <trkpt lat="43.46461" lon="6.63207">
        <ele>20</ele>
        <time>2011-06-02T12:43:42Z</time>
      </trkpt>
      <trkpt lat="43.4646" lon="6.63277">
        <ele>20</ele>
        <time>2011-06-02T12:43:51Z</time>
      </trkpt>
      <trkpt lat="43.4646" lon="6.63331">
        <ele>20</ele>
        <time>2011-06-02T12:43:58Z</time>
      </trkpt>
      <trkpt lat="43.46459" lon="6.63394">
        <ele>20</ele>
        <time>2011-06-02T12:44:06Z</time>
      </trkpt>
      <trkpt lat="43.46457" lon="6.63467">
        <ele>20</ele>
        <time>2011-06-02T12:44:16Z</time>
      </trkpt>
      <trkpt lat="43.46457" lon="6.63508">
        <ele>20</ele>
        <time>2011-06-02T12:44:22Z</time>
      </trkpt>
      <trkpt lat="43.46457" lon="6.63552">
        <ele>20</ele>
        <time>2011-06-02T12:44:28Z</time>
      </trkpt>
      <trkpt lat="43.4646" lon="6.63595">
        <ele>19.929265975952</ele>
        <time>2011-06-02T12:44:34Z</time>
      </trkpt>
      <trkpt lat="43.46462" lon="6.63616">
        <ele>19.822517395019</ele>
        <time>2011-06-02T12:44:37Z</time>
      </trkpt>
      <trkpt lat="43.46458" lon="6.6364">
        <ele>19.659023284912</ele>
        <time>2011-06-02T12:44:41Z</time>
      </trkpt>
      <trkpt lat="43.46444" lon="6.63642">
        <ele>19.531715393066</ele>
        <time>2011-06-02T12:44:44Z</time>
      </trkpt>
      <trkpt lat="43.46433" lon="6.63639">
        <ele>19.461130142212</ele>
        <time>2011-06-02T12:44:46Z</time>
      </trkpt>
      <trkpt lat="43.46413" lon="6.63621">
        <ele>19.564332962036</ele>
        <time>2011-06-02T12:44:50Z</time>
      </trkpt>
      <trkpt lat="43.46398" lon="6.63607">
        <ele>19.783277511597</ele>
        <time>2011-06-02T12:44:55Z</time>
      </trkpt>
      <trkpt lat="43.46394" lon="6.63595">
        <ele>19.898475646973</ele>
        <time>2011-06-02T12:44:59Z</time>
      </trkpt>
      <trkpt lat="43.46386" lon="6.6357">
        <ele>20</ele>
        <time>2011-06-02T12:45:04Z</time>
      </trkpt>
      <trkpt lat="43.46369" lon="6.63556">
        <ele>20</ele>
        <time>2011-06-02T12:45:08Z</time>
      </trkpt>
      <trkpt lat="43.46364" lon="6.63555">
        <ele>20</ele>
        <time>2011-06-02T12:45:09Z</time>
      </trkpt>
      <trkpt lat="43.46333" lon="6.63561">
        <ele>19.993156433106</ele>
        <time>2011-06-02T12:45:15Z</time>
      </trkpt>
      <trkpt lat="43.46319" lon="6.63575">
        <ele>19.846508026123</ele>
        <time>2011-06-02T12:45:18Z</time>
      </trkpt>
      <trkpt lat="43.46297" lon="6.63599">
        <ele>19.569458007812</ele>
        <time>2011-06-02T12:45:23Z</time>
      </trkpt>
      <trkpt lat="43.46276" lon="6.63608">
        <ele>19.308532714844</ele>
        <time>2011-06-02T12:45:27Z</time>
      </trkpt>
      <trkpt lat="43.4621" lon="6.63615">
        <ele>19.4833984375</ele>
        <time>2011-06-02T12:45:39Z</time>
      </trkpt>
      <trkpt lat="43.46144" lon="6.63619">
        <ele>19.882493972778</ele>
        <time>2011-06-02T12:45:51Z</time>
      </trkpt>
      <trkpt lat="43.46095" lon="6.63621">
        <ele>19.607786178589</ele>
        <time>2011-06-02T12:46:00Z</time>
      </trkpt>
      <trkpt lat="43.46048" lon="6.63619">
        <ele>19.143753051758</ele>
        <time>2011-06-02T12:46:09Z</time>
      </trkpt>
      <trkpt lat="43.46027" lon="6.63613">
        <ele>18.966369628906</ele>
        <time>2011-06-02T12:46:13Z</time>
      </trkpt>
      <trkpt lat="43.45963" lon="6.63571">
        <ele>19</ele>
        <time>2011-06-02T12:46:27Z</time>
      </trkpt>
      <trkpt lat="43.45916" lon="6.6354">
        <ele>18.99825668335</ele>
        <time>2011-06-02T12:46:37Z</time>
      </trkpt>
      <trkpt lat="43.45869" lon="6.63512">
        <ele>18.914533615112</ele>
        <time>2011-06-02T12:46:47Z</time>
      </trkpt>
      <trkpt lat="43.45822" lon="6.63482">
        <ele>18.894037246704</ele>
        <time>2011-06-02T12:46:57Z</time>
      </trkpt>
      <trkpt lat="43.45782" lon="6.6345">
        <ele>18.752885818481</ele>
        <time>2011-06-02T12:47:06Z</time>
      </trkpt>
      <trkpt lat="43.45748" lon="6.63415">
        <ele>19</ele>
        <time>2011-06-02T12:47:14Z</time>
      </trkpt>
      <trkpt lat="43.45714" lon="6.63381">
        <ele>19</ele>
        <time>2011-06-02T12:47:22Z</time>
      </trkpt>
      <trkpt lat="43.45685" lon="6.63366">
        <ele>19</ele>
        <time>2011-06-02T12:47:28Z</time>
      </trkpt>
      <trkpt lat="43.45679" lon="6.63365">
        <ele>19</ele>
        <time>2011-06-02T12:47:29Z</time>
      </trkpt>
      <trkpt lat="43.45644" lon="6.63353">
        <ele>18.937141418457</ele>
        <time>2011-06-02T12:47:36Z</time>
      </trkpt>
      <trkpt lat="43.45598" lon="6.63339">
        <ele>18.945137023926</ele>
        <time>2011-06-02T12:47:45Z</time>
      </trkpt>
      <trkpt lat="43.45568" lon="6.63335">
        <ele>18.420240402222</ele>
        <time>2011-06-02T12:47:51Z</time>
      </trkpt>
      <trkpt lat="43.45516" lon="6.63332">
        <ele>16.578107833862</ele>
        <time>2011-06-02T12:48:01Z</time>
      </trkpt>
      <trkpt lat="43.45459" lon="6.6333">
        <ele>15.534164428711</ele>
        <time>2011-06-02T12:48:12Z</time>
      </trkpt>
      <trkpt lat="43.45393" lon="6.63328">
        <ele>14.422607421875</ele>
        <time>2011-06-02T12:48:25Z</time>
      </trkpt>
      <trkpt lat="43.45336" lon="6.63326">
        <ele>13.058471679688</ele>
        <time>2011-06-02T12:48:36Z</time>
      </trkpt>
      <trkpt lat="43.45279" lon="6.63324">
        <ele>12.342590332031</ele>
        <time>2011-06-02T12:48:47Z</time>
      </trkpt>
      <trkpt lat="43.45233" lon="6.63323">
        <ele>11.7978515625</ele>
        <time>2011-06-02T12:48:56Z</time>
      </trkpt>
      <trkpt lat="43.45198" lon="6.63322">
        <ele>11.372131347656</ele>
        <time>2011-06-02T12:49:03Z</time>
      </trkpt>
      <trkpt lat="43.45163" lon="6.63317">
        <ele>11</ele>
        <time>2011-06-02T12:49:10Z</time>
      </trkpt>
      <trkpt lat="43.45129" lon="6.63311">
        <ele>11</ele>
        <time>2011-06-02T12:49:18Z</time>
      </trkpt>
      <trkpt lat="43.45089" lon="6.63303">
        <ele>11</ele>
        <time>2011-06-02T12:49:27Z</time>
      </trkpt>
      <trkpt lat="43.45068" lon="6.63299">
        <ele>10.811157226562</ele>
        <time>2011-06-02T12:49:32Z</time>
      </trkpt>
      <trkpt lat="43.45024" lon="6.63298">
        <ele>10.284729003906</ele>
        <time>2011-06-02T12:49:42Z</time>
      </trkpt>
      <trkpt lat="43.44991" lon="6.63298">
        <ele>10.113525390625</ele>
        <time>2011-06-02T12:49:50Z</time>
      </trkpt>
      <trkpt lat="43.44955" lon="6.63297">
        <ele>10.543823242188</ele>
        <time>2011-06-02T12:49:58Z</time>
      </trkpt>
      <trkpt lat="43.44931" lon="6.63298">
        <ele>10.82763671875</ele>
        <time>2011-06-02T12:50:03Z</time>
      </trkpt>
      <trkpt lat="43.44885" lon="6.63306">
        <ele>12.630168914795</ele>
        <time>2011-06-02T12:50:12Z</time>
      </trkpt>
      <trkpt lat="43.44852" lon="6.63312">
        <ele>14.318709373474</ele>
        <time>2011-06-02T12:50:18Z</time>
      </trkpt>
      <trkpt lat="43.44814" lon="6.63316">
        <ele>16.120292663574</ele>
        <time>2011-06-02T12:50:24Z</time>
      </trkpt>
      <trkpt lat="43.44767" lon="6.63318">
        <ele>18.387367248535</ele>
        <time>2011-06-02T12:50:32Z</time>
      </trkpt>
      <trkpt lat="43.44741" lon="6.63334">
        <ele>19.19758605957</ele>
        <time>2011-06-02T12:50:37Z</time>
      </trkpt>
      <trkpt lat="43.44707" lon="6.63384">
        <ele>19.41960144043</ele>
        <time>2011-06-02T12:50:46Z</time>
      </trkpt>
      <trkpt lat="43.44678" lon="6.63434">
        <ele>19.518592834473</ele>
        <time>2011-06-02T12:50:55Z</time>
      </trkpt>
      <trkpt lat="43.44646" lon="6.63483">
        <ele>19.198852539062</ele>
        <time>2011-06-02T12:51:03Z</time>
      </trkpt>
      <trkpt lat="43.4462" lon="6.63538">
        <ele>18.54768371582</ele>
        <time>2011-06-02T12:51:11Z</time>
      </trkpt>
      <trkpt lat="43.44598" lon="6.63598">
        <ele>17.969484329224</ele>
        <time>2011-06-02T12:51:20Z</time>
      </trkpt>
      <trkpt lat="43.44584" lon="6.63634">
        <ele>17.995882034302</ele>
        <time>2011-06-02T12:51:26Z</time>
      </trkpt>
      <trkpt lat="43.44566" lon="6.63688">
        <ele>17.961685180664</ele>
        <time>2011-06-02T12:51:34Z</time>
      </trkpt>
      <trkpt lat="43.44548" lon="6.63743">
        <ele>17.516510009766</ele>
        <time>2011-06-02T12:51:42Z</time>
      </trkpt>
      <trkpt lat="43.44543" lon="6.63755">
        <ele>17.418090820312</ele>
        <time>2011-06-02T12:51:44Z</time>
      </trkpt>
      <trkpt lat="43.44537" lon="6.6377">
        <ele>17.31681060791</ele>
        <time>2011-06-02T12:51:47Z</time>
      </trkpt>
      <trkpt lat="43.44531" lon="6.63784">
        <ele>17.217819213867</ele>
        <time>2011-06-02T12:51:50Z</time>
      </trkpt>
      <trkpt lat="43.44516" lon="6.63808">
        <ele>17.102806091309</ele>
        <time>2011-06-02T12:51:57Z</time>
      </trkpt>
      <trkpt lat="43.44513" lon="6.63818">
        <ele>17.036430358887</ele>
        <time>2011-06-02T12:52:00Z</time>
      </trkpt>
      <trkpt lat="43.44502" lon="6.63815">
        <ele>17.200653076172</ele>
        <time>2011-06-02T12:52:05Z</time>
      </trkpt>
      <trkpt lat="43.4449" lon="6.6381">
        <ele>17.485185623169</ele>
        <time>2011-06-02T12:52:11Z</time>
      </trkpt>
      <trkpt lat="43.44481" lon="6.63805">
        <ele>17.714653015137</ele>
        <time>2011-06-02T12:52:15Z</time>
      </trkpt>
      <trkpt lat="43.44476" lon="6.63801">
        <ele>17.848943710327</ele>
        <time>2011-06-02T12:52:18Z</time>
      </trkpt>
      <trkpt lat="43.44465" lon="6.63799">
        <ele>18.080034255981</ele>
        <time>2011-06-02T12:52:24Z</time>
      </trkpt>
      <trkpt lat="43.44453" lon="6.63797">
        <ele>18.315948486328</ele>
        <time>2011-06-02T12:52:30Z</time>
      </trkpt>
      <trkpt lat="43.44439" lon="6.63793">
        <ele>18.593557357788</ele>
        <time>2011-06-02T12:52:35Z</time>
      </trkpt>
      <trkpt lat="43.44427" lon="6.63789">
        <ele>18.822723388672</ele>
        <time>2011-06-02T12:52:41Z</time>
      </trkpt>
      <trkpt lat="43.4441" lon="6.63781">
        <ele>19.076110839844</ele>
        <time>2011-06-02T12:52:48Z</time>
      </trkpt>
      <trkpt lat="43.44402" lon="6.63777">
        <ele>19.176818847656</ele>
        <time>2011-06-02T12:52:53Z</time>
      </trkpt>
      <trkpt lat="43.44394" lon="6.63773">
        <ele>19.27294921875</ele>
        <time>2011-06-02T12:52:58Z</time>
      </trkpt>
      <trkpt lat="43.44387" lon="6.63768">
        <ele>19.359924316406</ele>
        <time>2011-06-02T12:53:02Z</time>
      </trkpt>
      <trkpt lat="43.44373" lon="6.63761">
        <ele>19.524719238281</ele>
        <time>2011-06-02T12:53:08Z</time>
      </trkpt>
      <trkpt lat="43.44366" lon="6.63755">
        <ele>19.6025390625</ele>
        <time>2011-06-02T12:53:12Z</time>
      </trkpt>
      <trkpt lat="43.44356" lon="6.63748">
        <ele>19.736783981323</ele>
        <time>2011-06-02T12:53:18Z</time>
      </trkpt>
      <trkpt lat="43.44345" lon="6.63744">
        <ele>19.864179611206</ele>
        <time>2011-06-02T12:53:24Z</time>
      </trkpt>
      <trkpt lat="43.44332" lon="6.63747">
        <ele>20</ele>
        <time>2011-06-02T12:53:31Z</time>
      </trkpt>
      <trkpt lat="43.44326" lon="6.63746">
        <ele>20</ele>
        <time>2011-06-02T12:53:34Z</time>
      </trkpt>
      <trkpt lat="43.4431" lon="6.63741">
        <ele>20</ele>
        <time>2011-06-02T12:53:42Z</time>
      </trkpt>
      <trkpt lat="43.443" lon="6.63737">
        <ele>20</ele>
        <time>2011-06-02T12:53:47Z</time>
      </trkpt>
      <trkpt lat="43.44291" lon="6.63734">
        <ele>20</ele>
        <time>2011-06-02T12:53:51Z</time>
      </trkpt>
      <trkpt lat="43.44276" lon="6.63726">
        <ele>20</ele>
        <time>2011-06-02T12:53:58Z</time>
      </trkpt>
      <trkpt lat="43.44257" lon="6.6371">
        <ele>20</ele>
        <time>2011-06-02T12:54:05Z</time>
      </trkpt>
      <trkpt lat="43.44247" lon="6.63699">
        <ele>20.193302154541</ele>
        <time>2011-06-02T12:54:09Z</time>
      </trkpt>
      <trkpt lat="43.44226" lon="6.63692">
        <ele>21.436092376709</ele>
        <time>2011-06-02T12:54:15Z</time>
      </trkpt>
      <trkpt lat="43.44204" lon="6.637">
        <ele>22.620992660523</ele>
        <time>2011-06-02T12:54:21Z</time>
      </trkpt>
      <trkpt lat="43.44188" lon="6.63704">
        <ele>23.466480255127</ele>
        <time>2011-06-02T12:54:26Z</time>
      </trkpt>
      <trkpt lat="43.4418" lon="6.63708">
        <ele>23.829191207886</ele>
        <time>2011-06-02T12:54:31Z</time>
      </trkpt>
      <trkpt lat="43.44179" lon="6.63708">
        <ele>23.866249084473</ele>
        <time>2011-06-02T12:54:32Z</time>
      </trkpt>
      <trkpt lat="43.44165" lon="6.63712">
        <ele>24.447385787964</ele>
        <time>2011-06-02T12:54:38Z</time>
      </trkpt>
      <trkpt lat="43.4416" lon="6.63716">
        <ele>24.577871322632</ele>
        <time>2011-06-02T12:54:40Z</time>
      </trkpt>
      <trkpt lat="43.44154" lon="6.63717">
        <ele>24.907035827637</ele>
        <time>2011-06-02T12:54:43Z</time>
      </trkpt>
      <trkpt lat="43.44144" lon="6.63731">
        <ele>24.872528076172</ele>
        <time>2011-06-02T12:54:49Z</time>
      </trkpt>
      <trkpt lat="43.44123" lon="6.63737">
        <ele>25.717073440552</ele>
        <time>2011-06-02T12:54:54Z</time>
      </trkpt>
      <trkpt lat="43.44098" lon="6.63741">
        <ele>26.823396682739</ele>
        <time>2011-06-02T12:54:59Z</time>
      </trkpt>
      <trkpt lat="43.4408" lon="6.63747">
        <ele>27.608358383179</ele>
        <time>2011-06-02T12:55:05Z</time>
      </trkpt>
      <trkpt lat="43.44064" lon="6.63756">
        <ele>29.065418243408</ele>
        <time>2011-06-02T12:55:12Z</time>
      </trkpt>
      <trkpt lat="43.44045" lon="6.63767">
        <ele>31.114637374878</ele>
        <time>2011-06-02T12:55:21Z</time>
      </trkpt>
      <trkpt lat="43.44029" lon="6.6378">
        <ele>32.984531402588</ele>
        <time>2011-06-02T12:55:28Z</time>
      </trkpt>
      <trkpt lat="43.4402" lon="6.63797">
        <ele>33.990081787109</ele>
        <time>2011-06-02T12:55:32Z</time>
      </trkpt>
      <trkpt lat="43.44021" lon="6.63817">
        <ele>33.699821472168</ele>
        <time>2011-06-02T12:55:35Z</time>
      </trkpt>
      <trkpt lat="43.44033" lon="6.63851">
        <ele>31.3469581604</ele>
        <time>2011-06-02T12:55:40Z</time>
      </trkpt>
      <trkpt lat="43.44036" lon="6.63858">
        <ele>30.744808197021</ele>
        <time>2011-06-02T12:55:41Z</time>
      </trkpt>
      <trkpt lat="43.44057" lon="6.63887">
        <ele>26.600463867188</ele>
        <time>2011-06-02T12:55:46Z</time>
      </trkpt>
      <trkpt lat="43.44077" lon="6.63902">
        <ele>22.49328994751</ele>
        <time>2011-06-02T12:55:50Z</time>
      </trkpt>
      <trkpt lat="43.44117" lon="6.6392">
        <ele>20.287528991699</ele>
        <time>2011-06-02T12:55:57Z</time>
      </trkpt>
      <trkpt lat="43.44157" lon="6.63956">
        <ele>19.430742263794</ele>
        <time>2011-06-02T12:56:05Z</time>
      </trkpt>
      <trkpt lat="43.44194" lon="6.63994">
        <ele>19</ele>
        <time>2011-06-02T12:56:13Z</time>
      </trkpt>
      <trkpt lat="43.44201" lon="6.64006">
        <ele>19.30947303772</ele>
        <time>2011-06-02T12:56:15Z</time>
      </trkpt>
      <trkpt lat="43.44208" lon="6.64036">
        <ele>20.708744049072</ele>
        <time>2011-06-02T12:56:19Z</time>
      </trkpt>
      <trkpt lat="43.44199" lon="6.64048">
        <ele>21.447877883911</ele>
        <time>2011-06-02T12:56:22Z</time>
      </trkpt>
      <trkpt lat="43.44194" lon="6.64054">
        <ele>21.796741485596</ele>
        <time>2011-06-02T12:56:24Z</time>
      </trkpt>
      <trkpt lat="43.44186" lon="6.6407">
        <ele>22.835048675537</ele>
        <time>2011-06-02T12:56:32Z</time>
      </trkpt>
      <trkpt lat="43.4418" lon="6.64092">
        <ele>24.508146286011</ele>
        <time>2011-06-02T12:56:40Z</time>
      </trkpt>
      <trkpt lat="43.44175" lon="6.64105">
        <ele>25.859203338623</ele>
        <time>2011-06-02T12:56:45Z</time>
      </trkpt>
      <trkpt lat="43.44169" lon="6.6412">
        <ele>27.463357925415</ele>
        <time>2011-06-02T12:56:51Z</time>
      </trkpt>
      <trkpt lat="43.44166" lon="6.64132">
        <ele>28.760557174683</ele>
        <time>2011-06-02T12:56:56Z</time>
      </trkpt>
      <trkpt lat="43.44163" lon="6.64142">
        <ele>29.811254501343</ele>
        <time>2011-06-02T12:57:00Z</time>
      </trkpt>
      <trkpt lat="43.44157" lon="6.64165">
        <ele>32.248970031738</ele>
        <time>2011-06-02T12:57:09Z</time>
      </trkpt>
      <trkpt lat="43.44151" lon="6.64192">
        <ele>34.896495819092</ele>
        <time>2011-06-02T12:57:19Z</time>
      </trkpt>
      <trkpt lat="43.44143" lon="6.64211">
        <ele>36.623237609863</ele>
        <time>2011-06-02T12:57:26Z</time>
      </trkpt>
      <trkpt lat="43.44142" lon="6.64232">
        <ele>38.308288574219</ele>
        <time>2011-06-02T12:57:31Z</time>
      </trkpt>
      <trkpt lat="43.44146" lon="6.64256">
        <ele>39.604995727539</ele>
        <time>2011-06-02T12:57:35Z</time>
      </trkpt>
      <trkpt lat="43.44137" lon="6.64275">
        <ele>39.17658996582</ele>
        <time>2011-06-02T12:57:39Z</time>
      </trkpt>
      <trkpt lat="43.44131" lon="6.6427">
        <ele>39.265357971191</ele>
        <time>2011-06-02T12:57:41Z</time>
      </trkpt>
      <trkpt lat="43.4413" lon="6.64266">
        <ele>39.321556091309</ele>
        <time>2011-06-02T12:57:42Z</time>
      </trkpt>
      <trkpt lat="43.44124" lon="6.6424">
        <ele>38.814407348633</ele>
        <time>2011-06-02T12:57:48Z</time>
      </trkpt>
      <trkpt lat="43.44109" lon="6.64211">
        <ele>37.197059631348</ele>
        <time>2011-06-02T12:57:55Z</time>
      </trkpt>
      <trkpt lat="43.44092" lon="6.64195">
        <ele>36.807025909424</ele>
        <time>2011-06-02T12:58:01Z</time>
      </trkpt>
      <trkpt lat="43.44061" lon="6.64182">
        <ele>37.456813812256</ele>
        <time>2011-06-02T12:58:11Z</time>
      </trkpt>
      <trkpt lat="43.44032" lon="6.6418">
        <ele>38.657444000244</ele>
        <time>2011-06-02T12:58:20Z</time>
      </trkpt>
      <trkpt lat="43.44025" lon="6.64193">
        <ele>39.085121154785</ele>
        <time>2011-06-02T12:58:24Z</time>
      </trkpt>
      <trkpt lat="43.4402" lon="6.64218">
        <ele>39.468185424805</ele>
        <time>2011-06-02T12:58:32Z</time>
      </trkpt>
      <trkpt lat="43.44018" lon="6.64228">
        <ele>39.60778427124</ele>
        <time>2011-06-02T12:58:37Z</time>
      </trkpt>
      <trkpt lat="43.4402" lon="6.64232">
        <ele>39.602195739746</ele>
        <time>2011-06-02T12:58:41Z</time>
      </trkpt>
      <trkpt lat="43.44026" lon="6.64234">
        <ele>39.509567260742</ele>
        <time>2011-06-02T12:58:48Z</time>
      </trkpt>
      <trkpt lat="43.44025" lon="6.64234">
        <ele>39.52819442749</ele>
        <time>2011-06-02T12:58:56Z</time>
      </trkpt>
      <trkpt lat="43.44024" lon="6.64234">
        <ele>39.549758911133</ele>
        <time>2011-06-02T12:59:04Z</time>
      </trkpt>
      <trkpt lat="43.44025" lon="6.64236">
        <ele>39.543525695801</ele>
        <time>2011-06-02T12:59:11Z</time>
      </trkpt>
      <trkpt lat="43.44025" lon="6.6424">
        <ele>39.579658508301</ele>
        <time>2011-06-02T12:59:17Z</time>
      </trkpt>
      <trkpt lat="43.44024" lon="6.64246">
        <ele>39.678524017334</ele>
        <time>2011-06-02T12:59:24Z</time>
      </trkpt>
      <trkpt lat="43.4402" lon="6.64251">
        <ele>39.767513275146</ele>
        <time>2011-06-02T12:59:31Z</time>
      </trkpt>
      <trkpt lat="43.44016" lon="6.64251">
        <ele>39.816501617432</ele>
        <time>2011-06-02T12:59:38Z</time>
      </trkpt>
      <trkpt lat="43.44016" lon="6.6425">
        <ele>39.802745819092</ele>
        <time>2011-06-02T13:05:37Z</time>
      </trkpt>
      <trkpt lat="43.44015" lon="6.64254">
        <ele>39.827976226807</ele>
        <time>2011-06-02T13:08:50Z</time>
      </trkpt>
      <trkpt lat="43.44022" lon="6.64252">
        <ele>39.742614746094</ele>
        <time>2011-06-02T13:10:24Z</time>
      </trkpt>
      <trkpt lat="43.44022" lon="6.64252">
        <ele>39.742614746094</ele>
        <time>2011-06-02T13:10:25Z</time>
      </trkpt>
      <trkpt lat="43.44022" lon="6.64252">
        <ele>39.738609313965</ele>
        <time>2011-06-02T13:10:39Z</time>
      </trkpt>
      <trkpt lat="43.44023" lon="6.64253">
        <ele>39.735401153564</ele>
        <time>2011-06-02T13:10:54Z</time>
      </trkpt>
      <trkpt lat="43.44023" lon="6.64253">
        <ele>39.73571395874</ele>
        <time>2011-06-02T13:10:58Z</time>
      </trkpt>
      <trkpt lat="43.44022" lon="6.64253">
        <ele>39.740756988525</ele>
        <time>2011-06-02T13:11:05Z</time>
      </trkpt>
      <trkpt lat="43.44022" lon="6.64253">
        <ele>39.741989135742</ele>
        <time>2011-06-02T13:11:17Z</time>
      </trkpt>
      <trkpt lat="43.44022" lon="6.64253">
        <ele>39.741989135742</ele>
        <time>2011-06-02T13:11:18Z</time>
      </trkpt>
      <trkpt lat="43.44022" lon="6.64254">
        <ele>39.754497528076</ele>
        <time>2011-06-02T13:11:51Z</time>
      </trkpt>
      <trkpt lat="43.44022" lon="6.64254">
        <ele>39.75464630127</ele>
        <time>2011-06-02T13:11:52Z</time>
      </trkpt>
      <trkpt lat="43.44021" lon="6.64255">
        <ele>39.759559631348</ele>
        <time>2011-06-02T13:11:59Z</time>
      </trkpt>
      <trkpt lat="43.44021" lon="6.64255">
        <ele>39.759704589844</ele>
        <time>2011-06-02T13:12:00Z</time>
      </trkpt>
      <trkpt lat="43.4402" lon="6.64256">
        <ele>39.775695800781</ele>
        <time>2011-06-02T13:12:30Z</time>
      </trkpt>
      <trkpt lat="43.4402" lon="6.64255">
        <ele>39.77059173584</ele>
        <time>2011-06-02T13:12:51Z</time>
      </trkpt>
      <trkpt lat="43.4402" lon="6.64256">
        <ele>39.771434783936</ele>
        <time>2011-06-02T13:12:58Z</time>
      </trkpt>
      <trkpt lat="43.44022" lon="6.64258">
        <ele>39.755809783936</ele>
        <time>2011-06-02T13:13:13Z</time>
      </trkpt>
      <trkpt lat="43.44029" lon="6.64259">
        <ele>39.691558837891</ele>
        <time>2011-06-02T13:13:16Z</time>
      </trkpt>
      <trkpt lat="43.44029" lon="6.64272">
        <ele>39.7428855896</ele>
        <time>2011-06-02T13:13:22Z</time>
      </trkpt>
      <trkpt lat="43.44028" lon="6.64272">
        <ele>39.752563476562</ele>
        <time>2011-06-02T13:13:29Z</time>
      </trkpt>
      <trkpt lat="43.44028" lon="6.64273">
        <ele>39.760871887207</ele>
        <time>2011-06-02T13:13:41Z</time>
      </trkpt>
      <trkpt lat="43.44027" lon="6.64278">
        <ele>39.781803131104</ele>
        <time>2011-06-02T13:13:48Z</time>
      </trkpt>
      <trkpt lat="43.44027" lon="6.64279">
        <ele>39.793914794922</ele>
        <time>2011-06-02T13:13:50Z</time>
      </trkpt>
      <trkpt lat="43.44027" lon="6.64291">
        <ele>39.837581634521</ele>
        <time>2011-06-02T13:13:56Z</time>
      </trkpt>
      <trkpt lat="43.44025" lon="6.64303">
        <ele>39.889892578125</ele>
        <time>2011-06-02T13:14:01Z</time>
      </trkpt>
      <trkpt lat="43.44024" lon="6.64309">
        <ele>39.9176902771</ele>
        <time>2011-06-02T13:14:03Z</time>
      </trkpt>
      <trkpt lat="43.44013" lon="6.64314">
        <ele>39.963539123535</ele>
        <time>2011-06-02T13:14:08Z</time>
      </trkpt>
      <trkpt lat="43.43998" lon="6.64318">
        <ele>40.010986328125</ele>
        <time>2011-06-02T13:14:14Z</time>
      </trkpt>
      <trkpt lat="43.4399" lon="6.64331">
        <ele>40.006134033203</ele>
        <time>2011-06-02T13:14:20Z</time>
      </trkpt>
      <trkpt lat="43.43983" lon="6.64346">
        <ele>39.561206817627</ele>
        <time>2011-06-02T13:14:26Z</time>
      </trkpt>
      <trkpt lat="43.43987" lon="6.64365">
        <ele>39.067665100098</ele>
        <time>2011-06-02T13:14:30Z</time>
      </trkpt>
      <trkpt lat="43.44" lon="6.64395">
        <ele>39.262439727783</ele>
        <time>2011-06-02T13:14:35Z</time>
      </trkpt>
      <trkpt lat="43.44023" lon="6.64418">
        <ele>38.593357086182</ele>
        <time>2011-06-02T13:14:40Z</time>
      </trkpt>
      <trkpt lat="43.44035" lon="6.64427">
        <ele>37.677261352539</ele>
        <time>2011-06-02T13:14:42Z</time>
      </trkpt>
      <trkpt lat="43.4407" lon="6.64455">
        <ele>35.551044464111</ele>
        <time>2011-06-02T13:14:47Z</time>
      </trkpt>
      <trkpt lat="43.44103" lon="6.6448">
        <ele>32.798721313477</ele>
        <time>2011-06-02T13:14:51Z</time>
      </trkpt>
      <trkpt lat="43.44119" lon="6.64493">
        <ele>30.838348388672</ele>
        <time>2011-06-02T13:14:53Z</time>
      </trkpt>
      <trkpt lat="43.44137" lon="6.64526">
        <ele>27.888336181641</ele>
        <time>2011-06-02T13:14:57Z</time>
      </trkpt>
      <trkpt lat="43.44138" lon="6.64562">
        <ele>26.085336685181</ele>
        <time>2011-06-02T13:15:00Z</time>
      </trkpt>
      <trkpt lat="43.44137" lon="6.64575">
        <ele>25.493745803833</ele>
        <time>2011-06-02T13:15:01Z</time>
      </trkpt>
      <trkpt lat="43.44126" lon="6.64638">
        <ele>22.85426902771</ele>
        <time>2011-06-02T13:15:06Z</time>
      </trkpt>
      <trkpt lat="43.44121" lon="6.64659">
        <ele>21.929037094116</ele>
        <time>2011-06-02T13:15:08Z</time>
      </trkpt>
      <trkpt lat="43.44117" lon="6.64677">
        <ele>21.400196075439</ele>
        <time>2011-06-02T13:15:10Z</time>
      </trkpt>
      <trkpt lat="43.44092" lon="6.64704">
        <ele>21.042409896851</ele>
        <time>2011-06-02T13:15:14Z</time>
      </trkpt>
      <trkpt lat="43.44082" lon="6.64709">
        <ele>20.970296859741</ele>
        <time>2011-06-02T13:15:15Z</time>
      </trkpt>
      <trkpt lat="43.44042" lon="6.64735">
        <ele>20.175710678101</ele>
        <time>2011-06-02T13:15:19Z</time>
      </trkpt>
      <trkpt lat="43.44002" lon="6.64788">
        <ele>20</ele>
        <time>2011-06-02T13:15:25Z</time>
      </trkpt>
      <trkpt lat="43.43979" lon="6.64823">
        <ele>20</ele>
        <time>2011-06-02T13:15:30Z</time>
      </trkpt>
      <trkpt lat="43.43958" lon="6.64855">
        <ele>20</ele>
        <time>2011-06-02T13:15:35Z</time>
      </trkpt>
      <trkpt lat="43.43949" lon="6.64866">
        <ele>20</ele>
        <time>2011-06-02T13:15:37Z</time>
      </trkpt>
      <trkpt lat="43.43942" lon="6.64874">
        <ele>20</ele>
        <time>2011-06-02T13:15:39Z</time>
      </trkpt>
      <trkpt lat="43.43938" lon="6.64882">
        <ele>20</ele>
        <time>2011-06-02T13:15:41Z</time>
      </trkpt>
      <trkpt lat="43.43929" lon="6.64895">
        <ele>20</ele>
        <time>2011-06-02T13:15:45Z</time>
      </trkpt>
      <trkpt lat="43.43919" lon="6.64912">
        <ele>20</ele>
        <time>2011-06-02T13:15:50Z</time>
      </trkpt>
      <trkpt lat="43.43906" lon="6.6493">
        <ele>20.102954864502</ele>
        <time>2011-06-02T13:15:55Z</time>
      </trkpt>
      <trkpt lat="43.4389" lon="6.64952">
        <ele>20.182523727417</ele>
        <time>2011-06-02T13:16:01Z</time>
      </trkpt>
      <trkpt lat="43.43872" lon="6.64979">
        <ele>20.136135101318</ele>
        <time>2011-06-02T13:16:08Z</time>
      </trkpt>
      <trkpt lat="43.43859" lon="6.64998">
        <ele>20.019020080566</ele>
        <time>2011-06-02T13:16:13Z</time>
      </trkpt>
      <trkpt lat="43.43845" lon="6.65021">
        <ele>20</ele>
        <time>2011-06-02T13:16:18Z</time>
      </trkpt>
      <trkpt lat="43.43817" lon="6.65061">
        <ele>21.356502532959</ele>
        <time>2011-06-02T13:16:26Z</time>
      </trkpt>
      <trkpt lat="43.43813" lon="6.65066">
        <ele>21.59129524231</ele>
        <time>2011-06-02T13:16:27Z</time>
      </trkpt>
      <trkpt lat="43.43798" lon="6.65094">
        <ele>22.36961555481</ele>
        <time>2011-06-02T13:16:32Z</time>
      </trkpt>
      <trkpt lat="43.43792" lon="6.65117">
        <ele>22.407112121582</ele>
        <time>2011-06-02T13:16:35Z</time>
      </trkpt>
      <trkpt lat="43.43788" lon="6.6514">
        <ele>22.167085647583</ele>
        <time>2011-06-02T13:16:38Z</time>
      </trkpt>
      <trkpt lat="43.43785" lon="6.65162">
        <ele>21.836986541748</ele>
        <time>2011-06-02T13:16:41Z</time>
      </trkpt>
      <trkpt lat="43.43781" lon="6.65203">
        <ele>21.338975906372</ele>
        <time>2011-06-02T13:16:47Z</time>
      </trkpt>
      <trkpt lat="43.4378" lon="6.65209">
        <ele>21.270792007446</ele>
        <time>2011-06-02T13:16:48Z</time>
      </trkpt>
      <trkpt lat="43.43773" lon="6.6523">
        <ele>21.077863693237</ele>
        <time>2011-06-02T13:16:52Z</time>
      </trkpt>
      <trkpt lat="43.43768" lon="6.6524">
        <ele>20.983377456665</ele>
        <time>2011-06-02T13:16:54Z</time>
      </trkpt>
      <trkpt lat="43.43763" lon="6.65252">
        <ele>20.816139221191</ele>
        <time>2011-06-02T13:16:56Z</time>
      </trkpt>
      <trkpt lat="43.43758" lon="6.65271">
        <ele>20.646766662598</ele>
        <time>2011-06-02T13:16:59Z</time>
      </trkpt>
      <trkpt lat="43.43751" lon="6.65306">
        <ele>20.314315795898</ele>
        <time>2011-06-02T13:17:04Z</time>
      </trkpt>
      <trkpt lat="43.43748" lon="6.65342">
        <ele>20</ele>
        <time>2011-06-02T13:17:09Z</time>
      </trkpt>
      <trkpt lat="43.43735" lon="6.65403">
        <ele>20</ele>
        <time>2011-06-02T13:17:17Z</time>
      </trkpt>
      <trkpt lat="43.43719" lon="6.65468">
        <ele>19.612295150757</ele>
        <time>2011-06-02T13:17:26Z</time>
      </trkpt>
      <trkpt lat="43.43711" lon="6.65511">
        <ele>19.404550552368</ele>
        <time>2011-06-02T13:17:32Z</time>
      </trkpt>
      <trkpt lat="43.437" lon="6.65538">
        <ele>19.325935363769</ele>
        <time>2011-06-02T13:17:36Z</time>
      </trkpt>
      <trkpt lat="43.43684" lon="6.65564">
        <ele>19.180437088013</ele>
        <time>2011-06-02T13:17:41Z</time>
      </trkpt>
      <trkpt lat="43.43663" lon="6.65613">
        <ele>19.048278808594</ele>
        <time>2011-06-02T13:17:50Z</time>
      </trkpt>
      <trkpt lat="43.43645" lon="6.65657">
        <ele>19.254272460938</ele>
        <time>2011-06-02T13:17:59Z</time>
      </trkpt>
      <trkpt lat="43.43628" lon="6.65703">
        <ele>19.256898880005</ele>
        <time>2011-06-02T13:18:09Z</time>
      </trkpt>
      <trkpt lat="43.43617" lon="6.65726">
        <ele>19.169134140015</ele>
        <time>2011-06-02T13:18:16Z</time>
      </trkpt>
      <trkpt lat="43.436" lon="6.6575">
        <ele>18.999580383301</ele>
        <time>2011-06-02T13:18:23Z</time>
      </trkpt>
      <trkpt lat="43.43582" lon="6.65775">
        <ele>19.057977676392</ele>
        <time>2011-06-02T13:18:28Z</time>
      </trkpt>
      <trkpt lat="43.43565" lon="6.65798">
        <ele>19.734577178955</ele>
        <time>2011-06-02T13:18:33Z</time>
      </trkpt>
      <trkpt lat="43.43543" lon="6.65818">
        <ele>20.220697402954</ele>
        <time>2011-06-02T13:18:40Z</time>
      </trkpt>
      <trkpt lat="43.43526" lon="6.65833">
        <ele>20.383813858032</ele>
        <time>2011-06-02T13:18:46Z</time>
      </trkpt>
      <trkpt lat="43.43513" lon="6.65845">
        <ele>20.549278259277</ele>
        <time>2011-06-02T13:18:52Z</time>
      </trkpt>
      <trkpt lat="43.43502" lon="6.65857">
        <ele>20.669441223144</ele>
        <time>2011-06-02T13:18:58Z</time>
      </trkpt>
      <trkpt lat="43.43487" lon="6.65878">
        <ele>20.97301864624</ele>
        <time>2011-06-02T13:19:04Z</time>
      </trkpt>
      <trkpt lat="43.4347" lon="6.65897">
        <ele>21.033990859985</ele>
        <time>2011-06-02T13:19:10Z</time>
      </trkpt>
      <trkpt lat="43.43465" lon="6.65901">
        <ele>20.99666595459</ele>
        <time>2011-06-02T13:19:13Z</time>
      </trkpt>
      <trkpt lat="43.43457" lon="6.65901">
        <ele>21.181749343872</ele>
        <time>2011-06-02T13:19:17Z</time>
      </trkpt>
      <trkpt lat="43.43456" lon="6.65897">
        <ele>21.370178222656</ele>
        <time>2011-06-02T13:19:19Z</time>
      </trkpt>
      <trkpt lat="43.43456" lon="6.65893">
        <ele>21.562196731567</ele>
        <time>2011-06-02T13:19:21Z</time>
      </trkpt>
      <trkpt lat="43.43451" lon="6.65882">
        <ele>22.233503341675</ele>
        <time>2011-06-02T13:19:27Z</time>
      </trkpt>
      <trkpt lat="43.43439" lon="6.6586">
        <ele>23.854879379273</ele>
        <time>2011-06-02T13:19:36Z</time>
      </trkpt>
      <trkpt lat="43.43432" lon="6.65852">
        <ele>24.744878768921</ele>
        <time>2011-06-02T13:19:42Z</time>
      </trkpt>
      <trkpt lat="43.43423" lon="6.65854">
        <ele>25.156072616577</ele>
        <time>2011-06-02T13:19:48Z</time>
      </trkpt>
      <trkpt lat="43.43413" lon="6.6585">
        <ele>25.883646011352</ele>
        <time>2011-06-02T13:19:54Z</time>
      </trkpt>
      <trkpt lat="43.43406" lon="6.65839">
        <ele>26.798608779907</ele>
        <time>2011-06-02T13:20:00Z</time>
      </trkpt>
      <trkpt lat="43.43406" lon="6.65837">
        <ele>26.962629318237</ele>
        <time>2011-06-02T13:20:01Z</time>
      </trkpt>
      <trkpt lat="43.43406" lon="6.65831">
        <ele>27.482666015625</ele>
        <time>2011-06-02T13:20:05Z</time>
      </trkpt>
      <trkpt lat="43.43405" lon="6.65821">
        <ele>28.434814453125</ele>
        <time>2011-06-02T13:20:10Z</time>
      </trkpt>
      <trkpt lat="43.43404" lon="6.65819">
        <ele>28.663696289062</ele>
        <time>2011-06-02T13:20:11Z</time>
      </trkpt>
      <trkpt lat="43.43396" lon="6.65809">
        <ele>29.798950195312</ele>
        <time>2011-06-02T13:20:18Z</time>
      </trkpt>
      <trkpt lat="43.43393" lon="6.65808">
        <ele>30.014099121094</ele>
        <time>2011-06-02T13:20:20Z</time>
      </trkpt>
      <trkpt lat="43.4338" lon="6.65799">
        <ele>31.190551757812</ele>
        <time>2011-06-02T13:20:29Z</time>
      </trkpt>
      <trkpt lat="43.43376" lon="6.65792">
        <ele>31.904663085938</ele>
        <time>2011-06-02T13:20:33Z</time>
      </trkpt>
      <trkpt lat="43.43365" lon="6.65786">
        <ele>32.769836425781</ele>
        <time>2011-06-02T13:20:40Z</time>
      </trkpt>
      <trkpt lat="43.43353" lon="6.65789">
        <ele>32.843078613281</ele>
        <time>2011-06-02T13:20:48Z</time>
      </trkpt>
      <trkpt lat="43.43341" lon="6.65788">
        <ele>33.131469726562</ele>
        <time>2011-06-02T13:20:54Z</time>
      </trkpt>
      <trkpt lat="43.43332" lon="6.6578">
        <ele>34.083614349365</ele>
        <time>2011-06-02T13:21:00Z</time>
      </trkpt>
      <trkpt lat="43.43322" lon="6.6577">
        <ele>34.676502227783</ele>
        <time>2011-06-02T13:21:07Z</time>
      </trkpt>
      <trkpt lat="43.43316" lon="6.65755">
        <ele>35.852600097656</ele>
        <time>2011-06-02T13:21:14Z</time>
      </trkpt>
      <trkpt lat="43.43309" lon="6.65734">
        <ele>37.697299957275</ele>
        <time>2011-06-02T13:21:23Z</time>
      </trkpt>
      <trkpt lat="43.43307" lon="6.65718">
        <ele>39.262557983398</ele>
        <time>2011-06-02T13:21:30Z</time>
      </trkpt>
      <trkpt lat="43.43303" lon="6.65703">
        <ele>40.581935882568</ele>
        <time>2011-06-02T13:21:36Z</time>
      </trkpt>
      <trkpt lat="43.43292" lon="6.65686">
        <ele>42.025096893311</ele>
        <time>2011-06-02T13:21:44Z</time>
      </trkpt>
      <trkpt lat="43.43282" lon="6.65671">
        <ele>43.307483673096</ele>
        <time>2011-06-02T13:21:52Z</time>
      </trkpt>
      <trkpt lat="43.43279" lon="6.65659">
        <ele>44.623332977295</ele>
        <time>2011-06-02T13:21:57Z</time>
      </trkpt>
      <trkpt lat="43.43283" lon="6.65644">
        <ele>46.487277984619</ele>
        <time>2011-06-02T13:22:04Z</time>
      </trkpt>
      <trkpt lat="43.43289" lon="6.65625">
        <ele>48.762542724609</ele>
        <time>2011-06-02T13:22:13Z</time>
      </trkpt>
      <trkpt lat="43.43287" lon="6.65605">
        <ele>51.077892303467</ele>
        <time>2011-06-02T13:22:21Z</time>
      </trkpt>
      <trkpt lat="43.43281" lon="6.65583">
        <ele>53.656955718994</ele>
        <time>2011-06-02T13:22:30Z</time>
      </trkpt>
      <trkpt lat="43.43274" lon="6.65565">
        <ele>55.2060546875</ele>
        <time>2011-06-02T13:22:38Z</time>
      </trkpt>
      <trkpt lat="43.43262" lon="6.65547">
        <ele>56.844356536865</ele>
        <time>2011-06-02T13:22:47Z</time>
      </trkpt>
      <trkpt lat="43.43248" lon="6.65534">
        <ele>58.044513702393</ele>
        <time>2011-06-02T13:22:56Z</time>
      </trkpt>
      <trkpt lat="43.43233" lon="6.6552">
        <ele>58.168792724609</ele>
        <time>2011-06-02T13:23:05Z</time>
      </trkpt>
      <trkpt lat="43.43217" lon="6.65509">
        <ele>58.404403686523</ele>
        <time>2011-06-02T13:23:13Z</time>
      </trkpt>
      <trkpt lat="43.43206" lon="6.65498">
        <ele>59.003524780273</ele>
        <time>2011-06-02T13:23:20Z</time>
      </trkpt>
      <trkpt lat="43.43197" lon="6.65488">
        <ele>59.147674560547</ele>
        <time>2011-06-02T13:23:26Z</time>
      </trkpt>
      <trkpt lat="43.4319" lon="6.65478">
        <ele>59.521034240723</ele>
        <time>2011-06-02T13:23:31Z</time>
      </trkpt>
      <trkpt lat="43.43182" lon="6.65463">
        <ele>60.338890075684</ele>
        <time>2011-06-02T13:23:38Z</time>
      </trkpt>
      <trkpt lat="43.43176" lon="6.65455">
        <ele>60.863395690918</ele>
        <time>2011-06-02T13:23:42Z</time>
      </trkpt>
      <trkpt lat="43.43162" lon="6.6545">
        <ele>60.873683929443</ele>
        <time>2011-06-02T13:23:49Z</time>
      </trkpt>
      <trkpt lat="43.43146" lon="6.65448">
        <ele>59.944362640381</ele>
        <time>2011-06-02T13:23:57Z</time>
      </trkpt>
      <trkpt lat="43.43128" lon="6.65437">
        <ele>60.304901123047</ele>
        <time>2011-06-02T13:24:05Z</time>
      </trkpt>
      <trkpt lat="43.43119" lon="6.65427">
        <ele>61.306968688965</ele>
        <time>2011-06-02T13:24:10Z</time>
      </trkpt>
      <trkpt lat="43.43106" lon="6.65417">
        <ele>62.413318634033</ele>
        <time>2011-06-02T13:24:16Z</time>
      </trkpt>
      <trkpt lat="43.43093" lon="6.65406">
        <ele>63.533557891846</ele>
        <time>2011-06-02T13:24:22Z</time>
      </trkpt>
      <trkpt lat="43.43082" lon="6.65389">
        <ele>65.566177368164</ele>
        <time>2011-06-02T13:24:29Z</time>
      </trkpt>
      <trkpt lat="43.43071" lon="6.65371">
        <ele>67.065505981445</ele>
        <time>2011-06-02T13:24:36Z</time>
      </trkpt>
      <trkpt lat="43.43065" lon="6.65356">
        <ele>68.383010864258</ele>
        <time>2011-06-02T13:24:41Z</time>
      </trkpt>
      <trkpt lat="43.4306" lon="6.65334">
        <ele>70.586364746094</ele>
        <time>2011-06-02T13:24:48Z</time>
      </trkpt>
      <trkpt lat="43.43053" lon="6.65311">
        <ele>73.128486633301</ele>
        <time>2011-06-02T13:24:55Z</time>
      </trkpt>
      <trkpt lat="43.43045" lon="6.65298">
        <ele>74.233528137207</ele>
        <time>2011-06-02T13:25:00Z</time>
      </trkpt>
      <trkpt lat="43.43034" lon="6.65301">
        <ele>72.931686401367</ele>
        <time>2011-06-02T13:25:05Z</time>
      </trkpt>
      <trkpt lat="43.43031" lon="6.65307">
        <ele>71.746170043945</ele>
        <time>2011-06-02T13:25:08Z</time>
      </trkpt>
      <trkpt lat="43.4302" lon="6.65312">
        <ele>70.084632873535</ele>
        <time>2011-06-02T13:25:13Z</time>
      </trkpt>
      <trkpt lat="43.43005" lon="6.65306">
        <ele>69.704002380371</ele>
        <time>2011-06-02T13:25:20Z</time>
      </trkpt>
      <trkpt lat="43.42993" lon="6.65298">
        <ele>69.901374816895</ele>
        <time>2011-06-02T13:25:25Z</time>
      </trkpt>
      <trkpt lat="43.42978" lon="6.65298">
        <ele>68.632141113281</ele>
        <time>2011-06-02T13:25:30Z</time>
      </trkpt>
      <trkpt lat="43.42962" lon="6.65292">
        <ele>68.106880187988</ele>
        <time>2011-06-02T13:25:37Z</time>
      </trkpt>
      <trkpt lat="43.42949" lon="6.65275">
        <ele>68.905120849609</ele>
        <time>2011-06-02T13:25:44Z</time>
      </trkpt>
      <trkpt lat="43.42935" lon="6.65262">
        <ele>68.864562988281</ele>
        <time>2011-06-02T13:25:51Z</time>
      </trkpt>
      <trkpt lat="43.42924" lon="6.65256">
        <ele>68.229843139648</ele>
        <time>2011-06-02T13:25:57Z</time>
      </trkpt>
      <trkpt lat="43.42909" lon="6.65243">
        <ele>68.952903747559</ele>
        <time>2011-06-02T13:26:05Z</time>
      </trkpt>
      <trkpt lat="43.42896" lon="6.65233">
        <ele>70.459419250488</ele>
        <time>2011-06-02T13:26:11Z</time>
      </trkpt>
      <trkpt lat="43.42883" lon="6.65222">
        <ele>71.964752197266</ele>
        <time>2011-06-02T13:26:17Z</time>
      </trkpt>
      <trkpt lat="43.42875" lon="6.65203">
        <ele>74.408576965332</ele>
        <time>2011-06-02T13:26:24Z</time>
      </trkpt>
      <trkpt lat="43.42874" lon="6.65186">
        <ele>76.558456420898</ele>
        <time>2011-06-02T13:26:30Z</time>
      </trkpt>
      <trkpt lat="43.42869" lon="6.65165">
        <ele>79.154800415039</ele>
        <time>2011-06-02T13:26:36Z</time>
      </trkpt>
      <trkpt lat="43.4286" lon="6.65157">
        <ele>80.21337890625</ele>
        <time>2011-06-02T13:26:41Z</time>
      </trkpt>
      <trkpt lat="43.4285" lon="6.65141">
        <ele>82.113098144531</ele>
        <time>2011-06-02T13:26:48Z</time>
      </trkpt>
      <trkpt lat="43.42844" lon="6.65121">
        <ele>84.482025146484</ele>
        <time>2011-06-02T13:26:55Z</time>
      </trkpt>
      <trkpt lat="43.42838" lon="6.651">
        <ele>86.976837158203</ele>
        <time>2011-06-02T13:27:02Z</time>
      </trkpt>
      <trkpt lat="43.42831" lon="6.65073">
        <ele>90.836822509766</ele>
        <time>2011-06-02T13:27:11Z</time>
      </trkpt>
      <trkpt lat="43.42826" lon="6.65054">
        <ele>93.926727294922</ele>
        <time>2011-06-02T13:27:16Z</time>
      </trkpt>
      <trkpt lat="43.42817" lon="6.65051">
        <ele>95.375549316406</ele>
        <time>2011-06-02T13:27:20Z</time>
      </trkpt>
      <trkpt lat="43.42816" lon="6.65052">
        <ele>95.348083496094</ele>
        <time>2011-06-02T13:27:21Z</time>
      </trkpt>
      <trkpt lat="43.42802" lon="6.65068">
        <ele>94.572174072266</ele>
        <time>2011-06-02T13:27:30Z</time>
      </trkpt>
      <trkpt lat="43.42793" lon="6.65065">
        <ele>95.986663818359</ele>
        <time>2011-06-02T13:27:35Z</time>
      </trkpt>
      <trkpt lat="43.42782" lon="6.65052">
        <ele>99.014770507812</ele>
        <time>2011-06-02T13:27:41Z</time>
      </trkpt>
      <trkpt lat="43.4277" lon="6.65038">
        <ele>102.33813476562</ele>
        <time>2011-06-02T13:27:47Z</time>
      </trkpt>
      <trkpt lat="43.42755" lon="6.65031">
        <ele>104.97485351562</ele>
        <time>2011-06-02T13:27:53Z</time>
      </trkpt>
      <trkpt lat="43.42745" lon="6.65035">
        <ele>105.32568359375</ele>
        <time>2011-06-02T13:27:58Z</time>
      </trkpt>
      <trkpt lat="43.4273" lon="6.65042">
        <ele>105.49987792969</ele>
        <time>2011-06-02T13:28:04Z</time>
      </trkpt>
      <trkpt lat="43.42722" lon="6.65054">
        <ele>104.00854492188</ele>
        <time>2011-06-02T13:28:08Z</time>
      </trkpt>
      <trkpt lat="43.42723" lon="6.65073">
        <ele>100.73366546631</ele>
        <time>2011-06-02T13:28:13Z</time>
      </trkpt>
      <trkpt lat="43.42729" lon="6.651">
        <ele>95.940521240234</ele>
        <time>2011-06-02T13:28:20Z</time>
      </trkpt>
      <trkpt lat="43.42728" lon="6.6513">
        <ele>90.624313354492</ele>
        <time>2011-06-02T13:28:27Z</time>
      </trkpt>
      <trkpt lat="43.42724" lon="6.6515">
        <ele>87.039581298828</ele>
        <time>2011-06-02T13:28:32Z</time>
      </trkpt>
      <trkpt lat="43.42713" lon="6.65163">
        <ele>84.355102539062</ele>
        <time>2011-06-02T13:28:37Z</time>
      </trkpt>
      <trkpt lat="43.42696" lon="6.65165">
        <ele>83.449279785156</ele>
        <time>2011-06-02T13:28:43Z</time>
      </trkpt>
      <trkpt lat="43.42679" lon="6.65169">
        <ele>82.338020324707</ele>
        <time>2011-06-02T13:28:49Z</time>
      </trkpt>
      <trkpt lat="43.42659" lon="6.65174">
        <ele>81.661521911621</ele>
        <time>2011-06-02T13:28:56Z</time>
      </trkpt>
      <trkpt lat="43.42646" lon="6.65172">
        <ele>81.583282470703</ele>
        <time>2011-06-02T13:29:01Z</time>
      </trkpt>
      <trkpt lat="43.42631" lon="6.65163">
        <ele>82.335083007812</ele>
        <time>2011-06-02T13:29:07Z</time>
      </trkpt>
      <trkpt lat="43.42611" lon="6.65151">
        <ele>83.975288391113</ele>
        <time>2011-06-02T13:29:14Z</time>
      </trkpt>
      <trkpt lat="43.42594" lon="6.65132">
        <ele>86.075889587402</ele>
        <time>2011-06-02T13:29:21Z</time>
      </trkpt>
      <trkpt lat="43.42576" lon="6.65113">
        <ele>88.517547607422</ele>
        <time>2011-06-02T13:29:29Z</time>
      </trkpt>
      <trkpt lat="43.4256" lon="6.65104">
        <ele>90.431838989258</ele>
        <time>2011-06-02T13:29:35Z</time>
      </trkpt>
      <trkpt lat="43.42547" lon="6.65086">
        <ele>93.078796386719</ele>
        <time>2011-06-02T13:29:42Z</time>
      </trkpt>
      <trkpt lat="43.42533" lon="6.65066">
        <ele>96.083557128906</ele>
        <time>2011-06-02T13:29:49Z</time>
      </trkpt>
      <trkpt lat="43.42522" lon="6.65047">
        <ele>98.346015930176</ele>
        <time>2011-06-02T13:29:56Z</time>
      </trkpt>
      <trkpt lat="43.42514" lon="6.65032">
        <ele>99.562545776367</ele>
        <time>2011-06-02T13:30:01Z</time>
      </trkpt>
      <trkpt lat="43.42508" lon="6.6501">
        <ele>101.08574676514</ele>
        <time>2011-06-02T13:30:08Z</time>
      </trkpt>
      <trkpt lat="43.42501" lon="6.64987">
        <ele>103.28896331787</ele>
        <time>2011-06-02T13:30:15Z</time>
      </trkpt>
      <trkpt lat="43.42496" lon="6.64979">
        <ele>104.59806823731</ele>
        <time>2011-06-02T13:30:18Z</time>
      </trkpt>
      <trkpt lat="43.42486" lon="6.64979">
        <ele>104.58695983887</ele>
        <time>2011-06-02T13:30:22Z</time>
      </trkpt>
      <trkpt lat="43.42477" lon="6.64999">
        <ele>101.37959289551</ele>
        <time>2011-06-02T13:30:29Z</time>
      </trkpt>
      <trkpt lat="43.42464" lon="6.65012">
        <ele>100.81916046143</ele>
        <time>2011-06-02T13:30:35Z</time>
      </trkpt>
      <trkpt lat="43.42447" lon="6.65009">
        <ele>101.2451095581</ele>
        <time>2011-06-02T13:30:41Z</time>
      </trkpt>
      <trkpt lat="43.42427" lon="6.65001">
        <ele>101.84589385986</ele>
        <time>2011-06-02T13:30:48Z</time>
      </trkpt>
      <trkpt lat="43.42411" lon="6.64982">
        <ele>104.67002105713</ele>
        <time>2011-06-02T13:30:56Z</time>
      </trkpt>
      <trkpt lat="43.42401" lon="6.64965">
        <ele>107.36553192139</ele>
        <time>2011-06-02T13:31:02Z</time>
      </trkpt>
      <trkpt lat="43.4239" lon="6.64937">
        <ele>111.71324920654</ele>
        <time>2011-06-02T13:31:11Z</time>
      </trkpt>
      <trkpt lat="43.42383" lon="6.64928">
        <ele>113.44261932373</ele>
        <time>2011-06-02T13:31:15Z</time>
      </trkpt>
      <trkpt lat="43.42376" lon="6.64933">
        <ele>113.13535308838</ele>
        <time>2011-06-02T13:31:19Z</time>
      </trkpt>
      <trkpt lat="43.42372" lon="6.64951">
        <ele>110.6389541626</ele>
        <time>2011-06-02T13:31:25Z</time>
      </trkpt>
      <trkpt lat="43.42365" lon="6.64969">
        <ele>108.46848297119</ele>
        <time>2011-06-02T13:31:31Z</time>
      </trkpt>
      <trkpt lat="43.42356" lon="6.64973">
        <ele>108.17152404785</ele>
        <time>2011-06-02T13:31:36Z</time>
      </trkpt>
      <trkpt lat="43.42349" lon="6.64974">
        <ele>108.38460540772</ele>
        <time>2011-06-02T13:31:41Z</time>
      </trkpt>
      <trkpt lat="43.42337" lon="6.64972">
        <ele>109.23345947266</ele>
        <time>2011-06-02T13:31:49Z</time>
      </trkpt>
      <trkpt lat="43.42326" lon="6.64968">
        <ele>110.26835632324</ele>
        <time>2011-06-02T13:31:56Z</time>
      </trkpt>
      <trkpt lat="43.42316" lon="6.64964">
        <ele>111.43506622315</ele>
        <time>2011-06-02T13:32:02Z</time>
      </trkpt>
      <trkpt lat="43.42302" lon="6.6496">
        <ele>112.59018707275</ele>
        <time>2011-06-02T13:32:09Z</time>
      </trkpt>
      <trkpt lat="43.42288" lon="6.64955">
        <ele>113.83128356934</ele>
        <time>2011-06-02T13:32:16Z</time>
      </trkpt>
      <trkpt lat="43.42271" lon="6.64947">
        <ele>115.63040924072</ele>
        <time>2011-06-02T13:32:23Z</time>
      </trkpt>
      <trkpt lat="43.42255" lon="6.64944">
        <ele>116.50965118408</ele>
        <time>2011-06-02T13:32:29Z</time>
      </trkpt>
      <trkpt lat="43.42244" lon="6.64957">
        <ele>115.02885437012</ele>
        <time>2011-06-02T13:32:36Z</time>
      </trkpt>
      <trkpt lat="43.42233" lon="6.64968">
        <ele>113.37060546875</ele>
        <time>2011-06-02T13:32:42Z</time>
      </trkpt>
      <trkpt lat="43.42221" lon="6.64983">
        <ele>111.33813476562</ele>
        <time>2011-06-02T13:32:48Z</time>
      </trkpt>
      <trkpt lat="43.42207" lon="6.64998">
        <ele>109.25416564941</ele>
        <time>2011-06-02T13:32:54Z</time>
      </trkpt>
      <trkpt lat="43.42196" lon="6.65002">
        <ele>108.46566772461</ele>
        <time>2011-06-02T13:32:58Z</time>
      </trkpt>
      <trkpt lat="43.42185" lon="6.64993">
        <ele>109.26217651367</ele>
        <time>2011-06-02T13:33:03Z</time>
      </trkpt>
      <trkpt lat="43.42183" lon="6.6499">
        <ele>109.59977722168</ele>
        <time>2011-06-02T13:33:04Z</time>
      </trkpt>
      <trkpt lat="43.42169" lon="6.64971">
        <ele>111.47203063965</ele>
        <time>2011-06-02T13:33:11Z</time>
      </trkpt>
      <trkpt lat="43.42156" lon="6.6495">
        <ele>112.9713973999</ele>
        <time>2011-06-02T13:33:18Z</time>
      </trkpt>
      <trkpt lat="43.42143" lon="6.64925">
        <ele>114.62754058838</ele>
        <time>2011-06-02T13:33:25Z</time>
      </trkpt>
      <trkpt lat="43.42135" lon="6.64905">
        <ele>116.3659362793</ele>
        <time>2011-06-02T13:33:31Z</time>
      </trkpt>
      <trkpt lat="43.4213" lon="6.64889">
        <ele>117.62163543701</ele>
        <time>2011-06-02T13:33:35Z</time>
      </trkpt>
      <trkpt lat="43.42114" lon="6.6489">
        <ele>116.00467681885</ele>
        <time>2011-06-02T13:33:40Z</time>
      </trkpt>
      <trkpt lat="43.42095" lon="6.64903">
        <ele>112.55030059815</ele>
        <time>2011-06-02T13:33:47Z</time>
      </trkpt>
      <trkpt lat="43.4208" lon="6.64914">
        <ele>109.72066497803</ele>
        <time>2011-06-02T13:33:52Z</time>
      </trkpt>
      <trkpt lat="43.42069" lon="6.64915">
        <ele>107.31009674072</ele>
        <time>2011-06-02T13:33:56Z</time>
      </trkpt>
      <trkpt lat="43.42055" lon="6.64901">
        <ele>105.81421661377</ele>
        <time>2011-06-02T13:34:02Z</time>
      </trkpt>
      <trkpt lat="43.42038" lon="6.64882">
        <ele>104.13614654541</ele>
        <time>2011-06-02T13:34:08Z</time>
      </trkpt>
      <trkpt lat="43.42023" lon="6.64861">
        <ele>102.70533752441</ele>
        <time>2011-06-02T13:34:15Z</time>
      </trkpt>
      <trkpt lat="43.42006" lon="6.64846">
        <ele>100.27318572998</ele>
        <time>2011-06-02T13:34:21Z</time>
      </trkpt>
      <trkpt lat="43.41987" lon="6.6483">
        <ele>96.435997009277</ele>
        <time>2011-06-02T13:34:28Z</time>
      </trkpt>
      <trkpt lat="43.4198" lon="6.6482">
        <ele>95.045059204102</ele>
        <time>2011-06-02T13:34:32Z</time>
      </trkpt>
      <trkpt lat="43.41962" lon="6.648">
        <ele>91.525650024414</ele>
        <time>2011-06-02T13:34:38Z</time>
      </trkpt>
      <trkpt lat="43.41945" lon="6.64794">
        <ele>87.354782104492</ele>
        <time>2011-06-02T13:34:43Z</time>
      </trkpt>
      <trkpt lat="43.41926" lon="6.64777">
        <ele>83.951148986816</ele>
        <time>2011-06-02T13:34:49Z</time>
      </trkpt>
      <trkpt lat="43.41909" lon="6.64745">
        <ele>82.168029785156</ele>
        <time>2011-06-02T13:34:57Z</time>
      </trkpt>
      <trkpt lat="43.41902" lon="6.64721">
        <ele>81.805046081543</ele>
        <time>2011-06-02T13:35:02Z</time>
      </trkpt>
      <trkpt lat="43.41901" lon="6.64695">
        <ele>82.988754272461</ele>
        <time>2011-06-02T13:35:07Z</time>
      </trkpt>
      <trkpt lat="43.41911" lon="6.64675">
        <ele>87.10432434082</ele>
        <time>2011-06-02T13:35:12Z</time>
      </trkpt>
      <trkpt lat="43.4192" lon="6.6465">
        <ele>91.154098510742</ele>
        <time>2011-06-02T13:35:17Z</time>
      </trkpt>
      <trkpt lat="43.41924" lon="6.64619">
        <ele>94.707153320312</ele>
        <time>2011-06-02T13:35:23Z</time>
      </trkpt>
      <trkpt lat="43.41934" lon="6.64607">
        <ele>97.857215881348</ele>
        <time>2011-06-02T13:35:27Z</time>
      </trkpt>
      <trkpt lat="43.41953" lon="6.64597">
        <ele>102.79657745361</ele>
        <time>2011-06-02T13:35:32Z</time>
      </trkpt>
      <trkpt lat="43.41962" lon="6.64581">
        <ele>106.0888595581</ele>
        <time>2011-06-02T13:35:36Z</time>
      </trkpt>
      <trkpt lat="43.41971" lon="6.64553">
        <ele>110.11162567139</ele>
        <time>2011-06-02T13:35:42Z</time>
      </trkpt>
      <trkpt lat="43.41985" lon="6.64528">
        <ele>114.21657562256</ele>
        <time>2011-06-02T13:35:48Z</time>
      </trkpt>
      <trkpt lat="43.41986" lon="6.64523">
        <ele>114.77326965332</ele>
        <time>2011-06-02T13:35:49Z</time>
      </trkpt>
      <trkpt lat="43.41977" lon="6.64509">
        <ele>114.34652709961</ele>
        <time>2011-06-02T13:35:53Z</time>
      </trkpt>
      <trkpt lat="43.41963" lon="6.64509">
        <ele>112.34262084961</ele>
        <time>2011-06-02T13:35:57Z</time>
      </trkpt>
      <trkpt lat="43.41957" lon="6.64508">
        <ele>111.6227645874</ele>
        <time>2011-06-02T13:35:59Z</time>
      </trkpt>
      <trkpt lat="43.4194" lon="6.6451">
        <ele>108.99897003174</ele>
        <time>2011-06-02T13:36:04Z</time>
      </trkpt>
      <trkpt lat="43.41926" lon="6.64523">
        <ele>105.50298309326</ele>
        <time>2011-06-02T13:36:09Z</time>
      </trkpt>
      <trkpt lat="43.41908" lon="6.64524">
        <ele>102.92110443115</ele>
        <time>2011-06-02T13:36:14Z</time>
      </trkpt>
      <trkpt lat="43.41893" lon="6.6451">
        <ele>103.64119720459</ele>
        <time>2011-06-02T13:36:18Z</time>
      </trkpt>
      <trkpt lat="43.41891" lon="6.64505">
        <ele>104.33559417725</ele>
        <time>2011-06-02T13:36:19Z</time>
      </trkpt>
      <trkpt lat="43.41885" lon="6.64479">
        <ele>108.3447341919</ele>
        <time>2011-06-02T13:36:24Z</time>
      </trkpt>
      <trkpt lat="43.41875" lon="6.64476">
        <ele>108.13693237305</ele>
        <time>2011-06-02T13:36:27Z</time>
      </trkpt>
      <trkpt lat="43.41868" lon="6.64489">
        <ele>105.35870361328</ele>
        <time>2011-06-02T13:36:31Z</time>
      </trkpt>
      <trkpt lat="43.41853" lon="6.64516">
        <ele>99.219940185547</ele>
        <time>2011-06-02T13:36:38Z</time>
      </trkpt>
      <trkpt lat="43.41839" lon="6.64531">
        <ele>94.568717956543</ele>
        <time>2011-06-02T13:36:43Z</time>
      </trkpt>
      <trkpt lat="43.41818" lon="6.64538">
        <ele>90.0791015625</ele>
        <time>2011-06-02T13:36:49Z</time>
      </trkpt>
      <trkpt lat="43.41791" lon="6.64532">
        <ele>87.469718933105</ele>
        <time>2011-06-02T13:36:56Z</time>
      </trkpt>
      <trkpt lat="43.41776" lon="6.6452">
        <ele>87.884994506836</ele>
        <time>2011-06-02T13:37:00Z</time>
      </trkpt>
      <trkpt lat="43.41751" lon="6.64511">
        <ele>86.458015441895</ele>
        <time>2011-06-02T13:37:05Z</time>
      </trkpt>
      <trkpt lat="43.41738" lon="6.64497">
        <ele>88.311668395996</ele>
        <time>2011-06-02T13:37:08Z</time>
      </trkpt>
      <trkpt lat="43.41732" lon="6.64477">
        <ele>91.888450622559</ele>
        <time>2011-06-02T13:37:11Z</time>
      </trkpt>
      <trkpt lat="43.41718" lon="6.64449">
        <ele>95.724723815918</ele>
        <time>2011-06-02T13:37:16Z</time>
      </trkpt>
      <trkpt lat="43.41706" lon="6.64445">
        <ele>94.341163635254</ele>
        <time>2011-06-02T13:37:19Z</time>
      </trkpt>
      <trkpt lat="43.41702" lon="6.64447">
        <ele>93.326629638672</ele>
        <time>2011-06-02T13:37:20Z</time>
      </trkpt>
      <trkpt lat="43.41694" lon="6.64452">
        <ele>91.076431274414</ele>
        <time>2011-06-02T13:37:22Z</time>
      </trkpt>
      <trkpt lat="43.4168" lon="6.64445">
        <ele>89.834243774414</ele>
        <time>2011-06-02T13:37:26Z</time>
      </trkpt>
      <trkpt lat="43.41663" lon="6.64441">
        <ele>87.926109313965</ele>
        <time>2011-06-02T13:37:31Z</time>
      </trkpt>
      <trkpt lat="43.41656" lon="6.64454">
        <ele>85.453353881836</ele>
        <time>2011-06-02T13:37:34Z</time>
      </trkpt>
      <trkpt lat="43.41646" lon="6.64454">
        <ele>84.853904724121</ele>
        <time>2011-06-02T13:37:37Z</time>
      </trkpt>
      <trkpt lat="43.41643" lon="6.64451">
        <ele>84.903861999512</ele>
        <time>2011-06-02T13:37:38Z</time>
      </trkpt>
      <trkpt lat="43.41621" lon="6.64426">
        <ele>85.233016967773</ele>
        <time>2011-06-02T13:37:45Z</time>
      </trkpt>
      <trkpt lat="43.41613" lon="6.6442">
        <ele>84.728034973145</ele>
        <time>2011-06-02T13:37:47Z</time>
      </trkpt>
      <trkpt lat="43.41582" lon="6.64404">
        <ele>82.467750549316</ele>
        <time>2011-06-02T13:37:54Z</time>
      </trkpt>
      <trkpt lat="43.4156" lon="6.64395">
        <ele>85.635276794434</ele>
        <time>2011-06-02T13:37:59Z</time>
      </trkpt>
      <trkpt lat="43.4154" lon="6.64391">
        <ele>87.819145202637</ele>
        <time>2011-06-02T13:38:03Z</time>
      </trkpt>
      <trkpt lat="43.41526" lon="6.64389">
        <ele>89.264274597168</ele>
        <time>2011-06-02T13:38:06Z</time>
      </trkpt>
      <trkpt lat="43.41503" lon="6.64372">
        <ele>91.83332824707</ele>
        <time>2011-06-02T13:38:11Z</time>
      </trkpt>
      <trkpt lat="43.41487" lon="6.64359">
        <ele>93.834671020508</ele>
        <time>2011-06-02T13:38:15Z</time>
      </trkpt>
      <trkpt lat="43.41481" lon="6.64351">
        <ele>94.511306762695</ele>
        <time>2011-06-02T13:38:17Z</time>
      </trkpt>
      <trkpt lat="43.41468" lon="6.64325">
        <ele>95.535781860352</ele>
        <time>2011-06-02T13:38:22Z</time>
      </trkpt>
      <trkpt lat="43.41466" lon="6.64312">
        <ele>96.040901184082</ele>
        <time>2011-06-02T13:38:24Z</time>
      </trkpt>
      <trkpt lat="43.41464" lon="6.64286">
        <ele>96.87353515625</ele>
        <time>2011-06-02T13:38:28Z</time>
      </trkpt>
      <trkpt lat="43.41463" lon="6.64268">
        <ele>97.397422790527</ele>
        <time>2011-06-02T13:38:31Z</time>
      </trkpt>
      <trkpt lat="43.41466" lon="6.64231">
        <ele>98.184730529785</ele>
        <time>2011-06-02T13:38:38Z</time>
      </trkpt>
      <trkpt lat="43.41466" lon="6.64217">
        <ele>98.45751953125</ele>
        <time>2011-06-02T13:38:41Z</time>
      </trkpt>
      <trkpt lat="43.41457" lon="6.6421">
        <ele>98.73974609375</ele>
        <time>2011-06-02T13:38:45Z</time>
      </trkpt>
      <trkpt lat="43.41455" lon="6.64213">
        <ele>98.731979370117</ele>
        <time>2011-06-02T13:38:46Z</time>
      </trkpt>
      <trkpt lat="43.41444" lon="6.64225">
        <ele>98.736663818359</ele>
        <time>2011-06-02T13:38:51Z</time>
      </trkpt>
      <trkpt lat="43.41424" lon="6.64233">
        <ele>99.048851013184</ele>
        <time>2011-06-02T13:38:57Z</time>
      </trkpt>
      <trkpt lat="43.4141" lon="6.64226">
        <ele>99.340538024902</ele>
        <time>2011-06-02T13:39:01Z</time>
      </trkpt>
      <trkpt lat="43.41396" lon="6.64209">
        <ele>99.620750427246</ele>
        <time>2011-06-02T13:39:06Z</time>
      </trkpt>
      <trkpt lat="43.4138" lon="6.64205">
        <ele>99.743408203125</ele>
        <time>2011-06-02T13:39:10Z</time>
      </trkpt>
      <trkpt lat="43.4136" lon="6.6419">
        <ele>99.909896850586</ele>
        <time>2011-06-02T13:39:16Z</time>
      </trkpt>
      <trkpt lat="43.41338" lon="6.64172">
        <ele>99.996421813965</ele>
        <time>2011-06-02T13:39:23Z</time>
      </trkpt>
      <trkpt lat="43.41324" lon="6.64163">
        <ele>100.4274520874</ele>
        <time>2011-06-02T13:39:27Z</time>
      </trkpt>
      <trkpt lat="43.41311" lon="6.64142">
        <ele>100.93586730957</ele>
        <time>2011-06-02T13:39:33Z</time>
      </trkpt>
      <trkpt lat="43.41304" lon="6.64134">
        <ele>101.13001251221</ele>
        <time>2011-06-02T13:39:36Z</time>
      </trkpt>
      <trkpt lat="43.41293" lon="6.64137">
        <ele>101.59024810791</ele>
        <time>2011-06-02T13:39:40Z</time>
      </trkpt>
      <trkpt lat="43.41275" lon="6.64134">
        <ele>102.24908447266</ele>
        <time>2011-06-02T13:39:47Z</time>
      </trkpt>
      <trkpt lat="43.41259" lon="6.64127">
        <ele>102.70206451416</ele>
        <time>2011-06-02T13:39:53Z</time>
      </trkpt>
      <trkpt lat="43.41236" lon="6.6412">
        <ele>105.86061096191</ele>
        <time>2011-06-02T13:40:01Z</time>
      </trkpt>
      <trkpt lat="43.41222" lon="6.64116">
        <ele>108.8345413208</ele>
        <time>2011-06-02T13:40:07Z</time>
      </trkpt>
      <trkpt lat="43.41204" lon="6.6411">
        <ele>112.01752471924</ele>
        <time>2011-06-02T13:40:13Z</time>
      </trkpt>
      <trkpt lat="43.41179" lon="6.64101">
        <ele>115.69843292236</ele>
        <time>2011-06-02T13:40:21Z</time>
      </trkpt>
      <trkpt lat="43.41154" lon="6.64093">
        <ele>118.01502227783</ele>
        <time>2011-06-02T13:40:29Z</time>
      </trkpt>
      <trkpt lat="43.41137" lon="6.6409">
        <ele>119.19513702393</ele>
        <time>2011-06-02T13:40:35Z</time>
      </trkpt>
      <trkpt lat="43.41118" lon="6.64087">
        <ele>120.44220733643</ele>
        <time>2011-06-02T13:40:42Z</time>
      </trkpt>
      <trkpt lat="43.41101" lon="6.64084">
        <ele>121.33362579346</ele>
        <time>2011-06-02T13:40:48Z</time>
      </trkpt>
      <trkpt lat="43.41089" lon="6.64085">
        <ele>122.82887268066</ele>
        <time>2011-06-02T13:40:53Z</time>
      </trkpt>
      <trkpt lat="43.41072" lon="6.64086">
        <ele>125.51519012451</ele>
        <time>2011-06-02T13:40:59Z</time>
      </trkpt>
      <trkpt lat="43.41055" lon="6.64084">
        <ele>127.63635253906</ele>
        <time>2011-06-02T13:41:06Z</time>
      </trkpt>
      <trkpt lat="43.41039" lon="6.6408">
        <ele>130.04959106445</ele>
        <time>2011-06-02T13:41:13Z</time>
      </trkpt>
      <trkpt lat="43.41022" lon="6.64077">
        <ele>132.59226989746</ele>
        <time>2011-06-02T13:41:20Z</time>
      </trkpt>
      <trkpt lat="43.41003" lon="6.64073">
        <ele>135.70857238769</ele>
        <time>2011-06-02T13:41:29Z</time>
      </trkpt>
      <trkpt lat="43.40984" lon="6.64064">
        <ele>136.58238220215</ele>
        <time>2011-06-02T13:41:38Z</time>
      </trkpt>
      <trkpt lat="43.40971" lon="6.64053">
        <ele>136.94271850586</ele>
        <time>2011-06-02T13:41:45Z</time>
      </trkpt>
      <trkpt lat="43.40956" lon="6.64043">
        <ele>137.28453063965</ele>
        <time>2011-06-02T13:41:53Z</time>
      </trkpt>
      <trkpt lat="43.40937" lon="6.64038">
        <ele>137.63807678223</ele>
        <time>2011-06-02T13:42:01Z</time>
      </trkpt>
      <trkpt lat="43.40916" lon="6.64032">
        <ele>138</ele>
        <time>2011-06-02T13:42:10Z</time>
      </trkpt>
      <trkpt lat="43.40901" lon="6.64038">
        <ele>138</ele>
        <time>2011-06-02T13:42:17Z</time>
      </trkpt>
      <trkpt lat="43.40887" lon="6.64046">
        <ele>138</ele>
        <time>2011-06-02T13:42:23Z</time>
      </trkpt>
      <trkpt lat="43.40869" lon="6.64053">
        <ele>138</ele>
        <time>2011-06-02T13:42:31Z</time>
      </trkpt>
      <trkpt lat="43.40854" lon="6.64059">
        <ele>138</ele>
        <time>2011-06-02T13:42:38Z</time>
      </trkpt>
      <trkpt lat="43.40839" lon="6.64062">
        <ele>138</ele>
        <time>2011-06-02T13:42:44Z</time>
      </trkpt>
      <trkpt lat="43.40826" lon="6.64064">
        <ele>138</ele>
        <time>2011-06-02T13:42:50Z</time>
      </trkpt>
      <trkpt lat="43.40809" lon="6.64066">
        <ele>138</ele>
        <time>2011-06-02T13:42:57Z</time>
      </trkpt>
      <trkpt lat="43.40791" lon="6.6407">
        <ele>138</ele>
        <time>2011-06-02T13:43:05Z</time>
      </trkpt>
      <trkpt lat="43.40775" lon="6.64073">
        <ele>138</ele>
        <time>2011-06-02T13:43:12Z</time>
      </trkpt>
      <trkpt lat="43.40763" lon="6.64075">
        <ele>138</ele>
        <time>2011-06-02T13:43:18Z</time>
      </trkpt>
      <trkpt lat="43.40745" lon="6.64071">
        <ele>138.00903320312</ele>
        <time>2011-06-02T13:43:26Z</time>
      </trkpt>
      <trkpt lat="43.40731" lon="6.64061">
        <ele>138.06198120117</ele>
        <time>2011-06-02T13:43:34Z</time>
      </trkpt>
      <trkpt lat="43.40718" lon="6.64038">
        <ele>138.20869445801</ele>
        <time>2011-06-02T13:43:44Z</time>
      </trkpt>
      <trkpt lat="43.40707" lon="6.64018">
        <ele>138.40313720703</ele>
        <time>2011-06-02T13:43:53Z</time>
      </trkpt>
      <trkpt lat="43.40697" lon="6.64001">
        <ele>138.63401794434</ele>
        <time>2011-06-02T13:44:01Z</time>
      </trkpt>
      <trkpt lat="43.40688" lon="6.63983">
        <ele>140.64619445801</ele>
        <time>2011-06-02T13:44:09Z</time>
      </trkpt>
      <trkpt lat="43.40681" lon="6.63976">
        <ele>141.62036132812</ele>
        <time>2011-06-02T13:44:13Z</time>
      </trkpt>
      <trkpt lat="43.40672" lon="6.63982">
        <ele>141.07177734375</ele>
        <time>2011-06-02T13:44:18Z</time>
      </trkpt>
      <trkpt lat="43.40671" lon="6.63984">
        <ele>140.79417419434</ele>
        <time>2011-06-02T13:44:19Z</time>
      </trkpt>
      <trkpt lat="43.40667" lon="6.64007">
        <ele>138.91371154785</ele>
        <time>2011-06-02T13:44:27Z</time>
      </trkpt>
      <trkpt lat="43.40665" lon="6.6402">
        <ele>138.99813842773</ele>
        <time>2011-06-02T13:44:33Z</time>
      </trkpt>
      <trkpt lat="43.40657" lon="6.64032">
        <ele>139.6259765625</ele>
        <time>2011-06-02T13:44:39Z</time>
      </trkpt>
      <trkpt lat="43.40646" lon="6.64038">
        <ele>140.75521850586</ele>
        <time>2011-06-02T13:44:47Z</time>
      </trkpt>
      <trkpt lat="43.40632" lon="6.64039">
        <ele>142.15049743652</ele>
        <time>2011-06-02T13:44:54Z</time>
      </trkpt>
      <trkpt lat="43.4062" lon="6.64039">
        <ele>143.35966491699</ele>
        <time>2011-06-02T13:45:00Z</time>
      </trkpt>
      <trkpt lat="43.40607" lon="6.64037">
        <ele>144.85473632812</ele>
        <time>2011-06-02T13:45:07Z</time>
      </trkpt>
      <trkpt lat="43.40594" lon="6.64035">
        <ele>146.25964355469</ele>
        <time>2011-06-02T13:45:14Z</time>
      </trkpt>
      <trkpt lat="43.40587" lon="6.64032">
        <ele>147.25564575195</ele>
        <time>2011-06-02T13:45:19Z</time>
      </trkpt>
      <trkpt lat="43.40575" lon="6.64033">
        <ele>149.01800537109</ele>
        <time>2011-06-02T13:45:26Z</time>
      </trkpt>
      <trkpt lat="43.40562" lon="6.64031">
        <ele>151.49473571777</ele>
        <time>2011-06-02T13:45:34Z</time>
      </trkpt>
      <trkpt lat="43.40553" lon="6.6403">
        <ele>153.22540283203</ele>
        <time>2011-06-02T13:45:40Z</time>
      </trkpt>
      <trkpt lat="43.40542" lon="6.64029">
        <ele>155.21063232422</ele>
        <time>2011-06-02T13:45:46Z</time>
      </trkpt>
      <trkpt lat="43.40524" lon="6.64029">
        <ele>158.27410888672</ele>
        <time>2011-06-02T13:45:55Z</time>
      </trkpt>
      <trkpt lat="43.40508" lon="6.64033">
        <ele>160.66062927246</ele>
        <time>2011-06-02T13:46:03Z</time>
      </trkpt>
      <trkpt lat="43.4049" lon="6.64038">
        <ele>163.13932800293</ele>
        <time>2011-06-02T13:46:12Z</time>
      </trkpt>
      <trkpt lat="43.40473" lon="6.64039">
        <ele>165.95939636231</ele>
        <time>2011-06-02T13:46:20Z</time>
      </trkpt>
      <trkpt lat="43.40463" lon="6.64041">
        <ele>167.50901794434</ele>
        <time>2011-06-02T13:46:25Z</time>
      </trkpt>
      <trkpt lat="43.40448" lon="6.64042">
        <ele>170.05622863769</ele>
        <time>2011-06-02T13:46:32Z</time>
      </trkpt>
      <trkpt lat="43.40432" lon="6.64042">
        <ele>172.72247314453</ele>
        <time>2011-06-02T13:46:39Z</time>
      </trkpt>
      <trkpt lat="43.40417" lon="6.64045">
        <ele>175.13911437988</ele>
        <time>2011-06-02T13:46:46Z</time>
      </trkpt>
      <trkpt lat="43.40401" lon="6.64048">
        <ele>175.80012512207</ele>
        <time>2011-06-02T13:46:54Z</time>
      </trkpt>
      <trkpt lat="43.40384" lon="6.64046">
        <ele>176.67846679688</ele>
        <time>2011-06-02T13:47:02Z</time>
      </trkpt>
      <trkpt lat="43.40367" lon="6.64042">
        <ele>177.56756591797</ele>
        <time>2011-06-02T13:47:09Z</time>
      </trkpt>
      <trkpt lat="43.40353" lon="6.6404">
        <ele>178.2216796875</ele>
        <time>2011-06-02T13:47:15Z</time>
      </trkpt>
      <trkpt lat="43.40338" lon="6.64048">
        <ele>178.64552307129</ele>
        <time>2011-06-02T13:47:22Z</time>
      </trkpt>
      <trkpt lat="43.40324" lon="6.64053">
        <ele>178.72773742676</ele>
        <time>2011-06-02T13:47:29Z</time>
      </trkpt>
      <trkpt lat="43.40306" lon="6.6405">
        <ele>178.79983520508</ele>
        <time>2011-06-02T13:47:36Z</time>
      </trkpt>
      <trkpt lat="43.40297" lon="6.64046">
        <ele>178.90054321289</ele>
        <time>2011-06-02T13:47:40Z</time>
      </trkpt>
      <trkpt lat="43.40278" lon="6.64044">
        <ele>178.9508972168</ele>
        <time>2011-06-02T13:47:47Z</time>
      </trkpt>
      <trkpt lat="43.40265" lon="6.64052">
        <ele>178.74833679199</ele>
        <time>2011-06-02T13:47:54Z</time>
      </trkpt>
      <trkpt lat="43.40249" lon="6.64056">
        <ele>178.66400146484</ele>
        <time>2011-06-02T13:48:02Z</time>
      </trkpt>
      <trkpt lat="43.40241" lon="6.64056">
        <ele>178.79484558106</ele>
        <time>2011-06-02T13:48:06Z</time>
      </trkpt>
      <trkpt lat="43.40227" lon="6.6405">
        <ele>179.26405334473</ele>
        <time>2011-06-02T13:48:13Z</time>
      </trkpt>
      <trkpt lat="43.40206" lon="6.64041">
        <ele>180.10203552246</ele>
        <time>2011-06-02T13:48:23Z</time>
      </trkpt>
      <trkpt lat="43.40194" lon="6.64032">
        <ele>180.89918518066</ele>
        <time>2011-06-02T13:48:30Z</time>
      </trkpt>
      <trkpt lat="43.40186" lon="6.64036">
        <ele>180.88233947754</ele>
        <time>2011-06-02T13:48:35Z</time>
      </trkpt>
      <trkpt lat="43.40176" lon="6.64046">
        <ele>180.44711303711</ele>
        <time>2011-06-02T13:48:41Z</time>
      </trkpt>
      <trkpt lat="43.40166" lon="6.64061">
        <ele>179.65773010254</ele>
        <time>2011-06-02T13:48:48Z</time>
      </trkpt>
      <trkpt lat="43.40156" lon="6.64072">
        <ele>178.93560791016</ele>
        <time>2011-06-02T13:48:55Z</time>
      </trkpt>
      <trkpt lat="43.40143" lon="6.64077">
        <ele>178.68649291992</ele>
        <time>2011-06-02T13:49:02Z</time>
      </trkpt>
      <trkpt lat="43.40128" lon="6.64083">
        <ele>178.02267456055</ele>
        <time>2011-06-02T13:49:10Z</time>
      </trkpt>
      <trkpt lat="43.40116" lon="6.6409">
        <ele>178.03176879883</ele>
        <time>2011-06-02T13:49:17Z</time>
      </trkpt>
      <trkpt lat="43.40102" lon="6.64095">
        <ele>178.03167724609</ele>
        <time>2011-06-02T13:49:24Z</time>
      </trkpt>
      <trkpt lat="43.40092" lon="6.64099">
        <ele>178.01995849609</ele>
        <time>2011-06-02T13:49:30Z</time>
      </trkpt>
      <trkpt lat="43.40077" lon="6.6411">
        <ele>177.7297668457</ele>
        <time>2011-06-02T13:49:39Z</time>
      </trkpt>
      <trkpt lat="43.40065" lon="6.64121">
        <ele>177.2041015625</ele>
        <time>2011-06-02T13:49:46Z</time>
      </trkpt>
      <trkpt lat="43.40056" lon="6.64138">
        <ele>176.91078186035</ele>
        <time>2011-06-02T13:49:53Z</time>
      </trkpt>
      <trkpt lat="43.40048" lon="6.64157">
        <ele>176.67250061035</ele>
        <time>2011-06-02T13:50:00Z</time>
      </trkpt>
      <trkpt lat="43.40046" lon="6.64176">
        <ele>177.31422424316</ele>
        <time>2011-06-02T13:50:07Z</time>
      </trkpt>
      <trkpt lat="43.4004" lon="6.64186">
        <ele>177.80174255371</ele>
        <time>2011-06-02T13:50:13Z</time>
      </trkpt>
      <trkpt lat="43.40038" lon="6.64187">
        <ele>177.79830932617</ele>
        <time>2011-06-02T13:50:21Z</time>
      </trkpt>
      <trkpt lat="43.40036" lon="6.64187">
        <ele>177.78114318848</ele>
        <time>2011-06-02T13:50:35Z</time>
      </trkpt>
      <trkpt lat="43.40034" lon="6.64188">
        <ele>177.72277832031</ele>
        <time>2011-06-02T13:51:02Z</time>
      </trkpt>
      <trkpt lat="43.40034" lon="6.64188">
        <ele>177.72621154785</ele>
        <time>2011-06-02T13:51:03Z</time>
      </trkpt>
      <trkpt lat="43.40034" lon="6.64187">
        <ele>177.71247863769</ele>
        <time>2011-06-02T13:51:21Z</time>
      </trkpt>
      <trkpt lat="43.40033" lon="6.64187">
        <ele>177.64381408691</ele>
        <time>2011-06-02T13:51:37Z</time>
      </trkpt>
      <trkpt lat="43.40034" lon="6.64183">
        <ele>177.35885620117</ele>
        <time>2011-06-02T13:52:31Z</time>
      </trkpt>
      <trkpt lat="43.4003" lon="6.64187">
        <ele>177.52708435059</ele>
        <time>2011-06-02T13:53:07Z</time>
      </trkpt>
      <trkpt lat="43.40031" lon="6.64188">
        <ele>177.68157958984</ele>
        <time>2011-06-02T13:53:33Z</time>
      </trkpt>
      <trkpt lat="43.40031" lon="6.64188">
        <ele>177.68157958984</ele>
        <time>2011-06-02T13:53:34Z</time>
      </trkpt>
      <trkpt lat="43.40038" lon="6.64187">
        <ele>177.79830932617</ele>
        <time>2011-06-02T13:54:20Z</time>
      </trkpt>
      <trkpt lat="43.40037" lon="6.64186">
        <ele>177.74681091309</ele>
        <time>2011-06-02T13:55:23Z</time>
      </trkpt>
      <trkpt lat="43.40034" lon="6.64188">
        <ele>177.72621154785</ele>
        <time>2011-06-02T13:57:18Z</time>
      </trkpt>
      <trkpt lat="43.40033" lon="6.64189">
        <ele>177.81204223633</ele>
        <time>2011-06-02T13:57:19Z</time>
      </trkpt>
      <trkpt lat="43.40033" lon="6.64191">
        <ele>177.93220520019</ele>
        <time>2011-06-02T13:57:20Z</time>
      </trkpt>
      <trkpt lat="43.4002" lon="6.64201">
        <ele>178.18969726562</ele>
        <time>2011-06-02T13:57:25Z</time>
      </trkpt>
      <trkpt lat="43.40006" lon="6.64207">
        <ele>178.09700012207</ele>
        <time>2011-06-02T13:57:28Z</time>
      </trkpt>
      <trkpt lat="43.39988" lon="6.64211">
        <ele>176.88108825684</ele>
        <time>2011-06-02T13:57:31Z</time>
      </trkpt>
      <trkpt lat="43.39982" lon="6.64213">
        <ele>176.32463073731</ele>
        <time>2011-06-02T13:57:32Z</time>
      </trkpt>
      <trkpt lat="43.39961" lon="6.64216">
        <ele>174.29110717773</ele>
        <time>2011-06-02T13:57:35Z</time>
      </trkpt>
      <trkpt lat="43.39932" lon="6.64213">
        <ele>170.77713012695</ele>
        <time>2011-06-02T13:57:39Z</time>
      </trkpt>
      <trkpt lat="43.39904" lon="6.64216">
        <ele>168.21401977539</ele>
        <time>2011-06-02T13:57:43Z</time>
      </trkpt>
      <trkpt lat="43.39867" lon="6.64249">
        <ele>167.58000183106</ele>
        <time>2011-06-02T13:57:49Z</time>
      </trkpt>
      <trkpt lat="43.39859" lon="6.64265">
        <ele>171.97773742676</ele>
        <time>2011-06-02T13:57:51Z</time>
      </trkpt>
      <trkpt lat="43.39852" lon="6.64297">
        <ele>182.67314147949</ele>
        <time>2011-06-02T13:57:55Z</time>
      </trkpt>
      <trkpt lat="43.39845" lon="6.64304">
        <ele>184.47607421875</ele>
        <time>2011-06-02T13:57:58Z</time>
      </trkpt>
      <trkpt lat="43.39839" lon="6.64305">
        <ele>184.28176879883</ele>
        <time>2011-06-02T13:58:00Z</time>
      </trkpt>
      <trkpt lat="43.3982" lon="6.64308">
        <ele>184.59999084473</ele>
        <time>2011-06-02T13:58:08Z</time>
      </trkpt>
      <trkpt lat="43.39809" lon="6.64308">
        <ele>184.73291015625</ele>
        <time>2011-06-02T13:58:14Z</time>
      </trkpt>
      <trkpt lat="43.39794" lon="6.64309">
        <ele>184.68969726562</ele>
        <time>2011-06-02T13:58:21Z</time>
      </trkpt>
      <trkpt lat="43.3979" lon="6.64307">
        <ele>184.08485412598</ele>
        <time>2011-06-02T13:58:23Z</time>
      </trkpt>
      <trkpt lat="43.39784" lon="6.64308">
        <ele>184.26078796387</ele>
        <time>2011-06-02T13:58:27Z</time>
      </trkpt>
      <trkpt lat="43.39781" lon="6.64309">
        <ele>184.7195892334</ele>
        <time>2011-06-02T13:58:29Z</time>
      </trkpt>
      <trkpt lat="43.39773" lon="6.6431">
        <ele>184.81576538086</ele>
        <time>2011-06-02T13:58:34Z</time>
      </trkpt>
      <trkpt lat="43.39764" lon="6.64312">
        <ele>185.6960144043</ele>
        <time>2011-06-02T13:58:39Z</time>
      </trkpt>
      <trkpt lat="43.39761" lon="6.64313">
        <ele>186.16813659668</ele>
        <time>2011-06-02T13:58:41Z</time>
      </trkpt>
      <trkpt lat="43.39743" lon="6.64319">
        <ele>186.43309020996</ele>
        <time>2011-06-02T13:58:50Z</time>
      </trkpt>
      <trkpt lat="43.39727" lon="6.64326">
        <ele>184.52835083008</ele>
        <time>2011-06-02T13:58:58Z</time>
      </trkpt>
      <trkpt lat="43.39709" lon="6.6433">
        <ele>180.86010742188</ele>
        <time>2011-06-02T13:59:05Z</time>
      </trkpt>
      <trkpt lat="43.39691" lon="6.64335">
        <ele>177.35179138184</ele>
        <time>2011-06-02T13:59:12Z</time>
      </trkpt>
      <trkpt lat="43.39674" lon="6.64346">
        <ele>176.41519165039</ele>
        <time>2011-06-02T13:59:19Z</time>
      </trkpt>
      <trkpt lat="43.39658" lon="6.64357">
        <ele>175.29550170898</ele>
        <time>2011-06-02T13:59:26Z</time>
      </trkpt>
      <trkpt lat="43.39632" lon="6.6437">
        <ele>172.11416625977</ele>
        <time>2011-06-02T13:59:35Z</time>
      </trkpt>
      <trkpt lat="43.3961" lon="6.64381">
        <ele>169.5128326416</ele>
        <time>2011-06-02T13:59:41Z</time>
      </trkpt>
      <trkpt lat="43.39593" lon="6.6439">
        <ele>168.15727233887</ele>
        <time>2011-06-02T13:59:47Z</time>
      </trkpt>
      <trkpt lat="43.39575" lon="6.64398">
        <ele>166.07939147949</ele>
        <time>2011-06-02T13:59:53Z</time>
      </trkpt>
      <trkpt lat="43.39552" lon="6.64411">
        <ele>164.71315002441</ele>
        <time>2011-06-02T14:00:00Z</time>
      </trkpt>
      <trkpt lat="43.39534" lon="6.64423">
        <ele>163.26684570312</ele>
        <time>2011-06-02T14:00:06Z</time>
      </trkpt>
      <trkpt lat="43.39518" lon="6.6444">
        <ele>164.93505859375</ele>
        <time>2011-06-02T14:00:12Z</time>
      </trkpt>
      <trkpt lat="43.39507" lon="6.64465">
        <ele>171.44303894043</ele>
        <time>2011-06-02T14:00:17Z</time>
      </trkpt>
      <trkpt lat="43.39495" lon="6.64498">
        <ele>182.50230407715</ele>
        <time>2011-06-02T14:00:23Z</time>
      </trkpt>
      <trkpt lat="43.39493" lon="6.64504">
        <ele>183.33628845215</ele>
        <time>2011-06-02T14:00:24Z</time>
      </trkpt>
      <trkpt lat="43.39484" lon="6.64522">
        <ele>183.56916809082</ele>
        <time>2011-06-02T14:00:27Z</time>
      </trkpt>
      <trkpt lat="43.39476" lon="6.64535">
        <ele>183.55572509766</ele>
        <time>2011-06-02T14:00:29Z</time>
      </trkpt>
      <trkpt lat="43.3946" lon="6.64561">
        <ele>184.02085876465</ele>
        <time>2011-06-02T14:00:33Z</time>
      </trkpt>
      <trkpt lat="43.39432" lon="6.64585">
        <ele>183.35122680664</ele>
        <time>2011-06-02T14:00:38Z</time>
      </trkpt>
      <trkpt lat="43.39421" lon="6.64593">
        <ele>181.85015869141</ele>
        <time>2011-06-02T14:00:40Z</time>
      </trkpt>
      <trkpt lat="43.3938" lon="6.64606">
        <ele>181.99002075195</ele>
        <time>2011-06-02T14:00:48Z</time>
      </trkpt>
      <trkpt lat="43.3937" lon="6.64608">
        <ele>182.16455078125</ele>
        <time>2011-06-02T14:00:50Z</time>
      </trkpt>
      <trkpt lat="43.39349" lon="6.64618">
        <ele>182.34422302246</ele>
        <time>2011-06-02T14:00:56Z</time>
      </trkpt>
      <trkpt lat="43.39337" lon="6.64612">
        <ele>183.13330078125</ele>
        <time>2011-06-02T14:01:01Z</time>
      </trkpt>
      <trkpt lat="43.39335" lon="6.64606">
        <ele>183.60192871094</ele>
        <time>2011-06-02T14:01:03Z</time>
      </trkpt>
      <trkpt lat="43.39322" lon="6.64587">
        <ele>186.23556518555</ele>
        <time>2011-06-02T14:01:08Z</time>
      </trkpt>
      <trkpt lat="43.39307" lon="6.64581">
        <ele>187.43397521973</ele>
        <time>2011-06-02T14:01:11Z</time>
      </trkpt>
      <trkpt lat="43.39278" lon="6.64576">
        <ele>188.1120300293</ele>
        <time>2011-06-02T14:01:15Z</time>
      </trkpt>
      <trkpt lat="43.3927" lon="6.64575">
        <ele>188.67283630371</ele>
        <time>2011-06-02T14:01:16Z</time>
      </trkpt>
      <trkpt lat="43.3924" lon="6.64585">
        <ele>194.15405273438</ele>
        <time>2011-06-02T14:01:20Z</time>
      </trkpt>
      <trkpt lat="43.39194" lon="6.646">
        <ele>187.86845397949</ele>
        <time>2011-06-02T14:01:26Z</time>
      </trkpt>
      <trkpt lat="43.39178" lon="6.64605">
        <ele>186.45416259766</ele>
        <time>2011-06-02T14:01:28Z</time>
      </trkpt>
      <trkpt lat="43.39141" lon="6.64607">
        <ele>173.03442382812</ele>
        <time>2011-06-02T14:01:32Z</time>
      </trkpt>
      <trkpt lat="43.39118" lon="6.64604">
        <ele>160.85188293457</ele>
        <time>2011-06-02T14:01:35Z</time>
      </trkpt>
      <trkpt lat="43.39088" lon="6.6461">
        <ele>148.59375</ele>
        <time>2011-06-02T14:01:39Z</time>
      </trkpt>
      <trkpt lat="43.39046" lon="6.6462">
        <ele>136.10784912109</ele>
        <time>2011-06-02T14:01:44Z</time>
      </trkpt>
      <trkpt lat="43.39022" lon="6.64636">
        <ele>132.21743774414</ele>
        <time>2011-06-02T14:01:48Z</time>
      </trkpt>
      <trkpt lat="43.38995" lon="6.64672">
        <ele>133.04951477051</ele>
        <time>2011-06-02T14:01:53Z</time>
      </trkpt>
      <trkpt lat="43.38967" lon="6.64694">
        <ele>135.82695007324</ele>
        <time>2011-06-02T14:01:57Z</time>
      </trkpt>
      <trkpt lat="43.38934" lon="6.64711">
        <ele>136.44087219238</ele>
        <time>2011-06-02T14:02:01Z</time>
      </trkpt>
      <trkpt lat="43.38896" lon="6.64733">
        <ele>139.80590820312</ele>
        <time>2011-06-02T14:02:06Z</time>
      </trkpt>
      <trkpt lat="43.38881" lon="6.64743">
        <ele>141.82287597656</ele>
        <time>2011-06-02T14:02:08Z</time>
      </trkpt>
      <trkpt lat="43.38853" lon="6.64746">
        <ele>139.87055969238</ele>
        <time>2011-06-02T14:02:12Z</time>
      </trkpt>
      <trkpt lat="43.38839" lon="6.64741">
        <ele>136.42935180664</ele>
        <time>2011-06-02T14:02:14Z</time>
      </trkpt>
      <trkpt lat="43.38809" lon="6.64737">
        <ele>129.04078674316</ele>
        <time>2011-06-02T14:02:18Z</time>
      </trkpt>
      <trkpt lat="43.38797" lon="6.64739">
        <ele>126.42912292481</ele>
        <time>2011-06-02T14:02:20Z</time>
      </trkpt>
      <trkpt lat="43.38786" lon="6.64738">
        <ele>123.71230316162</ele>
        <time>2011-06-02T14:02:22Z</time>
      </trkpt>
      <trkpt lat="43.38771" lon="6.64748">
        <ele>122.65776062012</ele>
        <time>2011-06-02T14:02:26Z</time>
      </trkpt>
      <trkpt lat="43.38765" lon="6.6477">
        <ele>126.19243621826</ele>
        <time>2011-06-02T14:02:29Z</time>
      </trkpt>
      <trkpt lat="43.38761" lon="6.64797">
        <ele>130.83683776856</ele>
        <time>2011-06-02T14:02:32Z</time>
      </trkpt>
      <trkpt lat="43.38745" lon="6.64834">
        <ele>133.63526916504</ele>
        <time>2011-06-02T14:02:37Z</time>
      </trkpt>
      <trkpt lat="43.38732" lon="6.64841">
        <ele>131.26417541504</ele>
        <time>2011-06-02T14:02:39Z</time>
      </trkpt>
      <trkpt lat="43.38699" lon="6.64851">
        <ele>123.68224334717</ele>
        <time>2011-06-02T14:02:43Z</time>
      </trkpt>
      <trkpt lat="43.38675" lon="6.64854">
        <ele>117.09334564209</ele>
        <time>2011-06-02T14:02:46Z</time>
      </trkpt>
      <trkpt lat="43.38636" lon="6.64871">
        <ele>106.19717407227</ele>
        <time>2011-06-02T14:02:51Z</time>
      </trkpt>
      <trkpt lat="43.38611" lon="6.64888">
        <ele>98.811920166016</ele>
        <time>2011-06-02T14:02:55Z</time>
      </trkpt>
      <trkpt lat="43.38592" lon="6.64904">
        <ele>93.232948303223</ele>
        <time>2011-06-02T14:02:59Z</time>
      </trkpt>
      <trkpt lat="43.38584" lon="6.64925">
        <ele>91.307609558105</ele>
        <time>2011-06-02T14:03:03Z</time>
      </trkpt>
      <trkpt lat="43.38585" lon="6.64951">
        <ele>91.738349914551</ele>
        <time>2011-06-02T14:03:06Z</time>
      </trkpt>
      <trkpt lat="43.38585" lon="6.64994">
        <ele>91.584037780762</ele>
        <time>2011-06-02T14:03:10Z</time>
      </trkpt>
      <trkpt lat="43.38585" lon="6.65046">
        <ele>90.076377868652</ele>
        <time>2011-06-02T14:03:15Z</time>
      </trkpt>
      <trkpt lat="43.38576" lon="6.6508">
        <ele>85.521141052246</ele>
        <time>2011-06-02T14:03:19Z</time>
      </trkpt>
      <trkpt lat="43.38565" lon="6.6509">
        <ele>81.240463256836</ele>
        <time>2011-06-02T14:03:21Z</time>
      </trkpt>
      <trkpt lat="43.38555" lon="6.65098">
        <ele>77.661262512207</ele>
        <time>2011-06-02T14:03:23Z</time>
      </trkpt>
      <trkpt lat="43.38547" lon="6.65107">
        <ele>74.931243896484</ele>
        <time>2011-06-02T14:03:25Z</time>
      </trkpt>
      <trkpt lat="43.3854" lon="6.65119">
        <ele>72.377334594727</ele>
        <time>2011-06-02T14:03:27Z</time>
      </trkpt>
      <trkpt lat="43.38529" lon="6.65143">
        <ele>68.59838104248</ele>
        <time>2011-06-02T14:03:30Z</time>
      </trkpt>
      <trkpt lat="43.38505" lon="6.65175">
        <ele>60.284832000732</ele>
        <time>2011-06-02T14:03:35Z</time>
      </trkpt>
      <trkpt lat="43.385" lon="6.6518">
        <ele>58.499919891357</ele>
        <time>2011-06-02T14:03:36Z</time>
      </trkpt>
      <trkpt lat="43.38488" lon="6.65214">
        <ele>56.093418121338</ele>
        <time>2011-06-02T14:03:40Z</time>
      </trkpt>
      <trkpt lat="43.38487" lon="6.6525">
        <ele>54.755386352539</ele>
        <time>2011-06-02T14:03:44Z</time>
      </trkpt>
      <trkpt lat="43.3848" lon="6.65289">
        <ele>52.668514251709</ele>
        <time>2011-06-02T14:03:49Z</time>
      </trkpt>
      <trkpt lat="43.38479" lon="6.65303">
        <ele>52.098339080811</ele>
        <time>2011-06-02T14:03:51Z</time>
      </trkpt>
      <trkpt lat="43.38479" lon="6.65344">
        <ele>50.622787475586</ele>
        <time>2011-06-02T14:03:56Z</time>
      </trkpt>
      <trkpt lat="43.38488" lon="6.65367">
        <ele>50.101566314697</ele>
        <time>2011-06-02T14:04:00Z</time>
      </trkpt>
      <trkpt lat="43.38503" lon="6.65384">
        <ele>49.984157562256</ele>
        <time>2011-06-02T14:04:03Z</time>
      </trkpt>
      <trkpt lat="43.38508" lon="6.654">
        <ele>49.780799865723</ele>
        <time>2011-06-02T14:04:07Z</time>
      </trkpt>
      <trkpt lat="43.38504" lon="6.65397">
        <ele>49.476219177246</ele>
        <time>2011-06-02T14:04:10Z</time>
      </trkpt>
      <trkpt lat="43.38503" lon="6.65394">
        <ele>49.380512237549</ele>
        <time>2011-06-02T14:04:11Z</time>
      </trkpt>
      <trkpt lat="43.38482" lon="6.65376">
        <ele>49.652778625488</ele>
        <time>2011-06-02T14:04:18Z</time>
      </trkpt>
      <trkpt lat="43.38469" lon="6.65355">
        <ele>49.949161529541</ele>
        <time>2011-06-02T14:04:23Z</time>
      </trkpt>
      <trkpt lat="43.38456" lon="6.65317">
        <ele>50.244892120361</ele>
        <time>2011-06-02T14:04:28Z</time>
      </trkpt>
      <trkpt lat="43.38449" lon="6.65285">
        <ele>50.450302124023</ele>
        <time>2011-06-02T14:04:32Z</time>
      </trkpt>
      <trkpt lat="43.38442" lon="6.65262">
        <ele>50.284664154053</ele>
        <time>2011-06-02T14:04:35Z</time>
      </trkpt>
      <trkpt lat="43.38432" lon="6.65228">
        <ele>50.088665008545</ele>
        <time>2011-06-02T14:04:40Z</time>
      </trkpt>
      <trkpt lat="43.38432" lon="6.6522">
        <ele>50.278942108154</ele>
        <time>2011-06-02T14:04:41Z</time>
      </trkpt>
      <trkpt lat="43.38433" lon="6.65205">
        <ele>50.731159210205</ele>
        <time>2011-06-02T14:04:43Z</time>
      </trkpt>
      <trkpt lat="43.38425" lon="6.65153">
        <ele>50.849979400635</ele>
        <time>2011-06-02T14:04:49Z</time>
      </trkpt>
      <trkpt lat="43.38423" lon="6.65105">
        <ele>50.605827331543</ele>
        <time>2011-06-02T14:04:54Z</time>
      </trkpt>
      <trkpt lat="43.38414" lon="6.65069">
        <ele>51.007431030273</ele>
        <time>2011-06-02T14:04:58Z</time>
      </trkpt>
      <trkpt lat="43.38408" lon="6.65052">
        <ele>52.833717346191</ele>
        <time>2011-06-02T14:05:00Z</time>
      </trkpt>
      <trkpt lat="43.38387" lon="6.65005">
        <ele>57.117275238037</ele>
        <time>2011-06-02T14:05:06Z</time>
      </trkpt>
      <trkpt lat="43.38371" lon="6.6498">
        <ele>58.895614624023</ele>
        <time>2011-06-02T14:05:10Z</time>
      </trkpt>
      <trkpt lat="43.38362" lon="6.64947">
        <ele>58.301597595215</ele>
        <time>2011-06-02T14:05:14Z</time>
      </trkpt>
      <trkpt lat="43.38361" lon="6.64928">
        <ele>57.324066162109</ele>
        <time>2011-06-02T14:05:16Z</time>
      </trkpt>
      <trkpt lat="43.38343" lon="6.64907">
        <ele>57.250732421875</ele>
        <time>2011-06-02T14:05:20Z</time>
      </trkpt>
      <trkpt lat="43.3833" lon="6.649">
        <ele>58.678741455078</ele>
        <time>2011-06-02T14:05:23Z</time>
      </trkpt>
      <trkpt lat="43.38324" lon="6.64889">
        <ele>59.987571716309</ele>
        <time>2011-06-02T14:05:25Z</time>
      </trkpt>
      <trkpt lat="43.38319" lon="6.64854">
        <ele>59.26965713501</ele>
        <time>2011-06-02T14:05:32Z</time>
      </trkpt>
      <trkpt lat="43.38313" lon="6.64833">
        <ele>58.850391387939</ele>
        <time>2011-06-02T14:05:36Z</time>
      </trkpt>
      <trkpt lat="43.38312" lon="6.64821">
        <ele>59.134651184082</ele>
        <time>2011-06-02T14:05:42Z</time>
      </trkpt>
      <trkpt lat="43.38312" lon="6.64818">
        <ele>59.150802612305</ele>
        <time>2011-06-02T14:05:43Z</time>
      </trkpt>
      <trkpt lat="43.38308" lon="6.64812">
        <ele>59.80500793457</ele>
        <time>2011-06-02T14:05:48Z</time>
      </trkpt>
      <trkpt lat="43.38298" lon="6.64809">
        <ele>61.21125793457</ele>
        <time>2011-06-02T14:05:56Z</time>
      </trkpt>
      <trkpt lat="43.38295" lon="6.64806">
        <ele>61.610904693604</ele>
        <time>2011-06-02T14:05:59Z</time>
      </trkpt>
      <trkpt lat="43.38288" lon="6.64804">
        <ele>62.416965484619</ele>
        <time>2011-06-02T14:06:07Z</time>
      </trkpt>
      <trkpt lat="43.38284" lon="6.64802">
        <ele>62.849208831787</ele>
        <time>2011-06-02T14:06:13Z</time>
      </trkpt>
      <trkpt lat="43.3828" lon="6.64797">
        <ele>63.051944732666</ele>
        <time>2011-06-02T14:06:19Z</time>
      </trkpt>
      <trkpt lat="43.38276" lon="6.6479">
        <ele>63.071983337402</ele>
        <time>2011-06-02T14:06:25Z</time>
      </trkpt>
      <trkpt lat="43.38275" lon="6.64789">
        <ele>63.083473205566</ele>
        <time>2011-06-02T14:06:26Z</time>
      </trkpt>
      <trkpt lat="43.38261" lon="6.64779">
        <ele>63.510608673096</ele>
        <time>2011-06-02T14:06:34Z</time>
      </trkpt>
      <trkpt lat="43.3824" lon="6.64771">
        <ele>64.765594482422</ele>
        <time>2011-06-02T14:06:42Z</time>
      </trkpt>
      <trkpt lat="43.38223" lon="6.64768">
        <ele>66.529907226562</ele>
        <time>2011-06-02T14:06:49Z</time>
      </trkpt>
      <trkpt lat="43.38207" lon="6.64766">
        <ele>68.091461181641</ele>
        <time>2011-06-02T14:06:56Z</time>
      </trkpt>
      <trkpt lat="43.38192" lon="6.64763">
        <ele>69.373413085938</ele>
        <time>2011-06-02T14:07:04Z</time>
      </trkpt>
      <trkpt lat="43.38187" lon="6.64763">
        <ele>69.964385986328</ele>
        <time>2011-06-02T14:07:09Z</time>
      </trkpt>
      <trkpt lat="43.38181" lon="6.64764">
        <ele>70.828735351562</ele>
        <time>2011-06-02T14:07:16Z</time>
      </trkpt>
      <trkpt lat="43.38175" lon="6.64763">
        <ele>71.353660583496</ele>
        <time>2011-06-02T14:07:25Z</time>
      </trkpt>
      <trkpt lat="43.38172" lon="6.64761">
        <ele>71.406478881836</ele>
        <time>2011-06-02T14:07:31Z</time>
      </trkpt>
      <trkpt lat="43.38168" lon="6.64759">
        <ele>71.604751586914</ele>
        <time>2011-06-02T14:07:39Z</time>
      </trkpt>
      <trkpt lat="43.3816" lon="6.64758">
        <ele>72.493423461914</ele>
        <time>2011-06-02T14:07:47Z</time>
      </trkpt>
      <trkpt lat="43.38158" lon="6.64757">
        <ele>72.574127197266</ele>
        <time>2011-06-02T14:07:48Z</time>
      </trkpt>
      <trkpt lat="43.38146" lon="6.64752">
        <ele>73.621200561523</ele>
        <time>2011-06-02T14:07:58Z</time>
      </trkpt>
      <trkpt lat="43.38137" lon="6.64748">
        <ele>74.65682220459</ele>
        <time>2011-06-02T14:08:08Z</time>
      </trkpt>
      <trkpt lat="43.38131" lon="6.64747">
        <ele>75.523895263672</ele>
        <time>2011-06-02T14:08:16Z</time>
      </trkpt>
      <trkpt lat="43.38126" lon="6.64746">
        <ele>76.223579406738</ele>
        <time>2011-06-02T14:08:22Z</time>
      </trkpt>
      <trkpt lat="43.3812" lon="6.64747">
        <ele>77.178733825684</ele>
        <time>2011-06-02T14:08:28Z</time>
      </trkpt>
      <trkpt lat="43.38117" lon="6.64748">
        <ele>77.671287536621</ele>
        <time>2011-06-02T14:08:32Z</time>
      </trkpt>
      <trkpt lat="43.38102" lon="6.64747">
        <ele>80.078895568848</ele>
        <time>2011-06-02T14:08:40Z</time>
      </trkpt>
      <trkpt lat="43.38092" lon="6.64731">
        <ele>81.090919494629</ele>
        <time>2011-06-02T14:08:46Z</time>
      </trkpt>
      <trkpt lat="43.38085" lon="6.64706">
        <ele>81.202239990234</ele>
        <time>2011-06-02T14:08:52Z</time>
      </trkpt>
      <trkpt lat="43.38088" lon="6.6468">
        <ele>79.880958557129</ele>
        <time>2011-06-02T14:08:57Z</time>
      </trkpt>
      <trkpt lat="43.38095" lon="6.64654">
        <ele>78.352249145508</ele>
        <time>2011-06-02T14:09:02Z</time>
      </trkpt>
      <trkpt lat="43.38102" lon="6.64628">
        <ele>77.39038848877</ele>
        <time>2011-06-02T14:09:07Z</time>
      </trkpt>
      <trkpt lat="43.38105" lon="6.64598">
        <ele>76.848823547363</ele>
        <time>2011-06-02T14:09:13Z</time>
      </trkpt>
      <trkpt lat="43.38098" lon="6.64576">
        <ele>77.236717224121</ele>
        <time>2011-06-02T14:09:18Z</time>
      </trkpt>
      <trkpt lat="43.381" lon="6.64563">
        <ele>77.340591430664</ele>
        <time>2011-06-02T14:09:22Z</time>
      </trkpt>
      <trkpt lat="43.38105" lon="6.64538">
        <ele>77.512794494629</ele>
        <time>2011-06-02T14:09:29Z</time>
      </trkpt>
      <trkpt lat="43.38104" lon="6.6451">
        <ele>78.07462310791</ele>
        <time>2011-06-02T14:09:36Z</time>
      </trkpt>
      <trkpt lat="43.381" lon="6.64497">
        <ele>78.441444396973</ele>
        <time>2011-06-02T14:09:39Z</time>
      </trkpt>
      <trkpt lat="43.38087" lon="6.64489">
        <ele>78.99488067627</ele>
        <time>2011-06-02T14:09:44Z</time>
      </trkpt>
      <trkpt lat="43.38076" lon="6.64483">
        <ele>79.266296386719</ele>
        <time>2011-06-02T14:09:48Z</time>
      </trkpt>
      <trkpt lat="43.38054" lon="6.64478">
        <ele>79.525413513184</ele>
        <time>2011-06-02T14:09:55Z</time>
      </trkpt>
      <trkpt lat="43.38032" lon="6.64482">
        <ele>79.702331542969</ele>
        <time>2011-06-02T14:10:01Z</time>
      </trkpt>
      <trkpt lat="43.38004" lon="6.64489">
        <ele>79.955337524414</ele>
        <time>2011-06-02T14:10:09Z</time>
      </trkpt>
      <trkpt lat="43.37983" lon="6.64487">
        <ele>80</ele>
        <time>2011-06-02T14:10:16Z</time>
      </trkpt>
      <trkpt lat="43.3796" lon="6.6448">
        <ele>80</ele>
        <time>2011-06-02T14:10:23Z</time>
      </trkpt>
      <trkpt lat="43.37938" lon="6.64481">
        <ele>80</ele>
        <time>2011-06-02T14:10:30Z</time>
      </trkpt>
      <trkpt lat="43.37909" lon="6.64476">
        <ele>80.013954162598</ele>
        <time>2011-06-02T14:10:38Z</time>
      </trkpt>
      <trkpt lat="43.3788" lon="6.64476">
        <ele>80.071746826172</ele>
        <time>2011-06-02T14:10:45Z</time>
      </trkpt>
      <trkpt lat="43.3786" lon="6.64475">
        <ele>80.145652770996</ele>
        <time>2011-06-02T14:10:49Z</time>
      </trkpt>
      <trkpt lat="43.37852" lon="6.64476">
        <ele>80.122604370117</ele>
        <time>2011-06-02T14:10:51Z</time>
      </trkpt>
      <trkpt lat="43.37839" lon="6.6448">
        <ele>79.978988647461</ele>
        <time>2011-06-02T14:10:55Z</time>
      </trkpt>
      <trkpt lat="43.37804" lon="6.64503">
        <ele>80.099609375</ele>
        <time>2011-06-02T14:11:07Z</time>
      </trkpt>
      <trkpt lat="43.3778" lon="6.64513">
        <ele>80.89818572998</ele>
        <time>2011-06-02T14:11:15Z</time>
      </trkpt>
      <trkpt lat="43.37766" lon="6.64527">
        <ele>81.091766357422</ele>
        <time>2011-06-02T14:11:21Z</time>
      </trkpt>
      <trkpt lat="43.37756" lon="6.64545">
        <ele>80.895851135254</ele>
        <time>2011-06-02T14:11:28Z</time>
      </trkpt>
      <trkpt lat="43.37749" lon="6.64556">
        <ele>80.667602539062</ele>
        <time>2011-06-02T14:11:33Z</time>
      </trkpt>
      <trkpt lat="43.37742" lon="6.64568">
        <ele>80.457862854004</ele>
        <time>2011-06-02T14:11:40Z</time>
      </trkpt>
      <trkpt lat="43.37734" lon="6.64577">
        <ele>80.221908569336</ele>
        <time>2011-06-02T14:11:46Z</time>
      </trkpt>
      <trkpt lat="43.37721" lon="6.64585">
        <ele>80.125503540039</ele>
        <time>2011-06-02T14:11:53Z</time>
      </trkpt>
      <trkpt lat="43.37703" lon="6.6459">
        <ele>80.56209564209</ele>
        <time>2011-06-02T14:12:01Z</time>
      </trkpt>
      <trkpt lat="43.37685" lon="6.64591">
        <ele>80.626182556152</ele>
        <time>2011-06-02T14:12:09Z</time>
      </trkpt>
      <trkpt lat="43.37672" lon="6.64586">
        <ele>80.265693664551</ele>
        <time>2011-06-02T14:12:16Z</time>
      </trkpt>
      <trkpt lat="43.37659" lon="6.64578">
        <ele>81.305488586426</ele>
        <time>2011-06-02T14:12:23Z</time>
      </trkpt>
      <trkpt lat="43.37646" lon="6.64573">
        <ele>83.283615112305</ele>
        <time>2011-06-02T14:12:27Z</time>
      </trkpt>
      <trkpt lat="43.37616" lon="6.64574">
        <ele>86.554977416992</ele>
        <time>2011-06-02T14:12:34Z</time>
      </trkpt>
      <trkpt lat="43.37582" lon="6.64587">
        <ele>89.205680847168</ele>
        <time>2011-06-02T14:12:42Z</time>
      </trkpt>
      <trkpt lat="43.37574" lon="6.64593">
        <ele>90.197044372559</ele>
        <time>2011-06-02T14:12:44Z</time>
      </trkpt>
      <trkpt lat="43.37566" lon="6.64598">
        <ele>91.148277282715</ele>
        <time>2011-06-02T14:12:46Z</time>
      </trkpt>
      <trkpt lat="43.37559" lon="6.64605">
        <ele>91.979644775391</ele>
        <time>2011-06-02T14:12:48Z</time>
      </trkpt>
      <trkpt lat="43.37526" lon="6.64632">
        <ele>95.264129638672</ele>
        <time>2011-06-02T14:12:57Z</time>
      </trkpt>
      <trkpt lat="43.375" lon="6.64654">
        <ele>97.269477844238</ele>
        <time>2011-06-02T14:13:05Z</time>
      </trkpt>
      <trkpt lat="43.37487" lon="6.64665">
        <ele>97.040672302246</ele>
        <time>2011-06-02T14:13:10Z</time>
      </trkpt>
      <trkpt lat="43.37467" lon="6.64678">
        <ele>97.274322509766</ele>
        <time>2011-06-02T14:13:18Z</time>
      </trkpt>
      <trkpt lat="43.37443" lon="6.64699">
        <ele>97.784729003906</ele>
        <time>2011-06-02T14:13:28Z</time>
      </trkpt>
      <trkpt lat="43.37425" lon="6.64714">
        <ele>98.126907348633</ele>
        <time>2011-06-02T14:13:35Z</time>
      </trkpt>
      <trkpt lat="43.37407" lon="6.64729">
        <ele>98.489685058594</ele>
        <time>2011-06-02T14:13:42Z</time>
      </trkpt>
      <trkpt lat="43.37387" lon="6.64745">
        <ele>98.887939453125</ele>
        <time>2011-06-02T14:13:49Z</time>
      </trkpt>
      <trkpt lat="43.37368" lon="6.6476">
        <ele>100.14566802978</ele>
        <time>2011-06-02T14:13:55Z</time>
      </trkpt>
      <trkpt lat="43.37334" lon="6.6476">
        <ele>100.40203094482</ele>
        <time>2011-06-02T14:14:03Z</time>
      </trkpt>
      <trkpt lat="43.37304" lon="6.64763">
        <ele>101.99633026123</ele>
        <time>2011-06-02T14:14:11Z</time>
      </trkpt>
      <trkpt lat="43.37284" lon="6.64763">
        <ele>102.8123626709</ele>
        <time>2011-06-02T14:14:16Z</time>
      </trkpt>
      <trkpt lat="43.37269" lon="6.64747">
        <ele>101.23983764648</ele>
        <time>2011-06-02T14:14:23Z</time>
      </trkpt>
      <trkpt lat="43.37255" lon="6.64728">
        <ele>101.30049133301</ele>
        <time>2011-06-02T14:14:30Z</time>
      </trkpt>
      <trkpt lat="43.3724" lon="6.64703">
        <ele>102.35175323486</ele>
        <time>2011-06-02T14:14:37Z</time>
      </trkpt>
      <trkpt lat="43.37227" lon="6.64691">
        <ele>104.12183380127</ele>
        <time>2011-06-02T14:14:42Z</time>
      </trkpt>
      <trkpt lat="43.37212" lon="6.64695">
        <ele>106.51547241211</ele>
        <time>2011-06-02T14:14:47Z</time>
      </trkpt>
      <trkpt lat="43.37196" lon="6.64699">
        <ele>109.01077270508</ele>
        <time>2011-06-02T14:14:53Z</time>
      </trkpt>
      <trkpt lat="43.37178" lon="6.64707">
        <ele>111.71196746826</ele>
        <time>2011-06-02T14:14:59Z</time>
      </trkpt>
      <trkpt lat="43.37168" lon="6.64713">
        <ele>113.39228057861</ele>
        <time>2011-06-02T14:15:03Z</time>
      </trkpt>
      <trkpt lat="43.37149" lon="6.64719">
        <ele>114.08470153809</ele>
        <time>2011-06-02T14:15:09Z</time>
      </trkpt>
      <trkpt lat="43.37122" lon="6.64729">
        <ele>114.68314361572</ele>
        <time>2011-06-02T14:15:17Z</time>
      </trkpt>
      <trkpt lat="43.37098" lon="6.64743">
        <ele>114.94685363769</ele>
        <time>2011-06-02T14:15:25Z</time>
      </trkpt>
      <trkpt lat="43.37066" lon="6.64762">
        <ele>115.74351501465</ele>
        <time>2011-06-02T14:15:35Z</time>
      </trkpt>
      <trkpt lat="43.37041" lon="6.64768">
        <ele>116.2661819458</ele>
        <time>2011-06-02T14:15:43Z</time>
      </trkpt>
      <trkpt lat="43.37015" lon="6.64767">
        <ele>116.46283721924</ele>
        <time>2011-06-02T14:15:51Z</time>
      </trkpt>
      <trkpt lat="43.36994" lon="6.64759">
        <ele>116.50532531738</ele>
        <time>2011-06-02T14:15:58Z</time>
      </trkpt>
      <trkpt lat="43.36976" lon="6.64755">
        <ele>117.00568389893</ele>
        <time>2011-06-02T14:16:04Z</time>
      </trkpt>
      <trkpt lat="43.36954" lon="6.64756">
        <ele>117.76180267334</ele>
        <time>2011-06-02T14:16:11Z</time>
      </trkpt>
      <trkpt lat="43.36937" lon="6.64759">
        <ele>118.33695983887</ele>
        <time>2011-06-02T14:16:17Z</time>
      </trkpt>
      <trkpt lat="43.36921" lon="6.64769">
        <ele>118.89163208008</ele>
        <time>2011-06-02T14:16:23Z</time>
      </trkpt>
      <trkpt lat="43.36905" lon="6.64777">
        <ele>119.85210418701</ele>
        <time>2011-06-02T14:16:29Z</time>
      </trkpt>
      <trkpt lat="43.3689" lon="6.64791">
        <ele>120.49026489258</ele>
        <time>2011-06-02T14:16:36Z</time>
      </trkpt>
      <trkpt lat="43.3688" lon="6.64805">
        <ele>120.3469619751</ele>
        <time>2011-06-02T14:16:41Z</time>
      </trkpt>
      <trkpt lat="43.36879" lon="6.64808">
        <ele>120.26166534424</ele>
        <time>2011-06-02T14:16:42Z</time>
      </trkpt>
      <trkpt lat="43.36877" lon="6.64823">
        <ele>119.51289367676</ele>
        <time>2011-06-02T14:16:47Z</time>
      </trkpt>
      <trkpt lat="43.36871" lon="6.6484">
        <ele>119.07693481445</ele>
        <time>2011-06-02T14:16:54Z</time>
      </trkpt>
      <trkpt lat="43.36866" lon="6.64851">
        <ele>119.20682525635</ele>
        <time>2011-06-02T14:16:59Z</time>
      </trkpt>
      <trkpt lat="43.36856" lon="6.64857">
        <ele>119.28178405762</ele>
        <time>2011-06-02T14:17:05Z</time>
      </trkpt>
      <trkpt lat="43.36843" lon="6.64859">
        <ele>119.30581665039</ele>
        <time>2011-06-02T14:17:11Z</time>
      </trkpt>
      <trkpt lat="43.36823" lon="6.64866">
        <ele>119.47338104248</ele>
        <time>2011-06-02T14:17:20Z</time>
      </trkpt>
      <trkpt lat="43.36805" lon="6.64869">
        <ele>119.62253570557</ele>
        <time>2011-06-02T14:17:27Z</time>
      </trkpt>
      <trkpt lat="43.3679" lon="6.64873">
        <ele>119.75077819824</ele>
        <time>2011-06-02T14:17:33Z</time>
      </trkpt>
      <trkpt lat="43.3677" lon="6.64874">
        <ele>119.87883758545</ele>
        <time>2011-06-02T14:17:40Z</time>
      </trkpt>
      <trkpt lat="43.36747" lon="6.64874">
        <ele>120.04154968262</ele>
        <time>2011-06-02T14:17:48Z</time>
      </trkpt>
      <trkpt lat="43.36716" lon="6.64883">
        <ele>120.32571411133</ele>
        <time>2011-06-02T14:17:59Z</time>
      </trkpt>
      <trkpt lat="43.36698" lon="6.64891">
        <ele>120.38817596435</ele>
        <time>2011-06-02T14:18:07Z</time>
      </trkpt>
      <trkpt lat="43.36671" lon="6.64904">
        <ele>120.28992462158</ele>
        <time>2011-06-02T14:18:17Z</time>
      </trkpt>
      <trkpt lat="43.36649" lon="6.64916">
        <ele>120.03367614746</ele>
        <time>2011-06-02T14:18:26Z</time>
      </trkpt>
      <trkpt lat="43.36628" lon="6.64928">
        <ele>120.0657119751</ele>
        <time>2011-06-02T14:18:33Z</time>
      </trkpt>
      <trkpt lat="43.36605" lon="6.64942">
        <ele>120.22395324707</ele>
        <time>2011-06-02T14:18:41Z</time>
      </trkpt>
      <trkpt lat="43.36589" lon="6.64955">
        <ele>120.43103790283</ele>
        <time>2011-06-02T14:18:48Z</time>
      </trkpt>
      <trkpt lat="43.36576" lon="6.64972">
        <ele>122.25108337402</ele>
        <time>2011-06-02T14:18:56Z</time>
      </trkpt>
      <trkpt lat="43.36569" lon="6.64995">
        <ele>124.18444061279</ele>
        <time>2011-06-02T14:19:04Z</time>
      </trkpt>
      <trkpt lat="43.36566" lon="6.65018">
        <ele>126.02226257324</ele>
        <time>2011-06-02T14:19:11Z</time>
      </trkpt>
      <trkpt lat="43.36565" lon="6.65048">
        <ele>127.89875793457</ele>
        <time>2011-06-02T14:19:20Z</time>
      </trkpt>
      <trkpt lat="43.36565" lon="6.65071">
        <ele>129.35316467285</ele>
        <time>2011-06-02T14:19:27Z</time>
      </trkpt>
      <trkpt lat="43.36568" lon="6.65098">
        <ele>130.2014465332</ele>
        <time>2011-06-02T14:19:35Z</time>
      </trkpt>
      <trkpt lat="43.36573" lon="6.65117">
        <ele>130.03744506836</ele>
        <time>2011-06-02T14:19:42Z</time>
      </trkpt>
      <trkpt lat="43.36576" lon="6.65133">
        <ele>129.95182800293</ele>
        <time>2011-06-02T14:19:48Z</time>
      </trkpt>
      <trkpt lat="43.36579" lon="6.6515">
        <ele>130.29861450195</ele>
        <time>2011-06-02T14:19:54Z</time>
      </trkpt>
      <trkpt lat="43.36579" lon="6.6517">
        <ele>131.5225982666</ele>
        <time>2011-06-02T14:20:01Z</time>
      </trkpt>
      <trkpt lat="43.36581" lon="6.65188">
        <ele>132.46090698242</ele>
        <time>2011-06-02T14:20:07Z</time>
      </trkpt>
      <trkpt lat="43.3658" lon="6.65215">
        <ele>135.17805480957</ele>
        <time>2011-06-02T14:20:15Z</time>
      </trkpt>
      <trkpt lat="43.36576" lon="6.65243">
        <ele>138.70185852051</ele>
        <time>2011-06-02T14:20:24Z</time>
      </trkpt>
      <trkpt lat="43.36575" lon="6.65257">
        <ele>140.41543579102</ele>
        <time>2011-06-02T14:20:29Z</time>
      </trkpt>
      <trkpt lat="43.36575" lon="6.65286">
        <ele>143.91874694824</ele>
        <time>2011-06-02T14:20:39Z</time>
      </trkpt>
      <trkpt lat="43.3658" lon="6.65309">
        <ele>144.83430480957</ele>
        <time>2011-06-02T14:20:47Z</time>
      </trkpt>
      <trkpt lat="43.36588" lon="6.65327">
        <ele>144.37908935547</ele>
        <time>2011-06-02T14:20:54Z</time>
      </trkpt>
      <trkpt lat="43.36589" lon="6.65341">
        <ele>145.99926757812</ele>
        <time>2011-06-02T14:20:59Z</time>
      </trkpt>
      <trkpt lat="43.3659" lon="6.65368">
        <ele>149.79191589356</ele>
        <time>2011-06-02T14:21:07Z</time>
      </trkpt>
      <trkpt lat="43.36588" lon="6.65387">
        <ele>152.98713684082</ele>
        <time>2011-06-02T14:21:13Z</time>
      </trkpt>
      <trkpt lat="43.36589" lon="6.65402">
        <ele>155.0696105957</ele>
        <time>2011-06-02T14:21:18Z</time>
      </trkpt>
      <trkpt lat="43.3659" lon="6.65431">
        <ele>157.58483886719</ele>
        <time>2011-06-02T14:21:26Z</time>
      </trkpt>
      <trkpt lat="43.36591" lon="6.65458">
        <ele>159.01278686523</ele>
        <time>2011-06-02T14:21:33Z</time>
      </trkpt>
      <trkpt lat="43.36596" lon="6.65473">
        <ele>158.12615966797</ele>
        <time>2011-06-02T14:21:38Z</time>
      </trkpt>
      <trkpt lat="43.36602" lon="6.65496">
        <ele>156.91432189941</ele>
        <time>2011-06-02T14:21:46Z</time>
      </trkpt>
      <trkpt lat="43.36607" lon="6.65512">
        <ele>154.38668823242</ele>
        <time>2011-06-02T14:21:53Z</time>
      </trkpt>
      <trkpt lat="43.36607" lon="6.65523">
        <ele>153.55966186523</ele>
        <time>2011-06-02T14:21:58Z</time>
      </trkpt>
      <trkpt lat="43.36605" lon="6.65537">
        <ele>152.98570251465</ele>
        <time>2011-06-02T14:22:04Z</time>
      </trkpt>
      <trkpt lat="43.366" lon="6.65562">
        <ele>152.19384765625</ele>
        <time>2011-06-02T14:22:12Z</time>
      </trkpt>
      <trkpt lat="43.36602" lon="6.65581">
        <ele>150.26170349121</ele>
        <time>2011-06-02T14:22:19Z</time>
      </trkpt>
      <trkpt lat="43.36602" lon="6.65581">
        <ele>150.17770385742</ele>
        <time>2011-06-02T14:22:26Z</time>
      </trkpt>
      <trkpt lat="43.36604" lon="6.65588">
        <ele>149.06387329102</ele>
        <time>2011-06-02T14:22:31Z</time>
      </trkpt>
      <trkpt lat="43.36607" lon="6.656">
        <ele>147.32279968262</ele>
        <time>2011-06-02T14:22:36Z</time>
      </trkpt>
      <trkpt lat="43.36616" lon="6.65612">
        <ele>144.72108459473</ele>
        <time>2011-06-02T14:22:42Z</time>
      </trkpt>
      <trkpt lat="43.36623" lon="6.6563">
        <ele>142.50831604004</ele>
        <time>2011-06-02T14:22:49Z</time>
      </trkpt>
      <trkpt lat="43.36628" lon="6.65646">
        <ele>140.99621582031</ele>
        <time>2011-06-02T14:22:55Z</time>
      </trkpt>
      <trkpt lat="43.36633" lon="6.65664">
        <ele>139.71876525879</ele>
        <time>2011-06-02T14:23:02Z</time>
      </trkpt>
      <trkpt lat="43.36644" lon="6.65685">
        <ele>140.01182556152</ele>
        <time>2011-06-02T14:23:10Z</time>
      </trkpt>
      <trkpt lat="43.36657" lon="6.6571">
        <ele>140.35842895508</ele>
        <time>2011-06-02T14:23:19Z</time>
      </trkpt>
      <trkpt lat="43.36667" lon="6.65731">
        <ele>140.35719299316</ele>
        <time>2011-06-02T14:23:27Z</time>
      </trkpt>
      <trkpt lat="43.36674" lon="6.65749">
        <ele>141.32196044922</ele>
        <time>2011-06-02T14:23:34Z</time>
      </trkpt>
      <trkpt lat="43.36673" lon="6.65772">
        <ele>142.61474609375</ele>
        <time>2011-06-02T14:23:42Z</time>
      </trkpt>
      <trkpt lat="43.36667" lon="6.65789">
        <ele>143.37628173828</ele>
        <time>2011-06-02T14:23:49Z</time>
      </trkpt>
      <trkpt lat="43.36659" lon="6.65807">
        <ele>146.15740966797</ele>
        <time>2011-06-02T14:23:57Z</time>
      </trkpt>
      <trkpt lat="43.36654" lon="6.65821">
        <ele>148.59733581543</ele>
        <time>2011-06-02T14:24:03Z</time>
      </trkpt>
      <trkpt lat="43.36648" lon="6.65842">
        <ele>152.04940795898</ele>
        <time>2011-06-02T14:24:10Z</time>
      </trkpt>
      <trkpt lat="43.36649" lon="6.65864">
        <ele>153.98707580566</ele>
        <time>2011-06-02T14:24:17Z</time>
      </trkpt>
      <trkpt lat="43.36658" lon="6.6587">
        <ele>152.00868225098</ele>
        <time>2011-06-02T14:24:22Z</time>
      </trkpt>
      <trkpt lat="43.36668" lon="6.6587">
        <ele>149.52018737793</ele>
        <time>2011-06-02T14:24:27Z</time>
      </trkpt>
      <trkpt lat="43.3668" lon="6.65865">
        <ele>149.48036193848</ele>
        <time>2011-06-02T14:24:34Z</time>
      </trkpt>
      <trkpt lat="43.36698" lon="6.65856">
        <ele>149.24844360352</ele>
        <time>2011-06-02T14:24:43Z</time>
      </trkpt>
      <trkpt lat="43.36702" lon="6.65857">
        <ele>149.45051574707</ele>
        <time>2011-06-02T14:24:45Z</time>
      </trkpt>
      <trkpt lat="43.36708" lon="6.65868">
        <ele>150.59754943848</ele>
        <time>2011-06-02T14:24:51Z</time>
      </trkpt>
      <trkpt lat="43.36716" lon="6.65885">
        <ele>152.37478637695</ele>
        <time>2011-06-02T14:24:59Z</time>
      </trkpt>
      <trkpt lat="43.36721" lon="6.65903">
        <ele>154.13470458984</ele>
        <time>2011-06-02T14:25:07Z</time>
      </trkpt>
      <trkpt lat="43.36728" lon="6.65921">
        <ele>156.14807128906</ele>
        <time>2011-06-02T14:25:15Z</time>
      </trkpt>
      <trkpt lat="43.36731" lon="6.65925">
        <ele>156.98519897461</ele>
        <time>2011-06-02T14:25:18Z</time>
      </trkpt>
      <trkpt lat="43.36731" lon="6.65942">
        <ele>159.77035522461</ele>
        <time>2011-06-02T14:25:25Z</time>
      </trkpt>
      <trkpt lat="43.36732" lon="6.65958">
        <ele>162.5983581543</ele>
        <time>2011-06-02T14:25:32Z</time>
      </trkpt>
      <trkpt lat="43.36736" lon="6.65971">
        <ele>165.01641845703</ele>
        <time>2011-06-02T14:25:38Z</time>
      </trkpt>
      <trkpt lat="43.36739" lon="6.65992">
        <ele>168.84510803223</ele>
        <time>2011-06-02T14:25:46Z</time>
      </trkpt>
      <trkpt lat="43.36742" lon="6.66008">
        <ele>171.38241577148</ele>
        <time>2011-06-02T14:25:52Z</time>
      </trkpt>
      <trkpt lat="43.3675" lon="6.66028">
        <ele>173.98526000977</ele>
        <time>2011-06-02T14:26:00Z</time>
      </trkpt>
      <trkpt lat="43.3675" lon="6.66042">
        <ele>175.53498840332</ele>
        <time>2011-06-02T14:26:06Z</time>
      </trkpt>
      <trkpt lat="43.3675" lon="6.66058">
        <ele>177.21856689453</ele>
        <time>2011-06-02T14:26:12Z</time>
      </trkpt>
      <trkpt lat="43.36749" lon="6.6608">
        <ele>179.65632629394</ele>
        <time>2011-06-02T14:26:20Z</time>
      </trkpt>
      <trkpt lat="43.36749" lon="6.66101">
        <ele>180.0086517334</ele>
        <time>2011-06-02T14:26:28Z</time>
      </trkpt>
      <trkpt lat="43.36754" lon="6.66122">
        <ele>179.85862731934</ele>
        <time>2011-06-02T14:26:36Z</time>
      </trkpt>
      <trkpt lat="43.36756" lon="6.66139">
        <ele>179.81678771973</ele>
        <time>2011-06-02T14:26:43Z</time>
      </trkpt>
      <trkpt lat="43.36755" lon="6.66156">
        <ele>179.8757019043</ele>
        <time>2011-06-02T14:26:49Z</time>
      </trkpt>
      <trkpt lat="43.36751" lon="6.66176">
        <ele>180.08810424805</ele>
        <time>2011-06-02T14:26:56Z</time>
      </trkpt>
      <trkpt lat="43.36747" lon="6.66192">
        <ele>180.46125793457</ele>
        <time>2011-06-02T14:27:02Z</time>
      </trkpt>
      <trkpt lat="43.36739" lon="6.66213">
        <ele>181.19593811035</ele>
        <time>2011-06-02T14:27:10Z</time>
      </trkpt>
      <trkpt lat="43.36729" lon="6.66228">
        <ele>182.01168823242</ele>
        <time>2011-06-02T14:27:16Z</time>
      </trkpt>
      <trkpt lat="43.36713" lon="6.66241">
        <ele>183.39028930664</ele>
        <time>2011-06-02T14:27:23Z</time>
      </trkpt>
      <trkpt lat="43.36696" lon="6.66243">
        <ele>184.66474914551</ele>
        <time>2011-06-02T14:27:29Z</time>
      </trkpt>
      <trkpt lat="43.36682" lon="6.66248">
        <ele>185.84455871582</ele>
        <time>2011-06-02T14:27:34Z</time>
      </trkpt>
      <trkpt lat="43.36673" lon="6.66261">
        <ele>186.77946472168</ele>
        <time>2011-06-02T14:27:39Z</time>
      </trkpt>
      <trkpt lat="43.36658" lon="6.66281">
        <ele>188.94075012207</ele>
        <time>2011-06-02T14:27:44Z</time>
      </trkpt>
      <trkpt lat="43.36656" lon="6.66288">
        <ele>189.45329284668</ele>
        <time>2011-06-02T14:27:45Z</time>
      </trkpt>
      <trkpt lat="43.36656" lon="6.66316">
        <ele>190.32522583008</ele>
        <time>2011-06-02T14:27:49Z</time>
      </trkpt>
      <trkpt lat="43.3665" lon="6.66359">
        <ele>190.38212585449</ele>
        <time>2011-06-02T14:27:54Z</time>
      </trkpt>
      <trkpt lat="43.3665" lon="6.66379">
        <ele>189.23973083496</ele>
        <time>2011-06-02T14:27:56Z</time>
      </trkpt>
      <trkpt lat="43.36656" lon="6.66418">
        <ele>186.64549255371</ele>
        <time>2011-06-02T14:28:00Z</time>
      </trkpt>
      <trkpt lat="43.36656" lon="6.66488">
        <ele>181.19317626953</ele>
        <time>2011-06-02T14:28:07Z</time>
      </trkpt>
      <trkpt lat="43.36653" lon="6.66529">
        <ele>174.55514526367</ele>
        <time>2011-06-02T14:28:11Z</time>
      </trkpt>
      <trkpt lat="43.3666" lon="6.66594">
        <ele>161.0578918457</ele>
        <time>2011-06-02T14:28:18Z</time>
      </trkpt>
      <trkpt lat="43.36654" lon="6.66648">
        <ele>154.37780761719</ele>
        <time>2011-06-02T14:28:23Z</time>
      </trkpt>
      <trkpt lat="43.36641" lon="6.66671">
        <ele>155.47389221191</ele>
        <time>2011-06-02T14:28:26Z</time>
      </trkpt>
      <trkpt lat="43.36628" lon="6.66673">
        <ele>159.58177185059</ele>
        <time>2011-06-02T14:28:29Z</time>
      </trkpt>
      <trkpt lat="43.36593" lon="6.6665">
        <ele>170.10595703125</ele>
        <time>2011-06-02T14:28:36Z</time>
      </trkpt>
      <trkpt lat="43.36563" lon="6.66615">
        <ele>179.52935791016</ele>
        <time>2011-06-02T14:28:42Z</time>
      </trkpt>
      <trkpt lat="43.36523" lon="6.66578">
        <ele>194.06112670898</ele>
        <time>2011-06-02T14:28:49Z</time>
      </trkpt>
      <trkpt lat="43.36517" lon="6.66571">
        <ele>196.91331481934</ele>
        <time>2011-06-02T14:28:50Z</time>
      </trkpt>
      <trkpt lat="43.36499" lon="6.66558">
        <ele>205.2442779541</ele>
        <time>2011-06-02T14:28:53Z</time>
      </trkpt>
      <trkpt lat="43.36496" lon="6.66583">
        <ele>204.34730529785</ele>
        <time>2011-06-02T14:28:57Z</time>
      </trkpt>
      <trkpt lat="43.36498" lon="6.66596">
        <ele>203.40480041504</ele>
        <time>2011-06-02T14:28:59Z</time>
      </trkpt>
      <trkpt lat="43.36497" lon="6.66633">
        <ele>205.03540039062</ele>
        <time>2011-06-02T14:29:04Z</time>
      </trkpt>
      <trkpt lat="43.36497" lon="6.66671">
        <ele>206.71696472168</ele>
        <time>2011-06-02T14:29:09Z</time>
      </trkpt>
      <trkpt lat="43.36502" lon="6.66683">
        <ele>205.54322814941</ele>
        <time>2011-06-02T14:29:11Z</time>
      </trkpt>
      <trkpt lat="43.36505" lon="6.66694">
        <ele>205.13696289062</ele>
        <time>2011-06-02T14:29:13Z</time>
      </trkpt>
      <trkpt lat="43.36507" lon="6.66737">
        <ele>207.51504516602</ele>
        <time>2011-06-02T14:29:22Z</time>
      </trkpt>
      <trkpt lat="43.36509" lon="6.66769">
        <ele>208.99961853027</ele>
        <time>2011-06-02T14:29:29Z</time>
      </trkpt>
      <trkpt lat="43.3652" lon="6.66798">
        <ele>206.8963470459</ele>
        <time>2011-06-02T14:29:37Z</time>
      </trkpt>
      <trkpt lat="43.36527" lon="6.66822">
        <ele>206.28840637207</ele>
        <time>2011-06-02T14:29:44Z</time>
      </trkpt>
      <trkpt lat="43.36536" lon="6.66857">
        <ele>204.63720703125</ele>
        <time>2011-06-02T14:29:53Z</time>
      </trkpt>
      <trkpt lat="43.3654" lon="6.66874">
        <ele>203.68746948242</ele>
        <time>2011-06-02T14:29:58Z</time>
      </trkpt>
      <trkpt lat="43.36549" lon="6.66901">
        <ele>201.86450195312</ele>
        <time>2011-06-02T14:30:06Z</time>
      </trkpt>
      <trkpt lat="43.36559" lon="6.66921">
        <ele>198.87384033203</ele>
        <time>2011-06-02T14:30:13Z</time>
      </trkpt>
      <trkpt lat="43.36563" lon="6.66938">
        <ele>196.46022033691</ele>
        <time>2011-06-02T14:30:18Z</time>
      </trkpt>
      <trkpt lat="43.36563" lon="6.66966">
        <ele>194.22311401367</ele>
        <time>2011-06-02T14:30:25Z</time>
      </trkpt>
      <trkpt lat="43.36558" lon="6.66985">
        <ele>194.48043823242</ele>
        <time>2011-06-02T14:30:29Z</time>
      </trkpt>
      <trkpt lat="43.36543" lon="6.66997">
        <ele>197.95306396484</ele>
        <time>2011-06-02T14:30:33Z</time>
      </trkpt>
      <trkpt lat="43.36507" lon="6.67004">
        <ele>207.45487976074</ele>
        <time>2011-06-02T14:30:39Z</time>
      </trkpt>
      <trkpt lat="43.36483" lon="6.67021">
        <ele>207.16223144531</ele>
        <time>2011-06-02T14:30:43Z</time>
      </trkpt>
      <trkpt lat="43.36459" lon="6.67051">
        <ele>202.85762023926</ele>
        <time>2011-06-02T14:30:49Z</time>
      </trkpt>
      <trkpt lat="43.3644" lon="6.67089">
        <ele>196.83952331543</ele>
        <time>2011-06-02T14:30:55Z</time>
      </trkpt>
      <trkpt lat="43.36427" lon="6.67111">
        <ele>193.48411560059</ele>
        <time>2011-06-02T14:30:59Z</time>
      </trkpt>
      <trkpt lat="43.36411" lon="6.67158">
        <ele>185.67158508301</ele>
        <time>2011-06-02T14:31:04Z</time>
      </trkpt>
      <trkpt lat="43.36398" lon="6.67204">
        <ele>175.8330078125</ele>
        <time>2011-06-02T14:31:08Z</time>
      </trkpt>
      <trkpt lat="43.36377" lon="6.6726">
        <ele>163.77532958984</ele>
        <time>2011-06-02T14:31:13Z</time>
      </trkpt>
      <trkpt lat="43.36362" lon="6.67293">
        <ele>158.11112976074</ele>
        <time>2011-06-02T14:31:17Z</time>
      </trkpt>
      <trkpt lat="43.36357" lon="6.67307">
        <ele>155.9871673584</ele>
        <time>2011-06-02T14:31:19Z</time>
      </trkpt>
      <trkpt lat="43.36343" lon="6.67319">
        <ele>153.85136413574</ele>
        <time>2011-06-02T14:31:24Z</time>
      </trkpt>
      <trkpt lat="43.3633" lon="6.6732">
        <ele>153.15733337402</ele>
        <time>2011-06-02T14:31:28Z</time>
      </trkpt>
      <trkpt lat="43.36327" lon="6.67323">
        <ele>152.65760803223</ele>
        <time>2011-06-02T14:31:29Z</time>
      </trkpt>
      <trkpt lat="43.36309" lon="6.67331">
        <ele>150.45790100098</ele>
        <time>2011-06-02T14:31:35Z</time>
      </trkpt>
      <trkpt lat="43.36287" lon="6.67328">
        <ele>149.08058166504</ele>
        <time>2011-06-02T14:31:39Z</time>
      </trkpt>
      <trkpt lat="43.36242" lon="6.67329">
        <ele>145.130859375</ele>
        <time>2011-06-02T14:31:45Z</time>
      </trkpt>
      <trkpt lat="43.36193" lon="6.6733">
        <ele>138.09233093262</ele>
        <time>2011-06-02T14:31:50Z</time>
      </trkpt>
      <trkpt lat="43.36105" lon="6.67328">
        <ele>130.67303466797</ele>
        <time>2011-06-02T14:31:58Z</time>
      </trkpt>
      <trkpt lat="43.36036" lon="6.6732">
        <ele>125.32355499268</ele>
        <time>2011-06-02T14:32:04Z</time>
      </trkpt>
      <trkpt lat="43.35943" lon="6.67307">
        <ele>120.89032745361</ele>
        <time>2011-06-02T14:32:12Z</time>
      </trkpt>
      <trkpt lat="43.35896" lon="6.67313">
        <ele>120.69357299805</ele>
        <time>2011-06-02T14:32:16Z</time>
      </trkpt>
      <trkpt lat="43.35827" lon="6.67332">
        <ele>120.94709014893</ele>
        <time>2011-06-02T14:32:22Z</time>
      </trkpt>
      <trkpt lat="43.35765" lon="6.67341">
        <ele>118.63614654541</ele>
        <time>2011-06-02T14:32:27Z</time>
      </trkpt>
      <trkpt lat="43.35753" lon="6.67341">
        <ele>118.29995727539</ele>
        <time>2011-06-02T14:32:28Z</time>
      </trkpt>
      <trkpt lat="43.3569" lon="6.67324">
        <ele>121.34317779541</ele>
        <time>2011-06-02T14:32:33Z</time>
      </trkpt>
      <trkpt lat="43.35653" lon="6.6731">
        <ele>124.44634246826</ele>
        <time>2011-06-02T14:32:36Z</time>
      </trkpt>
      <trkpt lat="43.35603" lon="6.67312">
        <ele>125.84149932861</ele>
        <time>2011-06-02T14:32:40Z</time>
      </trkpt>
      <trkpt lat="43.35572" lon="6.67351">
        <ele>120.86959838867</ele>
        <time>2011-06-02T14:32:43Z</time>
      </trkpt>
      <trkpt lat="43.35557" lon="6.67384">
        <ele>115.21979522705</ele>
        <time>2011-06-02T14:32:45Z</time>
      </trkpt>
      <trkpt lat="43.35543" lon="6.67418">
        <ele>109.61662292481</ele>
        <time>2011-06-02T14:32:47Z</time>
      </trkpt>
      <trkpt lat="43.35515" lon="6.67458">
        <ele>101.63604736328</ele>
        <time>2011-06-02T14:32:50Z</time>
      </trkpt>
      <trkpt lat="43.35479" lon="6.67478">
        <ele>96.449310302734</ele>
        <time>2011-06-02T14:32:53Z</time>
      </trkpt>
      <trkpt lat="43.3544" lon="6.67476">
        <ele>94.46363067627</ele>
        <time>2011-06-02T14:32:56Z</time>
      </trkpt>
      <trkpt lat="43.35416" lon="6.67462">
        <ele>95.347640991211</ele>
        <time>2011-06-02T14:32:58Z</time>
      </trkpt>
      <trkpt lat="43.35393" lon="6.67445">
        <ele>95.78099822998</ele>
        <time>2011-06-02T14:33:00Z</time>
      </trkpt>
      <trkpt lat="43.3534" lon="6.6743">
        <ele>92.536392211914</ele>
        <time>2011-06-02T14:33:04Z</time>
      </trkpt>
      <trkpt lat="43.35326" lon="6.67433">
        <ele>91.119789123535</ele>
        <time>2011-06-02T14:33:05Z</time>
      </trkpt>
      <trkpt lat="43.3526" lon="6.67431">
        <ele>87.952033996582</ele>
        <time>2011-06-02T14:33:10Z</time>
      </trkpt>
      <trkpt lat="43.35194" lon="6.674">
        <ele>93.962890625</ele>
        <time>2011-06-02T14:33:15Z</time>
      </trkpt>
      <trkpt lat="43.35154" lon="6.67396">
        <ele>95.122444152832</ele>
        <time>2011-06-02T14:33:18Z</time>
      </trkpt>
      <trkpt lat="43.35129" lon="6.67415">
        <ele>92.160522460938</ele>
        <time>2011-06-02T14:33:20Z</time>
      </trkpt>
      <trkpt lat="43.35119" lon="6.67428">
        <ele>90.073272705078</ele>
        <time>2011-06-02T14:33:21Z</time>
      </trkpt>
      <trkpt lat="43.35077" lon="6.67504">
        <ele>78.303939819336</ele>
        <time>2011-06-02T14:33:26Z</time>
      </trkpt>
      <trkpt lat="43.35054" lon="6.67551">
        <ele>68.376594543457</ele>
        <time>2011-06-02T14:33:29Z</time>
      </trkpt>
      <trkpt lat="43.35026" lon="6.67579">
        <ele>63.048366546631</ele>
        <time>2011-06-02T14:33:32Z</time>
      </trkpt>
      <trkpt lat="43.35002" lon="6.67567">
        <ele>66.476089477539</ele>
        <time>2011-06-02T14:33:34Z</time>
      </trkpt>
      <trkpt lat="43.34963" lon="6.6755">
        <ele>69.391319274902</ele>
        <time>2011-06-02T14:33:37Z</time>
      </trkpt>
      <trkpt lat="43.34924" lon="6.6755">
        <ele>68.343605041504</ele>
        <time>2011-06-02T14:33:40Z</time>
      </trkpt>
      <trkpt lat="43.34899" lon="6.67565">
        <ele>64.582122802734</ele>
        <time>2011-06-02T14:33:42Z</time>
      </trkpt>
      <trkpt lat="43.34851" lon="6.67583">
        <ele>59.133056640625</ele>
        <time>2011-06-02T14:33:46Z</time>
      </trkpt>
      <trkpt lat="43.34816" lon="6.67573">
        <ele>56.81526184082</ele>
        <time>2011-06-02T14:33:49Z</time>
      </trkpt>
      <trkpt lat="43.34805" lon="6.67579">
        <ele>54.919925689697</ele>
        <time>2011-06-02T14:33:50Z</time>
      </trkpt>
      <trkpt lat="43.34782" lon="6.67587">
        <ele>51.233135223389</ele>
        <time>2011-06-02T14:33:52Z</time>
      </trkpt>
      <trkpt lat="43.34748" lon="6.67581">
        <ele>47.844673156738</ele>
        <time>2011-06-02T14:33:55Z</time>
      </trkpt>
      <trkpt lat="43.34736" lon="6.67577">
        <ele>46.569355010986</ele>
        <time>2011-06-02T14:33:56Z</time>
      </trkpt>
      <trkpt lat="43.34686" lon="6.67559">
        <ele>40.130195617676</ele>
        <time>2011-06-02T14:34:01Z</time>
      </trkpt>
      <trkpt lat="43.34662" lon="6.67533">
        <ele>36.15213394165</ele>
        <time>2011-06-02T14:34:05Z</time>
      </trkpt>
      <trkpt lat="43.34657" lon="6.67516">
        <ele>34.85481262207</ele>
        <time>2011-06-02T14:34:07Z</time>
      </trkpt>
      <trkpt lat="43.34643" lon="6.67504">
        <ele>32.460308074951</ele>
        <time>2011-06-02T14:34:10Z</time>
      </trkpt>
      <trkpt lat="43.34632" lon="6.67519">
        <ele>31.241296768189</ele>
        <time>2011-06-02T14:34:12Z</time>
      </trkpt>
      <trkpt lat="43.3463" lon="6.67538">
        <ele>31.555021286011</ele>
        <time>2011-06-02T14:34:14Z</time>
      </trkpt>
      <trkpt lat="43.34631" lon="6.67557">
        <ele>32.389724731445</ele>
        <time>2011-06-02T14:34:16Z</time>
      </trkpt>
      <trkpt lat="43.34626" lon="6.67589">
        <ele>32.37145614624</ele>
        <time>2011-06-02T14:34:19Z</time>
      </trkpt>
      <trkpt lat="43.3463" lon="6.67635">
        <ele>30.304174423218</ele>
        <time>2011-06-02T14:34:23Z</time>
      </trkpt>
      <trkpt lat="43.34641" lon="6.67672">
        <ele>29.16778755188</ele>
        <time>2011-06-02T14:34:26Z</time>
      </trkpt>
      <trkpt lat="43.34646" lon="6.67698">
        <ele>27.873241424561</ele>
        <time>2011-06-02T14:34:28Z</time>
      </trkpt>
      <trkpt lat="43.34642" lon="6.6775">
        <ele>24.111373901367</ele>
        <time>2011-06-02T14:34:32Z</time>
      </trkpt>
      <trkpt lat="43.34625" lon="6.67759">
        <ele>23.122037887573</ele>
        <time>2011-06-02T14:34:34Z</time>
      </trkpt>
      <trkpt lat="43.34615" lon="6.6776">
        <ele>22.740766525269</ele>
        <time>2011-06-02T14:34:35Z</time>
      </trkpt>
      <trkpt lat="43.34561" lon="6.6778">
        <ele>19.942138671875</ele>
        <time>2011-06-02T14:34:40Z</time>
      </trkpt>
      <trkpt lat="43.34524" lon="6.67769">
        <ele>17.98176574707</ele>
        <time>2011-06-02T14:34:44Z</time>
      </trkpt>
      <trkpt lat="43.34511" lon="6.67746">
        <ele>17.71941947937</ele>
        <time>2011-06-02T14:34:46Z</time>
      </trkpt>
      <trkpt lat="43.34502" lon="6.6772">
        <ele>17.519386291504</ele>
        <time>2011-06-02T14:34:48Z</time>
      </trkpt>
      <trkpt lat="43.34493" lon="6.67685">
        <ele>17.091691970825</ele>
        <time>2011-06-02T14:34:51Z</time>
      </trkpt>
      <trkpt lat="43.34469" lon="6.67675">
        <ele>14.609468460083</ele>
        <time>2011-06-02T14:34:55Z</time>
      </trkpt>
      <trkpt lat="43.34456" lon="6.67699">
        <ele>13.25695514679</ele>
        <time>2011-06-02T14:34:58Z</time>
      </trkpt>
      <trkpt lat="43.34452" lon="6.6772">
        <ele>12.883637428284</ele>
        <time>2011-06-02T14:35:00Z</time>
      </trkpt>
      <trkpt lat="43.34441" lon="6.67782">
        <ele>11.576640129089</ele>
        <time>2011-06-02T14:35:05Z</time>
      </trkpt>
      <trkpt lat="43.34438" lon="6.67811">
        <ele>10.874563217163</ele>
        <time>2011-06-02T14:35:07Z</time>
      </trkpt>
      <trkpt lat="43.34438" lon="6.67841">
        <ele>10.655429840088</ele>
        <time>2011-06-02T14:35:09Z</time>
      </trkpt>
      <trkpt lat="43.34451" lon="6.67899">
        <ele>12.737887382507</ele>
        <time>2011-06-02T14:35:13Z</time>
      </trkpt>
      <trkpt lat="43.34472" lon="6.67961">
        <ele>14.845329284668</ele>
        <time>2011-06-02T14:35:18Z</time>
      </trkpt>
      <trkpt lat="43.34483" lon="6.67992">
        <ele>15.89990234375</ele>
        <time>2011-06-02T14:35:21Z</time>
      </trkpt>
      <trkpt lat="43.34484" lon="6.68011">
        <ele>16.180206298828</ele>
        <time>2011-06-02T14:35:25Z</time>
      </trkpt>
      <trkpt lat="43.34466" lon="6.68017">
        <ele>15.240077018738</ele>
        <time>2011-06-02T14:35:28Z</time>
      </trkpt>
      <trkpt lat="43.34453" lon="6.6802">
        <ele>14.550633430481</ele>
        <time>2011-06-02T14:35:30Z</time>
      </trkpt>
      <trkpt lat="43.34442" lon="6.68025">
        <ele>14.009615898132</ele>
        <time>2011-06-02T14:35:32Z</time>
      </trkpt>
      <trkpt lat="43.34423" lon="6.6804">
        <ele>13.3362865448</ele>
        <time>2011-06-02T14:35:35Z</time>
      </trkpt>
      <trkpt lat="43.34405" lon="6.68069">
        <ele>12.125532150269</ele>
        <time>2011-06-02T14:35:39Z</time>
      </trkpt>
      <trkpt lat="43.34387" lon="6.68101">
        <ele>10.35239982605</ele>
        <time>2011-06-02T14:35:43Z</time>
      </trkpt>
      <trkpt lat="43.34364" lon="6.68109">
        <ele>7.598780632019</ele>
        <time>2011-06-02T14:35:47Z</time>
      </trkpt>
      <trkpt lat="43.34357" lon="6.68112">
        <ele>6.7212429046631</ele>
        <time>2011-06-02T14:35:48Z</time>
      </trkpt>
      <trkpt lat="43.34325" lon="6.6814">
        <ele>4.069766998291</ele>
        <time>2011-06-02T14:35:53Z</time>
      </trkpt>
      <trkpt lat="43.34318" lon="6.68146">
        <ele>3.9576482772827</ele>
        <time>2011-06-02T14:35:54Z</time>
      </trkpt>
      <trkpt lat="43.34277" lon="6.68177">
        <ele>2.6127519607544</ele>
        <time>2011-06-02T14:36:00Z</time>
      </trkpt>
      <trkpt lat="43.34264" lon="6.68186">
        <ele>2.2063109874725</ele>
        <time>2011-06-02T14:36:02Z</time>
      </trkpt>
      <trkpt lat="43.34251" lon="6.68198">
        <ele>1.8225766420364</ele>
        <time>2011-06-02T14:36:04Z</time>
      </trkpt>
      <trkpt lat="43.34213" lon="6.68227">
        <ele>1.8036235570908</ele>
        <time>2011-06-02T14:36:10Z</time>
      </trkpt>
      <trkpt lat="43.34189" lon="6.68246">
        <ele>1.5041356086731</ele>
        <time>2011-06-02T14:36:14Z</time>
      </trkpt>
      <trkpt lat="43.34177" lon="6.68248">
        <ele>1.2329273223877</ele>
        <time>2011-06-02T14:36:18Z</time>
      </trkpt>
      <trkpt lat="43.34176" lon="6.68246">
        <ele>1.2111819982529</ele>
        <time>2011-06-02T14:36:19Z</time>
      </trkpt>
      <trkpt lat="43.34167" lon="6.68241">
        <ele>1.0092049837112</ele>
        <time>2011-06-02T14:36:25Z</time>
      </trkpt>
      <trkpt lat="43.34166" lon="6.68239">
        <ele>0.98687744140625</ele>
        <time>2011-06-02T14:36:27Z</time>
      </trkpt>
      <trkpt lat="43.34156" lon="6.68237">
        <ele>0.86785888671875</ele>
        <time>2011-06-02T14:36:31Z</time>
      </trkpt>
      <trkpt lat="43.34154" lon="6.68236">
        <ele>0.844970703125</ele>
        <time>2011-06-02T14:36:32Z</time>
      </trkpt>
      <trkpt lat="43.34147" lon="6.68239">
        <ele>0.76715087890625</ele>
        <time>2011-06-02T14:36:37Z</time>
      </trkpt>
      <trkpt lat="43.34143" lon="6.68239">
        <ele>0.72137451171875</ele>
        <time>2011-06-02T14:36:39Z</time>
      </trkpt>
      <trkpt lat="43.34126" lon="6.68239">
        <ele>0.515380859375</ele>
        <time>2011-06-02T14:36:47Z</time>
      </trkpt>
      <trkpt lat="43.34118" lon="6.68249">
        <ele>0.4146728515625</ele>
        <time>2011-06-02T14:36:53Z</time>
      </trkpt>
      <trkpt lat="43.34112" lon="6.68265">
        <ele>0.40812885761261</ele>
        <time>2011-06-02T14:37:00Z</time>
      </trkpt>
      <trkpt lat="43.34108" lon="6.68277">
        <ele>0.39622360467911</ele>
        <time>2011-06-02T14:37:06Z</time>
      </trkpt>
      <trkpt lat="43.34105" lon="6.68292">
        <ele>0.3910616338253</ele>
        <time>2011-06-02T14:37:12Z</time>
      </trkpt>
      <trkpt lat="43.34096" lon="6.68323">
        <ele>0.27897548675537</ele>
        <time>2011-06-02T14:37:19Z</time>
      </trkpt>
      <trkpt lat="43.34088" lon="6.6834">
        <ele>0.11519204080105</ele>
        <time>2011-06-02T14:37:25Z</time>
      </trkpt>
      <trkpt lat="43.34084" lon="6.68345">
        <ele>0.0061490647494793</ele>
        <time>2011-06-02T14:37:29Z</time>
      </trkpt>
      <trkpt lat="43.34083" lon="6.68346">
        <ele>2.99</ele>
        <time>2011-06-02T14:37:30Z</time>
      </trkpt>
    </trkseg>
  </trk>
</gpx>